<?xml version="1.0" encoding="UTF-8" standalone="no" ?>
<gpx xmlns="http://www.topografix.com/GPX/1/1" xmlns:xsi="http://www.w3.org/2001/XMLSchema-instance" xsi:schemaLocation="http://www.topografix.com/GPX/1/1 http://www.topografix.com/GPX/1/1/gpx.xsd" version="1.1" creator="VisuGPX - https://www.visugpx.com">
  <metadata>
    <name>2018-08-04 Bike ride-Ambérieux-Rancé O v34k</name>
    <desc><![CDATA[2018-08-04 Bike ride-Ambérieux-Rancé O v34k]]></desc>
  </metadata>
  <wpt lat="45.92452" lon="4.73717">
    <ele>174</ele>
    <name><![CDATA[2018-08-04 10:13 (Start)]]></name>
  </wpt>
  <wpt lat="45.92462" lon="4.7371">
    <ele>174</ele>
    <name><![CDATA[2018-08-04 10:13 (End)]]></name>
  </wpt>
  <trk>
    <name><![CDATA[2018-08-04 10:13]]></name>
    <trkseg>
      <trkpt lat="45.92452" lon="4.73717">
        <ele>174</ele>
        <time>2018-08-04T08:13:01.788Z</time>
      </trkpt>
      <trkpt lat="45.92451" lon="4.73705">
        <ele>174</ele>
        <time>2018-08-04T08:13:13Z</time>
      </trkpt>
      <trkpt lat="45.92452" lon="4.73704">
        <ele>174</ele>
        <time>2018-08-04T08:13:14Z</time>
      </trkpt>
      <trkpt lat="45.9246" lon="4.73704">
        <ele>174</ele>
        <time>2018-08-04T08:13:31Z</time>
      </trkpt>
      <trkpt lat="45.92462" lon="4.73703">
        <ele>174</ele>
        <time>2018-08-04T08:13:32Z</time>
      </trkpt>
      <trkpt lat="45.92466" lon="4.73694">
        <ele>174</ele>
        <time>2018-08-04T08:13:37Z</time>
      </trkpt>
      <trkpt lat="45.92466" lon="4.7369">
        <ele>174</ele>
        <time>2018-08-04T08:13:38Z</time>
      </trkpt>
      <trkpt lat="45.92466" lon="4.73678">
        <ele>174</ele>
        <time>2018-08-04T08:13:42Z</time>
      </trkpt>
      <trkpt lat="45.92466" lon="4.73675">
        <ele>174</ele>
        <time>2018-08-04T08:13:43Z</time>
      </trkpt>
      <trkpt lat="45.92467" lon="4.73663">
        <ele>174</ele>
        <time>2018-08-04T08:13:47Z</time>
      </trkpt>
      <trkpt lat="45.92467" lon="4.7366">
        <ele>174</ele>
        <time>2018-08-04T08:13:48Z</time>
      </trkpt>
      <trkpt lat="45.92468" lon="4.73648">
        <ele>174</ele>
        <time>2018-08-04T08:13:52Z</time>
      </trkpt>
      <trkpt lat="45.92469" lon="4.73645">
        <ele>174</ele>
        <time>2018-08-04T08:13:53Z</time>
      </trkpt>
      <trkpt lat="45.92475" lon="4.73638">
        <ele>174</ele>
        <time>2018-08-04T08:13:56Z</time>
      </trkpt>
      <trkpt lat="45.92477" lon="4.73637">
        <ele>174</ele>
        <time>2018-08-04T08:13:57Z</time>
      </trkpt>
      <trkpt lat="45.92482" lon="4.73636">
        <ele>174</ele>
        <time>2018-08-04T08:13:59Z</time>
      </trkpt>
      <trkpt lat="45.92492" lon="4.73636">
        <ele>174</ele>
        <time>2018-08-04T08:14:00Z</time>
      </trkpt>
      <trkpt lat="45.92497" lon="4.73636">
        <ele>174</ele>
        <time>2018-08-04T08:14:01Z</time>
      </trkpt>
      <trkpt lat="45.92502" lon="4.73637">
        <ele>174</ele>
        <time>2018-08-04T08:14:02Z</time>
      </trkpt>
      <trkpt lat="45.92507" lon="4.73639">
        <ele>174</ele>
        <time>2018-08-04T08:14:03Z</time>
      </trkpt>
      <trkpt lat="45.92512" lon="4.73638">
        <ele>174</ele>
        <time>2018-08-04T08:14:04Z</time>
      </trkpt>
      <trkpt lat="45.92516" lon="4.73637">
        <ele>173</ele>
        <time>2018-08-04T08:14:05Z</time>
      </trkpt>
      <trkpt lat="45.92521" lon="4.73638">
        <ele>173</ele>
        <time>2018-08-04T08:14:06Z</time>
      </trkpt>
      <trkpt lat="45.92527" lon="4.73636">
        <ele>173</ele>
        <time>2018-08-04T08:14:07Z</time>
      </trkpt>
      <trkpt lat="45.92531" lon="4.73635">
        <ele>173</ele>
        <time>2018-08-04T08:14:08Z</time>
      </trkpt>
      <trkpt lat="45.92535" lon="4.73632">
        <ele>173</ele>
        <time>2018-08-04T08:14:09Z</time>
      </trkpt>
      <trkpt lat="45.9254" lon="4.73632">
        <ele>173</ele>
        <time>2018-08-04T08:14:10Z</time>
      </trkpt>
      <trkpt lat="45.92545" lon="4.73633">
        <ele>173</ele>
        <time>2018-08-04T08:14:11Z</time>
      </trkpt>
      <trkpt lat="45.92549" lon="4.73633">
        <ele>173</ele>
        <time>2018-08-04T08:14:12Z</time>
      </trkpt>
      <trkpt lat="45.92556" lon="4.7363">
        <ele>173</ele>
        <time>2018-08-04T08:14:14Z</time>
      </trkpt>
      <trkpt lat="45.92561" lon="4.73629">
        <ele>173</ele>
        <time>2018-08-04T08:14:15Z</time>
      </trkpt>
      <trkpt lat="45.92569" lon="4.73626">
        <ele>173</ele>
        <time>2018-08-04T08:14:17Z</time>
      </trkpt>
      <trkpt lat="45.92574" lon="4.73625">
        <ele>173</ele>
        <time>2018-08-04T08:14:18Z</time>
      </trkpt>
      <trkpt lat="45.9258" lon="4.73624">
        <ele>173</ele>
        <time>2018-08-04T08:14:19Z</time>
      </trkpt>
      <trkpt lat="45.92584" lon="4.73625">
        <ele>172</ele>
        <time>2018-08-04T08:14:20Z</time>
      </trkpt>
      <trkpt lat="45.92589" lon="4.73623">
        <ele>173</ele>
        <time>2018-08-04T08:14:21Z</time>
      </trkpt>
      <trkpt lat="45.92593" lon="4.73622">
        <ele>173</ele>
        <time>2018-08-04T08:14:22Z</time>
      </trkpt>
      <trkpt lat="45.92598" lon="4.73623">
        <ele>173</ele>
        <time>2018-08-04T08:14:23Z</time>
      </trkpt>
      <trkpt lat="45.92602" lon="4.73624">
        <ele>173</ele>
        <time>2018-08-04T08:14:24Z</time>
      </trkpt>
      <trkpt lat="45.9261" lon="4.73629">
        <ele>173</ele>
        <time>2018-08-04T08:14:26Z</time>
      </trkpt>
      <trkpt lat="45.92614" lon="4.73632">
        <ele>173</ele>
        <time>2018-08-04T08:14:27Z</time>
      </trkpt>
      <trkpt lat="45.92615" lon="4.73638">
        <ele>173</ele>
        <time>2018-08-04T08:14:28Z</time>
      </trkpt>
      <trkpt lat="45.92621" lon="4.73643">
        <ele>173</ele>
        <time>2018-08-04T08:14:29Z</time>
      </trkpt>
      <trkpt lat="45.92623" lon="4.73649">
        <ele>173</ele>
        <time>2018-08-04T08:14:30Z</time>
      </trkpt>
      <trkpt lat="45.92625" lon="4.73656">
        <ele>173</ele>
        <time>2018-08-04T08:14:31Z</time>
      </trkpt>
      <trkpt lat="45.92629" lon="4.73662">
        <ele>173</ele>
        <time>2018-08-04T08:14:32Z</time>
      </trkpt>
      <trkpt lat="45.92632" lon="4.73666">
        <ele>173</ele>
        <time>2018-08-04T08:14:33Z</time>
      </trkpt>
      <trkpt lat="45.92635" lon="4.73673">
        <ele>173</ele>
        <time>2018-08-04T08:14:34Z</time>
      </trkpt>
      <trkpt lat="45.92639" lon="4.73678">
        <ele>173</ele>
        <time>2018-08-04T08:14:35Z</time>
      </trkpt>
      <trkpt lat="45.92643" lon="4.73684">
        <ele>173</ele>
        <time>2018-08-04T08:14:36Z</time>
      </trkpt>
      <trkpt lat="45.92646" lon="4.73688">
        <ele>173</ele>
        <time>2018-08-04T08:14:37Z</time>
      </trkpt>
      <trkpt lat="45.92653" lon="4.73694">
        <ele>173</ele>
        <time>2018-08-04T08:14:38Z</time>
      </trkpt>
      <trkpt lat="45.92658" lon="4.73698">
        <ele>173</ele>
        <time>2018-08-04T08:14:39Z</time>
      </trkpt>
      <trkpt lat="45.92665" lon="4.737">
        <ele>173</ele>
        <time>2018-08-04T08:14:41Z</time>
      </trkpt>
      <trkpt lat="45.9267" lon="4.73703">
        <ele>174</ele>
        <time>2018-08-04T08:14:42Z</time>
      </trkpt>
      <trkpt lat="45.92675" lon="4.73704">
        <ele>174</ele>
        <time>2018-08-04T08:14:43Z</time>
      </trkpt>
      <trkpt lat="45.9268" lon="4.73706">
        <ele>173</ele>
        <time>2018-08-04T08:14:44Z</time>
      </trkpt>
      <trkpt lat="45.92685" lon="4.73706">
        <ele>173</ele>
        <time>2018-08-04T08:14:45Z</time>
      </trkpt>
      <trkpt lat="45.9269" lon="4.73708">
        <ele>173</ele>
        <time>2018-08-04T08:14:46Z</time>
      </trkpt>
      <trkpt lat="45.92695" lon="4.73709">
        <ele>173</ele>
        <time>2018-08-04T08:14:47Z</time>
      </trkpt>
      <trkpt lat="45.927" lon="4.73709">
        <ele>173</ele>
        <time>2018-08-04T08:14:48Z</time>
      </trkpt>
      <trkpt lat="45.92705" lon="4.7371">
        <ele>173</ele>
        <time>2018-08-04T08:14:49Z</time>
      </trkpt>
      <trkpt lat="45.9271" lon="4.73714">
        <ele>173</ele>
        <time>2018-08-04T08:14:50Z</time>
      </trkpt>
      <trkpt lat="45.92718" lon="4.73717">
        <ele>173</ele>
        <time>2018-08-04T08:14:52Z</time>
      </trkpt>
      <trkpt lat="45.92722" lon="4.73718">
        <ele>173</ele>
        <time>2018-08-04T08:14:53Z</time>
      </trkpt>
      <trkpt lat="45.92727" lon="4.73721">
        <ele>173</ele>
        <time>2018-08-04T08:14:54Z</time>
      </trkpt>
      <trkpt lat="45.92731" lon="4.73722">
        <ele>173</ele>
        <time>2018-08-04T08:14:55Z</time>
      </trkpt>
      <trkpt lat="45.9274" lon="4.73721">
        <ele>173</ele>
        <time>2018-08-04T08:14:57Z</time>
      </trkpt>
      <trkpt lat="45.92746" lon="4.73724">
        <ele>173</ele>
        <time>2018-08-04T08:14:58Z</time>
      </trkpt>
      <trkpt lat="45.92754" lon="4.73728">
        <ele>172</ele>
        <time>2018-08-04T08:15:00Z</time>
      </trkpt>
      <trkpt lat="45.92759" lon="4.7373">
        <ele>172</ele>
        <time>2018-08-04T08:15:01Z</time>
      </trkpt>
      <trkpt lat="45.92767" lon="4.73732">
        <ele>172</ele>
        <time>2018-08-04T08:15:03Z</time>
      </trkpt>
      <trkpt lat="45.92772" lon="4.73733">
        <ele>172</ele>
        <time>2018-08-04T08:15:04Z</time>
      </trkpt>
      <trkpt lat="45.92776" lon="4.73742">
        <ele>172</ele>
        <time>2018-08-04T08:15:08Z</time>
      </trkpt>
      <trkpt lat="45.92777" lon="4.73744">
        <ele>172</ele>
        <time>2018-08-04T08:15:09Z</time>
      </trkpt>
      <trkpt lat="45.92781" lon="4.73753">
        <ele>173</ele>
        <time>2018-08-04T08:15:10Z</time>
      </trkpt>
      <trkpt lat="45.92788" lon="4.73757">
        <ele>173</ele>
        <time>2018-08-04T08:15:11Z</time>
      </trkpt>
      <trkpt lat="45.92795" lon="4.73759">
        <ele>173</ele>
        <time>2018-08-04T08:15:13Z</time>
      </trkpt>
      <trkpt lat="45.92799" lon="4.73763">
        <ele>173</ele>
        <time>2018-08-04T08:15:14Z</time>
      </trkpt>
      <trkpt lat="45.92804" lon="4.73766">
        <ele>173</ele>
        <time>2018-08-04T08:15:15Z</time>
      </trkpt>
      <trkpt lat="45.92809" lon="4.73769">
        <ele>173</ele>
        <time>2018-08-04T08:15:16Z</time>
      </trkpt>
      <trkpt lat="45.92814" lon="4.73772">
        <ele>173</ele>
        <time>2018-08-04T08:15:17Z</time>
      </trkpt>
      <trkpt lat="45.92818" lon="4.73775">
        <ele>173</ele>
        <time>2018-08-04T08:15:18Z</time>
      </trkpt>
      <trkpt lat="45.92824" lon="4.7378">
        <ele>173</ele>
        <time>2018-08-04T08:15:19Z</time>
      </trkpt>
      <trkpt lat="45.92829" lon="4.73785">
        <ele>173</ele>
        <time>2018-08-04T08:15:20Z</time>
      </trkpt>
      <trkpt lat="45.92835" lon="4.73787">
        <ele>173</ele>
        <time>2018-08-04T08:15:21Z</time>
      </trkpt>
      <trkpt lat="45.9284" lon="4.73791">
        <ele>173</ele>
        <time>2018-08-04T08:15:22Z</time>
      </trkpt>
      <trkpt lat="45.92845" lon="4.73794">
        <ele>173</ele>
        <time>2018-08-04T08:15:23Z</time>
      </trkpt>
      <trkpt lat="45.92849" lon="4.738">
        <ele>173</ele>
        <time>2018-08-04T08:15:24Z</time>
      </trkpt>
      <trkpt lat="45.92851" lon="4.73808">
        <ele>173</ele>
        <time>2018-08-04T08:15:25Z</time>
      </trkpt>
      <trkpt lat="45.92851" lon="4.73815">
        <ele>173</ele>
        <time>2018-08-04T08:15:26Z</time>
      </trkpt>
      <trkpt lat="45.92855" lon="4.73822">
        <ele>173</ele>
        <time>2018-08-04T08:15:27Z</time>
      </trkpt>
      <trkpt lat="45.92858" lon="4.7383">
        <ele>173</ele>
        <time>2018-08-04T08:15:28Z</time>
      </trkpt>
      <trkpt lat="45.9286" lon="4.73837">
        <ele>173</ele>
        <time>2018-08-04T08:15:29Z</time>
      </trkpt>
      <trkpt lat="45.92861" lon="4.73843">
        <ele>173</ele>
        <time>2018-08-04T08:15:30Z</time>
      </trkpt>
      <trkpt lat="45.92863" lon="4.73849">
        <ele>173</ele>
        <time>2018-08-04T08:15:31Z</time>
      </trkpt>
      <trkpt lat="45.92866" lon="4.73858">
        <ele>173</ele>
        <time>2018-08-04T08:15:32Z</time>
      </trkpt>
      <trkpt lat="45.92867" lon="4.73864">
        <ele>173</ele>
        <time>2018-08-04T08:15:33Z</time>
      </trkpt>
      <trkpt lat="45.92869" lon="4.7387">
        <ele>173</ele>
        <time>2018-08-04T08:15:34Z</time>
      </trkpt>
      <trkpt lat="45.92871" lon="4.73879">
        <ele>173</ele>
        <time>2018-08-04T08:15:35Z</time>
      </trkpt>
      <trkpt lat="45.9287" lon="4.73884">
        <ele>173</ele>
        <time>2018-08-04T08:15:36Z</time>
      </trkpt>
      <trkpt lat="45.9287" lon="4.73891">
        <ele>173</ele>
        <time>2018-08-04T08:15:37Z</time>
      </trkpt>
      <trkpt lat="45.92872" lon="4.73897">
        <ele>173</ele>
        <time>2018-08-04T08:15:38Z</time>
      </trkpt>
      <trkpt lat="45.92873" lon="4.73906">
        <ele>173</ele>
        <time>2018-08-04T08:15:39Z</time>
      </trkpt>
      <trkpt lat="45.92874" lon="4.73913">
        <ele>173</ele>
        <time>2018-08-04T08:15:40Z</time>
      </trkpt>
      <trkpt lat="45.92875" lon="4.7392">
        <ele>173</ele>
        <time>2018-08-04T08:15:41Z</time>
      </trkpt>
      <trkpt lat="45.92875" lon="4.73927">
        <ele>172</ele>
        <time>2018-08-04T08:15:42Z</time>
      </trkpt>
      <trkpt lat="45.92875" lon="4.73934">
        <ele>172</ele>
        <time>2018-08-04T08:15:43Z</time>
      </trkpt>
      <trkpt lat="45.92876" lon="4.73941">
        <ele>172</ele>
        <time>2018-08-04T08:15:44Z</time>
      </trkpt>
      <trkpt lat="45.92876" lon="4.73948">
        <ele>172</ele>
        <time>2018-08-04T08:15:45Z</time>
      </trkpt>
      <trkpt lat="45.92876" lon="4.73956">
        <ele>172</ele>
        <time>2018-08-04T08:15:46Z</time>
      </trkpt>
      <trkpt lat="45.92877" lon="4.73962">
        <ele>172</ele>
        <time>2018-08-04T08:15:47Z</time>
      </trkpt>
      <trkpt lat="45.92877" lon="4.73968">
        <ele>172</ele>
        <time>2018-08-04T08:15:48Z</time>
      </trkpt>
      <trkpt lat="45.92876" lon="4.73981">
        <ele>172</ele>
        <time>2018-08-04T08:15:50Z</time>
      </trkpt>
      <trkpt lat="45.92875" lon="4.73987">
        <ele>173</ele>
        <time>2018-08-04T08:15:51Z</time>
      </trkpt>
      <trkpt lat="45.92873" lon="4.73993">
        <ele>173</ele>
        <time>2018-08-04T08:15:52Z</time>
      </trkpt>
      <trkpt lat="45.92871" lon="4.74">
        <ele>173</ele>
        <time>2018-08-04T08:15:53Z</time>
      </trkpt>
      <trkpt lat="45.9287" lon="4.74006">
        <ele>172</ele>
        <time>2018-08-04T08:15:54Z</time>
      </trkpt>
      <trkpt lat="45.92869" lon="4.74013">
        <ele>172</ele>
        <time>2018-08-04T08:15:55Z</time>
      </trkpt>
      <trkpt lat="45.92869" lon="4.7402">
        <ele>172</ele>
        <time>2018-08-04T08:15:56Z</time>
      </trkpt>
      <trkpt lat="45.92868" lon="4.74027">
        <ele>172</ele>
        <time>2018-08-04T08:15:57Z</time>
      </trkpt>
      <trkpt lat="45.92865" lon="4.74034">
        <ele>172</ele>
        <time>2018-08-04T08:15:58Z</time>
      </trkpt>
      <trkpt lat="45.92863" lon="4.7404">
        <ele>172</ele>
        <time>2018-08-04T08:15:59Z</time>
      </trkpt>
      <trkpt lat="45.9286" lon="4.74045">
        <ele>172</ele>
        <time>2018-08-04T08:16:00Z</time>
      </trkpt>
      <trkpt lat="45.92855" lon="4.7405">
        <ele>172</ele>
        <time>2018-08-04T08:16:01Z</time>
      </trkpt>
      <trkpt lat="45.92852" lon="4.74055">
        <ele>172</ele>
        <time>2018-08-04T08:16:02Z</time>
      </trkpt>
      <trkpt lat="45.92849" lon="4.74061">
        <ele>172</ele>
        <time>2018-08-04T08:16:03Z</time>
      </trkpt>
      <trkpt lat="45.92845" lon="4.74066">
        <ele>172</ele>
        <time>2018-08-04T08:16:04Z</time>
      </trkpt>
      <trkpt lat="45.92841" lon="4.74071">
        <ele>172</ele>
        <time>2018-08-04T08:16:05Z</time>
      </trkpt>
      <trkpt lat="45.92837" lon="4.74076">
        <ele>171</ele>
        <time>2018-08-04T08:16:06Z</time>
      </trkpt>
      <trkpt lat="45.92833" lon="4.74081">
        <ele>171</ele>
        <time>2018-08-04T08:16:07Z</time>
      </trkpt>
      <trkpt lat="45.92828" lon="4.74086">
        <ele>171</ele>
        <time>2018-08-04T08:16:08Z</time>
      </trkpt>
      <trkpt lat="45.92824" lon="4.74092">
        <ele>171</ele>
        <time>2018-08-04T08:16:09Z</time>
      </trkpt>
      <trkpt lat="45.9282" lon="4.74099">
        <ele>171</ele>
        <time>2018-08-04T08:16:10Z</time>
      </trkpt>
      <trkpt lat="45.92816" lon="4.74105">
        <ele>172</ele>
        <time>2018-08-04T08:16:11Z</time>
      </trkpt>
      <trkpt lat="45.92812" lon="4.7411">
        <ele>172</ele>
        <time>2018-08-04T08:16:12Z</time>
      </trkpt>
      <trkpt lat="45.92807" lon="4.74113">
        <ele>172</ele>
        <time>2018-08-04T08:16:13Z</time>
      </trkpt>
      <trkpt lat="45.92803" lon="4.74119">
        <ele>172</ele>
        <time>2018-08-04T08:16:14Z</time>
      </trkpt>
      <trkpt lat="45.92799" lon="4.74124">
        <ele>172</ele>
        <time>2018-08-04T08:16:15Z</time>
      </trkpt>
      <trkpt lat="45.92796" lon="4.74132">
        <ele>172</ele>
        <time>2018-08-04T08:16:16Z</time>
      </trkpt>
      <trkpt lat="45.92791" lon="4.74137">
        <ele>172</ele>
        <time>2018-08-04T08:16:17Z</time>
      </trkpt>
      <trkpt lat="45.92785" lon="4.74137">
        <ele>172</ele>
        <time>2018-08-04T08:16:18Z</time>
      </trkpt>
      <trkpt lat="45.9278" lon="4.74142">
        <ele>172</ele>
        <time>2018-08-04T08:16:19Z</time>
      </trkpt>
      <trkpt lat="45.92775" lon="4.74146">
        <ele>172</ele>
        <time>2018-08-04T08:16:20Z</time>
      </trkpt>
      <trkpt lat="45.9277" lon="4.7415">
        <ele>172</ele>
        <time>2018-08-04T08:16:21Z</time>
      </trkpt>
      <trkpt lat="45.92766" lon="4.74155">
        <ele>172</ele>
        <time>2018-08-04T08:16:22Z</time>
      </trkpt>
      <trkpt lat="45.92762" lon="4.7416">
        <ele>172</ele>
        <time>2018-08-04T08:16:23Z</time>
      </trkpt>
      <trkpt lat="45.92757" lon="4.74165">
        <ele>172</ele>
        <time>2018-08-04T08:16:24Z</time>
      </trkpt>
      <trkpt lat="45.92753" lon="4.74168">
        <ele>172</ele>
        <time>2018-08-04T08:16:25Z</time>
      </trkpt>
      <trkpt lat="45.92749" lon="4.74174">
        <ele>172</ele>
        <time>2018-08-04T08:16:26Z</time>
      </trkpt>
      <trkpt lat="45.92744" lon="4.7418">
        <ele>172</ele>
        <time>2018-08-04T08:16:27Z</time>
      </trkpt>
      <trkpt lat="45.9274" lon="4.74185">
        <ele>172</ele>
        <time>2018-08-04T08:16:28Z</time>
      </trkpt>
      <trkpt lat="45.92736" lon="4.74191">
        <ele>171</ele>
        <time>2018-08-04T08:16:29Z</time>
      </trkpt>
      <trkpt lat="45.92732" lon="4.74196">
        <ele>171</ele>
        <time>2018-08-04T08:16:30Z</time>
      </trkpt>
      <trkpt lat="45.92728" lon="4.74201">
        <ele>171</ele>
        <time>2018-08-04T08:16:31Z</time>
      </trkpt>
      <trkpt lat="45.92724" lon="4.74206">
        <ele>171</ele>
        <time>2018-08-04T08:16:32Z</time>
      </trkpt>
      <trkpt lat="45.92721" lon="4.7421">
        <ele>171</ele>
        <time>2018-08-04T08:16:33Z</time>
      </trkpt>
      <trkpt lat="45.92718" lon="4.74216">
        <ele>171</ele>
        <time>2018-08-04T08:16:34Z</time>
      </trkpt>
      <trkpt lat="45.92714" lon="4.74221">
        <ele>171</ele>
        <time>2018-08-04T08:16:35Z</time>
      </trkpt>
      <trkpt lat="45.9271" lon="4.74226">
        <ele>171</ele>
        <time>2018-08-04T08:16:36Z</time>
      </trkpt>
      <trkpt lat="45.92706" lon="4.74232">
        <ele>171</ele>
        <time>2018-08-04T08:16:37Z</time>
      </trkpt>
      <trkpt lat="45.927" lon="4.7424">
        <ele>171</ele>
        <time>2018-08-04T08:16:39Z</time>
      </trkpt>
      <trkpt lat="45.92696" lon="4.74246">
        <ele>171</ele>
        <time>2018-08-04T08:16:40Z</time>
      </trkpt>
      <trkpt lat="45.92692" lon="4.74253">
        <ele>171</ele>
        <time>2018-08-04T08:16:41Z</time>
      </trkpt>
      <trkpt lat="45.92689" lon="4.74258">
        <ele>171</ele>
        <time>2018-08-04T08:16:42Z</time>
      </trkpt>
      <trkpt lat="45.92685" lon="4.74266">
        <ele>171</ele>
        <time>2018-08-04T08:16:43Z</time>
      </trkpt>
      <trkpt lat="45.92681" lon="4.74273">
        <ele>171</ele>
        <time>2018-08-04T08:16:44Z</time>
      </trkpt>
      <trkpt lat="45.92677" lon="4.74279">
        <ele>171</ele>
        <time>2018-08-04T08:16:45Z</time>
      </trkpt>
      <trkpt lat="45.92675" lon="4.74286">
        <ele>171</ele>
        <time>2018-08-04T08:16:46Z</time>
      </trkpt>
      <trkpt lat="45.9267" lon="4.74292">
        <ele>171</ele>
        <time>2018-08-04T08:16:47Z</time>
      </trkpt>
      <trkpt lat="45.92667" lon="4.74299">
        <ele>171</ele>
        <time>2018-08-04T08:16:48Z</time>
      </trkpt>
      <trkpt lat="45.92663" lon="4.74306">
        <ele>171</ele>
        <time>2018-08-04T08:16:49Z</time>
      </trkpt>
      <trkpt lat="45.92661" lon="4.74312">
        <ele>171</ele>
        <time>2018-08-04T08:16:50Z</time>
      </trkpt>
      <trkpt lat="45.92658" lon="4.74318">
        <ele>171</ele>
        <time>2018-08-04T08:16:51Z</time>
      </trkpt>
      <trkpt lat="45.92655" lon="4.74324">
        <ele>171</ele>
        <time>2018-08-04T08:16:52Z</time>
      </trkpt>
      <trkpt lat="45.92652" lon="4.74331">
        <ele>171</ele>
        <time>2018-08-04T08:16:53Z</time>
      </trkpt>
      <trkpt lat="45.92648" lon="4.74338">
        <ele>171</ele>
        <time>2018-08-04T08:16:54Z</time>
      </trkpt>
      <trkpt lat="45.92644" lon="4.74345">
        <ele>171</ele>
        <time>2018-08-04T08:16:55Z</time>
      </trkpt>
      <trkpt lat="45.92641" lon="4.74352">
        <ele>171</ele>
        <time>2018-08-04T08:16:56Z</time>
      </trkpt>
      <trkpt lat="45.92638" lon="4.7436">
        <ele>171</ele>
        <time>2018-08-04T08:16:57Z</time>
      </trkpt>
      <trkpt lat="45.92634" lon="4.74367">
        <ele>171</ele>
        <time>2018-08-04T08:16:58Z</time>
      </trkpt>
      <trkpt lat="45.92631" lon="4.74374">
        <ele>171</ele>
        <time>2018-08-04T08:16:59Z</time>
      </trkpt>
      <trkpt lat="45.92626" lon="4.74379">
        <ele>170</ele>
        <time>2018-08-04T08:17:00Z</time>
      </trkpt>
      <trkpt lat="45.92622" lon="4.74384">
        <ele>170</ele>
        <time>2018-08-04T08:17:01Z</time>
      </trkpt>
      <trkpt lat="45.92618" lon="4.74391">
        <ele>170</ele>
        <time>2018-08-04T08:17:02Z</time>
      </trkpt>
      <trkpt lat="45.92614" lon="4.74395">
        <ele>170</ele>
        <time>2018-08-04T08:17:03Z</time>
      </trkpt>
      <trkpt lat="45.92611" lon="4.74403">
        <ele>170</ele>
        <time>2018-08-04T08:17:04Z</time>
      </trkpt>
      <trkpt lat="45.92608" lon="4.74411">
        <ele>170</ele>
        <time>2018-08-04T08:17:05Z</time>
      </trkpt>
      <trkpt lat="45.92604" lon="4.74419">
        <ele>170</ele>
        <time>2018-08-04T08:17:06Z</time>
      </trkpt>
      <trkpt lat="45.92601" lon="4.74425">
        <ele>170</ele>
        <time>2018-08-04T08:17:07Z</time>
      </trkpt>
      <trkpt lat="45.92598" lon="4.74433">
        <ele>170</ele>
        <time>2018-08-04T08:17:08Z</time>
      </trkpt>
      <trkpt lat="45.92594" lon="4.74439">
        <ele>170</ele>
        <time>2018-08-04T08:17:09Z</time>
      </trkpt>
      <trkpt lat="45.9259" lon="4.74447">
        <ele>170</ele>
        <time>2018-08-04T08:17:10Z</time>
      </trkpt>
      <trkpt lat="45.92587" lon="4.74454">
        <ele>170</ele>
        <time>2018-08-04T08:17:11Z</time>
      </trkpt>
      <trkpt lat="45.92582" lon="4.7446">
        <ele>170</ele>
        <time>2018-08-04T08:17:12Z</time>
      </trkpt>
      <trkpt lat="45.92579" lon="4.74467">
        <ele>170</ele>
        <time>2018-08-04T08:17:13Z</time>
      </trkpt>
      <trkpt lat="45.92575" lon="4.74474">
        <ele>170</ele>
        <time>2018-08-04T08:17:14Z</time>
      </trkpt>
      <trkpt lat="45.92572" lon="4.74482">
        <ele>170</ele>
        <time>2018-08-04T08:17:15Z</time>
      </trkpt>
      <trkpt lat="45.92567" lon="4.7449">
        <ele>170</ele>
        <time>2018-08-04T08:17:16Z</time>
      </trkpt>
      <trkpt lat="45.92563" lon="4.74496">
        <ele>170</ele>
        <time>2018-08-04T08:17:17Z</time>
      </trkpt>
      <trkpt lat="45.92559" lon="4.74503">
        <ele>170</ele>
        <time>2018-08-04T08:17:18Z</time>
      </trkpt>
      <trkpt lat="45.92556" lon="4.74509">
        <ele>170</ele>
        <time>2018-08-04T08:17:19Z</time>
      </trkpt>
      <trkpt lat="45.92553" lon="4.74517">
        <ele>170</ele>
        <time>2018-08-04T08:17:20Z</time>
      </trkpt>
      <trkpt lat="45.92549" lon="4.74522">
        <ele>170</ele>
        <time>2018-08-04T08:17:21Z</time>
      </trkpt>
      <trkpt lat="45.92546" lon="4.74528">
        <ele>170</ele>
        <time>2018-08-04T08:17:22Z</time>
      </trkpt>
      <trkpt lat="45.92542" lon="4.74535">
        <ele>170</ele>
        <time>2018-08-04T08:17:23Z</time>
      </trkpt>
      <trkpt lat="45.92539" lon="4.74541">
        <ele>171</ele>
        <time>2018-08-04T08:17:24Z</time>
      </trkpt>
      <trkpt lat="45.92535" lon="4.74548">
        <ele>171</ele>
        <time>2018-08-04T08:17:25Z</time>
      </trkpt>
      <trkpt lat="45.92531" lon="4.74554">
        <ele>171</ele>
        <time>2018-08-04T08:17:26Z</time>
      </trkpt>
      <trkpt lat="45.92527" lon="4.74559">
        <ele>171</ele>
        <time>2018-08-04T08:17:27Z</time>
      </trkpt>
      <trkpt lat="45.92522" lon="4.74564">
        <ele>171</ele>
        <time>2018-08-04T08:17:28Z</time>
      </trkpt>
      <trkpt lat="45.92518" lon="4.7457">
        <ele>171</ele>
        <time>2018-08-04T08:17:29Z</time>
      </trkpt>
      <trkpt lat="45.92513" lon="4.74575">
        <ele>171</ele>
        <time>2018-08-04T08:17:30Z</time>
      </trkpt>
      <trkpt lat="45.9251" lon="4.74579">
        <ele>171</ele>
        <time>2018-08-04T08:17:31Z</time>
      </trkpt>
      <trkpt lat="45.92506" lon="4.74584">
        <ele>171</ele>
        <time>2018-08-04T08:17:32Z</time>
      </trkpt>
      <trkpt lat="45.92502" lon="4.7459">
        <ele>171</ele>
        <time>2018-08-04T08:17:33Z</time>
      </trkpt>
      <trkpt lat="45.92498" lon="4.74596">
        <ele>171</ele>
        <time>2018-08-04T08:17:34Z</time>
      </trkpt>
      <trkpt lat="45.92494" lon="4.746">
        <ele>171</ele>
        <time>2018-08-04T08:17:35Z</time>
      </trkpt>
      <trkpt lat="45.9249" lon="4.74605">
        <ele>171</ele>
        <time>2018-08-04T08:17:36Z</time>
      </trkpt>
      <trkpt lat="45.92485" lon="4.74609">
        <ele>171</ele>
        <time>2018-08-04T08:17:37Z</time>
      </trkpt>
      <trkpt lat="45.92482" lon="4.74616">
        <ele>171</ele>
        <time>2018-08-04T08:17:38Z</time>
      </trkpt>
      <trkpt lat="45.92478" lon="4.74622">
        <ele>171</ele>
        <time>2018-08-04T08:17:39Z</time>
      </trkpt>
      <trkpt lat="45.92474" lon="4.74629">
        <ele>171</ele>
        <time>2018-08-04T08:17:40Z</time>
      </trkpt>
      <trkpt lat="45.9247" lon="4.74638">
        <ele>171</ele>
        <time>2018-08-04T08:17:41Z</time>
      </trkpt>
      <trkpt lat="45.92466" lon="4.74644">
        <ele>171</ele>
        <time>2018-08-04T08:17:42Z</time>
      </trkpt>
      <trkpt lat="45.92462" lon="4.74649">
        <ele>171</ele>
        <time>2018-08-04T08:17:43Z</time>
      </trkpt>
      <trkpt lat="45.92459" lon="4.74654">
        <ele>171</ele>
        <time>2018-08-04T08:17:44Z</time>
      </trkpt>
      <trkpt lat="45.92455" lon="4.74662">
        <ele>171</ele>
        <time>2018-08-04T08:17:45Z</time>
      </trkpt>
      <trkpt lat="45.92451" lon="4.74673">
        <ele>171</ele>
        <time>2018-08-04T08:17:47Z</time>
      </trkpt>
      <trkpt lat="45.92447" lon="4.74678">
        <ele>171</ele>
        <time>2018-08-04T08:17:48Z</time>
      </trkpt>
      <trkpt lat="45.92444" lon="4.74685">
        <ele>171</ele>
        <time>2018-08-04T08:17:49Z</time>
      </trkpt>
      <trkpt lat="45.92439" lon="4.74689">
        <ele>171</ele>
        <time>2018-08-04T08:17:50Z</time>
      </trkpt>
      <trkpt lat="45.92436" lon="4.74694">
        <ele>171</ele>
        <time>2018-08-04T08:17:51Z</time>
      </trkpt>
      <trkpt lat="45.92434" lon="4.74701">
        <ele>171</ele>
        <time>2018-08-04T08:17:52Z</time>
      </trkpt>
      <trkpt lat="45.92432" lon="4.74706">
        <ele>171</ele>
        <time>2018-08-04T08:17:53Z</time>
      </trkpt>
      <trkpt lat="45.92429" lon="4.74714">
        <ele>171</ele>
        <time>2018-08-04T08:17:54Z</time>
      </trkpt>
      <trkpt lat="45.92427" lon="4.74724">
        <ele>171</ele>
        <time>2018-08-04T08:17:55Z</time>
      </trkpt>
      <trkpt lat="45.92424" lon="4.74733">
        <ele>171</ele>
        <time>2018-08-04T08:17:56Z</time>
      </trkpt>
      <trkpt lat="45.92422" lon="4.74742">
        <ele>172</ele>
        <time>2018-08-04T08:17:57Z</time>
      </trkpt>
      <trkpt lat="45.92419" lon="4.7475">
        <ele>172</ele>
        <time>2018-08-04T08:17:58Z</time>
      </trkpt>
      <trkpt lat="45.92417" lon="4.74759">
        <ele>172</ele>
        <time>2018-08-04T08:17:59Z</time>
      </trkpt>
      <trkpt lat="45.92415" lon="4.74769">
        <ele>172</ele>
        <time>2018-08-04T08:18:00Z</time>
      </trkpt>
      <trkpt lat="45.92413" lon="4.74777">
        <ele>171</ele>
        <time>2018-08-04T08:18:01Z</time>
      </trkpt>
      <trkpt lat="45.9241" lon="4.74787">
        <ele>171</ele>
        <time>2018-08-04T08:18:02Z</time>
      </trkpt>
      <trkpt lat="45.92408" lon="4.74797">
        <ele>171</ele>
        <time>2018-08-04T08:18:03Z</time>
      </trkpt>
      <trkpt lat="45.92406" lon="4.74806">
        <ele>171</ele>
        <time>2018-08-04T08:18:04Z</time>
      </trkpt>
      <trkpt lat="45.92405" lon="4.74815">
        <ele>171</ele>
        <time>2018-08-04T08:18:05Z</time>
      </trkpt>
      <trkpt lat="45.92402" lon="4.74826">
        <ele>171</ele>
        <time>2018-08-04T08:18:06Z</time>
      </trkpt>
      <trkpt lat="45.924" lon="4.74835">
        <ele>171</ele>
        <time>2018-08-04T08:18:07Z</time>
      </trkpt>
      <trkpt lat="45.92397" lon="4.74843">
        <ele>171</ele>
        <time>2018-08-04T08:18:08Z</time>
      </trkpt>
      <trkpt lat="45.92395" lon="4.7485">
        <ele>171</ele>
        <time>2018-08-04T08:18:09Z</time>
      </trkpt>
      <trkpt lat="45.92393" lon="4.74858">
        <ele>171</ele>
        <time>2018-08-04T08:18:10Z</time>
      </trkpt>
      <trkpt lat="45.9239" lon="4.74865">
        <ele>171</ele>
        <time>2018-08-04T08:18:11Z</time>
      </trkpt>
      <trkpt lat="45.92387" lon="4.74874">
        <ele>171</ele>
        <time>2018-08-04T08:18:12Z</time>
      </trkpt>
      <trkpt lat="45.92384" lon="4.74882">
        <ele>171</ele>
        <time>2018-08-04T08:18:13Z</time>
      </trkpt>
      <trkpt lat="45.92383" lon="4.7489">
        <ele>171</ele>
        <time>2018-08-04T08:18:14Z</time>
      </trkpt>
      <trkpt lat="45.9238" lon="4.74899">
        <ele>171</ele>
        <time>2018-08-04T08:18:15Z</time>
      </trkpt>
      <trkpt lat="45.92377" lon="4.74904">
        <ele>171</ele>
        <time>2018-08-04T08:18:16Z</time>
      </trkpt>
      <trkpt lat="45.92375" lon="4.7491">
        <ele>171</ele>
        <time>2018-08-04T08:18:17Z</time>
      </trkpt>
      <trkpt lat="45.92372" lon="4.74917">
        <ele>171</ele>
        <time>2018-08-04T08:18:18Z</time>
      </trkpt>
      <trkpt lat="45.9237" lon="4.74923">
        <ele>170</ele>
        <time>2018-08-04T08:18:19Z</time>
      </trkpt>
      <trkpt lat="45.92368" lon="4.7493">
        <ele>170</ele>
        <time>2018-08-04T08:18:20Z</time>
      </trkpt>
      <trkpt lat="45.92366" lon="4.74937">
        <ele>170</ele>
        <time>2018-08-04T08:18:21Z</time>
      </trkpt>
      <trkpt lat="45.92363" lon="4.74945">
        <ele>170</ele>
        <time>2018-08-04T08:18:22Z</time>
      </trkpt>
      <trkpt lat="45.9236" lon="4.74951">
        <ele>170</ele>
        <time>2018-08-04T08:18:23Z</time>
      </trkpt>
      <trkpt lat="45.92356" lon="4.74958">
        <ele>170</ele>
        <time>2018-08-04T08:18:24Z</time>
      </trkpt>
      <trkpt lat="45.92354" lon="4.74965">
        <ele>170</ele>
        <time>2018-08-04T08:18:25Z</time>
      </trkpt>
      <trkpt lat="45.92351" lon="4.74973">
        <ele>170</ele>
        <time>2018-08-04T08:18:26Z</time>
      </trkpt>
      <trkpt lat="45.92348" lon="4.7498">
        <ele>170</ele>
        <time>2018-08-04T08:18:27Z</time>
      </trkpt>
      <trkpt lat="45.92345" lon="4.74988">
        <ele>170</ele>
        <time>2018-08-04T08:18:28Z</time>
      </trkpt>
      <trkpt lat="45.92341" lon="4.74996">
        <ele>170</ele>
        <time>2018-08-04T08:18:29Z</time>
      </trkpt>
      <trkpt lat="45.92338" lon="4.75003">
        <ele>170</ele>
        <time>2018-08-04T08:18:30Z</time>
      </trkpt>
      <trkpt lat="45.92335" lon="4.75009">
        <ele>170</ele>
        <time>2018-08-04T08:18:31Z</time>
      </trkpt>
      <trkpt lat="45.92332" lon="4.75016">
        <ele>171</ele>
        <time>2018-08-04T08:18:32Z</time>
      </trkpt>
      <trkpt lat="45.92328" lon="4.75023">
        <ele>171</ele>
        <time>2018-08-04T08:18:33Z</time>
      </trkpt>
      <trkpt lat="45.92325" lon="4.7503">
        <ele>171</ele>
        <time>2018-08-04T08:18:34Z</time>
      </trkpt>
      <trkpt lat="45.9232" lon="4.75037">
        <ele>171</ele>
        <time>2018-08-04T08:18:35Z</time>
      </trkpt>
      <trkpt lat="45.92316" lon="4.75043">
        <ele>172</ele>
        <time>2018-08-04T08:18:36Z</time>
      </trkpt>
      <trkpt lat="45.92312" lon="4.75049">
        <ele>172</ele>
        <time>2018-08-04T08:18:37Z</time>
      </trkpt>
      <trkpt lat="45.9231" lon="4.75056">
        <ele>172</ele>
        <time>2018-08-04T08:18:38Z</time>
      </trkpt>
      <trkpt lat="45.92307" lon="4.75061">
        <ele>172</ele>
        <time>2018-08-04T08:18:39Z</time>
      </trkpt>
      <trkpt lat="45.92303" lon="4.75068">
        <ele>172</ele>
        <time>2018-08-04T08:18:40Z</time>
      </trkpt>
      <trkpt lat="45.92298" lon="4.75073">
        <ele>172</ele>
        <time>2018-08-04T08:18:41Z</time>
      </trkpt>
      <trkpt lat="45.92297" lon="4.75085">
        <ele>173</ele>
        <time>2018-08-04T08:18:42Z</time>
      </trkpt>
      <trkpt lat="45.92293" lon="4.75092">
        <ele>173</ele>
        <time>2018-08-04T08:18:43Z</time>
      </trkpt>
      <trkpt lat="45.92287" lon="4.75093">
        <ele>173</ele>
        <time>2018-08-04T08:18:44Z</time>
      </trkpt>
      <trkpt lat="45.92282" lon="4.75097">
        <ele>173</ele>
        <time>2018-08-04T08:18:45Z</time>
      </trkpt>
      <trkpt lat="45.92278" lon="4.75102">
        <ele>173</ele>
        <time>2018-08-04T08:18:46Z</time>
      </trkpt>
      <trkpt lat="45.92273" lon="4.75105">
        <ele>174</ele>
        <time>2018-08-04T08:18:47Z</time>
      </trkpt>
      <trkpt lat="45.92268" lon="4.7511">
        <ele>174</ele>
        <time>2018-08-04T08:18:48Z</time>
      </trkpt>
      <trkpt lat="45.92261" lon="4.75113">
        <ele>174</ele>
        <time>2018-08-04T08:18:49Z</time>
      </trkpt>
      <trkpt lat="45.92257" lon="4.75117">
        <ele>174</ele>
        <time>2018-08-04T08:18:50Z</time>
      </trkpt>
      <trkpt lat="45.92254" lon="4.75123">
        <ele>174</ele>
        <time>2018-08-04T08:18:51Z</time>
      </trkpt>
      <trkpt lat="45.92249" lon="4.75128">
        <ele>174</ele>
        <time>2018-08-04T08:18:52Z</time>
      </trkpt>
      <trkpt lat="45.92246" lon="4.75133">
        <ele>174</ele>
        <time>2018-08-04T08:18:53Z</time>
      </trkpt>
      <trkpt lat="45.92242" lon="4.75139">
        <ele>174</ele>
        <time>2018-08-04T08:18:54Z</time>
      </trkpt>
      <trkpt lat="45.92237" lon="4.75144">
        <ele>174</ele>
        <time>2018-08-04T08:18:55Z</time>
      </trkpt>
      <trkpt lat="45.92233" lon="4.75152">
        <ele>174</ele>
        <time>2018-08-04T08:18:56Z</time>
      </trkpt>
      <trkpt lat="45.92229" lon="4.75156">
        <ele>174</ele>
        <time>2018-08-04T08:18:57Z</time>
      </trkpt>
      <trkpt lat="45.92225" lon="4.75163">
        <ele>174</ele>
        <time>2018-08-04T08:18:58Z</time>
      </trkpt>
      <trkpt lat="45.92222" lon="4.75169">
        <ele>175</ele>
        <time>2018-08-04T08:18:59Z</time>
      </trkpt>
      <trkpt lat="45.92219" lon="4.75176">
        <ele>175</ele>
        <time>2018-08-04T08:19:00Z</time>
      </trkpt>
      <trkpt lat="45.92218" lon="4.75182">
        <ele>175</ele>
        <time>2018-08-04T08:19:01Z</time>
      </trkpt>
      <trkpt lat="45.92216" lon="4.7519">
        <ele>175</ele>
        <time>2018-08-04T08:19:02Z</time>
      </trkpt>
      <trkpt lat="45.92214" lon="4.75196">
        <ele>175</ele>
        <time>2018-08-04T08:19:03Z</time>
      </trkpt>
      <trkpt lat="45.92214" lon="4.75202">
        <ele>175</ele>
        <time>2018-08-04T08:19:04Z</time>
      </trkpt>
      <trkpt lat="45.92213" lon="4.75209">
        <ele>175</ele>
        <time>2018-08-04T08:19:05Z</time>
      </trkpt>
      <trkpt lat="45.92212" lon="4.75216">
        <ele>175</ele>
        <time>2018-08-04T08:19:06Z</time>
      </trkpt>
      <trkpt lat="45.92211" lon="4.75223">
        <ele>175</ele>
        <time>2018-08-04T08:19:07Z</time>
      </trkpt>
      <trkpt lat="45.92211" lon="4.7523">
        <ele>175</ele>
        <time>2018-08-04T08:19:08Z</time>
      </trkpt>
      <trkpt lat="45.92211" lon="4.75237">
        <ele>175</ele>
        <time>2018-08-04T08:19:09Z</time>
      </trkpt>
      <trkpt lat="45.92211" lon="4.75244">
        <ele>175</ele>
        <time>2018-08-04T08:19:10Z</time>
      </trkpt>
      <trkpt lat="45.92212" lon="4.75251">
        <ele>175</ele>
        <time>2018-08-04T08:19:11Z</time>
      </trkpt>
      <trkpt lat="45.92211" lon="4.75257">
        <ele>175</ele>
        <time>2018-08-04T08:19:12Z</time>
      </trkpt>
      <trkpt lat="45.9221" lon="4.75264">
        <ele>176</ele>
        <time>2018-08-04T08:19:13Z</time>
      </trkpt>
      <trkpt lat="45.9221" lon="4.75271">
        <ele>176</ele>
        <time>2018-08-04T08:19:14Z</time>
      </trkpt>
      <trkpt lat="45.92209" lon="4.75277">
        <ele>176</ele>
        <time>2018-08-04T08:19:15Z</time>
      </trkpt>
      <trkpt lat="45.92208" lon="4.75284">
        <ele>176</ele>
        <time>2018-08-04T08:19:16Z</time>
      </trkpt>
      <trkpt lat="45.92208" lon="4.75291">
        <ele>176</ele>
        <time>2018-08-04T08:19:17Z</time>
      </trkpt>
      <trkpt lat="45.92207" lon="4.75299">
        <ele>176</ele>
        <time>2018-08-04T08:19:18Z</time>
      </trkpt>
      <trkpt lat="45.92207" lon="4.75307">
        <ele>176</ele>
        <time>2018-08-04T08:19:19Z</time>
      </trkpt>
      <trkpt lat="45.92206" lon="4.75314">
        <ele>176</ele>
        <time>2018-08-04T08:19:20Z</time>
      </trkpt>
      <trkpt lat="45.92205" lon="4.7532">
        <ele>176</ele>
        <time>2018-08-04T08:19:21Z</time>
      </trkpt>
      <trkpt lat="45.92205" lon="4.75327">
        <ele>176</ele>
        <time>2018-08-04T08:19:22Z</time>
      </trkpt>
      <trkpt lat="45.92205" lon="4.75335">
        <ele>177</ele>
        <time>2018-08-04T08:19:23Z</time>
      </trkpt>
      <trkpt lat="45.92205" lon="4.75343">
        <ele>177</ele>
        <time>2018-08-04T08:19:24Z</time>
      </trkpt>
      <trkpt lat="45.92202" lon="4.75349">
        <ele>177</ele>
        <time>2018-08-04T08:19:25Z</time>
      </trkpt>
      <trkpt lat="45.92199" lon="4.75355">
        <ele>177</ele>
        <time>2018-08-04T08:19:26Z</time>
      </trkpt>
      <trkpt lat="45.92197" lon="4.75364">
        <ele>177</ele>
        <time>2018-08-04T08:19:27Z</time>
      </trkpt>
      <trkpt lat="45.92194" lon="4.75372">
        <ele>177</ele>
        <time>2018-08-04T08:19:28Z</time>
      </trkpt>
      <trkpt lat="45.92191" lon="4.75379">
        <ele>177</ele>
        <time>2018-08-04T08:19:29Z</time>
      </trkpt>
      <trkpt lat="45.92189" lon="4.75386">
        <ele>177</ele>
        <time>2018-08-04T08:19:30Z</time>
      </trkpt>
      <trkpt lat="45.92186" lon="4.75393">
        <ele>177</ele>
        <time>2018-08-04T08:19:31Z</time>
      </trkpt>
      <trkpt lat="45.92183" lon="4.75401">
        <ele>177</ele>
        <time>2018-08-04T08:19:32Z</time>
      </trkpt>
      <trkpt lat="45.92181" lon="4.7541">
        <ele>177</ele>
        <time>2018-08-04T08:19:33Z</time>
      </trkpt>
      <trkpt lat="45.92178" lon="4.75416">
        <ele>178</ele>
        <time>2018-08-04T08:19:34Z</time>
      </trkpt>
      <trkpt lat="45.92176" lon="4.75423">
        <ele>177</ele>
        <time>2018-08-04T08:19:35Z</time>
      </trkpt>
      <trkpt lat="45.92172" lon="4.7543">
        <ele>177</ele>
        <time>2018-08-04T08:19:36Z</time>
      </trkpt>
      <trkpt lat="45.9217" lon="4.75438">
        <ele>177</ele>
        <time>2018-08-04T08:19:37Z</time>
      </trkpt>
      <trkpt lat="45.92167" lon="4.75444">
        <ele>177</ele>
        <time>2018-08-04T08:19:38Z</time>
      </trkpt>
      <trkpt lat="45.92161" lon="4.75451">
        <ele>176</ele>
        <time>2018-08-04T08:19:39Z</time>
      </trkpt>
      <trkpt lat="45.92158" lon="4.75458">
        <ele>176</ele>
        <time>2018-08-04T08:19:40Z</time>
      </trkpt>
      <trkpt lat="45.92156" lon="4.75465">
        <ele>176</ele>
        <time>2018-08-04T08:19:41Z</time>
      </trkpt>
      <trkpt lat="45.92151" lon="4.75473">
        <ele>176</ele>
        <time>2018-08-04T08:19:42Z</time>
      </trkpt>
      <trkpt lat="45.92148" lon="4.75481">
        <ele>176</ele>
        <time>2018-08-04T08:19:43Z</time>
      </trkpt>
      <trkpt lat="45.92146" lon="4.75487">
        <ele>176</ele>
        <time>2018-08-04T08:19:44Z</time>
      </trkpt>
      <trkpt lat="45.92144" lon="4.75495">
        <ele>176</ele>
        <time>2018-08-04T08:19:45Z</time>
      </trkpt>
      <trkpt lat="45.92142" lon="4.75502">
        <ele>175</ele>
        <time>2018-08-04T08:19:46Z</time>
      </trkpt>
      <trkpt lat="45.92138" lon="4.75509">
        <ele>174</ele>
        <time>2018-08-04T08:19:47Z</time>
      </trkpt>
      <trkpt lat="45.92135" lon="4.75515">
        <ele>174</ele>
        <time>2018-08-04T08:19:48Z</time>
      </trkpt>
      <trkpt lat="45.92131" lon="4.75519">
        <ele>174</ele>
        <time>2018-08-04T08:19:49Z</time>
      </trkpt>
      <trkpt lat="45.92127" lon="4.75528">
        <ele>174</ele>
        <time>2018-08-04T08:19:50Z</time>
      </trkpt>
      <trkpt lat="45.92124" lon="4.75534">
        <ele>174</ele>
        <time>2018-08-04T08:19:51Z</time>
      </trkpt>
      <trkpt lat="45.92121" lon="4.75539">
        <ele>174</ele>
        <time>2018-08-04T08:19:52Z</time>
      </trkpt>
      <trkpt lat="45.92118" lon="4.75546">
        <ele>174</ele>
        <time>2018-08-04T08:19:53Z</time>
      </trkpt>
      <trkpt lat="45.92114" lon="4.75553">
        <ele>174</ele>
        <time>2018-08-04T08:19:54Z</time>
      </trkpt>
      <trkpt lat="45.92112" lon="4.75559">
        <ele>174</ele>
        <time>2018-08-04T08:19:55Z</time>
      </trkpt>
      <trkpt lat="45.92112" lon="4.75568">
        <ele>174</ele>
        <time>2018-08-04T08:19:56Z</time>
      </trkpt>
      <trkpt lat="45.92113" lon="4.75575">
        <ele>174</ele>
        <time>2018-08-04T08:19:57Z</time>
      </trkpt>
      <trkpt lat="45.92114" lon="4.75583">
        <ele>174</ele>
        <time>2018-08-04T08:19:58Z</time>
      </trkpt>
      <trkpt lat="45.9212" lon="4.75587">
        <ele>174</ele>
        <time>2018-08-04T08:19:59Z</time>
      </trkpt>
      <trkpt lat="45.92124" lon="4.75592">
        <ele>174</ele>
        <time>2018-08-04T08:20:00Z</time>
      </trkpt>
      <trkpt lat="45.9213" lon="4.75597">
        <ele>174</ele>
        <time>2018-08-04T08:20:01Z</time>
      </trkpt>
      <trkpt lat="45.92134" lon="4.75602">
        <ele>174</ele>
        <time>2018-08-04T08:20:02Z</time>
      </trkpt>
      <trkpt lat="45.92138" lon="4.75607">
        <ele>174</ele>
        <time>2018-08-04T08:20:03Z</time>
      </trkpt>
      <trkpt lat="45.92143" lon="4.75612">
        <ele>174</ele>
        <time>2018-08-04T08:20:04Z</time>
      </trkpt>
      <trkpt lat="45.92148" lon="4.75617">
        <ele>174</ele>
        <time>2018-08-04T08:20:05Z</time>
      </trkpt>
      <trkpt lat="45.92153" lon="4.75622">
        <ele>174</ele>
        <time>2018-08-04T08:20:06Z</time>
      </trkpt>
      <trkpt lat="45.92157" lon="4.75627">
        <ele>174</ele>
        <time>2018-08-04T08:20:07Z</time>
      </trkpt>
      <trkpt lat="45.92162" lon="4.75632">
        <ele>174</ele>
        <time>2018-08-04T08:20:08Z</time>
      </trkpt>
      <trkpt lat="45.92167" lon="4.75637">
        <ele>174</ele>
        <time>2018-08-04T08:20:09Z</time>
      </trkpt>
      <trkpt lat="45.9217" lon="4.75641">
        <ele>174</ele>
        <time>2018-08-04T08:20:10Z</time>
      </trkpt>
      <trkpt lat="45.92175" lon="4.75646">
        <ele>174</ele>
        <time>2018-08-04T08:20:11Z</time>
      </trkpt>
      <trkpt lat="45.92179" lon="4.75651">
        <ele>174</ele>
        <time>2018-08-04T08:20:12Z</time>
      </trkpt>
      <trkpt lat="45.92185" lon="4.75658">
        <ele>174</ele>
        <time>2018-08-04T08:20:13Z</time>
      </trkpt>
      <trkpt lat="45.92189" lon="4.75662">
        <ele>174</ele>
        <time>2018-08-04T08:20:14Z</time>
      </trkpt>
      <trkpt lat="45.92195" lon="4.75667">
        <ele>174</ele>
        <time>2018-08-04T08:20:15Z</time>
      </trkpt>
      <trkpt lat="45.922" lon="4.75672">
        <ele>174</ele>
        <time>2018-08-04T08:20:16Z</time>
      </trkpt>
      <trkpt lat="45.92205" lon="4.75676">
        <ele>174</ele>
        <time>2018-08-04T08:20:17Z</time>
      </trkpt>
      <trkpt lat="45.92211" lon="4.75679">
        <ele>174</ele>
        <time>2018-08-04T08:20:18Z</time>
      </trkpt>
      <trkpt lat="45.92216" lon="4.75683">
        <ele>174</ele>
        <time>2018-08-04T08:20:19Z</time>
      </trkpt>
      <trkpt lat="45.92221" lon="4.75688">
        <ele>174</ele>
        <time>2018-08-04T08:20:20Z</time>
      </trkpt>
      <trkpt lat="45.92224" lon="4.75692">
        <ele>174</ele>
        <time>2018-08-04T08:20:21Z</time>
      </trkpt>
      <trkpt lat="45.92227" lon="4.75695">
        <ele>174</ele>
        <time>2018-08-04T08:20:22Z</time>
      </trkpt>
      <trkpt lat="45.9223" lon="4.75701">
        <ele>174</ele>
        <time>2018-08-04T08:20:23Z</time>
      </trkpt>
      <trkpt lat="45.92235" lon="4.75705">
        <ele>174</ele>
        <time>2018-08-04T08:20:24Z</time>
      </trkpt>
      <trkpt lat="45.92238" lon="4.75713">
        <ele>174</ele>
        <time>2018-08-04T08:20:25Z</time>
      </trkpt>
      <trkpt lat="45.9224" lon="4.7572">
        <ele>174</ele>
        <time>2018-08-04T08:20:26Z</time>
      </trkpt>
      <trkpt lat="45.92243" lon="4.75727">
        <ele>174</ele>
        <time>2018-08-04T08:20:27Z</time>
      </trkpt>
      <trkpt lat="45.92245" lon="4.75735">
        <ele>174</ele>
        <time>2018-08-04T08:20:28Z</time>
      </trkpt>
      <trkpt lat="45.92247" lon="4.75742">
        <ele>174</ele>
        <time>2018-08-04T08:20:29Z</time>
      </trkpt>
      <trkpt lat="45.92248" lon="4.7575">
        <ele>174</ele>
        <time>2018-08-04T08:20:30Z</time>
      </trkpt>
      <trkpt lat="45.9225" lon="4.75757">
        <ele>174</ele>
        <time>2018-08-04T08:20:31Z</time>
      </trkpt>
      <trkpt lat="45.92251" lon="4.75765">
        <ele>174</ele>
        <time>2018-08-04T08:20:32Z</time>
      </trkpt>
      <trkpt lat="45.92252" lon="4.75773">
        <ele>174</ele>
        <time>2018-08-04T08:20:33Z</time>
      </trkpt>
      <trkpt lat="45.92253" lon="4.75779">
        <ele>174</ele>
        <time>2018-08-04T08:20:34Z</time>
      </trkpt>
      <trkpt lat="45.92254" lon="4.75786">
        <ele>174</ele>
        <time>2018-08-04T08:20:35Z</time>
      </trkpt>
      <trkpt lat="45.92256" lon="4.75793">
        <ele>174</ele>
        <time>2018-08-04T08:20:36Z</time>
      </trkpt>
      <trkpt lat="45.92258" lon="4.758">
        <ele>174</ele>
        <time>2018-08-04T08:20:37Z</time>
      </trkpt>
      <trkpt lat="45.9226" lon="4.75808">
        <ele>174</ele>
        <time>2018-08-04T08:20:38Z</time>
      </trkpt>
      <trkpt lat="45.92264" lon="4.75815">
        <ele>174</ele>
        <time>2018-08-04T08:20:39Z</time>
      </trkpt>
      <trkpt lat="45.92267" lon="4.75821">
        <ele>174</ele>
        <time>2018-08-04T08:20:40Z</time>
      </trkpt>
      <trkpt lat="45.92272" lon="4.75825">
        <ele>174</ele>
        <time>2018-08-04T08:20:41Z</time>
      </trkpt>
      <trkpt lat="45.92277" lon="4.75831">
        <ele>174</ele>
        <time>2018-08-04T08:20:42Z</time>
      </trkpt>
      <trkpt lat="45.92284" lon="4.75835">
        <ele>173</ele>
        <time>2018-08-04T08:20:43Z</time>
      </trkpt>
      <trkpt lat="45.92289" lon="4.75838">
        <ele>173</ele>
        <time>2018-08-04T08:20:44Z</time>
      </trkpt>
      <trkpt lat="45.92295" lon="4.75842">
        <ele>173</ele>
        <time>2018-08-04T08:20:45Z</time>
      </trkpt>
      <trkpt lat="45.92301" lon="4.75846">
        <ele>173</ele>
        <time>2018-08-04T08:20:46Z</time>
      </trkpt>
      <trkpt lat="45.92307" lon="4.75851">
        <ele>173</ele>
        <time>2018-08-04T08:20:47Z</time>
      </trkpt>
      <trkpt lat="45.92313" lon="4.75855">
        <ele>173</ele>
        <time>2018-08-04T08:20:48Z</time>
      </trkpt>
      <trkpt lat="45.92318" lon="4.75858">
        <ele>173</ele>
        <time>2018-08-04T08:20:49Z</time>
      </trkpt>
      <trkpt lat="45.92324" lon="4.75861">
        <ele>173</ele>
        <time>2018-08-04T08:20:50Z</time>
      </trkpt>
      <trkpt lat="45.92329" lon="4.75863">
        <ele>173</ele>
        <time>2018-08-04T08:20:51Z</time>
      </trkpt>
      <trkpt lat="45.92334" lon="4.75867">
        <ele>173</ele>
        <time>2018-08-04T08:20:52Z</time>
      </trkpt>
      <trkpt lat="45.9234" lon="4.75871">
        <ele>173</ele>
        <time>2018-08-04T08:20:53Z</time>
      </trkpt>
      <trkpt lat="45.92347" lon="4.75873">
        <ele>173</ele>
        <time>2018-08-04T08:20:54Z</time>
      </trkpt>
      <trkpt lat="45.92351" lon="4.75877">
        <ele>173</ele>
        <time>2018-08-04T08:20:55Z</time>
      </trkpt>
      <trkpt lat="45.92356" lon="4.7588">
        <ele>173</ele>
        <time>2018-08-04T08:20:56Z</time>
      </trkpt>
      <trkpt lat="45.92362" lon="4.75883">
        <ele>173</ele>
        <time>2018-08-04T08:20:57Z</time>
      </trkpt>
      <trkpt lat="45.92368" lon="4.75886">
        <ele>173</ele>
        <time>2018-08-04T08:20:58Z</time>
      </trkpt>
      <trkpt lat="45.92374" lon="4.75891">
        <ele>173</ele>
        <time>2018-08-04T08:20:59Z</time>
      </trkpt>
      <trkpt lat="45.9238" lon="4.75891">
        <ele>173</ele>
        <time>2018-08-04T08:21:00Z</time>
      </trkpt>
      <trkpt lat="45.92386" lon="4.75895">
        <ele>173</ele>
        <time>2018-08-04T08:21:01Z</time>
      </trkpt>
      <trkpt lat="45.92392" lon="4.75899">
        <ele>173</ele>
        <time>2018-08-04T08:21:02Z</time>
      </trkpt>
      <trkpt lat="45.92397" lon="4.75903">
        <ele>173</ele>
        <time>2018-08-04T08:21:03Z</time>
      </trkpt>
      <trkpt lat="45.92404" lon="4.75905">
        <ele>172</ele>
        <time>2018-08-04T08:21:04Z</time>
      </trkpt>
      <trkpt lat="45.92409" lon="4.75909">
        <ele>172</ele>
        <time>2018-08-04T08:21:05Z</time>
      </trkpt>
      <trkpt lat="45.92414" lon="4.75913">
        <ele>172</ele>
        <time>2018-08-04T08:21:06Z</time>
      </trkpt>
      <trkpt lat="45.92419" lon="4.75917">
        <ele>172</ele>
        <time>2018-08-04T08:21:07Z</time>
      </trkpt>
      <trkpt lat="45.92423" lon="4.75916">
        <ele>172</ele>
        <time>2018-08-04T08:21:08Z</time>
      </trkpt>
      <trkpt lat="45.92429" lon="4.75919">
        <ele>172</ele>
        <time>2018-08-04T08:21:09Z</time>
      </trkpt>
      <trkpt lat="45.92432" lon="4.75926">
        <ele>172</ele>
        <time>2018-08-04T08:21:10Z</time>
      </trkpt>
      <trkpt lat="45.92436" lon="4.75929">
        <ele>172</ele>
        <time>2018-08-04T08:21:11Z</time>
      </trkpt>
      <trkpt lat="45.9244" lon="4.75934">
        <ele>172</ele>
        <time>2018-08-04T08:21:12Z</time>
      </trkpt>
      <trkpt lat="45.92445" lon="4.75936">
        <ele>172</ele>
        <time>2018-08-04T08:21:13Z</time>
      </trkpt>
      <trkpt lat="45.9245" lon="4.7594">
        <ele>172</ele>
        <time>2018-08-04T08:21:14Z</time>
      </trkpt>
      <trkpt lat="45.92455" lon="4.75944">
        <ele>172</ele>
        <time>2018-08-04T08:21:15Z</time>
      </trkpt>
      <trkpt lat="45.9246" lon="4.75947">
        <ele>172</ele>
        <time>2018-08-04T08:21:16Z</time>
      </trkpt>
      <trkpt lat="45.92465" lon="4.7595">
        <ele>172</ele>
        <time>2018-08-04T08:21:17Z</time>
      </trkpt>
      <trkpt lat="45.9247" lon="4.75954">
        <ele>172</ele>
        <time>2018-08-04T08:21:18Z</time>
      </trkpt>
      <trkpt lat="45.92475" lon="4.75958">
        <ele>172</ele>
        <time>2018-08-04T08:21:19Z</time>
      </trkpt>
      <trkpt lat="45.92479" lon="4.75963">
        <ele>172</ele>
        <time>2018-08-04T08:21:20Z</time>
      </trkpt>
      <trkpt lat="45.92485" lon="4.75966">
        <ele>172</ele>
        <time>2018-08-04T08:21:21Z</time>
      </trkpt>
      <trkpt lat="45.92489" lon="4.7597">
        <ele>172</ele>
        <time>2018-08-04T08:21:22Z</time>
      </trkpt>
      <trkpt lat="45.92493" lon="4.75974">
        <ele>172</ele>
        <time>2018-08-04T08:21:23Z</time>
      </trkpt>
      <trkpt lat="45.925" lon="4.75979">
        <ele>172</ele>
        <time>2018-08-04T08:21:24Z</time>
      </trkpt>
      <trkpt lat="45.92503" lon="4.75984">
        <ele>172</ele>
        <time>2018-08-04T08:21:25Z</time>
      </trkpt>
      <trkpt lat="45.92509" lon="4.75988">
        <ele>172</ele>
        <time>2018-08-04T08:21:26Z</time>
      </trkpt>
      <trkpt lat="45.92514" lon="4.75992">
        <ele>172</ele>
        <time>2018-08-04T08:21:27Z</time>
      </trkpt>
      <trkpt lat="45.92519" lon="4.75996">
        <ele>172</ele>
        <time>2018-08-04T08:21:28Z</time>
      </trkpt>
      <trkpt lat="45.92524" lon="4.76">
        <ele>172</ele>
        <time>2018-08-04T08:21:29Z</time>
      </trkpt>
      <trkpt lat="45.92529" lon="4.76005">
        <ele>172</ele>
        <time>2018-08-04T08:21:30Z</time>
      </trkpt>
      <trkpt lat="45.92535" lon="4.76008">
        <ele>172</ele>
        <time>2018-08-04T08:21:31Z</time>
      </trkpt>
      <trkpt lat="45.92539" lon="4.76012">
        <ele>172</ele>
        <time>2018-08-04T08:21:32Z</time>
      </trkpt>
      <trkpt lat="45.92544" lon="4.76018">
        <ele>172</ele>
        <time>2018-08-04T08:21:33Z</time>
      </trkpt>
      <trkpt lat="45.92549" lon="4.76022">
        <ele>172</ele>
        <time>2018-08-04T08:21:34Z</time>
      </trkpt>
      <trkpt lat="45.92552" lon="4.76026">
        <ele>172</ele>
        <time>2018-08-04T08:21:35Z</time>
      </trkpt>
      <trkpt lat="45.92557" lon="4.7603">
        <ele>172</ele>
        <time>2018-08-04T08:21:36Z</time>
      </trkpt>
      <trkpt lat="45.92561" lon="4.76033">
        <ele>172</ele>
        <time>2018-08-04T08:21:37Z</time>
      </trkpt>
      <trkpt lat="45.92565" lon="4.76037">
        <ele>172</ele>
        <time>2018-08-04T08:21:38Z</time>
      </trkpt>
      <trkpt lat="45.9257" lon="4.7604">
        <ele>172</ele>
        <time>2018-08-04T08:21:39Z</time>
      </trkpt>
      <trkpt lat="45.92576" lon="4.76044">
        <ele>171</ele>
        <time>2018-08-04T08:21:40Z</time>
      </trkpt>
      <trkpt lat="45.92582" lon="4.76047">
        <ele>171</ele>
        <time>2018-08-04T08:21:41Z</time>
      </trkpt>
      <trkpt lat="45.92585" lon="4.76051">
        <ele>171</ele>
        <time>2018-08-04T08:21:42Z</time>
      </trkpt>
      <trkpt lat="45.92591" lon="4.76055">
        <ele>171</ele>
        <time>2018-08-04T08:21:43Z</time>
      </trkpt>
      <trkpt lat="45.92596" lon="4.76059">
        <ele>171</ele>
        <time>2018-08-04T08:21:44Z</time>
      </trkpt>
      <trkpt lat="45.92601" lon="4.76062">
        <ele>171</ele>
        <time>2018-08-04T08:21:45Z</time>
      </trkpt>
      <trkpt lat="45.92606" lon="4.76065">
        <ele>171</ele>
        <time>2018-08-04T08:21:46Z</time>
      </trkpt>
      <trkpt lat="45.92611" lon="4.76069">
        <ele>171</ele>
        <time>2018-08-04T08:21:47Z</time>
      </trkpt>
      <trkpt lat="45.92616" lon="4.76073">
        <ele>171</ele>
        <time>2018-08-04T08:21:48Z</time>
      </trkpt>
      <trkpt lat="45.92621" lon="4.76077">
        <ele>171</ele>
        <time>2018-08-04T08:21:49Z</time>
      </trkpt>
      <trkpt lat="45.92626" lon="4.7608">
        <ele>170</ele>
        <time>2018-08-04T08:21:50Z</time>
      </trkpt>
      <trkpt lat="45.92632" lon="4.76083">
        <ele>170</ele>
        <time>2018-08-04T08:21:51Z</time>
      </trkpt>
      <trkpt lat="45.92637" lon="4.76086">
        <ele>170</ele>
        <time>2018-08-04T08:21:52Z</time>
      </trkpt>
      <trkpt lat="45.92643" lon="4.7609">
        <ele>170</ele>
        <time>2018-08-04T08:21:53Z</time>
      </trkpt>
      <trkpt lat="45.92649" lon="4.76095">
        <ele>170</ele>
        <time>2018-08-04T08:21:54Z</time>
      </trkpt>
      <trkpt lat="45.92655" lon="4.761">
        <ele>170</ele>
        <time>2018-08-04T08:21:55Z</time>
      </trkpt>
      <trkpt lat="45.92662" lon="4.76103">
        <ele>170</ele>
        <time>2018-08-04T08:21:56Z</time>
      </trkpt>
      <trkpt lat="45.92669" lon="4.76108">
        <ele>169</ele>
        <time>2018-08-04T08:21:57Z</time>
      </trkpt>
      <trkpt lat="45.92675" lon="4.76112">
        <ele>169</ele>
        <time>2018-08-04T08:21:58Z</time>
      </trkpt>
      <trkpt lat="45.92684" lon="4.76118">
        <ele>169</ele>
        <time>2018-08-04T08:21:59Z</time>
      </trkpt>
      <trkpt lat="45.9269" lon="4.76122">
        <ele>169</ele>
        <time>2018-08-04T08:22:00Z</time>
      </trkpt>
      <trkpt lat="45.92697" lon="4.76127">
        <ele>169</ele>
        <time>2018-08-04T08:22:01Z</time>
      </trkpt>
      <trkpt lat="45.92703" lon="4.76132">
        <ele>169</ele>
        <time>2018-08-04T08:22:02Z</time>
      </trkpt>
      <trkpt lat="45.92709" lon="4.76137">
        <ele>168</ele>
        <time>2018-08-04T08:22:03Z</time>
      </trkpt>
      <trkpt lat="45.92716" lon="4.76142">
        <ele>168</ele>
        <time>2018-08-04T08:22:04Z</time>
      </trkpt>
      <trkpt lat="45.92724" lon="4.76146">
        <ele>168</ele>
        <time>2018-08-04T08:22:05Z</time>
      </trkpt>
      <trkpt lat="45.92731" lon="4.7615">
        <ele>168</ele>
        <time>2018-08-04T08:22:06Z</time>
      </trkpt>
      <trkpt lat="45.92737" lon="4.76156">
        <ele>168</ele>
        <time>2018-08-04T08:22:07Z</time>
      </trkpt>
      <trkpt lat="45.92741" lon="4.76158">
        <ele>168</ele>
        <time>2018-08-04T08:22:08Z</time>
      </trkpt>
      <trkpt lat="45.92747" lon="4.76162">
        <ele>167</ele>
        <time>2018-08-04T08:22:09Z</time>
      </trkpt>
      <trkpt lat="45.92754" lon="4.76167">
        <ele>167</ele>
        <time>2018-08-04T08:22:10Z</time>
      </trkpt>
      <trkpt lat="45.92761" lon="4.76173">
        <ele>167</ele>
        <time>2018-08-04T08:22:11Z</time>
      </trkpt>
      <trkpt lat="45.92765" lon="4.76176">
        <ele>167</ele>
        <time>2018-08-04T08:22:12Z</time>
      </trkpt>
      <trkpt lat="45.9277" lon="4.7618">
        <ele>167</ele>
        <time>2018-08-04T08:22:13Z</time>
      </trkpt>
      <trkpt lat="45.92777" lon="4.76187">
        <ele>168</ele>
        <time>2018-08-04T08:22:14Z</time>
      </trkpt>
      <trkpt lat="45.92782" lon="4.7619">
        <ele>168</ele>
        <time>2018-08-04T08:22:15Z</time>
      </trkpt>
      <trkpt lat="45.92786" lon="4.76196">
        <ele>168</ele>
        <time>2018-08-04T08:22:16Z</time>
      </trkpt>
      <trkpt lat="45.92789" lon="4.76201">
        <ele>168</ele>
        <time>2018-08-04T08:22:17Z</time>
      </trkpt>
      <trkpt lat="45.92795" lon="4.76205">
        <ele>168</ele>
        <time>2018-08-04T08:22:18Z</time>
      </trkpt>
      <trkpt lat="45.92802" lon="4.7621">
        <ele>168</ele>
        <time>2018-08-04T08:22:19Z</time>
      </trkpt>
      <trkpt lat="45.92807" lon="4.76216">
        <ele>168</ele>
        <time>2018-08-04T08:22:20Z</time>
      </trkpt>
      <trkpt lat="45.92811" lon="4.76221">
        <ele>168</ele>
        <time>2018-08-04T08:22:21Z</time>
      </trkpt>
      <trkpt lat="45.92817" lon="4.76226">
        <ele>168</ele>
        <time>2018-08-04T08:22:22Z</time>
      </trkpt>
      <trkpt lat="45.92822" lon="4.76231">
        <ele>168</ele>
        <time>2018-08-04T08:22:23Z</time>
      </trkpt>
      <trkpt lat="45.92829" lon="4.76236">
        <ele>168</ele>
        <time>2018-08-04T08:22:24Z</time>
      </trkpt>
      <trkpt lat="45.92834" lon="4.7624">
        <ele>169</ele>
        <time>2018-08-04T08:22:25Z</time>
      </trkpt>
      <trkpt lat="45.92838" lon="4.76244">
        <ele>169</ele>
        <time>2018-08-04T08:22:26Z</time>
      </trkpt>
      <trkpt lat="45.92841" lon="4.7625">
        <ele>169</ele>
        <time>2018-08-04T08:22:27Z</time>
      </trkpt>
      <trkpt lat="45.92845" lon="4.76254">
        <ele>169</ele>
        <time>2018-08-04T08:22:28Z</time>
      </trkpt>
      <trkpt lat="45.9285" lon="4.76258">
        <ele>169</ele>
        <time>2018-08-04T08:22:29Z</time>
      </trkpt>
      <trkpt lat="45.92853" lon="4.76262">
        <ele>169</ele>
        <time>2018-08-04T08:22:30Z</time>
      </trkpt>
      <trkpt lat="45.92858" lon="4.76266">
        <ele>169</ele>
        <time>2018-08-04T08:22:31Z</time>
      </trkpt>
      <trkpt lat="45.92863" lon="4.76271">
        <ele>169</ele>
        <time>2018-08-04T08:22:32Z</time>
      </trkpt>
      <trkpt lat="45.92868" lon="4.76276">
        <ele>169</ele>
        <time>2018-08-04T08:22:33Z</time>
      </trkpt>
      <trkpt lat="45.92873" lon="4.7628">
        <ele>169</ele>
        <time>2018-08-04T08:22:34Z</time>
      </trkpt>
      <trkpt lat="45.92879" lon="4.76287">
        <ele>169</ele>
        <time>2018-08-04T08:22:35Z</time>
      </trkpt>
      <trkpt lat="45.92882" lon="4.76292">
        <ele>169</ele>
        <time>2018-08-04T08:22:36Z</time>
      </trkpt>
      <trkpt lat="45.92887" lon="4.76297">
        <ele>169</ele>
        <time>2018-08-04T08:22:37Z</time>
      </trkpt>
      <trkpt lat="45.92892" lon="4.76301">
        <ele>169</ele>
        <time>2018-08-04T08:22:38Z</time>
      </trkpt>
      <trkpt lat="45.92898" lon="4.76305">
        <ele>169</ele>
        <time>2018-08-04T08:22:39Z</time>
      </trkpt>
      <trkpt lat="45.92901" lon="4.7631">
        <ele>169</ele>
        <time>2018-08-04T08:22:40Z</time>
      </trkpt>
      <trkpt lat="45.92905" lon="4.76315">
        <ele>169</ele>
        <time>2018-08-04T08:22:41Z</time>
      </trkpt>
      <trkpt lat="45.9291" lon="4.76319">
        <ele>169</ele>
        <time>2018-08-04T08:22:42Z</time>
      </trkpt>
      <trkpt lat="45.92914" lon="4.76325">
        <ele>169</ele>
        <time>2018-08-04T08:22:43Z</time>
      </trkpt>
      <trkpt lat="45.9292" lon="4.76329">
        <ele>169</ele>
        <time>2018-08-04T08:22:44Z</time>
      </trkpt>
      <trkpt lat="45.92926" lon="4.76334">
        <ele>169</ele>
        <time>2018-08-04T08:22:45Z</time>
      </trkpt>
      <trkpt lat="45.92929" lon="4.76338">
        <ele>169</ele>
        <time>2018-08-04T08:22:46Z</time>
      </trkpt>
      <trkpt lat="45.92933" lon="4.76343">
        <ele>169</ele>
        <time>2018-08-04T08:22:47Z</time>
      </trkpt>
      <trkpt lat="45.92939" lon="4.76349">
        <ele>169</ele>
        <time>2018-08-04T08:22:48Z</time>
      </trkpt>
      <trkpt lat="45.92941" lon="4.76354">
        <ele>169</ele>
        <time>2018-08-04T08:22:49Z</time>
      </trkpt>
      <trkpt lat="45.92945" lon="4.7636">
        <ele>169</ele>
        <time>2018-08-04T08:22:50Z</time>
      </trkpt>
      <trkpt lat="45.92952" lon="4.76364">
        <ele>169</ele>
        <time>2018-08-04T08:22:51Z</time>
      </trkpt>
      <trkpt lat="45.92958" lon="4.76369">
        <ele>169</ele>
        <time>2018-08-04T08:22:52Z</time>
      </trkpt>
      <trkpt lat="45.92965" lon="4.76373">
        <ele>169</ele>
        <time>2018-08-04T08:22:53Z</time>
      </trkpt>
      <trkpt lat="45.92968" lon="4.76379">
        <ele>169</ele>
        <time>2018-08-04T08:22:54Z</time>
      </trkpt>
      <trkpt lat="45.92972" lon="4.76384">
        <ele>169</ele>
        <time>2018-08-04T08:22:55Z</time>
      </trkpt>
      <trkpt lat="45.92976" lon="4.7639">
        <ele>169</ele>
        <time>2018-08-04T08:22:56Z</time>
      </trkpt>
      <trkpt lat="45.92983" lon="4.76395">
        <ele>169</ele>
        <time>2018-08-04T08:22:57Z</time>
      </trkpt>
      <trkpt lat="45.92988" lon="4.76401">
        <ele>169</ele>
        <time>2018-08-04T08:22:58Z</time>
      </trkpt>
      <trkpt lat="45.92994" lon="4.76407">
        <ele>169</ele>
        <time>2018-08-04T08:22:59Z</time>
      </trkpt>
      <trkpt lat="45.93" lon="4.76408">
        <ele>169</ele>
        <time>2018-08-04T08:23:00Z</time>
      </trkpt>
      <trkpt lat="45.93005" lon="4.76413">
        <ele>169</ele>
        <time>2018-08-04T08:23:01Z</time>
      </trkpt>
      <trkpt lat="45.93011" lon="4.76419">
        <ele>169</ele>
        <time>2018-08-04T08:23:02Z</time>
      </trkpt>
      <trkpt lat="45.93016" lon="4.76425">
        <ele>169</ele>
        <time>2018-08-04T08:23:03Z</time>
      </trkpt>
      <trkpt lat="45.93021" lon="4.76429">
        <ele>169</ele>
        <time>2018-08-04T08:23:04Z</time>
      </trkpt>
      <trkpt lat="45.93025" lon="4.76433">
        <ele>169</ele>
        <time>2018-08-04T08:23:05Z</time>
      </trkpt>
      <trkpt lat="45.9303" lon="4.76437">
        <ele>169</ele>
        <time>2018-08-04T08:23:06Z</time>
      </trkpt>
      <trkpt lat="45.93036" lon="4.76442">
        <ele>169</ele>
        <time>2018-08-04T08:23:07Z</time>
      </trkpt>
      <trkpt lat="45.9304" lon="4.76447">
        <ele>169</ele>
        <time>2018-08-04T08:23:08Z</time>
      </trkpt>
      <trkpt lat="45.93045" lon="4.7645">
        <ele>169</ele>
        <time>2018-08-04T08:23:09Z</time>
      </trkpt>
      <trkpt lat="45.9305" lon="4.76454">
        <ele>169</ele>
        <time>2018-08-04T08:23:10Z</time>
      </trkpt>
      <trkpt lat="45.93054" lon="4.76459">
        <ele>169</ele>
        <time>2018-08-04T08:23:11Z</time>
      </trkpt>
      <trkpt lat="45.9306" lon="4.76464">
        <ele>169</ele>
        <time>2018-08-04T08:23:12Z</time>
      </trkpt>
      <trkpt lat="45.93064" lon="4.7647">
        <ele>169</ele>
        <time>2018-08-04T08:23:13Z</time>
      </trkpt>
      <trkpt lat="45.9307" lon="4.76476">
        <ele>169</ele>
        <time>2018-08-04T08:23:14Z</time>
      </trkpt>
      <trkpt lat="45.93075" lon="4.7648">
        <ele>169</ele>
        <time>2018-08-04T08:23:15Z</time>
      </trkpt>
      <trkpt lat="45.93079" lon="4.76484">
        <ele>170</ele>
        <time>2018-08-04T08:23:16Z</time>
      </trkpt>
      <trkpt lat="45.93085" lon="4.76489">
        <ele>170</ele>
        <time>2018-08-04T08:23:17Z</time>
      </trkpt>
      <trkpt lat="45.93091" lon="4.76492">
        <ele>170</ele>
        <time>2018-08-04T08:23:18Z</time>
      </trkpt>
      <trkpt lat="45.93096" lon="4.76497">
        <ele>170</ele>
        <time>2018-08-04T08:23:19Z</time>
      </trkpt>
      <trkpt lat="45.93101" lon="4.765">
        <ele>170</ele>
        <time>2018-08-04T08:23:20Z</time>
      </trkpt>
      <trkpt lat="45.93105" lon="4.76504">
        <ele>170</ele>
        <time>2018-08-04T08:23:21Z</time>
      </trkpt>
      <trkpt lat="45.9311" lon="4.76511">
        <ele>170</ele>
        <time>2018-08-04T08:23:22Z</time>
      </trkpt>
      <trkpt lat="45.93114" lon="4.76516">
        <ele>170</ele>
        <time>2018-08-04T08:23:23Z</time>
      </trkpt>
      <trkpt lat="45.93119" lon="4.76519">
        <ele>170</ele>
        <time>2018-08-04T08:23:24Z</time>
      </trkpt>
      <trkpt lat="45.93123" lon="4.76523">
        <ele>170</ele>
        <time>2018-08-04T08:23:25Z</time>
      </trkpt>
      <trkpt lat="45.93127" lon="4.76527">
        <ele>170</ele>
        <time>2018-08-04T08:23:26Z</time>
      </trkpt>
      <trkpt lat="45.93132" lon="4.76532">
        <ele>170</ele>
        <time>2018-08-04T08:23:27Z</time>
      </trkpt>
      <trkpt lat="45.93137" lon="4.76537">
        <ele>170</ele>
        <time>2018-08-04T08:23:28Z</time>
      </trkpt>
      <trkpt lat="45.93142" lon="4.76542">
        <ele>170</ele>
        <time>2018-08-04T08:23:29Z</time>
      </trkpt>
      <trkpt lat="45.93147" lon="4.76547">
        <ele>170</ele>
        <time>2018-08-04T08:23:30Z</time>
      </trkpt>
      <trkpt lat="45.93151" lon="4.76552">
        <ele>170</ele>
        <time>2018-08-04T08:23:31Z</time>
      </trkpt>
      <trkpt lat="45.93156" lon="4.76556">
        <ele>170</ele>
        <time>2018-08-04T08:23:32Z</time>
      </trkpt>
      <trkpt lat="45.93158" lon="4.76562">
        <ele>170</ele>
        <time>2018-08-04T08:23:33Z</time>
      </trkpt>
      <trkpt lat="45.93162" lon="4.76567">
        <ele>170</ele>
        <time>2018-08-04T08:23:34Z</time>
      </trkpt>
      <trkpt lat="45.93166" lon="4.76571">
        <ele>170</ele>
        <time>2018-08-04T08:23:35Z</time>
      </trkpt>
      <trkpt lat="45.93172" lon="4.76577">
        <ele>170</ele>
        <time>2018-08-04T08:23:36Z</time>
      </trkpt>
      <trkpt lat="45.93173" lon="4.76582">
        <ele>170</ele>
        <time>2018-08-04T08:23:37Z</time>
      </trkpt>
      <trkpt lat="45.93178" lon="4.76586">
        <ele>171</ele>
        <time>2018-08-04T08:23:38Z</time>
      </trkpt>
      <trkpt lat="45.93183" lon="4.76591">
        <ele>171</ele>
        <time>2018-08-04T08:23:39Z</time>
      </trkpt>
      <trkpt lat="45.93189" lon="4.76596">
        <ele>171</ele>
        <time>2018-08-04T08:23:40Z</time>
      </trkpt>
      <trkpt lat="45.93194" lon="4.766">
        <ele>170</ele>
        <time>2018-08-04T08:23:41Z</time>
      </trkpt>
      <trkpt lat="45.932" lon="4.76605">
        <ele>170</ele>
        <time>2018-08-04T08:23:42Z</time>
      </trkpt>
      <trkpt lat="45.93206" lon="4.76611">
        <ele>170</ele>
        <time>2018-08-04T08:23:43Z</time>
      </trkpt>
      <trkpt lat="45.9321" lon="4.76617">
        <ele>170</ele>
        <time>2018-08-04T08:23:44Z</time>
      </trkpt>
      <trkpt lat="45.93215" lon="4.76622">
        <ele>170</ele>
        <time>2018-08-04T08:23:45Z</time>
      </trkpt>
      <trkpt lat="45.93219" lon="4.76627">
        <ele>170</ele>
        <time>2018-08-04T08:23:46Z</time>
      </trkpt>
      <trkpt lat="45.93227" lon="4.76633">
        <ele>171</ele>
        <time>2018-08-04T08:23:47Z</time>
      </trkpt>
      <trkpt lat="45.9323" lon="4.76636">
        <ele>171</ele>
        <time>2018-08-04T08:23:48Z</time>
      </trkpt>
      <trkpt lat="45.93235" lon="4.7664">
        <ele>171</ele>
        <time>2018-08-04T08:23:49Z</time>
      </trkpt>
      <trkpt lat="45.93238" lon="4.76645">
        <ele>171</ele>
        <time>2018-08-04T08:23:50Z</time>
      </trkpt>
      <trkpt lat="45.93242" lon="4.7665">
        <ele>171</ele>
        <time>2018-08-04T08:23:51Z</time>
      </trkpt>
      <trkpt lat="45.93246" lon="4.76654">
        <ele>171</ele>
        <time>2018-08-04T08:23:52Z</time>
      </trkpt>
      <trkpt lat="45.9325" lon="4.76658">
        <ele>172</ele>
        <time>2018-08-04T08:23:53Z</time>
      </trkpt>
      <trkpt lat="45.93256" lon="4.76663">
        <ele>171</ele>
        <time>2018-08-04T08:23:54Z</time>
      </trkpt>
      <trkpt lat="45.9326" lon="4.76667">
        <ele>172</ele>
        <time>2018-08-04T08:23:55Z</time>
      </trkpt>
      <trkpt lat="45.93264" lon="4.76671">
        <ele>172</ele>
        <time>2018-08-04T08:23:56Z</time>
      </trkpt>
      <trkpt lat="45.93271" lon="4.76676">
        <ele>172</ele>
        <time>2018-08-04T08:23:57Z</time>
      </trkpt>
      <trkpt lat="45.93275" lon="4.76682">
        <ele>172</ele>
        <time>2018-08-04T08:23:58Z</time>
      </trkpt>
      <trkpt lat="45.9328" lon="4.76687">
        <ele>172</ele>
        <time>2018-08-04T08:23:59Z</time>
      </trkpt>
      <trkpt lat="45.93283" lon="4.76692">
        <ele>172</ele>
        <time>2018-08-04T08:24:00Z</time>
      </trkpt>
      <trkpt lat="45.93288" lon="4.76696">
        <ele>172</ele>
        <time>2018-08-04T08:24:01Z</time>
      </trkpt>
      <trkpt lat="45.93293" lon="4.76702">
        <ele>172</ele>
        <time>2018-08-04T08:24:02Z</time>
      </trkpt>
      <trkpt lat="45.93298" lon="4.76707">
        <ele>172</ele>
        <time>2018-08-04T08:24:03Z</time>
      </trkpt>
      <trkpt lat="45.93303" lon="4.76711">
        <ele>172</ele>
        <time>2018-08-04T08:24:04Z</time>
      </trkpt>
      <trkpt lat="45.93308" lon="4.76715">
        <ele>172</ele>
        <time>2018-08-04T08:24:05Z</time>
      </trkpt>
      <trkpt lat="45.93313" lon="4.7672">
        <ele>172</ele>
        <time>2018-08-04T08:24:06Z</time>
      </trkpt>
      <trkpt lat="45.93318" lon="4.76726">
        <ele>172</ele>
        <time>2018-08-04T08:24:07Z</time>
      </trkpt>
      <trkpt lat="45.93321" lon="4.76733">
        <ele>172</ele>
        <time>2018-08-04T08:24:08Z</time>
      </trkpt>
      <trkpt lat="45.93326" lon="4.76737">
        <ele>172</ele>
        <time>2018-08-04T08:24:09Z</time>
      </trkpt>
      <trkpt lat="45.93331" lon="4.76744">
        <ele>173</ele>
        <time>2018-08-04T08:24:10Z</time>
      </trkpt>
      <trkpt lat="45.93337" lon="4.76748">
        <ele>173</ele>
        <time>2018-08-04T08:24:11Z</time>
      </trkpt>
      <trkpt lat="45.93342" lon="4.76753">
        <ele>173</ele>
        <time>2018-08-04T08:24:12Z</time>
      </trkpt>
      <trkpt lat="45.93347" lon="4.76757">
        <ele>172</ele>
        <time>2018-08-04T08:24:13Z</time>
      </trkpt>
      <trkpt lat="45.93352" lon="4.76763">
        <ele>172</ele>
        <time>2018-08-04T08:24:14Z</time>
      </trkpt>
      <trkpt lat="45.93356" lon="4.76768">
        <ele>172</ele>
        <time>2018-08-04T08:24:15Z</time>
      </trkpt>
      <trkpt lat="45.9336" lon="4.76773">
        <ele>172</ele>
        <time>2018-08-04T08:24:16Z</time>
      </trkpt>
      <trkpt lat="45.93366" lon="4.76777">
        <ele>172</ele>
        <time>2018-08-04T08:24:17Z</time>
      </trkpt>
      <trkpt lat="45.93371" lon="4.76782">
        <ele>172</ele>
        <time>2018-08-04T08:24:18Z</time>
      </trkpt>
      <trkpt lat="45.93375" lon="4.76787">
        <ele>172</ele>
        <time>2018-08-04T08:24:19Z</time>
      </trkpt>
      <trkpt lat="45.93381" lon="4.76792">
        <ele>172</ele>
        <time>2018-08-04T08:24:20Z</time>
      </trkpt>
      <trkpt lat="45.93386" lon="4.76798">
        <ele>172</ele>
        <time>2018-08-04T08:24:21Z</time>
      </trkpt>
      <trkpt lat="45.93391" lon="4.76804">
        <ele>172</ele>
        <time>2018-08-04T08:24:22Z</time>
      </trkpt>
      <trkpt lat="45.93394" lon="4.7681">
        <ele>172</ele>
        <time>2018-08-04T08:24:23Z</time>
      </trkpt>
      <trkpt lat="45.93401" lon="4.76817">
        <ele>172</ele>
        <time>2018-08-04T08:24:24Z</time>
      </trkpt>
      <trkpt lat="45.93406" lon="4.76826">
        <ele>172</ele>
        <time>2018-08-04T08:24:25Z</time>
      </trkpt>
      <trkpt lat="45.93411" lon="4.76831">
        <ele>172</ele>
        <time>2018-08-04T08:24:26Z</time>
      </trkpt>
      <trkpt lat="45.93415" lon="4.76838">
        <ele>172</ele>
        <time>2018-08-04T08:24:27Z</time>
      </trkpt>
      <trkpt lat="45.93419" lon="4.76845">
        <ele>171</ele>
        <time>2018-08-04T08:24:28Z</time>
      </trkpt>
      <trkpt lat="45.93422" lon="4.76852">
        <ele>171</ele>
        <time>2018-08-04T08:24:29Z</time>
      </trkpt>
      <trkpt lat="45.93425" lon="4.76859">
        <ele>171</ele>
        <time>2018-08-04T08:24:30Z</time>
      </trkpt>
      <trkpt lat="45.93428" lon="4.76866">
        <ele>171</ele>
        <time>2018-08-04T08:24:31Z</time>
      </trkpt>
      <trkpt lat="45.93431" lon="4.76873">
        <ele>171</ele>
        <time>2018-08-04T08:24:32Z</time>
      </trkpt>
      <trkpt lat="45.93433" lon="4.76881">
        <ele>171</ele>
        <time>2018-08-04T08:24:33Z</time>
      </trkpt>
      <trkpt lat="45.93436" lon="4.76889">
        <ele>171</ele>
        <time>2018-08-04T08:24:34Z</time>
      </trkpt>
      <trkpt lat="45.93439" lon="4.76897">
        <ele>170</ele>
        <time>2018-08-04T08:24:35Z</time>
      </trkpt>
      <trkpt lat="45.93441" lon="4.76905">
        <ele>170</ele>
        <time>2018-08-04T08:24:36Z</time>
      </trkpt>
      <trkpt lat="45.93443" lon="4.76913">
        <ele>170</ele>
        <time>2018-08-04T08:24:37Z</time>
      </trkpt>
      <trkpt lat="45.93445" lon="4.76921">
        <ele>170</ele>
        <time>2018-08-04T08:24:38Z</time>
      </trkpt>
      <trkpt lat="45.93446" lon="4.7693">
        <ele>170</ele>
        <time>2018-08-04T08:24:39Z</time>
      </trkpt>
      <trkpt lat="45.93448" lon="4.76937">
        <ele>170</ele>
        <time>2018-08-04T08:24:40Z</time>
      </trkpt>
      <trkpt lat="45.9345" lon="4.76946">
        <ele>170</ele>
        <time>2018-08-04T08:24:41Z</time>
      </trkpt>
      <trkpt lat="45.93451" lon="4.76955">
        <ele>170</ele>
        <time>2018-08-04T08:24:42Z</time>
      </trkpt>
      <trkpt lat="45.93452" lon="4.76963">
        <ele>170</ele>
        <time>2018-08-04T08:24:43Z</time>
      </trkpt>
      <trkpt lat="45.93453" lon="4.76972">
        <ele>170</ele>
        <time>2018-08-04T08:24:44Z</time>
      </trkpt>
      <trkpt lat="45.93455" lon="4.76981">
        <ele>170</ele>
        <time>2018-08-04T08:24:45Z</time>
      </trkpt>
      <trkpt lat="45.93457" lon="4.76989">
        <ele>170</ele>
        <time>2018-08-04T08:24:46Z</time>
      </trkpt>
      <trkpt lat="45.93459" lon="4.76997">
        <ele>170</ele>
        <time>2018-08-04T08:24:47Z</time>
      </trkpt>
      <trkpt lat="45.9346" lon="4.77005">
        <ele>170</ele>
        <time>2018-08-04T08:24:48Z</time>
      </trkpt>
      <trkpt lat="45.93462" lon="4.77011">
        <ele>170</ele>
        <time>2018-08-04T08:24:49Z</time>
      </trkpt>
      <trkpt lat="45.93461" lon="4.77019">
        <ele>170</ele>
        <time>2018-08-04T08:24:50Z</time>
      </trkpt>
      <trkpt lat="45.93463" lon="4.77027">
        <ele>170</ele>
        <time>2018-08-04T08:24:51Z</time>
      </trkpt>
      <trkpt lat="45.93464" lon="4.77035">
        <ele>170</ele>
        <time>2018-08-04T08:24:52Z</time>
      </trkpt>
      <trkpt lat="45.93465" lon="4.77044">
        <ele>170</ele>
        <time>2018-08-04T08:24:53Z</time>
      </trkpt>
      <trkpt lat="45.93467" lon="4.77052">
        <ele>170</ele>
        <time>2018-08-04T08:24:54Z</time>
      </trkpt>
      <trkpt lat="45.93469" lon="4.7706">
        <ele>170</ele>
        <time>2018-08-04T08:24:55Z</time>
      </trkpt>
      <trkpt lat="45.93471" lon="4.77069">
        <ele>170</ele>
        <time>2018-08-04T08:24:56Z</time>
      </trkpt>
      <trkpt lat="45.93473" lon="4.77079">
        <ele>170</ele>
        <time>2018-08-04T08:24:57Z</time>
      </trkpt>
      <trkpt lat="45.93474" lon="4.77088">
        <ele>169</ele>
        <time>2018-08-04T08:24:58Z</time>
      </trkpt>
      <trkpt lat="45.93476" lon="4.77097">
        <ele>169</ele>
        <time>2018-08-04T08:24:59Z</time>
      </trkpt>
      <trkpt lat="45.93477" lon="4.77106">
        <ele>169</ele>
        <time>2018-08-04T08:25:00Z</time>
      </trkpt>
      <trkpt lat="45.93479" lon="4.77115">
        <ele>169</ele>
        <time>2018-08-04T08:25:01Z</time>
      </trkpt>
      <trkpt lat="45.93483" lon="4.77124">
        <ele>169</ele>
        <time>2018-08-04T08:25:02Z</time>
      </trkpt>
      <trkpt lat="45.93484" lon="4.77134">
        <ele>169</ele>
        <time>2018-08-04T08:25:03Z</time>
      </trkpt>
      <trkpt lat="45.93485" lon="4.77143">
        <ele>169</ele>
        <time>2018-08-04T08:25:04Z</time>
      </trkpt>
      <trkpt lat="45.93487" lon="4.77151">
        <ele>169</ele>
        <time>2018-08-04T08:25:05Z</time>
      </trkpt>
      <trkpt lat="45.93488" lon="4.7716">
        <ele>169</ele>
        <time>2018-08-04T08:25:06Z</time>
      </trkpt>
      <trkpt lat="45.93491" lon="4.77167">
        <ele>169</ele>
        <time>2018-08-04T08:25:07Z</time>
      </trkpt>
      <trkpt lat="45.93492" lon="4.77176">
        <ele>169</ele>
        <time>2018-08-04T08:25:08Z</time>
      </trkpt>
      <trkpt lat="45.93494" lon="4.77184">
        <ele>169</ele>
        <time>2018-08-04T08:25:09Z</time>
      </trkpt>
      <trkpt lat="45.93496" lon="4.77193">
        <ele>169</ele>
        <time>2018-08-04T08:25:10Z</time>
      </trkpt>
      <trkpt lat="45.93498" lon="4.77201">
        <ele>169</ele>
        <time>2018-08-04T08:25:11Z</time>
      </trkpt>
      <trkpt lat="45.93499" lon="4.7721">
        <ele>169</ele>
        <time>2018-08-04T08:25:12Z</time>
      </trkpt>
      <trkpt lat="45.93501" lon="4.77217">
        <ele>169</ele>
        <time>2018-08-04T08:25:13Z</time>
      </trkpt>
      <trkpt lat="45.93503" lon="4.77226">
        <ele>169</ele>
        <time>2018-08-04T08:25:14Z</time>
      </trkpt>
      <trkpt lat="45.93505" lon="4.77233">
        <ele>169</ele>
        <time>2018-08-04T08:25:15Z</time>
      </trkpt>
      <trkpt lat="45.93506" lon="4.77242">
        <ele>170</ele>
        <time>2018-08-04T08:25:16Z</time>
      </trkpt>
      <trkpt lat="45.93507" lon="4.77251">
        <ele>170</ele>
        <time>2018-08-04T08:25:17Z</time>
      </trkpt>
      <trkpt lat="45.9351" lon="4.77259">
        <ele>170</ele>
        <time>2018-08-04T08:25:18Z</time>
      </trkpt>
      <trkpt lat="45.93511" lon="4.77267">
        <ele>170</ele>
        <time>2018-08-04T08:25:19Z</time>
      </trkpt>
      <trkpt lat="45.93513" lon="4.77275">
        <ele>170</ele>
        <time>2018-08-04T08:25:20Z</time>
      </trkpt>
      <trkpt lat="45.93516" lon="4.77283">
        <ele>170</ele>
        <time>2018-08-04T08:25:21Z</time>
      </trkpt>
      <trkpt lat="45.93517" lon="4.77292">
        <ele>170</ele>
        <time>2018-08-04T08:25:22Z</time>
      </trkpt>
      <trkpt lat="45.93519" lon="4.773">
        <ele>170</ele>
        <time>2018-08-04T08:25:23Z</time>
      </trkpt>
      <trkpt lat="45.93521" lon="4.77307">
        <ele>170</ele>
        <time>2018-08-04T08:25:24Z</time>
      </trkpt>
      <trkpt lat="45.93522" lon="4.77316">
        <ele>170</ele>
        <time>2018-08-04T08:25:25Z</time>
      </trkpt>
      <trkpt lat="45.93524" lon="4.77323">
        <ele>170</ele>
        <time>2018-08-04T08:25:26Z</time>
      </trkpt>
      <trkpt lat="45.93525" lon="4.7733">
        <ele>170</ele>
        <time>2018-08-04T08:25:27Z</time>
      </trkpt>
      <trkpt lat="45.93526" lon="4.77337">
        <ele>170</ele>
        <time>2018-08-04T08:25:28Z</time>
      </trkpt>
      <trkpt lat="45.93527" lon="4.77344">
        <ele>170</ele>
        <time>2018-08-04T08:25:29Z</time>
      </trkpt>
      <trkpt lat="45.93529" lon="4.77351">
        <ele>170</ele>
        <time>2018-08-04T08:25:30Z</time>
      </trkpt>
      <trkpt lat="45.93531" lon="4.77357">
        <ele>170</ele>
        <time>2018-08-04T08:25:31Z</time>
      </trkpt>
      <trkpt lat="45.93533" lon="4.77365">
        <ele>170</ele>
        <time>2018-08-04T08:25:32Z</time>
      </trkpt>
      <trkpt lat="45.93534" lon="4.77372">
        <ele>170</ele>
        <time>2018-08-04T08:25:33Z</time>
      </trkpt>
      <trkpt lat="45.93538" lon="4.7738">
        <ele>170</ele>
        <time>2018-08-04T08:25:34Z</time>
      </trkpt>
      <trkpt lat="45.9354" lon="4.77388">
        <ele>170</ele>
        <time>2018-08-04T08:25:35Z</time>
      </trkpt>
      <trkpt lat="45.93543" lon="4.77394">
        <ele>170</ele>
        <time>2018-08-04T08:25:36Z</time>
      </trkpt>
      <trkpt lat="45.93544" lon="4.77403">
        <ele>170</ele>
        <time>2018-08-04T08:25:37Z</time>
      </trkpt>
      <trkpt lat="45.93545" lon="4.7741">
        <ele>170</ele>
        <time>2018-08-04T08:25:38Z</time>
      </trkpt>
      <trkpt lat="45.93547" lon="4.77419">
        <ele>170</ele>
        <time>2018-08-04T08:25:39Z</time>
      </trkpt>
      <trkpt lat="45.93548" lon="4.77427">
        <ele>170</ele>
        <time>2018-08-04T08:25:40Z</time>
      </trkpt>
      <trkpt lat="45.9355" lon="4.77435">
        <ele>169</ele>
        <time>2018-08-04T08:25:41Z</time>
      </trkpt>
      <trkpt lat="45.93551" lon="4.77442">
        <ele>169</ele>
        <time>2018-08-04T08:25:42Z</time>
      </trkpt>
      <trkpt lat="45.93553" lon="4.77449">
        <ele>169</ele>
        <time>2018-08-04T08:25:43Z</time>
      </trkpt>
      <trkpt lat="45.93555" lon="4.77455">
        <ele>169</ele>
        <time>2018-08-04T08:25:44Z</time>
      </trkpt>
      <trkpt lat="45.93556" lon="4.77462">
        <ele>169</ele>
        <time>2018-08-04T08:25:45Z</time>
      </trkpt>
      <trkpt lat="45.93557" lon="4.77469">
        <ele>169</ele>
        <time>2018-08-04T08:25:46Z</time>
      </trkpt>
      <trkpt lat="45.93559" lon="4.77477">
        <ele>169</ele>
        <time>2018-08-04T08:25:47Z</time>
      </trkpt>
      <trkpt lat="45.93563" lon="4.77484">
        <ele>169</ele>
        <time>2018-08-04T08:25:48Z</time>
      </trkpt>
      <trkpt lat="45.93564" lon="4.77491">
        <ele>169</ele>
        <time>2018-08-04T08:25:49Z</time>
      </trkpt>
      <trkpt lat="45.93567" lon="4.77499">
        <ele>169</ele>
        <time>2018-08-04T08:25:50Z</time>
      </trkpt>
      <trkpt lat="45.93569" lon="4.77506">
        <ele>169</ele>
        <time>2018-08-04T08:25:51Z</time>
      </trkpt>
      <trkpt lat="45.9357" lon="4.77515">
        <ele>169</ele>
        <time>2018-08-04T08:25:52Z</time>
      </trkpt>
      <trkpt lat="45.93571" lon="4.77523">
        <ele>169</ele>
        <time>2018-08-04T08:25:53Z</time>
      </trkpt>
      <trkpt lat="45.93573" lon="4.7753">
        <ele>169</ele>
        <time>2018-08-04T08:25:54Z</time>
      </trkpt>
      <trkpt lat="45.93576" lon="4.77538">
        <ele>169</ele>
        <time>2018-08-04T08:25:55Z</time>
      </trkpt>
      <trkpt lat="45.93578" lon="4.77546">
        <ele>169</ele>
        <time>2018-08-04T08:25:56Z</time>
      </trkpt>
      <trkpt lat="45.9358" lon="4.77555">
        <ele>169</ele>
        <time>2018-08-04T08:25:57Z</time>
      </trkpt>
      <trkpt lat="45.93582" lon="4.77564">
        <ele>169</ele>
        <time>2018-08-04T08:25:58Z</time>
      </trkpt>
      <trkpt lat="45.93585" lon="4.77572">
        <ele>170</ele>
        <time>2018-08-04T08:25:59Z</time>
      </trkpt>
      <trkpt lat="45.93588" lon="4.77581">
        <ele>170</ele>
        <time>2018-08-04T08:26:00Z</time>
      </trkpt>
      <trkpt lat="45.93591" lon="4.77589">
        <ele>170</ele>
        <time>2018-08-04T08:26:01Z</time>
      </trkpt>
      <trkpt lat="45.93592" lon="4.77598">
        <ele>170</ele>
        <time>2018-08-04T08:26:02Z</time>
      </trkpt>
      <trkpt lat="45.93595" lon="4.77607">
        <ele>170</ele>
        <time>2018-08-04T08:26:03Z</time>
      </trkpt>
      <trkpt lat="45.93598" lon="4.77616">
        <ele>170</ele>
        <time>2018-08-04T08:26:04Z</time>
      </trkpt>
      <trkpt lat="45.936" lon="4.77624">
        <ele>170</ele>
        <time>2018-08-04T08:26:05Z</time>
      </trkpt>
      <trkpt lat="45.93603" lon="4.77632">
        <ele>169</ele>
        <time>2018-08-04T08:26:06Z</time>
      </trkpt>
      <trkpt lat="45.93606" lon="4.77639">
        <ele>169</ele>
        <time>2018-08-04T08:26:07Z</time>
      </trkpt>
      <trkpt lat="45.93609" lon="4.77646">
        <ele>169</ele>
        <time>2018-08-04T08:26:08Z</time>
      </trkpt>
      <trkpt lat="45.93613" lon="4.77653">
        <ele>169</ele>
        <time>2018-08-04T08:26:09Z</time>
      </trkpt>
      <trkpt lat="45.93617" lon="4.7766">
        <ele>169</ele>
        <time>2018-08-04T08:26:10Z</time>
      </trkpt>
      <trkpt lat="45.9362" lon="4.77667">
        <ele>169</ele>
        <time>2018-08-04T08:26:11Z</time>
      </trkpt>
      <trkpt lat="45.93623" lon="4.77674">
        <ele>169</ele>
        <time>2018-08-04T08:26:12Z</time>
      </trkpt>
      <trkpt lat="45.93627" lon="4.7768">
        <ele>169</ele>
        <time>2018-08-04T08:26:13Z</time>
      </trkpt>
      <trkpt lat="45.93629" lon="4.77688">
        <ele>169</ele>
        <time>2018-08-04T08:26:14Z</time>
      </trkpt>
      <trkpt lat="45.93632" lon="4.77695">
        <ele>169</ele>
        <time>2018-08-04T08:26:15Z</time>
      </trkpt>
      <trkpt lat="45.93636" lon="4.77701">
        <ele>170</ele>
        <time>2018-08-04T08:26:16Z</time>
      </trkpt>
      <trkpt lat="45.93639" lon="4.77708">
        <ele>170</ele>
        <time>2018-08-04T08:26:17Z</time>
      </trkpt>
      <trkpt lat="45.93644" lon="4.77714">
        <ele>170</ele>
        <time>2018-08-04T08:26:18Z</time>
      </trkpt>
      <trkpt lat="45.93647" lon="4.7772">
        <ele>170</ele>
        <time>2018-08-04T08:26:19Z</time>
      </trkpt>
      <trkpt lat="45.9365" lon="4.77726">
        <ele>170</ele>
        <time>2018-08-04T08:26:20Z</time>
      </trkpt>
      <trkpt lat="45.93653" lon="4.77732">
        <ele>170</ele>
        <time>2018-08-04T08:26:21Z</time>
      </trkpt>
      <trkpt lat="45.93656" lon="4.77737">
        <ele>170</ele>
        <time>2018-08-04T08:26:22Z</time>
      </trkpt>
      <trkpt lat="45.93658" lon="4.77743">
        <ele>170</ele>
        <time>2018-08-04T08:26:23Z</time>
      </trkpt>
      <trkpt lat="45.93664" lon="4.77751">
        <ele>171</ele>
        <time>2018-08-04T08:26:25Z</time>
      </trkpt>
      <trkpt lat="45.93666" lon="4.77755">
        <ele>171</ele>
        <time>2018-08-04T08:26:26Z</time>
      </trkpt>
      <trkpt lat="45.93671" lon="4.77762">
        <ele>170</ele>
        <time>2018-08-04T08:26:28Z</time>
      </trkpt>
      <trkpt lat="45.93673" lon="4.77767">
        <ele>170</ele>
        <time>2018-08-04T08:26:29Z</time>
      </trkpt>
      <trkpt lat="45.9368" lon="4.77774">
        <ele>170</ele>
        <time>2018-08-04T08:26:31Z</time>
      </trkpt>
      <trkpt lat="45.93682" lon="4.77778">
        <ele>170</ele>
        <time>2018-08-04T08:26:32Z</time>
      </trkpt>
      <trkpt lat="45.93687" lon="4.77786">
        <ele>170</ele>
        <time>2018-08-04T08:26:34Z</time>
      </trkpt>
      <trkpt lat="45.9369" lon="4.7779">
        <ele>170</ele>
        <time>2018-08-04T08:26:35Z</time>
      </trkpt>
      <trkpt lat="45.93695" lon="4.77798">
        <ele>169</ele>
        <time>2018-08-04T08:26:37Z</time>
      </trkpt>
      <trkpt lat="45.93698" lon="4.77801">
        <ele>169</ele>
        <time>2018-08-04T08:26:38Z</time>
      </trkpt>
      <trkpt lat="45.93704" lon="4.77809">
        <ele>169</ele>
        <time>2018-08-04T08:26:40Z</time>
      </trkpt>
      <trkpt lat="45.93707" lon="4.77812">
        <ele>169</ele>
        <time>2018-08-04T08:26:41Z</time>
      </trkpt>
      <trkpt lat="45.93713" lon="4.7782">
        <ele>169</ele>
        <time>2018-08-04T08:26:43Z</time>
      </trkpt>
      <trkpt lat="45.93716" lon="4.77824">
        <ele>169</ele>
        <time>2018-08-04T08:26:44Z</time>
      </trkpt>
      <trkpt lat="45.93721" lon="4.77831">
        <ele>168</ele>
        <time>2018-08-04T08:26:46Z</time>
      </trkpt>
      <trkpt lat="45.93724" lon="4.77835">
        <ele>167</ele>
        <time>2018-08-04T08:26:47Z</time>
      </trkpt>
      <trkpt lat="45.93731" lon="4.77843">
        <ele>167</ele>
        <time>2018-08-04T08:26:49Z</time>
      </trkpt>
      <trkpt lat="45.93734" lon="4.77847">
        <ele>167</ele>
        <time>2018-08-04T08:26:50Z</time>
      </trkpt>
      <trkpt lat="45.9374" lon="4.77855">
        <ele>167</ele>
        <time>2018-08-04T08:26:52Z</time>
      </trkpt>
      <trkpt lat="45.93743" lon="4.77859">
        <ele>167</ele>
        <time>2018-08-04T08:26:53Z</time>
      </trkpt>
      <trkpt lat="45.93747" lon="4.77863">
        <ele>167</ele>
        <time>2018-08-04T08:26:54Z</time>
      </trkpt>
      <trkpt lat="45.93751" lon="4.77865">
        <ele>166</ele>
        <time>2018-08-04T08:26:55Z</time>
      </trkpt>
      <trkpt lat="45.93755" lon="4.77875">
        <ele>166</ele>
        <time>2018-08-04T08:26:57Z</time>
      </trkpt>
      <trkpt lat="45.93759" lon="4.77879">
        <ele>166</ele>
        <time>2018-08-04T08:26:58Z</time>
      </trkpt>
      <trkpt lat="45.93764" lon="4.77883">
        <ele>166</ele>
        <time>2018-08-04T08:26:59Z</time>
      </trkpt>
      <trkpt lat="45.93767" lon="4.77888">
        <ele>166</ele>
        <time>2018-08-04T08:27:00Z</time>
      </trkpt>
      <trkpt lat="45.93771" lon="4.77893">
        <ele>166</ele>
        <time>2018-08-04T08:27:01Z</time>
      </trkpt>
      <trkpt lat="45.93775" lon="4.77898">
        <ele>166</ele>
        <time>2018-08-04T08:27:02Z</time>
      </trkpt>
      <trkpt lat="45.93778" lon="4.77904">
        <ele>166</ele>
        <time>2018-08-04T08:27:03Z</time>
      </trkpt>
      <trkpt lat="45.93782" lon="4.77909">
        <ele>166</ele>
        <time>2018-08-04T08:27:04Z</time>
      </trkpt>
      <trkpt lat="45.93787" lon="4.77914">
        <ele>166</ele>
        <time>2018-08-04T08:27:05Z</time>
      </trkpt>
      <trkpt lat="45.93791" lon="4.77919">
        <ele>168</ele>
        <time>2018-08-04T08:27:06Z</time>
      </trkpt>
      <trkpt lat="45.93795" lon="4.77925">
        <ele>168</ele>
        <time>2018-08-04T08:27:07Z</time>
      </trkpt>
      <trkpt lat="45.93798" lon="4.7793">
        <ele>168</ele>
        <time>2018-08-04T08:27:08Z</time>
      </trkpt>
      <trkpt lat="45.93802" lon="4.77936">
        <ele>169</ele>
        <time>2018-08-04T08:27:09Z</time>
      </trkpt>
      <trkpt lat="45.93806" lon="4.77942">
        <ele>169</ele>
        <time>2018-08-04T08:27:10Z</time>
      </trkpt>
      <trkpt lat="45.9381" lon="4.77946">
        <ele>169</ele>
        <time>2018-08-04T08:27:11Z</time>
      </trkpt>
      <trkpt lat="45.93814" lon="4.77951">
        <ele>169</ele>
        <time>2018-08-04T08:27:12Z</time>
      </trkpt>
      <trkpt lat="45.93817" lon="4.77958">
        <ele>170</ele>
        <time>2018-08-04T08:27:13Z</time>
      </trkpt>
      <trkpt lat="45.93821" lon="4.77964">
        <ele>171</ele>
        <time>2018-08-04T08:27:14Z</time>
      </trkpt>
      <trkpt lat="45.93825" lon="4.7797">
        <ele>172</ele>
        <time>2018-08-04T08:27:15Z</time>
      </trkpt>
      <trkpt lat="45.93828" lon="4.77974">
        <ele>172</ele>
        <time>2018-08-04T08:27:16Z</time>
      </trkpt>
      <trkpt lat="45.93832" lon="4.7798">
        <ele>173</ele>
        <time>2018-08-04T08:27:17Z</time>
      </trkpt>
      <trkpt lat="45.93835" lon="4.77984">
        <ele>178</ele>
        <time>2018-08-04T08:27:18Z</time>
      </trkpt>
      <trkpt lat="45.93839" lon="4.77993">
        <ele>179</ele>
        <time>2018-08-04T08:27:20Z</time>
      </trkpt>
      <trkpt lat="45.93841" lon="4.77998">
        <ele>179</ele>
        <time>2018-08-04T08:27:21Z</time>
      </trkpt>
      <trkpt lat="45.9384" lon="4.78011">
        <ele>181</ele>
        <time>2018-08-04T08:27:23Z</time>
      </trkpt>
      <trkpt lat="45.9384" lon="4.78016">
        <ele>181</ele>
        <time>2018-08-04T08:27:24Z</time>
      </trkpt>
      <trkpt lat="45.93842" lon="4.78023">
        <ele>182</ele>
        <time>2018-08-04T08:27:25Z</time>
      </trkpt>
      <trkpt lat="45.93844" lon="4.7803">
        <ele>182</ele>
        <time>2018-08-04T08:27:26Z</time>
      </trkpt>
      <trkpt lat="45.93847" lon="4.78036">
        <ele>182</ele>
        <time>2018-08-04T08:27:27Z</time>
      </trkpt>
      <trkpt lat="45.93847" lon="4.78042">
        <ele>182</ele>
        <time>2018-08-04T08:27:28Z</time>
      </trkpt>
      <trkpt lat="45.93847" lon="4.78055">
        <ele>182</ele>
        <time>2018-08-04T08:27:30Z</time>
      </trkpt>
      <trkpt lat="45.93844" lon="4.78061">
        <ele>182</ele>
        <time>2018-08-04T08:27:31Z</time>
      </trkpt>
      <trkpt lat="45.93842" lon="4.78072">
        <ele>182</ele>
        <time>2018-08-04T08:27:33Z</time>
      </trkpt>
      <trkpt lat="45.93841" lon="4.78078">
        <ele>181</ele>
        <time>2018-08-04T08:27:34Z</time>
      </trkpt>
      <trkpt lat="45.93839" lon="4.78086">
        <ele>181</ele>
        <time>2018-08-04T08:27:35Z</time>
      </trkpt>
      <trkpt lat="45.9384" lon="4.78093">
        <ele>182</ele>
        <time>2018-08-04T08:27:36Z</time>
      </trkpt>
      <trkpt lat="45.93838" lon="4.78105">
        <ele>183</ele>
        <time>2018-08-04T08:27:38Z</time>
      </trkpt>
      <trkpt lat="45.93837" lon="4.78111">
        <ele>184</ele>
        <time>2018-08-04T08:27:39Z</time>
      </trkpt>
      <trkpt lat="45.93836" lon="4.78119">
        <ele>184</ele>
        <time>2018-08-04T08:27:40Z</time>
      </trkpt>
      <trkpt lat="45.93833" lon="4.78125">
        <ele>180</ele>
        <time>2018-08-04T08:27:41Z</time>
      </trkpt>
      <trkpt lat="45.93832" lon="4.78133">
        <ele>180</ele>
        <time>2018-08-04T08:27:42Z</time>
      </trkpt>
      <trkpt lat="45.9383" lon="4.7814">
        <ele>180</ele>
        <time>2018-08-04T08:27:43Z</time>
      </trkpt>
      <trkpt lat="45.93829" lon="4.78149">
        <ele>180</ele>
        <time>2018-08-04T08:27:44Z</time>
      </trkpt>
      <trkpt lat="45.93827" lon="4.78156">
        <ele>181</ele>
        <time>2018-08-04T08:27:45Z</time>
      </trkpt>
      <trkpt lat="45.93825" lon="4.78164">
        <ele>181</ele>
        <time>2018-08-04T08:27:46Z</time>
      </trkpt>
      <trkpt lat="45.93822" lon="4.78172">
        <ele>182</ele>
        <time>2018-08-04T08:27:47Z</time>
      </trkpt>
      <trkpt lat="45.9382" lon="4.7818">
        <ele>182</ele>
        <time>2018-08-04T08:27:48Z</time>
      </trkpt>
      <trkpt lat="45.93818" lon="4.78186">
        <ele>182</ele>
        <time>2018-08-04T08:27:49Z</time>
      </trkpt>
      <trkpt lat="45.93816" lon="4.78192">
        <ele>182</ele>
        <time>2018-08-04T08:27:50Z</time>
      </trkpt>
      <trkpt lat="45.93814" lon="4.78198">
        <ele>182</ele>
        <time>2018-08-04T08:27:51Z</time>
      </trkpt>
      <trkpt lat="45.93812" lon="4.78206">
        <ele>182</ele>
        <time>2018-08-04T08:27:52Z</time>
      </trkpt>
      <trkpt lat="45.9381" lon="4.78212">
        <ele>182</ele>
        <time>2018-08-04T08:27:53Z</time>
      </trkpt>
      <trkpt lat="45.93809" lon="4.78218">
        <ele>182</ele>
        <time>2018-08-04T08:27:54Z</time>
      </trkpt>
      <trkpt lat="45.93807" lon="4.78225">
        <ele>182</ele>
        <time>2018-08-04T08:27:55Z</time>
      </trkpt>
      <trkpt lat="45.93803" lon="4.78231">
        <ele>182</ele>
        <time>2018-08-04T08:27:56Z</time>
      </trkpt>
      <trkpt lat="45.938" lon="4.78238">
        <ele>182</ele>
        <time>2018-08-04T08:27:57Z</time>
      </trkpt>
      <trkpt lat="45.93797" lon="4.78245">
        <ele>182</ele>
        <time>2018-08-04T08:27:58Z</time>
      </trkpt>
      <trkpt lat="45.93795" lon="4.78251">
        <ele>183</ele>
        <time>2018-08-04T08:27:59Z</time>
      </trkpt>
      <trkpt lat="45.93794" lon="4.7826">
        <ele>183</ele>
        <time>2018-08-04T08:28:00Z</time>
      </trkpt>
      <trkpt lat="45.93794" lon="4.78268">
        <ele>183</ele>
        <time>2018-08-04T08:28:01Z</time>
      </trkpt>
      <trkpt lat="45.93792" lon="4.78275">
        <ele>183</ele>
        <time>2018-08-04T08:28:02Z</time>
      </trkpt>
      <trkpt lat="45.9379" lon="4.78284">
        <ele>183</ele>
        <time>2018-08-04T08:28:03Z</time>
      </trkpt>
      <trkpt lat="45.93789" lon="4.78295">
        <ele>183</ele>
        <time>2018-08-04T08:28:04Z</time>
      </trkpt>
      <trkpt lat="45.93785" lon="4.78299">
        <ele>183</ele>
        <time>2018-08-04T08:28:05Z</time>
      </trkpt>
      <trkpt lat="45.9378" lon="4.78309">
        <ele>183</ele>
        <time>2018-08-04T08:28:07Z</time>
      </trkpt>
      <trkpt lat="45.93778" lon="4.78315">
        <ele>183</ele>
        <time>2018-08-04T08:28:08Z</time>
      </trkpt>
      <trkpt lat="45.93776" lon="4.78323">
        <ele>183</ele>
        <time>2018-08-04T08:28:09Z</time>
      </trkpt>
      <trkpt lat="45.93774" lon="4.78331">
        <ele>183</ele>
        <time>2018-08-04T08:28:10Z</time>
      </trkpt>
      <trkpt lat="45.93773" lon="4.7834">
        <ele>183</ele>
        <time>2018-08-04T08:28:11Z</time>
      </trkpt>
      <trkpt lat="45.93771" lon="4.78349">
        <ele>183</ele>
        <time>2018-08-04T08:28:12Z</time>
      </trkpt>
      <trkpt lat="45.93767" lon="4.78353">
        <ele>183</ele>
        <time>2018-08-04T08:28:13Z</time>
      </trkpt>
      <trkpt lat="45.93765" lon="4.78361">
        <ele>183</ele>
        <time>2018-08-04T08:28:14Z</time>
      </trkpt>
      <trkpt lat="45.93763" lon="4.78369">
        <ele>183</ele>
        <time>2018-08-04T08:28:15Z</time>
      </trkpt>
      <trkpt lat="45.93761" lon="4.78376">
        <ele>183</ele>
        <time>2018-08-04T08:28:16Z</time>
      </trkpt>
      <trkpt lat="45.93759" lon="4.78383">
        <ele>183</ele>
        <time>2018-08-04T08:28:17Z</time>
      </trkpt>
      <trkpt lat="45.93757" lon="4.78391">
        <ele>183</ele>
        <time>2018-08-04T08:28:18Z</time>
      </trkpt>
      <trkpt lat="45.93755" lon="4.78398">
        <ele>183</ele>
        <time>2018-08-04T08:28:19Z</time>
      </trkpt>
      <trkpt lat="45.93754" lon="4.78407">
        <ele>182</ele>
        <time>2018-08-04T08:28:20Z</time>
      </trkpt>
      <trkpt lat="45.93749" lon="4.78412">
        <ele>181</ele>
        <time>2018-08-04T08:28:21Z</time>
      </trkpt>
      <trkpt lat="45.93746" lon="4.78422">
        <ele>181</ele>
        <time>2018-08-04T08:28:22Z</time>
      </trkpt>
      <trkpt lat="45.93744" lon="4.7843">
        <ele>180</ele>
        <time>2018-08-04T08:28:23Z</time>
      </trkpt>
      <trkpt lat="45.93742" lon="4.7844">
        <ele>180</ele>
        <time>2018-08-04T08:28:24Z</time>
      </trkpt>
      <trkpt lat="45.93741" lon="4.7845">
        <ele>180</ele>
        <time>2018-08-04T08:28:25Z</time>
      </trkpt>
      <trkpt lat="45.93737" lon="4.78456">
        <ele>180</ele>
        <time>2018-08-04T08:28:26Z</time>
      </trkpt>
      <trkpt lat="45.93735" lon="4.78465">
        <ele>180</ele>
        <time>2018-08-04T08:28:27Z</time>
      </trkpt>
      <trkpt lat="45.93732" lon="4.78473">
        <ele>180</ele>
        <time>2018-08-04T08:28:28Z</time>
      </trkpt>
      <trkpt lat="45.93731" lon="4.78487">
        <ele>180</ele>
        <time>2018-08-04T08:28:29Z</time>
      </trkpt>
      <trkpt lat="45.93729" lon="4.78496">
        <ele>180</ele>
        <time>2018-08-04T08:28:30Z</time>
      </trkpt>
      <trkpt lat="45.93726" lon="4.78506">
        <ele>179</ele>
        <time>2018-08-04T08:28:31Z</time>
      </trkpt>
      <trkpt lat="45.93723" lon="4.78515">
        <ele>179</ele>
        <time>2018-08-04T08:28:32Z</time>
      </trkpt>
      <trkpt lat="45.93721" lon="4.78524">
        <ele>178</ele>
        <time>2018-08-04T08:28:33Z</time>
      </trkpt>
      <trkpt lat="45.9372" lon="4.78536">
        <ele>178</ele>
        <time>2018-08-04T08:28:34Z</time>
      </trkpt>
      <trkpt lat="45.93717" lon="4.78545">
        <ele>178</ele>
        <time>2018-08-04T08:28:35Z</time>
      </trkpt>
      <trkpt lat="45.93715" lon="4.78555">
        <ele>178</ele>
        <time>2018-08-04T08:28:36Z</time>
      </trkpt>
      <trkpt lat="45.93713" lon="4.78566">
        <ele>178</ele>
        <time>2018-08-04T08:28:37Z</time>
      </trkpt>
      <trkpt lat="45.93711" lon="4.78574">
        <ele>177</ele>
        <time>2018-08-04T08:28:38Z</time>
      </trkpt>
      <trkpt lat="45.93709" lon="4.78583">
        <ele>177</ele>
        <time>2018-08-04T08:28:39Z</time>
      </trkpt>
      <trkpt lat="45.93707" lon="4.78591">
        <ele>176</ele>
        <time>2018-08-04T08:28:40Z</time>
      </trkpt>
      <trkpt lat="45.93706" lon="4.78597">
        <ele>176</ele>
        <time>2018-08-04T08:28:41Z</time>
      </trkpt>
      <trkpt lat="45.93703" lon="4.78609">
        <ele>176</ele>
        <time>2018-08-04T08:28:43Z</time>
      </trkpt>
      <trkpt lat="45.93702" lon="4.78616">
        <ele>176</ele>
        <time>2018-08-04T08:28:44Z</time>
      </trkpt>
      <trkpt lat="45.93703" lon="4.78627">
        <ele>176</ele>
        <time>2018-08-04T08:28:47Z</time>
      </trkpt>
      <trkpt lat="45.93704" lon="4.78629">
        <ele>176</ele>
        <time>2018-08-04T08:28:48Z</time>
      </trkpt>
      <trkpt lat="45.93712" lon="4.78629">
        <ele>176</ele>
        <time>2018-08-04T08:28:49Z</time>
      </trkpt>
      <trkpt lat="45.93715" lon="4.78626">
        <ele>176</ele>
        <time>2018-08-04T08:28:50Z</time>
      </trkpt>
      <trkpt lat="45.93722" lon="4.78625">
        <ele>177</ele>
        <time>2018-08-04T08:28:52Z</time>
      </trkpt>
      <trkpt lat="45.93725" lon="4.78624">
        <ele>177</ele>
        <time>2018-08-04T08:28:53Z</time>
      </trkpt>
      <trkpt lat="45.93732" lon="4.78623">
        <ele>177</ele>
        <time>2018-08-04T08:28:56Z</time>
      </trkpt>
      <trkpt lat="45.93735" lon="4.78623">
        <ele>177</ele>
        <time>2018-08-04T08:28:57Z</time>
      </trkpt>
      <trkpt lat="45.93743" lon="4.78622">
        <ele>177</ele>
        <time>2018-08-04T08:29:00Z</time>
      </trkpt>
      <trkpt lat="45.93746" lon="4.78621">
        <ele>177</ele>
        <time>2018-08-04T08:29:01Z</time>
      </trkpt>
      <trkpt lat="45.93754" lon="4.78619">
        <ele>181</ele>
        <time>2018-08-04T08:29:04Z</time>
      </trkpt>
      <trkpt lat="45.93757" lon="4.78619">
        <ele>181</ele>
        <time>2018-08-04T08:29:05Z</time>
      </trkpt>
      <trkpt lat="45.93766" lon="4.78617">
        <ele>181</ele>
        <time>2018-08-04T08:29:08Z</time>
      </trkpt>
      <trkpt lat="45.93769" lon="4.78616">
        <ele>181</ele>
        <time>2018-08-04T08:29:09Z</time>
      </trkpt>
      <trkpt lat="45.93775" lon="4.78615">
        <ele>181</ele>
        <time>2018-08-04T08:29:11Z</time>
      </trkpt>
      <trkpt lat="45.93778" lon="4.78614">
        <ele>181</ele>
        <time>2018-08-04T08:29:12Z</time>
      </trkpt>
      <trkpt lat="45.93785" lon="4.78613">
        <ele>182</ele>
        <time>2018-08-04T08:29:14Z</time>
      </trkpt>
      <trkpt lat="45.93789" lon="4.78611">
        <ele>182</ele>
        <time>2018-08-04T08:29:15Z</time>
      </trkpt>
      <trkpt lat="45.93795" lon="4.78609">
        <ele>182</ele>
        <time>2018-08-04T08:29:17Z</time>
      </trkpt>
      <trkpt lat="45.93798" lon="4.78608">
        <ele>182</ele>
        <time>2018-08-04T08:29:18Z</time>
      </trkpt>
      <trkpt lat="45.93804" lon="4.78607">
        <ele>183</ele>
        <time>2018-08-04T08:29:20Z</time>
      </trkpt>
      <trkpt lat="45.93807" lon="4.78606">
        <ele>183</ele>
        <time>2018-08-04T08:29:21Z</time>
      </trkpt>
      <trkpt lat="45.93813" lon="4.78605">
        <ele>183</ele>
        <time>2018-08-04T08:29:23Z</time>
      </trkpt>
      <trkpt lat="45.93816" lon="4.78604">
        <ele>183</ele>
        <time>2018-08-04T08:29:24Z</time>
      </trkpt>
      <trkpt lat="45.93822" lon="4.78602">
        <ele>184</ele>
        <time>2018-08-04T08:29:26Z</time>
      </trkpt>
      <trkpt lat="45.93825" lon="4.78601">
        <ele>184</ele>
        <time>2018-08-04T08:29:27Z</time>
      </trkpt>
      <trkpt lat="45.93831" lon="4.78599">
        <ele>185</ele>
        <time>2018-08-04T08:29:29Z</time>
      </trkpt>
      <trkpt lat="45.93834" lon="4.78598">
        <ele>187</ele>
        <time>2018-08-04T08:29:30Z</time>
      </trkpt>
      <trkpt lat="45.93839" lon="4.78595">
        <ele>187</ele>
        <time>2018-08-04T08:29:32Z</time>
      </trkpt>
      <trkpt lat="45.93842" lon="4.78593">
        <ele>187</ele>
        <time>2018-08-04T08:29:33Z</time>
      </trkpt>
      <trkpt lat="45.9385" lon="4.78591">
        <ele>188</ele>
        <time>2018-08-04T08:29:36Z</time>
      </trkpt>
      <trkpt lat="45.93853" lon="4.78591">
        <ele>188</ele>
        <time>2018-08-04T08:29:37Z</time>
      </trkpt>
      <trkpt lat="45.93862" lon="4.78592">
        <ele>188</ele>
        <time>2018-08-04T08:29:41Z</time>
      </trkpt>
      <trkpt lat="45.93863" lon="4.78591">
        <ele>188</ele>
        <time>2018-08-04T08:29:42Z</time>
      </trkpt>
      <trkpt lat="45.93872" lon="4.7859">
        <ele>189</ele>
        <time>2018-08-04T08:29:46Z</time>
      </trkpt>
      <trkpt lat="45.93874" lon="4.78589">
        <ele>189</ele>
        <time>2018-08-04T08:29:47Z</time>
      </trkpt>
      <trkpt lat="45.93882" lon="4.78587">
        <ele>189</ele>
        <time>2018-08-04T08:29:51Z</time>
      </trkpt>
      <trkpt lat="45.93884" lon="4.78587">
        <ele>189</ele>
        <time>2018-08-04T08:29:52Z</time>
      </trkpt>
      <trkpt lat="45.93892" lon="4.78587">
        <ele>190</ele>
        <time>2018-08-04T08:29:56Z</time>
      </trkpt>
      <trkpt lat="45.93894" lon="4.78587">
        <ele>190</ele>
        <time>2018-08-04T08:29:57Z</time>
      </trkpt>
      <trkpt lat="45.93902" lon="4.78585">
        <ele>191</ele>
        <time>2018-08-04T08:30:01Z</time>
      </trkpt>
      <trkpt lat="45.93904" lon="4.78585">
        <ele>191</ele>
        <time>2018-08-04T08:30:02Z</time>
      </trkpt>
      <trkpt lat="45.93912" lon="4.78581">
        <ele>193</ele>
        <time>2018-08-04T08:30:06Z</time>
      </trkpt>
      <trkpt lat="45.93915" lon="4.7858">
        <ele>193</ele>
        <time>2018-08-04T08:30:07Z</time>
      </trkpt>
      <trkpt lat="45.93921" lon="4.78573">
        <ele>195</ele>
        <time>2018-08-04T08:30:10Z</time>
      </trkpt>
      <trkpt lat="45.93923" lon="4.78571">
        <ele>195</ele>
        <time>2018-08-04T08:30:11Z</time>
      </trkpt>
      <trkpt lat="45.93929" lon="4.78565">
        <ele>196</ele>
        <time>2018-08-04T08:30:14Z</time>
      </trkpt>
      <trkpt lat="45.93931" lon="4.78565">
        <ele>196</ele>
        <time>2018-08-04T08:30:15Z</time>
      </trkpt>
      <trkpt lat="45.93936" lon="4.78571">
        <ele>196</ele>
        <time>2018-08-04T08:30:18Z</time>
      </trkpt>
      <trkpt lat="45.93937" lon="4.78575">
        <ele>196</ele>
        <time>2018-08-04T08:30:19Z</time>
      </trkpt>
      <trkpt lat="45.93937" lon="4.78584">
        <ele>195</ele>
        <time>2018-08-04T08:30:21Z</time>
      </trkpt>
      <trkpt lat="45.93937" lon="4.78589">
        <ele>195</ele>
        <time>2018-08-04T08:30:22Z</time>
      </trkpt>
      <trkpt lat="45.93938" lon="4.78598">
        <ele>196</ele>
        <time>2018-08-04T08:30:24Z</time>
      </trkpt>
      <trkpt lat="45.93938" lon="4.78603">
        <ele>196</ele>
        <time>2018-08-04T08:30:25Z</time>
      </trkpt>
      <trkpt lat="45.93938" lon="4.78608">
        <ele>196</ele>
        <time>2018-08-04T08:30:26Z</time>
      </trkpt>
      <trkpt lat="45.93937" lon="4.78623">
        <ele>196</ele>
        <time>2018-08-04T08:30:27Z</time>
      </trkpt>
      <trkpt lat="45.93938" lon="4.78635">
        <ele>195</ele>
        <time>2018-08-04T08:30:29Z</time>
      </trkpt>
      <trkpt lat="45.93938" lon="4.78641">
        <ele>195</ele>
        <time>2018-08-04T08:30:30Z</time>
      </trkpt>
      <trkpt lat="45.93939" lon="4.78653">
        <ele>195</ele>
        <time>2018-08-04T08:30:32Z</time>
      </trkpt>
      <trkpt lat="45.93939" lon="4.78658">
        <ele>194</ele>
        <time>2018-08-04T08:30:33Z</time>
      </trkpt>
      <trkpt lat="45.93939" lon="4.78669">
        <ele>193</ele>
        <time>2018-08-04T08:30:35Z</time>
      </trkpt>
      <trkpt lat="45.93939" lon="4.78675">
        <ele>193</ele>
        <time>2018-08-04T08:30:36Z</time>
      </trkpt>
      <trkpt lat="45.93939" lon="4.78687">
        <ele>194</ele>
        <time>2018-08-04T08:30:38Z</time>
      </trkpt>
      <trkpt lat="45.93939" lon="4.78693">
        <ele>194</ele>
        <time>2018-08-04T08:30:39Z</time>
      </trkpt>
      <trkpt lat="45.93938" lon="4.78706">
        <ele>194</ele>
        <time>2018-08-04T08:30:41Z</time>
      </trkpt>
      <trkpt lat="45.93938" lon="4.78712">
        <ele>194</ele>
        <time>2018-08-04T08:30:42Z</time>
      </trkpt>
      <trkpt lat="45.93937" lon="4.78725">
        <ele>194</ele>
        <time>2018-08-04T08:30:44Z</time>
      </trkpt>
      <trkpt lat="45.93938" lon="4.78731">
        <ele>194</ele>
        <time>2018-08-04T08:30:45Z</time>
      </trkpt>
      <trkpt lat="45.93936" lon="4.78744">
        <ele>193</ele>
        <time>2018-08-04T08:30:47Z</time>
      </trkpt>
      <trkpt lat="45.93934" lon="4.7875">
        <ele>193</ele>
        <time>2018-08-04T08:30:48Z</time>
      </trkpt>
      <trkpt lat="45.93936" lon="4.78756">
        <ele>193</ele>
        <time>2018-08-04T08:30:49Z</time>
      </trkpt>
      <trkpt lat="45.93938" lon="4.78762">
        <ele>193</ele>
        <time>2018-08-04T08:30:50Z</time>
      </trkpt>
      <trkpt lat="45.93938" lon="4.78769">
        <ele>194</ele>
        <time>2018-08-04T08:30:51Z</time>
      </trkpt>
      <trkpt lat="45.93936" lon="4.78776">
        <ele>194</ele>
        <time>2018-08-04T08:30:52Z</time>
      </trkpt>
      <trkpt lat="45.93935" lon="4.78782">
        <ele>194</ele>
        <time>2018-08-04T08:30:53Z</time>
      </trkpt>
      <trkpt lat="45.93937" lon="4.78791">
        <ele>194</ele>
        <time>2018-08-04T08:30:54Z</time>
      </trkpt>
      <trkpt lat="45.93937" lon="4.78798">
        <ele>194</ele>
        <time>2018-08-04T08:30:55Z</time>
      </trkpt>
      <trkpt lat="45.93938" lon="4.78805">
        <ele>194</ele>
        <time>2018-08-04T08:30:56Z</time>
      </trkpt>
      <trkpt lat="45.93939" lon="4.78812">
        <ele>194</ele>
        <time>2018-08-04T08:30:57Z</time>
      </trkpt>
      <trkpt lat="45.93938" lon="4.78819">
        <ele>194</ele>
        <time>2018-08-04T08:30:58Z</time>
      </trkpt>
      <trkpt lat="45.93938" lon="4.78825">
        <ele>194</ele>
        <time>2018-08-04T08:30:59Z</time>
      </trkpt>
      <trkpt lat="45.93938" lon="4.78833">
        <ele>193</ele>
        <time>2018-08-04T08:31:00Z</time>
      </trkpt>
      <trkpt lat="45.93939" lon="4.78839">
        <ele>193</ele>
        <time>2018-08-04T08:31:01Z</time>
      </trkpt>
      <trkpt lat="45.93939" lon="4.78846">
        <ele>193</ele>
        <time>2018-08-04T08:31:02Z</time>
      </trkpt>
      <trkpt lat="45.93939" lon="4.78853">
        <ele>193</ele>
        <time>2018-08-04T08:31:03Z</time>
      </trkpt>
      <trkpt lat="45.93938" lon="4.7886">
        <ele>194</ele>
        <time>2018-08-04T08:31:04Z</time>
      </trkpt>
      <trkpt lat="45.93938" lon="4.78867">
        <ele>194</ele>
        <time>2018-08-04T08:31:05Z</time>
      </trkpt>
      <trkpt lat="45.93938" lon="4.78874">
        <ele>194</ele>
        <time>2018-08-04T08:31:06Z</time>
      </trkpt>
      <trkpt lat="45.93938" lon="4.78881">
        <ele>194</ele>
        <time>2018-08-04T08:31:07Z</time>
      </trkpt>
      <trkpt lat="45.93939" lon="4.78889">
        <ele>193</ele>
        <time>2018-08-04T08:31:08Z</time>
      </trkpt>
      <trkpt lat="45.93938" lon="4.78895">
        <ele>193</ele>
        <time>2018-08-04T08:31:09Z</time>
      </trkpt>
      <trkpt lat="45.93938" lon="4.78903">
        <ele>193</ele>
        <time>2018-08-04T08:31:10Z</time>
      </trkpt>
      <trkpt lat="45.9394" lon="4.7891">
        <ele>193</ele>
        <time>2018-08-04T08:31:11Z</time>
      </trkpt>
      <trkpt lat="45.93941" lon="4.78917">
        <ele>193</ele>
        <time>2018-08-04T08:31:12Z</time>
      </trkpt>
      <trkpt lat="45.93941" lon="4.78923">
        <ele>193</ele>
        <time>2018-08-04T08:31:13Z</time>
      </trkpt>
      <trkpt lat="45.93941" lon="4.7893">
        <ele>193</ele>
        <time>2018-08-04T08:31:14Z</time>
      </trkpt>
      <trkpt lat="45.93941" lon="4.78937">
        <ele>193</ele>
        <time>2018-08-04T08:31:15Z</time>
      </trkpt>
      <trkpt lat="45.93942" lon="4.78944">
        <ele>194</ele>
        <time>2018-08-04T08:31:16Z</time>
      </trkpt>
      <trkpt lat="45.93943" lon="4.78957">
        <ele>194</ele>
        <time>2018-08-04T08:31:18Z</time>
      </trkpt>
      <trkpt lat="45.93943" lon="4.78963">
        <ele>194</ele>
        <time>2018-08-04T08:31:19Z</time>
      </trkpt>
      <trkpt lat="45.93945" lon="4.7897">
        <ele>194</ele>
        <time>2018-08-04T08:31:20Z</time>
      </trkpt>
      <trkpt lat="45.93945" lon="4.7898">
        <ele>194</ele>
        <time>2018-08-04T08:31:21Z</time>
      </trkpt>
      <trkpt lat="45.93946" lon="4.78987">
        <ele>194</ele>
        <time>2018-08-04T08:31:22Z</time>
      </trkpt>
      <trkpt lat="45.93944" lon="4.78994">
        <ele>194</ele>
        <time>2018-08-04T08:31:23Z</time>
      </trkpt>
      <trkpt lat="45.93944" lon="4.79006">
        <ele>195</ele>
        <time>2018-08-04T08:31:25Z</time>
      </trkpt>
      <trkpt lat="45.93945" lon="4.79012">
        <ele>195</ele>
        <time>2018-08-04T08:31:26Z</time>
      </trkpt>
      <trkpt lat="45.93945" lon="4.79019">
        <ele>195</ele>
        <time>2018-08-04T08:31:27Z</time>
      </trkpt>
      <trkpt lat="45.93947" lon="4.79026">
        <ele>195</ele>
        <time>2018-08-04T08:31:28Z</time>
      </trkpt>
      <trkpt lat="45.93948" lon="4.79034">
        <ele>195</ele>
        <time>2018-08-04T08:31:30Z</time>
      </trkpt>
      <trkpt lat="45.93949" lon="4.79043">
        <ele>196</ele>
        <time>2018-08-04T08:31:31Z</time>
      </trkpt>
      <trkpt lat="45.93949" lon="4.79055">
        <ele>196</ele>
        <time>2018-08-04T08:31:33Z</time>
      </trkpt>
      <trkpt lat="45.9395" lon="4.79061">
        <ele>196</ele>
        <time>2018-08-04T08:31:34Z</time>
      </trkpt>
      <trkpt lat="45.9395" lon="4.79073">
        <ele>196</ele>
        <time>2018-08-04T08:31:36Z</time>
      </trkpt>
      <trkpt lat="45.93952" lon="4.79079">
        <ele>196</ele>
        <time>2018-08-04T08:31:37Z</time>
      </trkpt>
      <trkpt lat="45.93951" lon="4.79091">
        <ele>196</ele>
        <time>2018-08-04T08:31:39Z</time>
      </trkpt>
      <trkpt lat="45.93951" lon="4.79097">
        <ele>197</ele>
        <time>2018-08-04T08:31:40Z</time>
      </trkpt>
      <trkpt lat="45.93951" lon="4.79104">
        <ele>197</ele>
        <time>2018-08-04T08:31:41Z</time>
      </trkpt>
      <trkpt lat="45.93951" lon="4.7911">
        <ele>197</ele>
        <time>2018-08-04T08:31:42Z</time>
      </trkpt>
      <trkpt lat="45.9395" lon="4.79116">
        <ele>197</ele>
        <time>2018-08-04T08:31:43Z</time>
      </trkpt>
      <trkpt lat="45.9395" lon="4.79123">
        <ele>197</ele>
        <time>2018-08-04T08:31:44Z</time>
      </trkpt>
      <trkpt lat="45.9395" lon="4.79131">
        <ele>197</ele>
        <time>2018-08-04T08:31:45Z</time>
      </trkpt>
      <trkpt lat="45.93949" lon="4.79138">
        <ele>197</ele>
        <time>2018-08-04T08:31:46Z</time>
      </trkpt>
      <trkpt lat="45.93949" lon="4.79145">
        <ele>197</ele>
        <time>2018-08-04T08:31:47Z</time>
      </trkpt>
      <trkpt lat="45.9395" lon="4.79153">
        <ele>197</ele>
        <time>2018-08-04T08:31:48Z</time>
      </trkpt>
      <trkpt lat="45.9395" lon="4.7916">
        <ele>197</ele>
        <time>2018-08-04T08:31:49Z</time>
      </trkpt>
      <trkpt lat="45.9395" lon="4.79166">
        <ele>197</ele>
        <time>2018-08-04T08:31:50Z</time>
      </trkpt>
      <trkpt lat="45.93949" lon="4.79172">
        <ele>197</ele>
        <time>2018-08-04T08:31:51Z</time>
      </trkpt>
      <trkpt lat="45.9395" lon="4.79181">
        <ele>197</ele>
        <time>2018-08-04T08:31:52Z</time>
      </trkpt>
      <trkpt lat="45.93951" lon="4.79188">
        <ele>197</ele>
        <time>2018-08-04T08:31:53Z</time>
      </trkpt>
      <trkpt lat="45.93952" lon="4.79195">
        <ele>197</ele>
        <time>2018-08-04T08:31:54Z</time>
      </trkpt>
      <trkpt lat="45.9395" lon="4.79205">
        <ele>197</ele>
        <time>2018-08-04T08:31:56Z</time>
      </trkpt>
      <trkpt lat="45.93951" lon="4.79211">
        <ele>197</ele>
        <time>2018-08-04T08:31:57Z</time>
      </trkpt>
      <trkpt lat="45.93951" lon="4.79223">
        <ele>197</ele>
        <time>2018-08-04T08:31:59Z</time>
      </trkpt>
      <trkpt lat="45.9395" lon="4.79229">
        <ele>197</ele>
        <time>2018-08-04T08:32:00Z</time>
      </trkpt>
      <trkpt lat="45.93951" lon="4.79241">
        <ele>197</ele>
        <time>2018-08-04T08:32:02Z</time>
      </trkpt>
      <trkpt lat="45.93951" lon="4.79246">
        <ele>197</ele>
        <time>2018-08-04T08:32:03Z</time>
      </trkpt>
      <trkpt lat="45.93951" lon="4.79258">
        <ele>198</ele>
        <time>2018-08-04T08:32:05Z</time>
      </trkpt>
      <trkpt lat="45.93951" lon="4.79264">
        <ele>198</ele>
        <time>2018-08-04T08:32:06Z</time>
      </trkpt>
      <trkpt lat="45.93951" lon="4.79276">
        <ele>198</ele>
        <time>2018-08-04T08:32:08Z</time>
      </trkpt>
      <trkpt lat="45.93951" lon="4.79283">
        <ele>198</ele>
        <time>2018-08-04T08:32:09Z</time>
      </trkpt>
      <trkpt lat="45.93951" lon="4.79289">
        <ele>198</ele>
        <time>2018-08-04T08:32:10Z</time>
      </trkpt>
      <trkpt lat="45.93951" lon="4.79296">
        <ele>198</ele>
        <time>2018-08-04T08:32:11Z</time>
      </trkpt>
      <trkpt lat="45.93951" lon="4.79308">
        <ele>198</ele>
        <time>2018-08-04T08:32:13Z</time>
      </trkpt>
      <trkpt lat="45.93952" lon="4.79314">
        <ele>198</ele>
        <time>2018-08-04T08:32:14Z</time>
      </trkpt>
      <trkpt lat="45.93952" lon="4.79326">
        <ele>199</ele>
        <time>2018-08-04T08:32:16Z</time>
      </trkpt>
      <trkpt lat="45.93952" lon="4.79331">
        <ele>199</ele>
        <time>2018-08-04T08:32:17Z</time>
      </trkpt>
      <trkpt lat="45.93952" lon="4.79337">
        <ele>200</ele>
        <time>2018-08-04T08:32:18Z</time>
      </trkpt>
      <trkpt lat="45.93952" lon="4.79345">
        <ele>200</ele>
        <time>2018-08-04T08:32:19Z</time>
      </trkpt>
      <trkpt lat="45.93952" lon="4.79357">
        <ele>200</ele>
        <time>2018-08-04T08:32:21Z</time>
      </trkpt>
      <trkpt lat="45.93952" lon="4.79363">
        <ele>201</ele>
        <time>2018-08-04T08:32:22Z</time>
      </trkpt>
      <trkpt lat="45.93951" lon="4.7937">
        <ele>201</ele>
        <time>2018-08-04T08:32:23Z</time>
      </trkpt>
      <trkpt lat="45.93951" lon="4.79377">
        <ele>201</ele>
        <time>2018-08-04T08:32:24Z</time>
      </trkpt>
      <trkpt lat="45.93949" lon="4.79389">
        <ele>201</ele>
        <time>2018-08-04T08:32:26Z</time>
      </trkpt>
      <trkpt lat="45.93949" lon="4.79395">
        <ele>201</ele>
        <time>2018-08-04T08:32:27Z</time>
      </trkpt>
      <trkpt lat="45.93949" lon="4.79406">
        <ele>201</ele>
        <time>2018-08-04T08:32:29Z</time>
      </trkpt>
      <trkpt lat="45.93948" lon="4.79412">
        <ele>201</ele>
        <time>2018-08-04T08:32:30Z</time>
      </trkpt>
      <trkpt lat="45.93948" lon="4.79424">
        <ele>202</ele>
        <time>2018-08-04T08:32:32Z</time>
      </trkpt>
      <trkpt lat="45.93947" lon="4.79429">
        <ele>202</ele>
        <time>2018-08-04T08:32:33Z</time>
      </trkpt>
      <trkpt lat="45.93946" lon="4.79435">
        <ele>202</ele>
        <time>2018-08-04T08:32:35Z</time>
      </trkpt>
      <trkpt lat="45.93947" lon="4.79444">
        <ele>202</ele>
        <time>2018-08-04T08:32:36Z</time>
      </trkpt>
      <trkpt lat="45.93947" lon="4.7945">
        <ele>202</ele>
        <time>2018-08-04T08:32:37Z</time>
      </trkpt>
      <trkpt lat="45.93946" lon="4.79457">
        <ele>202</ele>
        <time>2018-08-04T08:32:38Z</time>
      </trkpt>
      <trkpt lat="45.93946" lon="4.79464">
        <ele>202</ele>
        <time>2018-08-04T08:32:39Z</time>
      </trkpt>
      <trkpt lat="45.93947" lon="4.7947">
        <ele>202</ele>
        <time>2018-08-04T08:32:40Z</time>
      </trkpt>
      <trkpt lat="45.93948" lon="4.79481">
        <ele>202</ele>
        <time>2018-08-04T08:32:42Z</time>
      </trkpt>
      <trkpt lat="45.93948" lon="4.79487">
        <ele>202</ele>
        <time>2018-08-04T08:32:43Z</time>
      </trkpt>
      <trkpt lat="45.93949" lon="4.79495">
        <ele>202</ele>
        <time>2018-08-04T08:32:44Z</time>
      </trkpt>
      <trkpt lat="45.9395" lon="4.79501">
        <ele>203</ele>
        <time>2018-08-04T08:32:45Z</time>
      </trkpt>
      <trkpt lat="45.93951" lon="4.79513">
        <ele>204</ele>
        <time>2018-08-04T08:32:47Z</time>
      </trkpt>
      <trkpt lat="45.93951" lon="4.79519">
        <ele>204</ele>
        <time>2018-08-04T08:32:48Z</time>
      </trkpt>
      <trkpt lat="45.93952" lon="4.7953">
        <ele>204</ele>
        <time>2018-08-04T08:32:50Z</time>
      </trkpt>
      <trkpt lat="45.93952" lon="4.79535">
        <ele>204</ele>
        <time>2018-08-04T08:32:51Z</time>
      </trkpt>
      <trkpt lat="45.93953" lon="4.79546">
        <ele>205</ele>
        <time>2018-08-04T08:32:53Z</time>
      </trkpt>
      <trkpt lat="45.93954" lon="4.79551">
        <ele>205</ele>
        <time>2018-08-04T08:32:54Z</time>
      </trkpt>
      <trkpt lat="45.93955" lon="4.79563">
        <ele>205</ele>
        <time>2018-08-04T08:32:56Z</time>
      </trkpt>
      <trkpt lat="45.93955" lon="4.79568">
        <ele>205</ele>
        <time>2018-08-04T08:32:57Z</time>
      </trkpt>
      <trkpt lat="45.93956" lon="4.7958">
        <ele>205</ele>
        <time>2018-08-04T08:32:59Z</time>
      </trkpt>
      <trkpt lat="45.93957" lon="4.79586">
        <ele>206</ele>
        <time>2018-08-04T08:33:00Z</time>
      </trkpt>
      <trkpt lat="45.93958" lon="4.79597">
        <ele>207</ele>
        <time>2018-08-04T08:33:02Z</time>
      </trkpt>
      <trkpt lat="45.93959" lon="4.796">
        <ele>207</ele>
        <time>2018-08-04T08:33:03Z</time>
      </trkpt>
      <trkpt lat="45.93959" lon="4.79603">
        <ele>207</ele>
        <time>2018-08-04T08:33:04Z</time>
      </trkpt>
      <trkpt lat="45.93961" lon="4.79614">
        <ele>207</ele>
        <time>2018-08-04T08:33:05Z</time>
      </trkpt>
      <trkpt lat="45.9396" lon="4.79627">
        <ele>207</ele>
        <time>2018-08-04T08:33:07Z</time>
      </trkpt>
      <trkpt lat="45.93962" lon="4.79633">
        <ele>207</ele>
        <time>2018-08-04T08:33:08Z</time>
      </trkpt>
      <trkpt lat="45.93963" lon="4.7964">
        <ele>207</ele>
        <time>2018-08-04T08:33:09Z</time>
      </trkpt>
      <trkpt lat="45.93963" lon="4.79646">
        <ele>207</ele>
        <time>2018-08-04T08:33:10Z</time>
      </trkpt>
      <trkpt lat="45.93964" lon="4.79652">
        <ele>207</ele>
        <time>2018-08-04T08:33:11Z</time>
      </trkpt>
      <trkpt lat="45.93965" lon="4.79659">
        <ele>207</ele>
        <time>2018-08-04T08:33:12Z</time>
      </trkpt>
      <trkpt lat="45.93967" lon="4.7967">
        <ele>207</ele>
        <time>2018-08-04T08:33:14Z</time>
      </trkpt>
      <trkpt lat="45.93967" lon="4.79676">
        <ele>207</ele>
        <time>2018-08-04T08:33:15Z</time>
      </trkpt>
      <trkpt lat="45.93967" lon="4.79682">
        <ele>207</ele>
        <time>2018-08-04T08:33:16Z</time>
      </trkpt>
      <trkpt lat="45.93967" lon="4.79689">
        <ele>207</ele>
        <time>2018-08-04T08:33:17Z</time>
      </trkpt>
      <trkpt lat="45.93968" lon="4.79701">
        <ele>207</ele>
        <time>2018-08-04T08:33:19Z</time>
      </trkpt>
      <trkpt lat="45.93969" lon="4.79707">
        <ele>207</ele>
        <time>2018-08-04T08:33:20Z</time>
      </trkpt>
      <trkpt lat="45.9397" lon="4.79713">
        <ele>207</ele>
        <time>2018-08-04T08:33:21Z</time>
      </trkpt>
      <trkpt lat="45.9397" lon="4.79721">
        <ele>207</ele>
        <time>2018-08-04T08:33:22Z</time>
      </trkpt>
      <trkpt lat="45.93972" lon="4.79734">
        <ele>207</ele>
        <time>2018-08-04T08:33:24Z</time>
      </trkpt>
      <trkpt lat="45.93972" lon="4.79741">
        <ele>207</ele>
        <time>2018-08-04T08:33:25Z</time>
      </trkpt>
      <trkpt lat="45.93973" lon="4.79748">
        <ele>207</ele>
        <time>2018-08-04T08:33:26Z</time>
      </trkpt>
      <trkpt lat="45.93974" lon="4.79755">
        <ele>206</ele>
        <time>2018-08-04T08:33:27Z</time>
      </trkpt>
      <trkpt lat="45.93975" lon="4.79761">
        <ele>207</ele>
        <time>2018-08-04T08:33:28Z</time>
      </trkpt>
      <trkpt lat="45.93976" lon="4.79768">
        <ele>207</ele>
        <time>2018-08-04T08:33:29Z</time>
      </trkpt>
      <trkpt lat="45.93978" lon="4.79775">
        <ele>207</ele>
        <time>2018-08-04T08:33:30Z</time>
      </trkpt>
      <trkpt lat="45.93977" lon="4.79782">
        <ele>206</ele>
        <time>2018-08-04T08:33:31Z</time>
      </trkpt>
      <trkpt lat="45.93976" lon="4.7979">
        <ele>207</ele>
        <time>2018-08-04T08:33:32Z</time>
      </trkpt>
      <trkpt lat="45.93975" lon="4.79797">
        <ele>207</ele>
        <time>2018-08-04T08:33:33Z</time>
      </trkpt>
      <trkpt lat="45.93974" lon="4.79804">
        <ele>207</ele>
        <time>2018-08-04T08:33:34Z</time>
      </trkpt>
      <trkpt lat="45.93974" lon="4.7981">
        <ele>207</ele>
        <time>2018-08-04T08:33:35Z</time>
      </trkpt>
      <trkpt lat="45.93973" lon="4.79817">
        <ele>207</ele>
        <time>2018-08-04T08:33:36Z</time>
      </trkpt>
      <trkpt lat="45.93972" lon="4.79823">
        <ele>207</ele>
        <time>2018-08-04T08:33:37Z</time>
      </trkpt>
      <trkpt lat="45.93971" lon="4.79827">
        <ele>207</ele>
        <time>2018-08-04T08:33:38Z</time>
      </trkpt>
      <trkpt lat="45.93969" lon="4.79836">
        <ele>207</ele>
        <time>2018-08-04T08:33:39Z</time>
      </trkpt>
      <trkpt lat="45.93967" lon="4.79843">
        <ele>206</ele>
        <time>2018-08-04T08:33:40Z</time>
      </trkpt>
      <trkpt lat="45.93966" lon="4.79849">
        <ele>206</ele>
        <time>2018-08-04T08:33:41Z</time>
      </trkpt>
      <trkpt lat="45.93965" lon="4.79855">
        <ele>206</ele>
        <time>2018-08-04T08:33:42Z</time>
      </trkpt>
      <trkpt lat="45.93964" lon="4.79862">
        <ele>206</ele>
        <time>2018-08-04T08:33:43Z</time>
      </trkpt>
      <trkpt lat="45.93963" lon="4.79868">
        <ele>206</ele>
        <time>2018-08-04T08:33:44Z</time>
      </trkpt>
      <trkpt lat="45.9396" lon="4.79875">
        <ele>206</ele>
        <time>2018-08-04T08:33:45Z</time>
      </trkpt>
      <trkpt lat="45.9396" lon="4.79882">
        <ele>206</ele>
        <time>2018-08-04T08:33:46Z</time>
      </trkpt>
      <trkpt lat="45.93958" lon="4.79889">
        <ele>206</ele>
        <time>2018-08-04T08:33:47Z</time>
      </trkpt>
      <trkpt lat="45.93957" lon="4.79896">
        <ele>206</ele>
        <time>2018-08-04T08:33:48Z</time>
      </trkpt>
      <trkpt lat="45.93956" lon="4.79904">
        <ele>205</ele>
        <time>2018-08-04T08:33:49Z</time>
      </trkpt>
      <trkpt lat="45.93954" lon="4.79911">
        <ele>205</ele>
        <time>2018-08-04T08:33:50Z</time>
      </trkpt>
      <trkpt lat="45.93952" lon="4.79918">
        <ele>205</ele>
        <time>2018-08-04T08:33:51Z</time>
      </trkpt>
      <trkpt lat="45.93951" lon="4.7993">
        <ele>205</ele>
        <time>2018-08-04T08:33:53Z</time>
      </trkpt>
      <trkpt lat="45.93949" lon="4.79939">
        <ele>205</ele>
        <time>2018-08-04T08:33:54Z</time>
      </trkpt>
      <trkpt lat="45.93948" lon="4.79946">
        <ele>205</ele>
        <time>2018-08-04T08:33:55Z</time>
      </trkpt>
      <trkpt lat="45.93947" lon="4.79954">
        <ele>205</ele>
        <time>2018-08-04T08:33:56Z</time>
      </trkpt>
      <trkpt lat="45.93946" lon="4.79962">
        <ele>205</ele>
        <time>2018-08-04T08:33:57Z</time>
      </trkpt>
      <trkpt lat="45.93945" lon="4.7997">
        <ele>205</ele>
        <time>2018-08-04T08:33:58Z</time>
      </trkpt>
      <trkpt lat="45.93944" lon="4.79977">
        <ele>205</ele>
        <time>2018-08-04T08:33:59Z</time>
      </trkpt>
      <trkpt lat="45.93943" lon="4.79985">
        <ele>204</ele>
        <time>2018-08-04T08:34:00Z</time>
      </trkpt>
      <trkpt lat="45.93942" lon="4.79993">
        <ele>204</ele>
        <time>2018-08-04T08:34:01Z</time>
      </trkpt>
      <trkpt lat="45.93941" lon="4.8">
        <ele>204</ele>
        <time>2018-08-04T08:34:02Z</time>
      </trkpt>
      <trkpt lat="45.9394" lon="4.80007">
        <ele>206</ele>
        <time>2018-08-04T08:34:03Z</time>
      </trkpt>
      <trkpt lat="45.9394" lon="4.80015">
        <ele>206</ele>
        <time>2018-08-04T08:34:04Z</time>
      </trkpt>
      <trkpt lat="45.93939" lon="4.80022">
        <ele>206</ele>
        <time>2018-08-04T08:34:05Z</time>
      </trkpt>
      <trkpt lat="45.93939" lon="4.80029">
        <ele>207</ele>
        <time>2018-08-04T08:34:06Z</time>
      </trkpt>
      <trkpt lat="45.93938" lon="4.80035">
        <ele>207</ele>
        <time>2018-08-04T08:34:07Z</time>
      </trkpt>
      <trkpt lat="45.93938" lon="4.80044">
        <ele>207</ele>
        <time>2018-08-04T08:34:08Z</time>
      </trkpt>
      <trkpt lat="45.93938" lon="4.80051">
        <ele>207</ele>
        <time>2018-08-04T08:34:09Z</time>
      </trkpt>
      <trkpt lat="45.93937" lon="4.80059">
        <ele>207</ele>
        <time>2018-08-04T08:34:10Z</time>
      </trkpt>
      <trkpt lat="45.93937" lon="4.80067">
        <ele>207</ele>
        <time>2018-08-04T08:34:11Z</time>
      </trkpt>
      <trkpt lat="45.93937" lon="4.80076">
        <ele>207</ele>
        <time>2018-08-04T08:34:12Z</time>
      </trkpt>
      <trkpt lat="45.93938" lon="4.80085">
        <ele>208</ele>
        <time>2018-08-04T08:34:13Z</time>
      </trkpt>
      <trkpt lat="45.93939" lon="4.80092">
        <ele>208</ele>
        <time>2018-08-04T08:34:14Z</time>
      </trkpt>
      <trkpt lat="45.9394" lon="4.801">
        <ele>208</ele>
        <time>2018-08-04T08:34:15Z</time>
      </trkpt>
      <trkpt lat="45.93941" lon="4.80109">
        <ele>208</ele>
        <time>2018-08-04T08:34:16Z</time>
      </trkpt>
      <trkpt lat="45.93942" lon="4.80117">
        <ele>209</ele>
        <time>2018-08-04T08:34:17Z</time>
      </trkpt>
      <trkpt lat="45.93943" lon="4.80126">
        <ele>209</ele>
        <time>2018-08-04T08:34:18Z</time>
      </trkpt>
      <trkpt lat="45.93944" lon="4.80135">
        <ele>209</ele>
        <time>2018-08-04T08:34:19Z</time>
      </trkpt>
      <trkpt lat="45.93945" lon="4.80142">
        <ele>208</ele>
        <time>2018-08-04T08:34:20Z</time>
      </trkpt>
      <trkpt lat="45.93945" lon="4.80151">
        <ele>208</ele>
        <time>2018-08-04T08:34:21Z</time>
      </trkpt>
      <trkpt lat="45.93946" lon="4.80158">
        <ele>208</ele>
        <time>2018-08-04T08:34:22Z</time>
      </trkpt>
      <trkpt lat="45.93947" lon="4.80165">
        <ele>208</ele>
        <time>2018-08-04T08:34:23Z</time>
      </trkpt>
      <trkpt lat="45.93949" lon="4.80173">
        <ele>206</ele>
        <time>2018-08-04T08:34:24Z</time>
      </trkpt>
      <trkpt lat="45.93949" lon="4.80181">
        <ele>206</ele>
        <time>2018-08-04T08:34:25Z</time>
      </trkpt>
      <trkpt lat="45.9395" lon="4.80188">
        <ele>206</ele>
        <time>2018-08-04T08:34:26Z</time>
      </trkpt>
      <trkpt lat="45.93951" lon="4.80194">
        <ele>205</ele>
        <time>2018-08-04T08:34:27Z</time>
      </trkpt>
      <trkpt lat="45.93953" lon="4.80201">
        <ele>205</ele>
        <time>2018-08-04T08:34:28Z</time>
      </trkpt>
      <trkpt lat="45.93954" lon="4.80209">
        <ele>205</ele>
        <time>2018-08-04T08:34:29Z</time>
      </trkpt>
      <trkpt lat="45.93956" lon="4.80217">
        <ele>205</ele>
        <time>2018-08-04T08:34:30Z</time>
      </trkpt>
      <trkpt lat="45.93958" lon="4.80224">
        <ele>205</ele>
        <time>2018-08-04T08:34:31Z</time>
      </trkpt>
      <trkpt lat="45.9396" lon="4.8023">
        <ele>205</ele>
        <time>2018-08-04T08:34:32Z</time>
      </trkpt>
      <trkpt lat="45.93963" lon="4.80237">
        <ele>204</ele>
        <time>2018-08-04T08:34:33Z</time>
      </trkpt>
      <trkpt lat="45.93965" lon="4.80244">
        <ele>204</ele>
        <time>2018-08-04T08:34:34Z</time>
      </trkpt>
      <trkpt lat="45.93967" lon="4.80251">
        <ele>202</ele>
        <time>2018-08-04T08:34:35Z</time>
      </trkpt>
      <trkpt lat="45.93969" lon="4.80258">
        <ele>202</ele>
        <time>2018-08-04T08:34:36Z</time>
      </trkpt>
      <trkpt lat="45.9397" lon="4.80266">
        <ele>202</ele>
        <time>2018-08-04T08:34:37Z</time>
      </trkpt>
      <trkpt lat="45.93972" lon="4.80273">
        <ele>202</ele>
        <time>2018-08-04T08:34:38Z</time>
      </trkpt>
      <trkpt lat="45.93974" lon="4.80279">
        <ele>203</ele>
        <time>2018-08-04T08:34:39Z</time>
      </trkpt>
      <trkpt lat="45.93977" lon="4.80286">
        <ele>203</ele>
        <time>2018-08-04T08:34:40Z</time>
      </trkpt>
      <trkpt lat="45.93978" lon="4.80293">
        <ele>203</ele>
        <time>2018-08-04T08:34:41Z</time>
      </trkpt>
      <trkpt lat="45.9398" lon="4.80299">
        <ele>203</ele>
        <time>2018-08-04T08:34:42Z</time>
      </trkpt>
      <trkpt lat="45.93981" lon="4.80305">
        <ele>203</ele>
        <time>2018-08-04T08:34:43Z</time>
      </trkpt>
      <trkpt lat="45.93984" lon="4.80312">
        <ele>203</ele>
        <time>2018-08-04T08:34:44Z</time>
      </trkpt>
      <trkpt lat="45.93987" lon="4.80323">
        <ele>204</ele>
        <time>2018-08-04T08:34:46Z</time>
      </trkpt>
      <trkpt lat="45.93988" lon="4.80328">
        <ele>204</ele>
        <time>2018-08-04T08:34:47Z</time>
      </trkpt>
      <trkpt lat="45.93991" lon="4.80338">
        <ele>206</ele>
        <time>2018-08-04T08:34:50Z</time>
      </trkpt>
      <trkpt lat="45.93994" lon="4.80345">
        <ele>206</ele>
        <time>2018-08-04T08:34:51Z</time>
      </trkpt>
      <trkpt lat="45.93997" lon="4.80357">
        <ele>207</ele>
        <time>2018-08-04T08:34:54Z</time>
      </trkpt>
      <trkpt lat="45.93998" lon="4.8036">
        <ele>207</ele>
        <time>2018-08-04T08:34:55Z</time>
      </trkpt>
      <trkpt lat="45.94001" lon="4.8037">
        <ele>215</ele>
        <time>2018-08-04T08:34:58Z</time>
      </trkpt>
      <trkpt lat="45.94002" lon="4.80373">
        <ele>216</ele>
        <time>2018-08-04T08:34:59Z</time>
      </trkpt>
      <trkpt lat="45.94005" lon="4.80384">
        <ele>217</ele>
        <time>2018-08-04T08:35:02Z</time>
      </trkpt>
      <trkpt lat="45.94006" lon="4.80388">
        <ele>217</ele>
        <time>2018-08-04T08:35:03Z</time>
      </trkpt>
      <trkpt lat="45.94009" lon="4.80399">
        <ele>217</ele>
        <time>2018-08-04T08:35:06Z</time>
      </trkpt>
      <trkpt lat="45.9401" lon="4.80403">
        <ele>217</ele>
        <time>2018-08-04T08:35:07Z</time>
      </trkpt>
      <trkpt lat="45.94012" lon="4.80414">
        <ele>217</ele>
        <time>2018-08-04T08:35:10Z</time>
      </trkpt>
      <trkpt lat="45.94013" lon="4.80418">
        <ele>220</ele>
        <time>2018-08-04T08:35:11Z</time>
      </trkpt>
      <trkpt lat="45.94015" lon="4.80429">
        <ele>221</ele>
        <time>2018-08-04T08:35:14Z</time>
      </trkpt>
      <trkpt lat="45.94016" lon="4.80433">
        <ele>222</ele>
        <time>2018-08-04T08:35:15Z</time>
      </trkpt>
      <trkpt lat="45.94017" lon="4.80442">
        <ele>222</ele>
        <time>2018-08-04T08:35:17Z</time>
      </trkpt>
      <trkpt lat="45.94018" lon="4.80446">
        <ele>223</ele>
        <time>2018-08-04T08:35:18Z</time>
      </trkpt>
      <trkpt lat="45.94019" lon="4.80457">
        <ele>223</ele>
        <time>2018-08-04T08:35:21Z</time>
      </trkpt>
      <trkpt lat="45.94019" lon="4.80461">
        <ele>223</ele>
        <time>2018-08-04T08:35:22Z</time>
      </trkpt>
      <trkpt lat="45.94019" lon="4.80473">
        <ele>223</ele>
        <time>2018-08-04T08:35:25Z</time>
      </trkpt>
      <trkpt lat="45.94019" lon="4.80477">
        <ele>223</ele>
        <time>2018-08-04T08:35:26Z</time>
      </trkpt>
      <trkpt lat="45.94019" lon="4.80487">
        <ele>223</ele>
        <time>2018-08-04T08:35:28Z</time>
      </trkpt>
      <trkpt lat="45.94019" lon="4.8049">
        <ele>222</ele>
        <time>2018-08-04T08:35:29Z</time>
      </trkpt>
      <trkpt lat="45.94019" lon="4.80503">
        <ele>223</ele>
        <time>2018-08-04T08:35:32Z</time>
      </trkpt>
      <trkpt lat="45.94019" lon="4.80506">
        <ele>223</ele>
        <time>2018-08-04T08:35:33Z</time>
      </trkpt>
      <trkpt lat="45.94018" lon="4.80516">
        <ele>224</ele>
        <time>2018-08-04T08:35:35Z</time>
      </trkpt>
      <trkpt lat="45.94018" lon="4.80521">
        <ele>224</ele>
        <time>2018-08-04T08:35:36Z</time>
      </trkpt>
      <trkpt lat="45.94018" lon="4.80534">
        <ele>224</ele>
        <time>2018-08-04T08:35:39Z</time>
      </trkpt>
      <trkpt lat="45.94019" lon="4.80538">
        <ele>225</ele>
        <time>2018-08-04T08:35:40Z</time>
      </trkpt>
      <trkpt lat="45.94019" lon="4.8055">
        <ele>225</ele>
        <time>2018-08-04T08:35:43Z</time>
      </trkpt>
      <trkpt lat="45.94019" lon="4.80553">
        <ele>224</ele>
        <time>2018-08-04T08:35:44Z</time>
      </trkpt>
      <trkpt lat="45.9402" lon="4.80566">
        <ele>224</ele>
        <time>2018-08-04T08:35:48Z</time>
      </trkpt>
      <trkpt lat="45.9402" lon="4.80569">
        <ele>223</ele>
        <time>2018-08-04T08:35:49Z</time>
      </trkpt>
      <trkpt lat="45.9402" lon="4.80581">
        <ele>223</ele>
        <time>2018-08-04T08:35:53Z</time>
      </trkpt>
      <trkpt lat="45.9402" lon="4.80585">
        <ele>223</ele>
        <time>2018-08-04T08:35:54Z</time>
      </trkpt>
      <trkpt lat="45.9402" lon="4.80593">
        <ele>223</ele>
        <time>2018-08-04T08:35:56Z</time>
      </trkpt>
      <trkpt lat="45.94021" lon="4.80599">
        <ele>224</ele>
        <time>2018-08-04T08:35:57Z</time>
      </trkpt>
      <trkpt lat="45.94022" lon="4.80611">
        <ele>224</ele>
        <time>2018-08-04T08:35:58Z</time>
      </trkpt>
      <trkpt lat="45.94022" lon="4.80613">
        <ele>224</ele>
        <time>2018-08-04T08:35:59Z</time>
      </trkpt>
      <trkpt lat="45.94024" lon="4.80625">
        <ele>225</ele>
        <time>2018-08-04T08:36:04Z</time>
      </trkpt>
      <trkpt lat="45.94024" lon="4.80627">
        <ele>225</ele>
        <time>2018-08-04T08:36:05Z</time>
      </trkpt>
      <trkpt lat="45.94027" lon="4.80637">
        <ele>225</ele>
        <time>2018-08-04T08:36:08Z</time>
      </trkpt>
      <trkpt lat="45.94027" lon="4.80641">
        <ele>225</ele>
        <time>2018-08-04T08:36:09Z</time>
      </trkpt>
      <trkpt lat="45.94028" lon="4.80651">
        <ele>224</ele>
        <time>2018-08-04T08:36:12Z</time>
      </trkpt>
      <trkpt lat="45.94029" lon="4.80655">
        <ele>224</ele>
        <time>2018-08-04T08:36:13Z</time>
      </trkpt>
      <trkpt lat="45.94031" lon="4.80665">
        <ele>224</ele>
        <time>2018-08-04T08:36:16Z</time>
      </trkpt>
      <trkpt lat="45.94031" lon="4.80669">
        <ele>225</ele>
        <time>2018-08-04T08:36:17Z</time>
      </trkpt>
      <trkpt lat="45.94032" lon="4.80681">
        <ele>225</ele>
        <time>2018-08-04T08:36:20Z</time>
      </trkpt>
      <trkpt lat="45.94032" lon="4.80685">
        <ele>225</ele>
        <time>2018-08-04T08:36:21Z</time>
      </trkpt>
      <trkpt lat="45.94033" lon="4.80696">
        <ele>226</ele>
        <time>2018-08-04T08:36:24Z</time>
      </trkpt>
      <trkpt lat="45.94034" lon="4.80699">
        <ele>226</ele>
        <time>2018-08-04T08:36:25Z</time>
      </trkpt>
      <trkpt lat="45.94035" lon="4.80711">
        <ele>226</ele>
        <time>2018-08-04T08:36:28Z</time>
      </trkpt>
      <trkpt lat="45.94035" lon="4.80714">
        <ele>226</ele>
        <time>2018-08-04T08:36:29Z</time>
      </trkpt>
      <trkpt lat="45.94037" lon="4.80724">
        <ele>226</ele>
        <time>2018-08-04T08:36:32Z</time>
      </trkpt>
      <trkpt lat="45.94038" lon="4.80727">
        <ele>226</ele>
        <time>2018-08-04T08:36:33Z</time>
      </trkpt>
      <trkpt lat="45.94039" lon="4.80738">
        <ele>227</ele>
        <time>2018-08-04T08:36:36Z</time>
      </trkpt>
      <trkpt lat="45.9404" lon="4.80741">
        <ele>227</ele>
        <time>2018-08-04T08:36:37Z</time>
      </trkpt>
      <trkpt lat="45.94041" lon="4.80752">
        <ele>228</ele>
        <time>2018-08-04T08:36:40Z</time>
      </trkpt>
      <trkpt lat="45.94042" lon="4.80756">
        <ele>228</ele>
        <time>2018-08-04T08:36:41Z</time>
      </trkpt>
      <trkpt lat="45.94043" lon="4.80767">
        <ele>228</ele>
        <time>2018-08-04T08:36:44Z</time>
      </trkpt>
      <trkpt lat="45.94044" lon="4.80771">
        <ele>228</ele>
        <time>2018-08-04T08:36:45Z</time>
      </trkpt>
      <trkpt lat="45.94045" lon="4.80783">
        <ele>228</ele>
        <time>2018-08-04T08:36:48Z</time>
      </trkpt>
      <trkpt lat="45.94046" lon="4.80786">
        <ele>228</ele>
        <time>2018-08-04T08:36:49Z</time>
      </trkpt>
      <trkpt lat="45.94047" lon="4.80797">
        <ele>229</ele>
        <time>2018-08-04T08:36:52Z</time>
      </trkpt>
      <trkpt lat="45.94048" lon="4.80801">
        <ele>229</ele>
        <time>2018-08-04T08:36:53Z</time>
      </trkpt>
      <trkpt lat="45.94049" lon="4.80814">
        <ele>229</ele>
        <time>2018-08-04T08:36:56Z</time>
      </trkpt>
      <trkpt lat="45.9405" lon="4.80817">
        <ele>230</ele>
        <time>2018-08-04T08:36:57Z</time>
      </trkpt>
      <trkpt lat="45.94051" lon="4.80829">
        <ele>230</ele>
        <time>2018-08-04T08:37:00Z</time>
      </trkpt>
      <trkpt lat="45.94051" lon="4.80833">
        <ele>230</ele>
        <time>2018-08-04T08:37:01Z</time>
      </trkpt>
      <trkpt lat="45.94052" lon="4.80843">
        <ele>230</ele>
        <time>2018-08-04T08:37:04Z</time>
      </trkpt>
      <trkpt lat="45.94052" lon="4.80846">
        <ele>230</ele>
        <time>2018-08-04T08:37:05Z</time>
      </trkpt>
      <trkpt lat="45.94053" lon="4.80858">
        <ele>230</ele>
        <time>2018-08-04T08:37:08Z</time>
      </trkpt>
      <trkpt lat="45.94054" lon="4.80861">
        <ele>230</ele>
        <time>2018-08-04T08:37:09Z</time>
      </trkpt>
      <trkpt lat="45.94055" lon="4.80873">
        <ele>230</ele>
        <time>2018-08-04T08:37:12Z</time>
      </trkpt>
      <trkpt lat="45.94055" lon="4.80876">
        <ele>230</ele>
        <time>2018-08-04T08:37:13Z</time>
      </trkpt>
      <trkpt lat="45.94056" lon="4.80888">
        <ele>230</ele>
        <time>2018-08-04T08:37:16Z</time>
      </trkpt>
      <trkpt lat="45.94056" lon="4.80891">
        <ele>231</ele>
        <time>2018-08-04T08:37:17Z</time>
      </trkpt>
      <trkpt lat="45.94057" lon="4.80901">
        <ele>231</ele>
        <time>2018-08-04T08:37:20Z</time>
      </trkpt>
      <trkpt lat="45.94058" lon="4.80904">
        <ele>231</ele>
        <time>2018-08-04T08:37:21Z</time>
      </trkpt>
      <trkpt lat="45.94058" lon="4.80915">
        <ele>232</ele>
        <time>2018-08-04T08:37:24Z</time>
      </trkpt>
      <trkpt lat="45.94059" lon="4.80919">
        <ele>232</ele>
        <time>2018-08-04T08:37:25Z</time>
      </trkpt>
      <trkpt lat="45.94061" lon="4.80929">
        <ele>232</ele>
        <time>2018-08-04T08:37:28Z</time>
      </trkpt>
      <trkpt lat="45.94062" lon="4.80933">
        <ele>232</ele>
        <time>2018-08-04T08:37:29Z</time>
      </trkpt>
      <trkpt lat="45.94064" lon="4.80944">
        <ele>232</ele>
        <time>2018-08-04T08:37:32Z</time>
      </trkpt>
      <trkpt lat="45.94065" lon="4.80948">
        <ele>232</ele>
        <time>2018-08-04T08:37:33Z</time>
      </trkpt>
      <trkpt lat="45.94067" lon="4.80959">
        <ele>232</ele>
        <time>2018-08-04T08:37:36Z</time>
      </trkpt>
      <trkpt lat="45.94067" lon="4.80963">
        <ele>232</ele>
        <time>2018-08-04T08:37:37Z</time>
      </trkpt>
      <trkpt lat="45.94068" lon="4.80975">
        <ele>233</ele>
        <time>2018-08-04T08:37:40Z</time>
      </trkpt>
      <trkpt lat="45.94068" lon="4.80978">
        <ele>233</ele>
        <time>2018-08-04T08:37:41Z</time>
      </trkpt>
      <trkpt lat="45.9407" lon="4.8099">
        <ele>235</ele>
        <time>2018-08-04T08:37:44Z</time>
      </trkpt>
      <trkpt lat="45.9407" lon="4.80994">
        <ele>235</ele>
        <time>2018-08-04T08:37:45Z</time>
      </trkpt>
      <trkpt lat="45.94072" lon="4.81001">
        <ele>236</ele>
        <time>2018-08-04T08:37:47Z</time>
      </trkpt>
      <trkpt lat="45.94074" lon="4.81014">
        <ele>235</ele>
        <time>2018-08-04T08:37:48Z</time>
      </trkpt>
      <trkpt lat="45.94078" lon="4.81024">
        <ele>234</ele>
        <time>2018-08-04T08:37:52Z</time>
      </trkpt>
      <trkpt lat="45.94078" lon="4.81027">
        <ele>234</ele>
        <time>2018-08-04T08:37:53Z</time>
      </trkpt>
      <trkpt lat="45.94082" lon="4.81037">
        <ele>234</ele>
        <time>2018-08-04T08:37:56Z</time>
      </trkpt>
      <trkpt lat="45.94083" lon="4.81041">
        <ele>234</ele>
        <time>2018-08-04T08:37:57Z</time>
      </trkpt>
      <trkpt lat="45.94087" lon="4.81051">
        <ele>243</ele>
        <time>2018-08-04T08:38:00Z</time>
      </trkpt>
      <trkpt lat="45.94088" lon="4.81054">
        <ele>243</ele>
        <time>2018-08-04T08:38:01Z</time>
      </trkpt>
      <trkpt lat="45.94092" lon="4.81065">
        <ele>242</ele>
        <time>2018-08-04T08:38:04Z</time>
      </trkpt>
      <trkpt lat="45.94094" lon="4.81069">
        <ele>242</ele>
        <time>2018-08-04T08:38:05Z</time>
      </trkpt>
      <trkpt lat="45.94098" lon="4.81078">
        <ele>242</ele>
        <time>2018-08-04T08:38:08Z</time>
      </trkpt>
      <trkpt lat="45.941" lon="4.81081">
        <ele>242</ele>
        <time>2018-08-04T08:38:09Z</time>
      </trkpt>
      <trkpt lat="45.94106" lon="4.8109">
        <ele>241</ele>
        <time>2018-08-04T08:38:12Z</time>
      </trkpt>
      <trkpt lat="45.94108" lon="4.81093">
        <ele>242</ele>
        <time>2018-08-04T08:38:13Z</time>
      </trkpt>
      <trkpt lat="45.94113" lon="4.81102">
        <ele>242</ele>
        <time>2018-08-04T08:38:16Z</time>
      </trkpt>
      <trkpt lat="45.94115" lon="4.81106">
        <ele>243</ele>
        <time>2018-08-04T08:38:17Z</time>
      </trkpt>
      <trkpt lat="45.94119" lon="4.81116">
        <ele>243</ele>
        <time>2018-08-04T08:38:20Z</time>
      </trkpt>
      <trkpt lat="45.94121" lon="4.81118">
        <ele>243</ele>
        <time>2018-08-04T08:38:21Z</time>
      </trkpt>
      <trkpt lat="45.94126" lon="4.81128">
        <ele>243</ele>
        <time>2018-08-04T08:38:24Z</time>
      </trkpt>
      <trkpt lat="45.94127" lon="4.81132">
        <ele>243</ele>
        <time>2018-08-04T08:38:25Z</time>
      </trkpt>
      <trkpt lat="45.94131" lon="4.81142">
        <ele>243</ele>
        <time>2018-08-04T08:38:28Z</time>
      </trkpt>
      <trkpt lat="45.94132" lon="4.81146">
        <ele>244</ele>
        <time>2018-08-04T08:38:29Z</time>
      </trkpt>
      <trkpt lat="45.94136" lon="4.81156">
        <ele>244</ele>
        <time>2018-08-04T08:38:32Z</time>
      </trkpt>
      <trkpt lat="45.94137" lon="4.8116">
        <ele>244</ele>
        <time>2018-08-04T08:38:33Z</time>
      </trkpt>
      <trkpt lat="45.94141" lon="4.8117">
        <ele>244</ele>
        <time>2018-08-04T08:38:36Z</time>
      </trkpt>
      <trkpt lat="45.94142" lon="4.81174">
        <ele>244</ele>
        <time>2018-08-04T08:38:37Z</time>
      </trkpt>
      <trkpt lat="45.94146" lon="4.81184">
        <ele>244</ele>
        <time>2018-08-04T08:38:40Z</time>
      </trkpt>
      <trkpt lat="45.94147" lon="4.81188">
        <ele>244</ele>
        <time>2018-08-04T08:38:41Z</time>
      </trkpt>
      <trkpt lat="45.94151" lon="4.81197">
        <ele>244</ele>
        <time>2018-08-04T08:38:44Z</time>
      </trkpt>
      <trkpt lat="45.94152" lon="4.812">
        <ele>244</ele>
        <time>2018-08-04T08:38:45Z</time>
      </trkpt>
      <trkpt lat="45.94156" lon="4.81209">
        <ele>245</ele>
        <time>2018-08-04T08:38:48Z</time>
      </trkpt>
      <trkpt lat="45.94157" lon="4.81213">
        <ele>245</ele>
        <time>2018-08-04T08:38:49Z</time>
      </trkpt>
      <trkpt lat="45.9416" lon="4.81223">
        <ele>245</ele>
        <time>2018-08-04T08:38:52Z</time>
      </trkpt>
      <trkpt lat="45.94161" lon="4.81226">
        <ele>246</ele>
        <time>2018-08-04T08:38:53Z</time>
      </trkpt>
      <trkpt lat="45.94163" lon="4.81237">
        <ele>247</ele>
        <time>2018-08-04T08:38:56Z</time>
      </trkpt>
      <trkpt lat="45.94163" lon="4.81241">
        <ele>248</ele>
        <time>2018-08-04T08:38:57Z</time>
      </trkpt>
      <trkpt lat="45.94165" lon="4.81252">
        <ele>249</ele>
        <time>2018-08-04T08:39:00Z</time>
      </trkpt>
      <trkpt lat="45.94165" lon="4.81256">
        <ele>249</ele>
        <time>2018-08-04T08:39:01Z</time>
      </trkpt>
      <trkpt lat="45.94166" lon="4.81267">
        <ele>248</ele>
        <time>2018-08-04T08:39:04Z</time>
      </trkpt>
      <trkpt lat="45.94166" lon="4.81272">
        <ele>248</ele>
        <time>2018-08-04T08:39:05Z</time>
      </trkpt>
      <trkpt lat="45.94166" lon="4.81283">
        <ele>247</ele>
        <time>2018-08-04T08:39:08Z</time>
      </trkpt>
      <trkpt lat="45.94166" lon="4.81286">
        <ele>247</ele>
        <time>2018-08-04T08:39:09Z</time>
      </trkpt>
      <trkpt lat="45.94166" lon="4.81296">
        <ele>247</ele>
        <time>2018-08-04T08:39:12Z</time>
      </trkpt>
      <trkpt lat="45.94166" lon="4.81299">
        <ele>248</ele>
        <time>2018-08-04T08:39:13Z</time>
      </trkpt>
      <trkpt lat="45.94167" lon="4.8131">
        <ele>255</ele>
        <time>2018-08-04T08:39:16Z</time>
      </trkpt>
      <trkpt lat="45.94167" lon="4.81313">
        <ele>255</ele>
        <time>2018-08-04T08:39:17Z</time>
      </trkpt>
      <trkpt lat="45.94167" lon="4.81325">
        <ele>250</ele>
        <time>2018-08-04T08:39:21Z</time>
      </trkpt>
      <trkpt lat="45.94166" lon="4.81328">
        <ele>251</ele>
        <time>2018-08-04T08:39:22Z</time>
      </trkpt>
      <trkpt lat="45.94165" lon="4.8134">
        <ele>251</ele>
        <time>2018-08-04T08:39:26Z</time>
      </trkpt>
      <trkpt lat="45.94164" lon="4.81344">
        <ele>251</ele>
        <time>2018-08-04T08:39:27Z</time>
      </trkpt>
      <trkpt lat="45.94163" lon="4.81355">
        <ele>251</ele>
        <time>2018-08-04T08:39:30Z</time>
      </trkpt>
      <trkpt lat="45.94163" lon="4.81358">
        <ele>251</ele>
        <time>2018-08-04T08:39:31Z</time>
      </trkpt>
      <trkpt lat="45.94163" lon="4.81367">
        <ele>251</ele>
        <time>2018-08-04T08:39:34Z</time>
      </trkpt>
      <trkpt lat="45.94163" lon="4.81371">
        <ele>251</ele>
        <time>2018-08-04T08:39:35Z</time>
      </trkpt>
      <trkpt lat="45.94161" lon="4.81381">
        <ele>251</ele>
        <time>2018-08-04T08:39:38Z</time>
      </trkpt>
      <trkpt lat="45.94161" lon="4.81384">
        <ele>251</ele>
        <time>2018-08-04T08:39:39Z</time>
      </trkpt>
      <trkpt lat="45.9416" lon="4.81396">
        <ele>252</ele>
        <time>2018-08-04T08:39:42Z</time>
      </trkpt>
      <trkpt lat="45.9416" lon="4.81399">
        <ele>252</ele>
        <time>2018-08-04T08:39:43Z</time>
      </trkpt>
      <trkpt lat="45.94159" lon="4.81411">
        <ele>254</ele>
        <time>2018-08-04T08:39:46Z</time>
      </trkpt>
      <trkpt lat="45.94159" lon="4.81414">
        <ele>254</ele>
        <time>2018-08-04T08:39:47Z</time>
      </trkpt>
      <trkpt lat="45.94158" lon="4.81427">
        <ele>256</ele>
        <time>2018-08-04T08:39:50Z</time>
      </trkpt>
      <trkpt lat="45.94157" lon="4.8143">
        <ele>256</ele>
        <time>2018-08-04T08:39:51Z</time>
      </trkpt>
      <trkpt lat="45.94156" lon="4.81441">
        <ele>256</ele>
        <time>2018-08-04T08:39:54Z</time>
      </trkpt>
      <trkpt lat="45.94155" lon="4.81444">
        <ele>256</ele>
        <time>2018-08-04T08:39:55Z</time>
      </trkpt>
      <trkpt lat="45.94154" lon="4.81454">
        <ele>257</ele>
        <time>2018-08-04T08:39:58Z</time>
      </trkpt>
      <trkpt lat="45.94153" lon="4.81458">
        <ele>257</ele>
        <time>2018-08-04T08:39:59Z</time>
      </trkpt>
      <trkpt lat="45.94152" lon="4.81465">
        <ele>257</ele>
        <time>2018-08-04T08:40:01Z</time>
      </trkpt>
      <trkpt lat="45.9415" lon="4.81478">
        <ele>258</ele>
        <time>2018-08-04T08:40:02Z</time>
      </trkpt>
      <trkpt lat="45.9415" lon="4.81489">
        <ele>259</ele>
        <time>2018-08-04T08:40:06Z</time>
      </trkpt>
      <trkpt lat="45.94151" lon="4.81492">
        <ele>260</ele>
        <time>2018-08-04T08:40:07Z</time>
      </trkpt>
      <trkpt lat="45.94151" lon="4.81502">
        <ele>263</ele>
        <time>2018-08-04T08:40:10Z</time>
      </trkpt>
      <trkpt lat="45.9415" lon="4.81506">
        <ele>263</ele>
        <time>2018-08-04T08:40:11Z</time>
      </trkpt>
      <trkpt lat="45.9415" lon="4.81516">
        <ele>263</ele>
        <time>2018-08-04T08:40:14Z</time>
      </trkpt>
      <trkpt lat="45.9415" lon="4.81519">
        <ele>263</ele>
        <time>2018-08-04T08:40:15Z</time>
      </trkpt>
      <trkpt lat="45.94151" lon="4.8153">
        <ele>264</ele>
        <time>2018-08-04T08:40:18Z</time>
      </trkpt>
      <trkpt lat="45.94152" lon="4.81534">
        <ele>264</ele>
        <time>2018-08-04T08:40:19Z</time>
      </trkpt>
      <trkpt lat="45.94153" lon="4.81547">
        <ele>264</ele>
        <time>2018-08-04T08:40:22Z</time>
      </trkpt>
      <trkpt lat="45.94153" lon="4.81551">
        <ele>264</ele>
        <time>2018-08-04T08:40:23Z</time>
      </trkpt>
      <trkpt lat="45.94153" lon="4.8156">
        <ele>265</ele>
        <time>2018-08-04T08:40:25Z</time>
      </trkpt>
      <trkpt lat="45.94153" lon="4.81565">
        <ele>265</ele>
        <time>2018-08-04T08:40:26Z</time>
      </trkpt>
      <trkpt lat="45.94154" lon="4.81574">
        <ele>265</ele>
        <time>2018-08-04T08:40:28Z</time>
      </trkpt>
      <trkpt lat="45.94154" lon="4.81578">
        <ele>266</ele>
        <time>2018-08-04T08:40:29Z</time>
      </trkpt>
      <trkpt lat="45.94157" lon="4.81591">
        <ele>267</ele>
        <time>2018-08-04T08:40:32Z</time>
      </trkpt>
      <trkpt lat="45.94157" lon="4.81595">
        <ele>267</ele>
        <time>2018-08-04T08:40:33Z</time>
      </trkpt>
      <trkpt lat="45.94158" lon="4.81604">
        <ele>267</ele>
        <time>2018-08-04T08:40:35Z</time>
      </trkpt>
      <trkpt lat="45.94159" lon="4.81608">
        <ele>267</ele>
        <time>2018-08-04T08:40:36Z</time>
      </trkpt>
      <trkpt lat="45.9416" lon="4.81618">
        <ele>268</ele>
        <time>2018-08-04T08:40:38Z</time>
      </trkpt>
      <trkpt lat="45.94161" lon="4.81622">
        <ele>268</ele>
        <time>2018-08-04T08:40:39Z</time>
      </trkpt>
      <trkpt lat="45.94162" lon="4.81631">
        <ele>268</ele>
        <time>2018-08-04T08:40:41Z</time>
      </trkpt>
      <trkpt lat="45.94163" lon="4.81635">
        <ele>268</ele>
        <time>2018-08-04T08:40:42Z</time>
      </trkpt>
      <trkpt lat="45.94164" lon="4.81643">
        <ele>268</ele>
        <time>2018-08-04T08:40:44Z</time>
      </trkpt>
      <trkpt lat="45.94165" lon="4.81647">
        <ele>268</ele>
        <time>2018-08-04T08:40:45Z</time>
      </trkpt>
      <trkpt lat="45.94167" lon="4.8166">
        <ele>269</ele>
        <time>2018-08-04T08:40:48Z</time>
      </trkpt>
      <trkpt lat="45.94167" lon="4.81664">
        <ele>269</ele>
        <time>2018-08-04T08:40:49Z</time>
      </trkpt>
      <trkpt lat="45.9417" lon="4.81677">
        <ele>268</ele>
        <time>2018-08-04T08:40:50Z</time>
      </trkpt>
      <trkpt lat="45.94173" lon="4.81688">
        <ele>268</ele>
        <time>2018-08-04T08:40:54Z</time>
      </trkpt>
      <trkpt lat="45.94175" lon="4.81691">
        <ele>267</ele>
        <time>2018-08-04T08:40:55Z</time>
      </trkpt>
      <trkpt lat="45.94178" lon="4.81702">
        <ele>267</ele>
        <time>2018-08-04T08:40:58Z</time>
      </trkpt>
      <trkpt lat="45.94179" lon="4.81706">
        <ele>267</ele>
        <time>2018-08-04T08:40:59Z</time>
      </trkpt>
      <trkpt lat="45.94182" lon="4.81719">
        <ele>267</ele>
        <time>2018-08-04T08:41:00Z</time>
      </trkpt>
      <trkpt lat="45.94181" lon="4.81724">
        <ele>267</ele>
        <time>2018-08-04T08:41:02Z</time>
      </trkpt>
      <trkpt lat="45.94181" lon="4.81733">
        <ele>267</ele>
        <time>2018-08-04T08:41:03Z</time>
      </trkpt>
      <trkpt lat="45.94185" lon="4.81745">
        <ele>267</ele>
        <time>2018-08-04T08:41:05Z</time>
      </trkpt>
      <trkpt lat="45.94187" lon="4.8175">
        <ele>266</ele>
        <time>2018-08-04T08:41:06Z</time>
      </trkpt>
      <trkpt lat="45.94192" lon="4.81759">
        <ele>266</ele>
        <time>2018-08-04T08:41:08Z</time>
      </trkpt>
      <trkpt lat="45.94193" lon="4.81761">
        <ele>266</ele>
        <time>2018-08-04T08:41:09Z</time>
      </trkpt>
      <trkpt lat="45.94196" lon="4.81769">
        <ele>266</ele>
        <time>2018-08-04T08:41:10Z</time>
      </trkpt>
      <trkpt lat="45.94197" lon="4.81775">
        <ele>266</ele>
        <time>2018-08-04T08:41:11Z</time>
      </trkpt>
      <trkpt lat="45.94198" lon="4.81787">
        <ele>266</ele>
        <time>2018-08-04T08:41:13Z</time>
      </trkpt>
      <trkpt lat="45.94198" lon="4.81793">
        <ele>266</ele>
        <time>2018-08-04T08:41:14Z</time>
      </trkpt>
      <trkpt lat="45.94198" lon="4.81805">
        <ele>266</ele>
        <time>2018-08-04T08:41:16Z</time>
      </trkpt>
      <trkpt lat="45.94198" lon="4.81808">
        <ele>266</ele>
        <time>2018-08-04T08:41:17Z</time>
      </trkpt>
      <trkpt lat="45.94199" lon="4.81818">
        <ele>266</ele>
        <time>2018-08-04T08:41:20Z</time>
      </trkpt>
      <trkpt lat="45.942" lon="4.81821">
        <ele>266</ele>
        <time>2018-08-04T08:41:21Z</time>
      </trkpt>
      <trkpt lat="45.94202" lon="4.81829">
        <ele>266</ele>
        <time>2018-08-04T08:41:23Z</time>
      </trkpt>
      <trkpt lat="45.94204" lon="4.81841">
        <ele>266</ele>
        <time>2018-08-04T08:41:24Z</time>
      </trkpt>
      <trkpt lat="45.94207" lon="4.81852">
        <ele>266</ele>
        <time>2018-08-04T08:41:26Z</time>
      </trkpt>
      <trkpt lat="45.94208" lon="4.81858">
        <ele>265</ele>
        <time>2018-08-04T08:41:27Z</time>
      </trkpt>
      <trkpt lat="45.9421" lon="4.8187">
        <ele>265</ele>
        <time>2018-08-04T08:41:29Z</time>
      </trkpt>
      <trkpt lat="45.94212" lon="4.81876">
        <ele>265</ele>
        <time>2018-08-04T08:41:30Z</time>
      </trkpt>
      <trkpt lat="45.94214" lon="4.81888">
        <ele>265</ele>
        <time>2018-08-04T08:41:32Z</time>
      </trkpt>
      <trkpt lat="45.94215" lon="4.81894">
        <ele>265</ele>
        <time>2018-08-04T08:41:33Z</time>
      </trkpt>
      <trkpt lat="45.94218" lon="4.81905">
        <ele>265</ele>
        <time>2018-08-04T08:41:35Z</time>
      </trkpt>
      <trkpt lat="45.94219" lon="4.81911">
        <ele>264</ele>
        <time>2018-08-04T08:41:36Z</time>
      </trkpt>
      <trkpt lat="45.94221" lon="4.81922">
        <ele>264</ele>
        <time>2018-08-04T08:41:38Z</time>
      </trkpt>
      <trkpt lat="45.94222" lon="4.81927">
        <ele>264</ele>
        <time>2018-08-04T08:41:39Z</time>
      </trkpt>
      <trkpt lat="45.94225" lon="4.81937">
        <ele>264</ele>
        <time>2018-08-04T08:41:41Z</time>
      </trkpt>
      <trkpt lat="45.94227" lon="4.81943">
        <ele>264</ele>
        <time>2018-08-04T08:41:42Z</time>
      </trkpt>
      <trkpt lat="45.94228" lon="4.81948">
        <ele>264</ele>
        <time>2018-08-04T08:41:43Z</time>
      </trkpt>
      <trkpt lat="45.9423" lon="4.81955">
        <ele>264</ele>
        <time>2018-08-04T08:41:44Z</time>
      </trkpt>
      <trkpt lat="45.94232" lon="4.81962">
        <ele>264</ele>
        <time>2018-08-04T08:41:45Z</time>
      </trkpt>
      <trkpt lat="45.94233" lon="4.81968">
        <ele>264</ele>
        <time>2018-08-04T08:41:46Z</time>
      </trkpt>
      <trkpt lat="45.94235" lon="4.81974">
        <ele>263</ele>
        <time>2018-08-04T08:41:47Z</time>
      </trkpt>
      <trkpt lat="45.94235" lon="4.81981">
        <ele>263</ele>
        <time>2018-08-04T08:41:48Z</time>
      </trkpt>
      <trkpt lat="45.94236" lon="4.81988">
        <ele>263</ele>
        <time>2018-08-04T08:41:49Z</time>
      </trkpt>
      <trkpt lat="45.94238" lon="4.81994">
        <ele>263</ele>
        <time>2018-08-04T08:41:50Z</time>
      </trkpt>
      <trkpt lat="45.94238" lon="4.82">
        <ele>263</ele>
        <time>2018-08-04T08:41:51Z</time>
      </trkpt>
      <trkpt lat="45.94241" lon="4.82007">
        <ele>263</ele>
        <time>2018-08-04T08:41:52Z</time>
      </trkpt>
      <trkpt lat="45.94243" lon="4.82013">
        <ele>263</ele>
        <time>2018-08-04T08:41:53Z</time>
      </trkpt>
      <trkpt lat="45.94244" lon="4.8202">
        <ele>263</ele>
        <time>2018-08-04T08:41:54Z</time>
      </trkpt>
      <trkpt lat="45.94246" lon="4.82033">
        <ele>263</ele>
        <time>2018-08-04T08:41:56Z</time>
      </trkpt>
      <trkpt lat="45.94246" lon="4.8204">
        <ele>263</ele>
        <time>2018-08-04T08:41:57Z</time>
      </trkpt>
      <trkpt lat="45.94248" lon="4.82047">
        <ele>263</ele>
        <time>2018-08-04T08:41:58Z</time>
      </trkpt>
      <trkpt lat="45.94249" lon="4.82055">
        <ele>263</ele>
        <time>2018-08-04T08:41:59Z</time>
      </trkpt>
      <trkpt lat="45.94251" lon="4.82062">
        <ele>262</ele>
        <time>2018-08-04T08:42:00Z</time>
      </trkpt>
      <trkpt lat="45.94253" lon="4.82068">
        <ele>262</ele>
        <time>2018-08-04T08:42:01Z</time>
      </trkpt>
      <trkpt lat="45.94254" lon="4.8208">
        <ele>262</ele>
        <time>2018-08-04T08:42:03Z</time>
      </trkpt>
      <trkpt lat="45.94257" lon="4.82088">
        <ele>262</ele>
        <time>2018-08-04T08:42:04Z</time>
      </trkpt>
      <trkpt lat="45.94259" lon="4.82096">
        <ele>262</ele>
        <time>2018-08-04T08:42:06Z</time>
      </trkpt>
      <trkpt lat="45.9426" lon="4.82106">
        <ele>262</ele>
        <time>2018-08-04T08:42:07Z</time>
      </trkpt>
      <trkpt lat="45.94261" lon="4.82115">
        <ele>263</ele>
        <time>2018-08-04T08:42:09Z</time>
      </trkpt>
      <trkpt lat="45.94262" lon="4.82121">
        <ele>263</ele>
        <time>2018-08-04T08:42:10Z</time>
      </trkpt>
      <trkpt lat="45.94264" lon="4.82132">
        <ele>263</ele>
        <time>2018-08-04T08:42:12Z</time>
      </trkpt>
      <trkpt lat="45.94265" lon="4.82134">
        <ele>263</ele>
        <time>2018-08-04T08:42:13Z</time>
      </trkpt>
      <trkpt lat="45.94265" lon="4.82142">
        <ele>263</ele>
        <time>2018-08-04T08:42:14Z</time>
      </trkpt>
      <trkpt lat="45.94265" lon="4.82147">
        <ele>263</ele>
        <time>2018-08-04T08:42:15Z</time>
      </trkpt>
      <trkpt lat="45.94266" lon="4.82153">
        <ele>263</ele>
        <time>2018-08-04T08:42:17Z</time>
      </trkpt>
      <trkpt lat="45.94269" lon="4.82161">
        <ele>263</ele>
        <time>2018-08-04T08:42:18Z</time>
      </trkpt>
      <trkpt lat="45.94271" lon="4.82172">
        <ele>264</ele>
        <time>2018-08-04T08:42:20Z</time>
      </trkpt>
      <trkpt lat="45.94271" lon="4.82179">
        <ele>264</ele>
        <time>2018-08-04T08:42:21Z</time>
      </trkpt>
      <trkpt lat="45.94274" lon="4.8219">
        <ele>264</ele>
        <time>2018-08-04T08:42:23Z</time>
      </trkpt>
      <trkpt lat="45.94275" lon="4.82197">
        <ele>264</ele>
        <time>2018-08-04T08:42:24Z</time>
      </trkpt>
      <trkpt lat="45.94276" lon="4.82205">
        <ele>264</ele>
        <time>2018-08-04T08:42:25Z</time>
      </trkpt>
      <trkpt lat="45.94278" lon="4.82211">
        <ele>264</ele>
        <time>2018-08-04T08:42:26Z</time>
      </trkpt>
      <trkpt lat="45.94278" lon="4.82219">
        <ele>264</ele>
        <time>2018-08-04T08:42:27Z</time>
      </trkpt>
      <trkpt lat="45.94279" lon="4.82225">
        <ele>264</ele>
        <time>2018-08-04T08:42:28Z</time>
      </trkpt>
      <trkpt lat="45.9428" lon="4.82232">
        <ele>264</ele>
        <time>2018-08-04T08:42:29Z</time>
      </trkpt>
      <trkpt lat="45.94282" lon="4.82239">
        <ele>264</ele>
        <time>2018-08-04T08:42:30Z</time>
      </trkpt>
      <trkpt lat="45.94282" lon="4.82246">
        <ele>264</ele>
        <time>2018-08-04T08:42:31Z</time>
      </trkpt>
      <trkpt lat="45.94283" lon="4.82254">
        <ele>265</ele>
        <time>2018-08-04T08:42:32Z</time>
      </trkpt>
      <trkpt lat="45.94283" lon="4.82261">
        <ele>265</ele>
        <time>2018-08-04T08:42:33Z</time>
      </trkpt>
      <trkpt lat="45.94283" lon="4.82267">
        <ele>265</ele>
        <time>2018-08-04T08:42:34Z</time>
      </trkpt>
      <trkpt lat="45.94284" lon="4.82276">
        <ele>265</ele>
        <time>2018-08-04T08:42:35Z</time>
      </trkpt>
      <trkpt lat="45.94284" lon="4.82284">
        <ele>265</ele>
        <time>2018-08-04T08:42:36Z</time>
      </trkpt>
      <trkpt lat="45.94284" lon="4.82293">
        <ele>265</ele>
        <time>2018-08-04T08:42:37Z</time>
      </trkpt>
      <trkpt lat="45.94285" lon="4.82302">
        <ele>265</ele>
        <time>2018-08-04T08:42:38Z</time>
      </trkpt>
      <trkpt lat="45.94285" lon="4.82309">
        <ele>265</ele>
        <time>2018-08-04T08:42:39Z</time>
      </trkpt>
      <trkpt lat="45.94285" lon="4.82316">
        <ele>265</ele>
        <time>2018-08-04T08:42:40Z</time>
      </trkpt>
      <trkpt lat="45.94286" lon="4.82323">
        <ele>265</ele>
        <time>2018-08-04T08:42:41Z</time>
      </trkpt>
      <trkpt lat="45.94286" lon="4.82331">
        <ele>265</ele>
        <time>2018-08-04T08:42:42Z</time>
      </trkpt>
      <trkpt lat="45.94286" lon="4.82343">
        <ele>264</ele>
        <time>2018-08-04T08:42:44Z</time>
      </trkpt>
      <trkpt lat="45.94286" lon="4.82348">
        <ele>264</ele>
        <time>2018-08-04T08:42:45Z</time>
      </trkpt>
      <trkpt lat="45.94287" lon="4.82355">
        <ele>264</ele>
        <time>2018-08-04T08:42:46Z</time>
      </trkpt>
      <trkpt lat="45.94287" lon="4.82362">
        <ele>264</ele>
        <time>2018-08-04T08:42:47Z</time>
      </trkpt>
      <trkpt lat="45.94288" lon="4.82368">
        <ele>264</ele>
        <time>2018-08-04T08:42:48Z</time>
      </trkpt>
      <trkpt lat="45.94289" lon="4.82375">
        <ele>264</ele>
        <time>2018-08-04T08:42:49Z</time>
      </trkpt>
      <trkpt lat="45.94288" lon="4.82382">
        <ele>264</ele>
        <time>2018-08-04T08:42:50Z</time>
      </trkpt>
      <trkpt lat="45.94288" lon="4.82389">
        <ele>264</ele>
        <time>2018-08-04T08:42:51Z</time>
      </trkpt>
      <trkpt lat="45.94289" lon="4.82396">
        <ele>264</ele>
        <time>2018-08-04T08:42:52Z</time>
      </trkpt>
      <trkpt lat="45.9429" lon="4.82402">
        <ele>264</ele>
        <time>2018-08-04T08:42:53Z</time>
      </trkpt>
      <trkpt lat="45.94291" lon="4.82414">
        <ele>264</ele>
        <time>2018-08-04T08:42:55Z</time>
      </trkpt>
      <trkpt lat="45.94293" lon="4.82421">
        <ele>264</ele>
        <time>2018-08-04T08:42:56Z</time>
      </trkpt>
      <trkpt lat="45.94293" lon="4.82434">
        <ele>264</ele>
        <time>2018-08-04T08:42:58Z</time>
      </trkpt>
      <trkpt lat="45.94294" lon="4.8244">
        <ele>264</ele>
        <time>2018-08-04T08:42:59Z</time>
      </trkpt>
      <trkpt lat="45.94294" lon="4.82447">
        <ele>264</ele>
        <time>2018-08-04T08:43:00Z</time>
      </trkpt>
      <trkpt lat="45.94294" lon="4.82454">
        <ele>264</ele>
        <time>2018-08-04T08:43:01Z</time>
      </trkpt>
      <trkpt lat="45.94294" lon="4.82466">
        <ele>264</ele>
        <time>2018-08-04T08:43:03Z</time>
      </trkpt>
      <trkpt lat="45.94293" lon="4.82472">
        <ele>264</ele>
        <time>2018-08-04T08:43:04Z</time>
      </trkpt>
      <trkpt lat="45.94293" lon="4.82484">
        <ele>264</ele>
        <time>2018-08-04T08:43:06Z</time>
      </trkpt>
      <trkpt lat="45.94293" lon="4.8249">
        <ele>264</ele>
        <time>2018-08-04T08:43:07Z</time>
      </trkpt>
      <trkpt lat="45.94294" lon="4.82502">
        <ele>264</ele>
        <time>2018-08-04T08:43:09Z</time>
      </trkpt>
      <trkpt lat="45.94294" lon="4.82508">
        <ele>264</ele>
        <time>2018-08-04T08:43:10Z</time>
      </trkpt>
      <trkpt lat="45.94295" lon="4.82521">
        <ele>264</ele>
        <time>2018-08-04T08:43:12Z</time>
      </trkpt>
      <trkpt lat="45.94295" lon="4.82527">
        <ele>264</ele>
        <time>2018-08-04T08:43:13Z</time>
      </trkpt>
      <trkpt lat="45.94294" lon="4.82535">
        <ele>264</ele>
        <time>2018-08-04T08:43:14Z</time>
      </trkpt>
      <trkpt lat="45.94294" lon="4.82542">
        <ele>264</ele>
        <time>2018-08-04T08:43:15Z</time>
      </trkpt>
      <trkpt lat="45.94294" lon="4.82549">
        <ele>264</ele>
        <time>2018-08-04T08:43:16Z</time>
      </trkpt>
      <trkpt lat="45.94293" lon="4.82556">
        <ele>264</ele>
        <time>2018-08-04T08:43:17Z</time>
      </trkpt>
      <trkpt lat="45.94294" lon="4.82569">
        <ele>264</ele>
        <time>2018-08-04T08:43:19Z</time>
      </trkpt>
      <trkpt lat="45.94293" lon="4.82576">
        <ele>264</ele>
        <time>2018-08-04T08:43:20Z</time>
      </trkpt>
      <trkpt lat="45.94293" lon="4.82587">
        <ele>265</ele>
        <time>2018-08-04T08:43:22Z</time>
      </trkpt>
      <trkpt lat="45.94294" lon="4.82595">
        <ele>265</ele>
        <time>2018-08-04T08:43:23Z</time>
      </trkpt>
      <trkpt lat="45.94295" lon="4.82603">
        <ele>265</ele>
        <time>2018-08-04T08:43:24Z</time>
      </trkpt>
      <trkpt lat="45.94295" lon="4.8261">
        <ele>265</ele>
        <time>2018-08-04T08:43:25Z</time>
      </trkpt>
      <trkpt lat="45.94294" lon="4.82618">
        <ele>265</ele>
        <time>2018-08-04T08:43:26Z</time>
      </trkpt>
      <trkpt lat="45.94294" lon="4.82625">
        <ele>265</ele>
        <time>2018-08-04T08:43:27Z</time>
      </trkpt>
      <trkpt lat="45.94293" lon="4.82632">
        <ele>265</ele>
        <time>2018-08-04T08:43:28Z</time>
      </trkpt>
      <trkpt lat="45.94293" lon="4.82639">
        <ele>265</ele>
        <time>2018-08-04T08:43:29Z</time>
      </trkpt>
      <trkpt lat="45.94292" lon="4.82647">
        <ele>265</ele>
        <time>2018-08-04T08:43:30Z</time>
      </trkpt>
      <trkpt lat="45.94292" lon="4.82655">
        <ele>265</ele>
        <time>2018-08-04T08:43:31Z</time>
      </trkpt>
      <trkpt lat="45.94292" lon="4.82663">
        <ele>265</ele>
        <time>2018-08-04T08:43:32Z</time>
      </trkpt>
      <trkpt lat="45.94293" lon="4.82671">
        <ele>265</ele>
        <time>2018-08-04T08:43:33Z</time>
      </trkpt>
      <trkpt lat="45.94293" lon="4.82678">
        <ele>265</ele>
        <time>2018-08-04T08:43:34Z</time>
      </trkpt>
      <trkpt lat="45.94293" lon="4.82685">
        <ele>265</ele>
        <time>2018-08-04T08:43:35Z</time>
      </trkpt>
      <trkpt lat="45.94294" lon="4.82693">
        <ele>265</ele>
        <time>2018-08-04T08:43:36Z</time>
      </trkpt>
      <trkpt lat="45.94295" lon="4.82702">
        <ele>265</ele>
        <time>2018-08-04T08:43:37Z</time>
      </trkpt>
      <trkpt lat="45.94295" lon="4.82709">
        <ele>265</ele>
        <time>2018-08-04T08:43:38Z</time>
      </trkpt>
      <trkpt lat="45.94294" lon="4.82717">
        <ele>265</ele>
        <time>2018-08-04T08:43:39Z</time>
      </trkpt>
      <trkpt lat="45.94294" lon="4.82724">
        <ele>265</ele>
        <time>2018-08-04T08:43:40Z</time>
      </trkpt>
      <trkpt lat="45.94294" lon="4.82732">
        <ele>265</ele>
        <time>2018-08-04T08:43:41Z</time>
      </trkpt>
      <trkpt lat="45.94294" lon="4.82739">
        <ele>265</ele>
        <time>2018-08-04T08:43:42Z</time>
      </trkpt>
      <trkpt lat="45.94293" lon="4.82746">
        <ele>265</ele>
        <time>2018-08-04T08:43:43Z</time>
      </trkpt>
      <trkpt lat="45.94292" lon="4.82753">
        <ele>265</ele>
        <time>2018-08-04T08:43:44Z</time>
      </trkpt>
      <trkpt lat="45.94292" lon="4.8276">
        <ele>265</ele>
        <time>2018-08-04T08:43:45Z</time>
      </trkpt>
      <trkpt lat="45.94292" lon="4.82767">
        <ele>265</ele>
        <time>2018-08-04T08:43:46Z</time>
      </trkpt>
      <trkpt lat="45.94292" lon="4.82773">
        <ele>265</ele>
        <time>2018-08-04T08:43:47Z</time>
      </trkpt>
      <trkpt lat="45.94293" lon="4.82785">
        <ele>265</ele>
        <time>2018-08-04T08:43:49Z</time>
      </trkpt>
      <trkpt lat="45.94294" lon="4.8279">
        <ele>265</ele>
        <time>2018-08-04T08:43:50Z</time>
      </trkpt>
      <trkpt lat="45.94293" lon="4.82802">
        <ele>265</ele>
        <time>2018-08-04T08:43:52Z</time>
      </trkpt>
      <trkpt lat="45.94293" lon="4.82809">
        <ele>265</ele>
        <time>2018-08-04T08:43:53Z</time>
      </trkpt>
      <trkpt lat="45.94292" lon="4.8282">
        <ele>265</ele>
        <time>2018-08-04T08:43:55Z</time>
      </trkpt>
      <trkpt lat="45.94293" lon="4.82828">
        <ele>265</ele>
        <time>2018-08-04T08:43:56Z</time>
      </trkpt>
      <trkpt lat="45.94293" lon="4.82835">
        <ele>265</ele>
        <time>2018-08-04T08:43:57Z</time>
      </trkpt>
      <trkpt lat="45.94292" lon="4.82842">
        <ele>265</ele>
        <time>2018-08-04T08:43:58Z</time>
      </trkpt>
      <trkpt lat="45.94292" lon="4.82848">
        <ele>265</ele>
        <time>2018-08-04T08:43:59Z</time>
      </trkpt>
      <trkpt lat="45.94292" lon="4.82855">
        <ele>265</ele>
        <time>2018-08-04T08:44:00Z</time>
      </trkpt>
      <trkpt lat="45.94291" lon="4.82868">
        <ele>265</ele>
        <time>2018-08-04T08:44:02Z</time>
      </trkpt>
      <trkpt lat="45.9429" lon="4.82874">
        <ele>265</ele>
        <time>2018-08-04T08:44:03Z</time>
      </trkpt>
      <trkpt lat="45.9429" lon="4.82881">
        <ele>265</ele>
        <time>2018-08-04T08:44:04Z</time>
      </trkpt>
      <trkpt lat="45.94288" lon="4.82888">
        <ele>265</ele>
        <time>2018-08-04T08:44:05Z</time>
      </trkpt>
      <trkpt lat="45.94287" lon="4.82896">
        <ele>265</ele>
        <time>2018-08-04T08:44:06Z</time>
      </trkpt>
      <trkpt lat="45.94287" lon="4.82904">
        <ele>265</ele>
        <time>2018-08-04T08:44:07Z</time>
      </trkpt>
      <trkpt lat="45.94284" lon="4.82912">
        <ele>265</ele>
        <time>2018-08-04T08:44:08Z</time>
      </trkpt>
      <trkpt lat="45.94283" lon="4.82919">
        <ele>265</ele>
        <time>2018-08-04T08:44:09Z</time>
      </trkpt>
      <trkpt lat="45.94282" lon="4.82926">
        <ele>265</ele>
        <time>2018-08-04T08:44:10Z</time>
      </trkpt>
      <trkpt lat="45.9428" lon="4.82934">
        <ele>265</ele>
        <time>2018-08-04T08:44:11Z</time>
      </trkpt>
      <trkpt lat="45.94278" lon="4.82941">
        <ele>265</ele>
        <time>2018-08-04T08:44:12Z</time>
      </trkpt>
      <trkpt lat="45.94275" lon="4.82948">
        <ele>265</ele>
        <time>2018-08-04T08:44:13Z</time>
      </trkpt>
      <trkpt lat="45.94273" lon="4.82954">
        <ele>265</ele>
        <time>2018-08-04T08:44:14Z</time>
      </trkpt>
      <trkpt lat="45.9427" lon="4.8296">
        <ele>265</ele>
        <time>2018-08-04T08:44:15Z</time>
      </trkpt>
      <trkpt lat="45.94269" lon="4.82967">
        <ele>265</ele>
        <time>2018-08-04T08:44:16Z</time>
      </trkpt>
      <trkpt lat="45.94266" lon="4.82972">
        <ele>265</ele>
        <time>2018-08-04T08:44:17Z</time>
      </trkpt>
      <trkpt lat="45.94263" lon="4.82978">
        <ele>265</ele>
        <time>2018-08-04T08:44:18Z</time>
      </trkpt>
      <trkpt lat="45.94261" lon="4.82985">
        <ele>266</ele>
        <time>2018-08-04T08:44:19Z</time>
      </trkpt>
      <trkpt lat="45.94259" lon="4.82991">
        <ele>266</ele>
        <time>2018-08-04T08:44:20Z</time>
      </trkpt>
      <trkpt lat="45.94256" lon="4.82998">
        <ele>266</ele>
        <time>2018-08-04T08:44:21Z</time>
      </trkpt>
      <trkpt lat="45.94252" lon="4.83003">
        <ele>266</ele>
        <time>2018-08-04T08:44:22Z</time>
      </trkpt>
      <trkpt lat="45.9425" lon="4.83008">
        <ele>266</ele>
        <time>2018-08-04T08:44:23Z</time>
      </trkpt>
      <trkpt lat="45.94245" lon="4.83015">
        <ele>266</ele>
        <time>2018-08-04T08:44:24Z</time>
      </trkpt>
      <trkpt lat="45.94241" lon="4.83022">
        <ele>266</ele>
        <time>2018-08-04T08:44:25Z</time>
      </trkpt>
      <trkpt lat="45.94237" lon="4.83028">
        <ele>266</ele>
        <time>2018-08-04T08:44:26Z</time>
      </trkpt>
      <trkpt lat="45.94232" lon="4.83033">
        <ele>266</ele>
        <time>2018-08-04T08:44:27Z</time>
      </trkpt>
      <trkpt lat="45.94228" lon="4.83038">
        <ele>266</ele>
        <time>2018-08-04T08:44:28Z</time>
      </trkpt>
      <trkpt lat="45.94224" lon="4.83043">
        <ele>266</ele>
        <time>2018-08-04T08:44:29Z</time>
      </trkpt>
      <trkpt lat="45.9422" lon="4.83048">
        <ele>266</ele>
        <time>2018-08-04T08:44:30Z</time>
      </trkpt>
      <trkpt lat="45.94217" lon="4.83056">
        <ele>266</ele>
        <time>2018-08-04T08:44:31Z</time>
      </trkpt>
      <trkpt lat="45.94213" lon="4.83062">
        <ele>266</ele>
        <time>2018-08-04T08:44:32Z</time>
      </trkpt>
      <trkpt lat="45.9421" lon="4.83068">
        <ele>266</ele>
        <time>2018-08-04T08:44:33Z</time>
      </trkpt>
      <trkpt lat="45.94208" lon="4.83075">
        <ele>265</ele>
        <time>2018-08-04T08:44:34Z</time>
      </trkpt>
      <trkpt lat="45.94203" lon="4.83082">
        <ele>265</ele>
        <time>2018-08-04T08:44:35Z</time>
      </trkpt>
      <trkpt lat="45.94198" lon="4.83089">
        <ele>265</ele>
        <time>2018-08-04T08:44:36Z</time>
      </trkpt>
      <trkpt lat="45.94194" lon="4.83095">
        <ele>265</ele>
        <time>2018-08-04T08:44:37Z</time>
      </trkpt>
      <trkpt lat="45.9419" lon="4.83101">
        <ele>265</ele>
        <time>2018-08-04T08:44:38Z</time>
      </trkpt>
      <trkpt lat="45.94186" lon="4.83107">
        <ele>265</ele>
        <time>2018-08-04T08:44:39Z</time>
      </trkpt>
      <trkpt lat="45.94182" lon="4.83112">
        <ele>265</ele>
        <time>2018-08-04T08:44:40Z</time>
      </trkpt>
      <trkpt lat="45.94177" lon="4.83117">
        <ele>265</ele>
        <time>2018-08-04T08:44:41Z</time>
      </trkpt>
      <trkpt lat="45.94174" lon="4.83123">
        <ele>265</ele>
        <time>2018-08-04T08:44:42Z</time>
      </trkpt>
      <trkpt lat="45.94171" lon="4.83128">
        <ele>265</ele>
        <time>2018-08-04T08:44:43Z</time>
      </trkpt>
      <trkpt lat="45.94168" lon="4.83133">
        <ele>265</ele>
        <time>2018-08-04T08:44:44Z</time>
      </trkpt>
      <trkpt lat="45.94165" lon="4.8314">
        <ele>265</ele>
        <time>2018-08-04T08:44:45Z</time>
      </trkpt>
      <trkpt lat="45.94161" lon="4.83145">
        <ele>265</ele>
        <time>2018-08-04T08:44:46Z</time>
      </trkpt>
      <trkpt lat="45.94157" lon="4.8315">
        <ele>265</ele>
        <time>2018-08-04T08:44:47Z</time>
      </trkpt>
      <trkpt lat="45.94153" lon="4.83154">
        <ele>265</ele>
        <time>2018-08-04T08:44:48Z</time>
      </trkpt>
      <trkpt lat="45.94149" lon="4.83161">
        <ele>265</ele>
        <time>2018-08-04T08:44:49Z</time>
      </trkpt>
      <trkpt lat="45.94147" lon="4.83167">
        <ele>265</ele>
        <time>2018-08-04T08:44:50Z</time>
      </trkpt>
      <trkpt lat="45.94142" lon="4.83173">
        <ele>265</ele>
        <time>2018-08-04T08:44:51Z</time>
      </trkpt>
      <trkpt lat="45.94139" lon="4.8318">
        <ele>266</ele>
        <time>2018-08-04T08:44:52Z</time>
      </trkpt>
      <trkpt lat="45.94135" lon="4.83186">
        <ele>266</ele>
        <time>2018-08-04T08:44:53Z</time>
      </trkpt>
      <trkpt lat="45.9413" lon="4.83193">
        <ele>266</ele>
        <time>2018-08-04T08:44:54Z</time>
      </trkpt>
      <trkpt lat="45.94126" lon="4.83199">
        <ele>266</ele>
        <time>2018-08-04T08:44:55Z</time>
      </trkpt>
      <trkpt lat="45.94122" lon="4.83205">
        <ele>266</ele>
        <time>2018-08-04T08:44:56Z</time>
      </trkpt>
      <trkpt lat="45.94119" lon="4.83216">
        <ele>266</ele>
        <time>2018-08-04T08:44:57Z</time>
      </trkpt>
      <trkpt lat="45.94115" lon="4.83221">
        <ele>266</ele>
        <time>2018-08-04T08:44:58Z</time>
      </trkpt>
      <trkpt lat="45.94111" lon="4.83227">
        <ele>266</ele>
        <time>2018-08-04T08:44:59Z</time>
      </trkpt>
      <trkpt lat="45.94107" lon="4.83233">
        <ele>266</ele>
        <time>2018-08-04T08:45:00Z</time>
      </trkpt>
      <trkpt lat="45.94102" lon="4.8324">
        <ele>266</ele>
        <time>2018-08-04T08:45:01Z</time>
      </trkpt>
      <trkpt lat="45.94098" lon="4.83247">
        <ele>266</ele>
        <time>2018-08-04T08:45:02Z</time>
      </trkpt>
      <trkpt lat="45.94093" lon="4.83254">
        <ele>266</ele>
        <time>2018-08-04T08:45:03Z</time>
      </trkpt>
      <trkpt lat="45.94089" lon="4.8326">
        <ele>266</ele>
        <time>2018-08-04T08:45:04Z</time>
      </trkpt>
      <trkpt lat="45.94085" lon="4.83267">
        <ele>266</ele>
        <time>2018-08-04T08:45:05Z</time>
      </trkpt>
      <trkpt lat="45.94081" lon="4.83274">
        <ele>266</ele>
        <time>2018-08-04T08:45:06Z</time>
      </trkpt>
      <trkpt lat="45.94077" lon="4.83281">
        <ele>266</ele>
        <time>2018-08-04T08:45:07Z</time>
      </trkpt>
      <trkpt lat="45.94072" lon="4.83286">
        <ele>266</ele>
        <time>2018-08-04T08:45:08Z</time>
      </trkpt>
      <trkpt lat="45.94068" lon="4.83293">
        <ele>266</ele>
        <time>2018-08-04T08:45:09Z</time>
      </trkpt>
      <trkpt lat="45.94063" lon="4.83299">
        <ele>266</ele>
        <time>2018-08-04T08:45:10Z</time>
      </trkpt>
      <trkpt lat="45.94058" lon="4.83303">
        <ele>266</ele>
        <time>2018-08-04T08:45:11Z</time>
      </trkpt>
      <trkpt lat="45.94054" lon="4.83309">
        <ele>266</ele>
        <time>2018-08-04T08:45:12Z</time>
      </trkpt>
      <trkpt lat="45.9405" lon="4.83315">
        <ele>266</ele>
        <time>2018-08-04T08:45:13Z</time>
      </trkpt>
      <trkpt lat="45.94045" lon="4.8332">
        <ele>266</ele>
        <time>2018-08-04T08:45:14Z</time>
      </trkpt>
      <trkpt lat="45.94041" lon="4.83325">
        <ele>266</ele>
        <time>2018-08-04T08:45:15Z</time>
      </trkpt>
      <trkpt lat="45.94036" lon="4.83329">
        <ele>266</ele>
        <time>2018-08-04T08:45:16Z</time>
      </trkpt>
      <trkpt lat="45.94032" lon="4.83333">
        <ele>266</ele>
        <time>2018-08-04T08:45:17Z</time>
      </trkpt>
      <trkpt lat="45.94029" lon="4.8334">
        <ele>266</ele>
        <time>2018-08-04T08:45:18Z</time>
      </trkpt>
      <trkpt lat="45.94025" lon="4.83346">
        <ele>266</ele>
        <time>2018-08-04T08:45:19Z</time>
      </trkpt>
      <trkpt lat="45.94021" lon="4.83352">
        <ele>266</ele>
        <time>2018-08-04T08:45:20Z</time>
      </trkpt>
      <trkpt lat="45.94017" lon="4.83358">
        <ele>266</ele>
        <time>2018-08-04T08:45:21Z</time>
      </trkpt>
      <trkpt lat="45.94012" lon="4.83364">
        <ele>266</ele>
        <time>2018-08-04T08:45:22Z</time>
      </trkpt>
      <trkpt lat="45.94008" lon="4.83373">
        <ele>266</ele>
        <time>2018-08-04T08:45:23Z</time>
      </trkpt>
      <trkpt lat="45.94004" lon="4.83379">
        <ele>266</ele>
        <time>2018-08-04T08:45:24Z</time>
      </trkpt>
      <trkpt lat="45.93999" lon="4.83384">
        <ele>266</ele>
        <time>2018-08-04T08:45:25Z</time>
      </trkpt>
      <trkpt lat="45.93995" lon="4.83394">
        <ele>266</ele>
        <time>2018-08-04T08:45:26Z</time>
      </trkpt>
      <trkpt lat="45.93992" lon="4.83404">
        <ele>265</ele>
        <time>2018-08-04T08:45:27Z</time>
      </trkpt>
      <trkpt lat="45.93989" lon="4.83411">
        <ele>265</ele>
        <time>2018-08-04T08:45:28Z</time>
      </trkpt>
      <trkpt lat="45.93986" lon="4.83417">
        <ele>265</ele>
        <time>2018-08-04T08:45:29Z</time>
      </trkpt>
      <trkpt lat="45.93981" lon="4.83423">
        <ele>265</ele>
        <time>2018-08-04T08:45:30Z</time>
      </trkpt>
      <trkpt lat="45.93977" lon="4.83428">
        <ele>265</ele>
        <time>2018-08-04T08:45:31Z</time>
      </trkpt>
      <trkpt lat="45.93972" lon="4.83434">
        <ele>265</ele>
        <time>2018-08-04T08:45:32Z</time>
      </trkpt>
      <trkpt lat="45.93968" lon="4.83439">
        <ele>265</ele>
        <time>2018-08-04T08:45:33Z</time>
      </trkpt>
      <trkpt lat="45.93965" lon="4.83445">
        <ele>265</ele>
        <time>2018-08-04T08:45:34Z</time>
      </trkpt>
      <trkpt lat="45.93961" lon="4.83451">
        <ele>265</ele>
        <time>2018-08-04T08:45:35Z</time>
      </trkpt>
      <trkpt lat="45.93956" lon="4.83457">
        <ele>265</ele>
        <time>2018-08-04T08:45:36Z</time>
      </trkpt>
      <trkpt lat="45.93951" lon="4.83464">
        <ele>265</ele>
        <time>2018-08-04T08:45:37Z</time>
      </trkpt>
      <trkpt lat="45.93947" lon="4.83471">
        <ele>265</ele>
        <time>2018-08-04T08:45:38Z</time>
      </trkpt>
      <trkpt lat="45.93942" lon="4.83479">
        <ele>265</ele>
        <time>2018-08-04T08:45:39Z</time>
      </trkpt>
      <trkpt lat="45.93937" lon="4.83485">
        <ele>265</ele>
        <time>2018-08-04T08:45:40Z</time>
      </trkpt>
      <trkpt lat="45.93933" lon="4.83492">
        <ele>265</ele>
        <time>2018-08-04T08:45:41Z</time>
      </trkpt>
      <trkpt lat="45.93929" lon="4.83499">
        <ele>265</ele>
        <time>2018-08-04T08:45:42Z</time>
      </trkpt>
      <trkpt lat="45.93923" lon="4.83506">
        <ele>265</ele>
        <time>2018-08-04T08:45:43Z</time>
      </trkpt>
      <trkpt lat="45.93918" lon="4.83513">
        <ele>265</ele>
        <time>2018-08-04T08:45:44Z</time>
      </trkpt>
      <trkpt lat="45.93914" lon="4.8352">
        <ele>265</ele>
        <time>2018-08-04T08:45:45Z</time>
      </trkpt>
      <trkpt lat="45.9391" lon="4.83526">
        <ele>265</ele>
        <time>2018-08-04T08:45:46Z</time>
      </trkpt>
      <trkpt lat="45.93906" lon="4.83533">
        <ele>265</ele>
        <time>2018-08-04T08:45:47Z</time>
      </trkpt>
      <trkpt lat="45.93902" lon="4.83539">
        <ele>265</ele>
        <time>2018-08-04T08:45:48Z</time>
      </trkpt>
      <trkpt lat="45.93899" lon="4.83546">
        <ele>265</ele>
        <time>2018-08-04T08:45:49Z</time>
      </trkpt>
      <trkpt lat="45.93894" lon="4.83553">
        <ele>265</ele>
        <time>2018-08-04T08:45:50Z</time>
      </trkpt>
      <trkpt lat="45.93893" lon="4.83562">
        <ele>265</ele>
        <time>2018-08-04T08:45:51Z</time>
      </trkpt>
      <trkpt lat="45.93889" lon="4.83569">
        <ele>265</ele>
        <time>2018-08-04T08:45:52Z</time>
      </trkpt>
      <trkpt lat="45.93886" lon="4.83584">
        <ele>265</ele>
        <time>2018-08-04T08:45:53Z</time>
      </trkpt>
      <trkpt lat="45.93882" lon="4.83591">
        <ele>265</ele>
        <time>2018-08-04T08:45:54Z</time>
      </trkpt>
      <trkpt lat="45.93877" lon="4.836">
        <ele>265</ele>
        <time>2018-08-04T08:45:55Z</time>
      </trkpt>
      <trkpt lat="45.93873" lon="4.83607">
        <ele>265</ele>
        <time>2018-08-04T08:45:56Z</time>
      </trkpt>
      <trkpt lat="45.93868" lon="4.83615">
        <ele>265</ele>
        <time>2018-08-04T08:45:57Z</time>
      </trkpt>
      <trkpt lat="45.93864" lon="4.83624">
        <ele>265</ele>
        <time>2018-08-04T08:45:58Z</time>
      </trkpt>
      <trkpt lat="45.93861" lon="4.83632">
        <ele>265</ele>
        <time>2018-08-04T08:45:59Z</time>
      </trkpt>
      <trkpt lat="45.93857" lon="4.83641">
        <ele>265</ele>
        <time>2018-08-04T08:46:00Z</time>
      </trkpt>
      <trkpt lat="45.93854" lon="4.83649">
        <ele>265</ele>
        <time>2018-08-04T08:46:01Z</time>
      </trkpt>
      <trkpt lat="45.93852" lon="4.83659">
        <ele>265</ele>
        <time>2018-08-04T08:46:02Z</time>
      </trkpt>
      <trkpt lat="45.93848" lon="4.8367">
        <ele>265</ele>
        <time>2018-08-04T08:46:03Z</time>
      </trkpt>
      <trkpt lat="45.93845" lon="4.83678">
        <ele>265</ele>
        <time>2018-08-04T08:46:04Z</time>
      </trkpt>
      <trkpt lat="45.93843" lon="4.83687">
        <ele>265</ele>
        <time>2018-08-04T08:46:05Z</time>
      </trkpt>
      <trkpt lat="45.93841" lon="4.83694">
        <ele>265</ele>
        <time>2018-08-04T08:46:06Z</time>
      </trkpt>
      <trkpt lat="45.93837" lon="4.83703">
        <ele>265</ele>
        <time>2018-08-04T08:46:07Z</time>
      </trkpt>
      <trkpt lat="45.93836" lon="4.83715">
        <ele>265</ele>
        <time>2018-08-04T08:46:08Z</time>
      </trkpt>
      <trkpt lat="45.93833" lon="4.83723">
        <ele>266</ele>
        <time>2018-08-04T08:46:09Z</time>
      </trkpt>
      <trkpt lat="45.9383" lon="4.83732">
        <ele>266</ele>
        <time>2018-08-04T08:46:10Z</time>
      </trkpt>
      <trkpt lat="45.93828" lon="4.83739">
        <ele>266</ele>
        <time>2018-08-04T08:46:11Z</time>
      </trkpt>
      <trkpt lat="45.93825" lon="4.83747">
        <ele>266</ele>
        <time>2018-08-04T08:46:12Z</time>
      </trkpt>
      <trkpt lat="45.93822" lon="4.83754">
        <ele>266</ele>
        <time>2018-08-04T08:46:13Z</time>
      </trkpt>
      <trkpt lat="45.93819" lon="4.83763">
        <ele>266</ele>
        <time>2018-08-04T08:46:14Z</time>
      </trkpt>
      <trkpt lat="45.93817" lon="4.8377">
        <ele>266</ele>
        <time>2018-08-04T08:46:15Z</time>
      </trkpt>
      <trkpt lat="45.93815" lon="4.83778">
        <ele>266</ele>
        <time>2018-08-04T08:46:16Z</time>
      </trkpt>
      <trkpt lat="45.93813" lon="4.83785">
        <ele>266</ele>
        <time>2018-08-04T08:46:17Z</time>
      </trkpt>
      <trkpt lat="45.93811" lon="4.83793">
        <ele>266</ele>
        <time>2018-08-04T08:46:18Z</time>
      </trkpt>
      <trkpt lat="45.93809" lon="4.83798">
        <ele>266</ele>
        <time>2018-08-04T08:46:19Z</time>
      </trkpt>
      <trkpt lat="45.93806" lon="4.83806">
        <ele>266</ele>
        <time>2018-08-04T08:46:20Z</time>
      </trkpt>
      <trkpt lat="45.93804" lon="4.83811">
        <ele>266</ele>
        <time>2018-08-04T08:46:21Z</time>
      </trkpt>
      <trkpt lat="45.93803" lon="4.83819">
        <ele>266</ele>
        <time>2018-08-04T08:46:22Z</time>
      </trkpt>
      <trkpt lat="45.93801" lon="4.83826">
        <ele>266</ele>
        <time>2018-08-04T08:46:23Z</time>
      </trkpt>
      <trkpt lat="45.938" lon="4.83832">
        <ele>266</ele>
        <time>2018-08-04T08:46:24Z</time>
      </trkpt>
      <trkpt lat="45.93798" lon="4.83839">
        <ele>266</ele>
        <time>2018-08-04T08:46:25Z</time>
      </trkpt>
      <trkpt lat="45.93796" lon="4.83845">
        <ele>266</ele>
        <time>2018-08-04T08:46:26Z</time>
      </trkpt>
      <trkpt lat="45.93795" lon="4.83852">
        <ele>266</ele>
        <time>2018-08-04T08:46:27Z</time>
      </trkpt>
      <trkpt lat="45.93793" lon="4.8386">
        <ele>266</ele>
        <time>2018-08-04T08:46:28Z</time>
      </trkpt>
      <trkpt lat="45.93791" lon="4.83869">
        <ele>266</ele>
        <time>2018-08-04T08:46:29Z</time>
      </trkpt>
      <trkpt lat="45.93789" lon="4.83876">
        <ele>266</ele>
        <time>2018-08-04T08:46:30Z</time>
      </trkpt>
      <trkpt lat="45.93788" lon="4.83883">
        <ele>266</ele>
        <time>2018-08-04T08:46:31Z</time>
      </trkpt>
      <trkpt lat="45.93787" lon="4.83893">
        <ele>266</ele>
        <time>2018-08-04T08:46:32Z</time>
      </trkpt>
      <trkpt lat="45.93787" lon="4.83903">
        <ele>266</ele>
        <time>2018-08-04T08:46:33Z</time>
      </trkpt>
      <trkpt lat="45.93786" lon="4.83912">
        <ele>266</ele>
        <time>2018-08-04T08:46:34Z</time>
      </trkpt>
      <trkpt lat="45.93784" lon="4.83919">
        <ele>267</ele>
        <time>2018-08-04T08:46:35Z</time>
      </trkpt>
      <trkpt lat="45.93783" lon="4.83927">
        <ele>267</ele>
        <time>2018-08-04T08:46:36Z</time>
      </trkpt>
      <trkpt lat="45.93781" lon="4.83934">
        <ele>267</ele>
        <time>2018-08-04T08:46:37Z</time>
      </trkpt>
      <trkpt lat="45.9378" lon="4.83941">
        <ele>267</ele>
        <time>2018-08-04T08:46:38Z</time>
      </trkpt>
      <trkpt lat="45.93778" lon="4.83949">
        <ele>268</ele>
        <time>2018-08-04T08:46:39Z</time>
      </trkpt>
      <trkpt lat="45.93777" lon="4.83956">
        <ele>268</ele>
        <time>2018-08-04T08:46:40Z</time>
      </trkpt>
      <trkpt lat="45.93775" lon="4.83963">
        <ele>268</ele>
        <time>2018-08-04T08:46:41Z</time>
      </trkpt>
      <trkpt lat="45.93774" lon="4.83971">
        <ele>268</ele>
        <time>2018-08-04T08:46:42Z</time>
      </trkpt>
      <trkpt lat="45.93772" lon="4.83979">
        <ele>268</ele>
        <time>2018-08-04T08:46:43Z</time>
      </trkpt>
      <trkpt lat="45.93771" lon="4.83988">
        <ele>268</ele>
        <time>2018-08-04T08:46:44Z</time>
      </trkpt>
      <trkpt lat="45.93769" lon="4.83996">
        <ele>268</ele>
        <time>2018-08-04T08:46:45Z</time>
      </trkpt>
      <trkpt lat="45.93767" lon="4.84004">
        <ele>269</ele>
        <time>2018-08-04T08:46:46Z</time>
      </trkpt>
      <trkpt lat="45.93766" lon="4.84013">
        <ele>269</ele>
        <time>2018-08-04T08:46:47Z</time>
      </trkpt>
      <trkpt lat="45.93764" lon="4.84021">
        <ele>269</ele>
        <time>2018-08-04T08:46:48Z</time>
      </trkpt>
      <trkpt lat="45.93763" lon="4.84029">
        <ele>269</ele>
        <time>2018-08-04T08:46:49Z</time>
      </trkpt>
      <trkpt lat="45.93762" lon="4.84036">
        <ele>269</ele>
        <time>2018-08-04T08:46:50Z</time>
      </trkpt>
      <trkpt lat="45.9376" lon="4.84043">
        <ele>270</ele>
        <time>2018-08-04T08:46:51Z</time>
      </trkpt>
      <trkpt lat="45.9376" lon="4.84051">
        <ele>270</ele>
        <time>2018-08-04T08:46:52Z</time>
      </trkpt>
      <trkpt lat="45.93759" lon="4.84059">
        <ele>270</ele>
        <time>2018-08-04T08:46:53Z</time>
      </trkpt>
      <trkpt lat="45.93759" lon="4.84066">
        <ele>270</ele>
        <time>2018-08-04T08:46:54Z</time>
      </trkpt>
      <trkpt lat="45.93757" lon="4.84074">
        <ele>270</ele>
        <time>2018-08-04T08:46:55Z</time>
      </trkpt>
      <trkpt lat="45.93756" lon="4.84081">
        <ele>270</ele>
        <time>2018-08-04T08:46:56Z</time>
      </trkpt>
      <trkpt lat="45.93756" lon="4.84088">
        <ele>270</ele>
        <time>2018-08-04T08:46:57Z</time>
      </trkpt>
      <trkpt lat="45.93754" lon="4.84096">
        <ele>270</ele>
        <time>2018-08-04T08:46:58Z</time>
      </trkpt>
      <trkpt lat="45.93753" lon="4.84103">
        <ele>270</ele>
        <time>2018-08-04T08:46:59Z</time>
      </trkpt>
      <trkpt lat="45.93752" lon="4.84112">
        <ele>270</ele>
        <time>2018-08-04T08:47:00Z</time>
      </trkpt>
      <trkpt lat="45.93751" lon="4.8412">
        <ele>270</ele>
        <time>2018-08-04T08:47:01Z</time>
      </trkpt>
      <trkpt lat="45.93751" lon="4.84128">
        <ele>270</ele>
        <time>2018-08-04T08:47:02Z</time>
      </trkpt>
      <trkpt lat="45.93751" lon="4.84136">
        <ele>270</ele>
        <time>2018-08-04T08:47:03Z</time>
      </trkpt>
      <trkpt lat="45.9375" lon="4.84143">
        <ele>270</ele>
        <time>2018-08-04T08:47:04Z</time>
      </trkpt>
      <trkpt lat="45.9375" lon="4.84152">
        <ele>270</ele>
        <time>2018-08-04T08:47:05Z</time>
      </trkpt>
      <trkpt lat="45.9375" lon="4.8416">
        <ele>270</ele>
        <time>2018-08-04T08:47:06Z</time>
      </trkpt>
      <trkpt lat="45.93751" lon="4.84169">
        <ele>270</ele>
        <time>2018-08-04T08:47:07Z</time>
      </trkpt>
      <trkpt lat="45.93751" lon="4.84177">
        <ele>270</ele>
        <time>2018-08-04T08:47:08Z</time>
      </trkpt>
      <trkpt lat="45.93751" lon="4.84186">
        <ele>270</ele>
        <time>2018-08-04T08:47:09Z</time>
      </trkpt>
      <trkpt lat="45.93752" lon="4.84193">
        <ele>269</ele>
        <time>2018-08-04T08:47:10Z</time>
      </trkpt>
      <trkpt lat="45.93752" lon="4.84201">
        <ele>269</ele>
        <time>2018-08-04T08:47:11Z</time>
      </trkpt>
      <trkpt lat="45.93752" lon="4.8421">
        <ele>269</ele>
        <time>2018-08-04T08:47:12Z</time>
      </trkpt>
      <trkpt lat="45.93752" lon="4.84218">
        <ele>269</ele>
        <time>2018-08-04T08:47:13Z</time>
      </trkpt>
      <trkpt lat="45.93753" lon="4.84226">
        <ele>269</ele>
        <time>2018-08-04T08:47:14Z</time>
      </trkpt>
      <trkpt lat="45.93755" lon="4.84234">
        <ele>269</ele>
        <time>2018-08-04T08:47:15Z</time>
      </trkpt>
      <trkpt lat="45.93756" lon="4.84243">
        <ele>269</ele>
        <time>2018-08-04T08:47:16Z</time>
      </trkpt>
      <trkpt lat="45.93757" lon="4.84251">
        <ele>269</ele>
        <time>2018-08-04T08:47:17Z</time>
      </trkpt>
      <trkpt lat="45.93758" lon="4.8426">
        <ele>269</ele>
        <time>2018-08-04T08:47:18Z</time>
      </trkpt>
      <trkpt lat="45.93759" lon="4.84268">
        <ele>268</ele>
        <time>2018-08-04T08:47:19Z</time>
      </trkpt>
      <trkpt lat="45.9376" lon="4.84277">
        <ele>268</ele>
        <time>2018-08-04T08:47:20Z</time>
      </trkpt>
      <trkpt lat="45.93762" lon="4.84286">
        <ele>268</ele>
        <time>2018-08-04T08:47:21Z</time>
      </trkpt>
      <trkpt lat="45.93763" lon="4.84295">
        <ele>268</ele>
        <time>2018-08-04T08:47:22Z</time>
      </trkpt>
      <trkpt lat="45.93765" lon="4.84303">
        <ele>268</ele>
        <time>2018-08-04T08:47:23Z</time>
      </trkpt>
      <trkpt lat="45.93766" lon="4.8431">
        <ele>268</ele>
        <time>2018-08-04T08:47:24Z</time>
      </trkpt>
      <trkpt lat="45.93768" lon="4.84319">
        <ele>268</ele>
        <time>2018-08-04T08:47:25Z</time>
      </trkpt>
      <trkpt lat="45.93769" lon="4.84326">
        <ele>268</ele>
        <time>2018-08-04T08:47:26Z</time>
      </trkpt>
      <trkpt lat="45.9377" lon="4.84334">
        <ele>269</ele>
        <time>2018-08-04T08:47:27Z</time>
      </trkpt>
      <trkpt lat="45.93771" lon="4.84341">
        <ele>268</ele>
        <time>2018-08-04T08:47:28Z</time>
      </trkpt>
      <trkpt lat="45.93773" lon="4.84348">
        <ele>268</ele>
        <time>2018-08-04T08:47:29Z</time>
      </trkpt>
      <trkpt lat="45.93774" lon="4.84357">
        <ele>268</ele>
        <time>2018-08-04T08:47:30Z</time>
      </trkpt>
      <trkpt lat="45.93775" lon="4.84364">
        <ele>268</ele>
        <time>2018-08-04T08:47:31Z</time>
      </trkpt>
      <trkpt lat="45.93776" lon="4.84372">
        <ele>268</ele>
        <time>2018-08-04T08:47:32Z</time>
      </trkpt>
      <trkpt lat="45.93777" lon="4.84381">
        <ele>268</ele>
        <time>2018-08-04T08:47:33Z</time>
      </trkpt>
      <trkpt lat="45.93777" lon="4.84389">
        <ele>268</ele>
        <time>2018-08-04T08:47:34Z</time>
      </trkpt>
      <trkpt lat="45.93778" lon="4.84397">
        <ele>268</ele>
        <time>2018-08-04T08:47:35Z</time>
      </trkpt>
      <trkpt lat="45.93779" lon="4.84405">
        <ele>268</ele>
        <time>2018-08-04T08:47:36Z</time>
      </trkpt>
      <trkpt lat="45.9378" lon="4.84413">
        <ele>268</ele>
        <time>2018-08-04T08:47:37Z</time>
      </trkpt>
      <trkpt lat="45.93783" lon="4.84421">
        <ele>269</ele>
        <time>2018-08-04T08:47:38Z</time>
      </trkpt>
      <trkpt lat="45.93784" lon="4.84429">
        <ele>269</ele>
        <time>2018-08-04T08:47:39Z</time>
      </trkpt>
      <trkpt lat="45.93785" lon="4.84437">
        <ele>269</ele>
        <time>2018-08-04T08:47:40Z</time>
      </trkpt>
      <trkpt lat="45.93787" lon="4.84444">
        <ele>269</ele>
        <time>2018-08-04T08:47:41Z</time>
      </trkpt>
      <trkpt lat="45.93789" lon="4.8445">
        <ele>269</ele>
        <time>2018-08-04T08:47:42Z</time>
      </trkpt>
      <trkpt lat="45.93789" lon="4.84457">
        <ele>269</ele>
        <time>2018-08-04T08:47:43Z</time>
      </trkpt>
      <trkpt lat="45.93791" lon="4.84465">
        <ele>269</ele>
        <time>2018-08-04T08:47:44Z</time>
      </trkpt>
      <trkpt lat="45.93792" lon="4.84471">
        <ele>269</ele>
        <time>2018-08-04T08:47:45Z</time>
      </trkpt>
      <trkpt lat="45.93794" lon="4.84479">
        <ele>269</ele>
        <time>2018-08-04T08:47:46Z</time>
      </trkpt>
      <trkpt lat="45.93794" lon="4.84486">
        <ele>269</ele>
        <time>2018-08-04T08:47:47Z</time>
      </trkpt>
      <trkpt lat="45.93795" lon="4.84495">
        <ele>269</ele>
        <time>2018-08-04T08:47:48Z</time>
      </trkpt>
      <trkpt lat="45.93795" lon="4.84503">
        <ele>270</ele>
        <time>2018-08-04T08:47:49Z</time>
      </trkpt>
      <trkpt lat="45.93797" lon="4.84511">
        <ele>270</ele>
        <time>2018-08-04T08:47:50Z</time>
      </trkpt>
      <trkpt lat="45.93799" lon="4.84519">
        <ele>270</ele>
        <time>2018-08-04T08:47:51Z</time>
      </trkpt>
      <trkpt lat="45.938" lon="4.84528">
        <ele>270</ele>
        <time>2018-08-04T08:47:52Z</time>
      </trkpt>
      <trkpt lat="45.93802" lon="4.84534">
        <ele>270</ele>
        <time>2018-08-04T08:47:53Z</time>
      </trkpt>
      <trkpt lat="45.93802" lon="4.8454">
        <ele>270</ele>
        <time>2018-08-04T08:47:54Z</time>
      </trkpt>
      <trkpt lat="45.93804" lon="4.84548">
        <ele>270</ele>
        <time>2018-08-04T08:47:55Z</time>
      </trkpt>
      <trkpt lat="45.93806" lon="4.84556">
        <ele>270</ele>
        <time>2018-08-04T08:47:56Z</time>
      </trkpt>
      <trkpt lat="45.93806" lon="4.84565">
        <ele>270</ele>
        <time>2018-08-04T08:47:57Z</time>
      </trkpt>
      <trkpt lat="45.93808" lon="4.84572">
        <ele>270</ele>
        <time>2018-08-04T08:47:58Z</time>
      </trkpt>
      <trkpt lat="45.93809" lon="4.8458">
        <ele>270</ele>
        <time>2018-08-04T08:47:59Z</time>
      </trkpt>
      <trkpt lat="45.9381" lon="4.84587">
        <ele>271</ele>
        <time>2018-08-04T08:48:00Z</time>
      </trkpt>
      <trkpt lat="45.93811" lon="4.84595">
        <ele>271</ele>
        <time>2018-08-04T08:48:01Z</time>
      </trkpt>
      <trkpt lat="45.93812" lon="4.84602">
        <ele>271</ele>
        <time>2018-08-04T08:48:02Z</time>
      </trkpt>
      <trkpt lat="45.93813" lon="4.8461">
        <ele>271</ele>
        <time>2018-08-04T08:48:03Z</time>
      </trkpt>
      <trkpt lat="45.93814" lon="4.84617">
        <ele>271</ele>
        <time>2018-08-04T08:48:04Z</time>
      </trkpt>
      <trkpt lat="45.93815" lon="4.84623">
        <ele>271</ele>
        <time>2018-08-04T08:48:05Z</time>
      </trkpt>
      <trkpt lat="45.93816" lon="4.84631">
        <ele>271</ele>
        <time>2018-08-04T08:48:06Z</time>
      </trkpt>
      <trkpt lat="45.93817" lon="4.84639">
        <ele>271</ele>
        <time>2018-08-04T08:48:07Z</time>
      </trkpt>
      <trkpt lat="45.93818" lon="4.84646">
        <ele>271</ele>
        <time>2018-08-04T08:48:08Z</time>
      </trkpt>
      <trkpt lat="45.9382" lon="4.84653">
        <ele>271</ele>
        <time>2018-08-04T08:48:09Z</time>
      </trkpt>
      <trkpt lat="45.93821" lon="4.8466">
        <ele>271</ele>
        <time>2018-08-04T08:48:10Z</time>
      </trkpt>
      <trkpt lat="45.93824" lon="4.84667">
        <ele>271</ele>
        <time>2018-08-04T08:48:11Z</time>
      </trkpt>
      <trkpt lat="45.93824" lon="4.84673">
        <ele>271</ele>
        <time>2018-08-04T08:48:12Z</time>
      </trkpt>
      <trkpt lat="45.93824" lon="4.8468">
        <ele>271</ele>
        <time>2018-08-04T08:48:13Z</time>
      </trkpt>
      <trkpt lat="45.93825" lon="4.84687">
        <ele>271</ele>
        <time>2018-08-04T08:48:14Z</time>
      </trkpt>
      <trkpt lat="45.93827" lon="4.84694">
        <ele>271</ele>
        <time>2018-08-04T08:48:15Z</time>
      </trkpt>
      <trkpt lat="45.93827" lon="4.847">
        <ele>271</ele>
        <time>2018-08-04T08:48:16Z</time>
      </trkpt>
      <trkpt lat="45.93829" lon="4.84706">
        <ele>271</ele>
        <time>2018-08-04T08:48:17Z</time>
      </trkpt>
      <trkpt lat="45.9383" lon="4.84714">
        <ele>271</ele>
        <time>2018-08-04T08:48:18Z</time>
      </trkpt>
      <trkpt lat="45.93832" lon="4.84721">
        <ele>271</ele>
        <time>2018-08-04T08:48:19Z</time>
      </trkpt>
      <trkpt lat="45.93834" lon="4.84733">
        <ele>271</ele>
        <time>2018-08-04T08:48:21Z</time>
      </trkpt>
      <trkpt lat="45.93835" lon="4.84739">
        <ele>271</ele>
        <time>2018-08-04T08:48:22Z</time>
      </trkpt>
      <trkpt lat="45.93837" lon="4.8475">
        <ele>271</ele>
        <time>2018-08-04T08:48:24Z</time>
      </trkpt>
      <trkpt lat="45.93838" lon="4.84756">
        <ele>271</ele>
        <time>2018-08-04T08:48:25Z</time>
      </trkpt>
      <trkpt lat="45.9384" lon="4.84768">
        <ele>271</ele>
        <time>2018-08-04T08:48:27Z</time>
      </trkpt>
      <trkpt lat="45.9384" lon="4.84774">
        <ele>270</ele>
        <time>2018-08-04T08:48:28Z</time>
      </trkpt>
      <trkpt lat="45.93841" lon="4.84785">
        <ele>270</ele>
        <time>2018-08-04T08:48:30Z</time>
      </trkpt>
      <trkpt lat="45.93844" lon="4.84792">
        <ele>270</ele>
        <time>2018-08-04T08:48:31Z</time>
      </trkpt>
      <trkpt lat="45.93846" lon="4.84804">
        <ele>270</ele>
        <time>2018-08-04T08:48:33Z</time>
      </trkpt>
      <trkpt lat="45.93847" lon="4.8481">
        <ele>270</ele>
        <time>2018-08-04T08:48:34Z</time>
      </trkpt>
      <trkpt lat="45.93849" lon="4.84822">
        <ele>270</ele>
        <time>2018-08-04T08:48:36Z</time>
      </trkpt>
      <trkpt lat="45.9385" lon="4.8483">
        <ele>270</ele>
        <time>2018-08-04T08:48:37Z</time>
      </trkpt>
      <trkpt lat="45.93852" lon="4.84841">
        <ele>271</ele>
        <time>2018-08-04T08:48:39Z</time>
      </trkpt>
      <trkpt lat="45.93853" lon="4.84848">
        <ele>270</ele>
        <time>2018-08-04T08:48:40Z</time>
      </trkpt>
      <trkpt lat="45.93855" lon="4.84861">
        <ele>270</ele>
        <time>2018-08-04T08:48:42Z</time>
      </trkpt>
      <trkpt lat="45.93855" lon="4.84868">
        <ele>270</ele>
        <time>2018-08-04T08:48:43Z</time>
      </trkpt>
      <trkpt lat="45.93856" lon="4.84875">
        <ele>270</ele>
        <time>2018-08-04T08:48:44Z</time>
      </trkpt>
      <trkpt lat="45.93856" lon="4.84882">
        <ele>270</ele>
        <time>2018-08-04T08:48:45Z</time>
      </trkpt>
      <trkpt lat="45.93857" lon="4.84888">
        <ele>270</ele>
        <time>2018-08-04T08:48:46Z</time>
      </trkpt>
      <trkpt lat="45.93858" lon="4.84896">
        <ele>270</ele>
        <time>2018-08-04T08:48:47Z</time>
      </trkpt>
      <trkpt lat="45.93858" lon="4.84909">
        <ele>271</ele>
        <time>2018-08-04T08:48:49Z</time>
      </trkpt>
      <trkpt lat="45.93858" lon="4.84916">
        <ele>271</ele>
        <time>2018-08-04T08:48:50Z</time>
      </trkpt>
      <trkpt lat="45.93859" lon="4.84922">
        <ele>271</ele>
        <time>2018-08-04T08:48:51Z</time>
      </trkpt>
      <trkpt lat="45.93861" lon="4.84928">
        <ele>271</ele>
        <time>2018-08-04T08:48:52Z</time>
      </trkpt>
      <trkpt lat="45.93861" lon="4.84936">
        <ele>271</ele>
        <time>2018-08-04T08:48:53Z</time>
      </trkpt>
      <trkpt lat="45.93861" lon="4.84943">
        <ele>271</ele>
        <time>2018-08-04T08:48:54Z</time>
      </trkpt>
      <trkpt lat="45.93861" lon="4.84951">
        <ele>271</ele>
        <time>2018-08-04T08:48:55Z</time>
      </trkpt>
      <trkpt lat="45.93862" lon="4.84957">
        <ele>272</ele>
        <time>2018-08-04T08:48:56Z</time>
      </trkpt>
      <trkpt lat="45.93863" lon="4.84965">
        <ele>272</ele>
        <time>2018-08-04T08:48:57Z</time>
      </trkpt>
      <trkpt lat="45.93863" lon="4.84973">
        <ele>272</ele>
        <time>2018-08-04T08:48:58Z</time>
      </trkpt>
      <trkpt lat="45.93864" lon="4.84981">
        <ele>272</ele>
        <time>2018-08-04T08:48:59Z</time>
      </trkpt>
      <trkpt lat="45.93864" lon="4.84988">
        <ele>272</ele>
        <time>2018-08-04T08:49:00Z</time>
      </trkpt>
      <trkpt lat="45.93864" lon="4.84996">
        <ele>272</ele>
        <time>2018-08-04T08:49:01Z</time>
      </trkpt>
      <trkpt lat="45.93865" lon="4.85003">
        <ele>273</ele>
        <time>2018-08-04T08:49:02Z</time>
      </trkpt>
      <trkpt lat="45.93865" lon="4.8501">
        <ele>273</ele>
        <time>2018-08-04T08:49:03Z</time>
      </trkpt>
      <trkpt lat="45.93865" lon="4.85017">
        <ele>273</ele>
        <time>2018-08-04T08:49:04Z</time>
      </trkpt>
      <trkpt lat="45.93867" lon="4.85028">
        <ele>273</ele>
        <time>2018-08-04T08:49:06Z</time>
      </trkpt>
      <trkpt lat="45.93867" lon="4.85035">
        <ele>273</ele>
        <time>2018-08-04T08:49:07Z</time>
      </trkpt>
      <trkpt lat="45.93866" lon="4.85043">
        <ele>273</ele>
        <time>2018-08-04T08:49:08Z</time>
      </trkpt>
      <trkpt lat="45.93866" lon="4.8505">
        <ele>273</ele>
        <time>2018-08-04T08:49:09Z</time>
      </trkpt>
      <trkpt lat="45.93865" lon="4.85056">
        <ele>273</ele>
        <time>2018-08-04T08:49:10Z</time>
      </trkpt>
      <trkpt lat="45.93865" lon="4.85063">
        <ele>273</ele>
        <time>2018-08-04T08:49:11Z</time>
      </trkpt>
      <trkpt lat="45.93866" lon="4.85069">
        <ele>273</ele>
        <time>2018-08-04T08:49:12Z</time>
      </trkpt>
      <trkpt lat="45.93866" lon="4.85076">
        <ele>273</ele>
        <time>2018-08-04T08:49:13Z</time>
      </trkpt>
      <trkpt lat="45.93866" lon="4.85083">
        <ele>273</ele>
        <time>2018-08-04T08:49:14Z</time>
      </trkpt>
      <trkpt lat="45.93868" lon="4.8509">
        <ele>274</ele>
        <time>2018-08-04T08:49:15Z</time>
      </trkpt>
      <trkpt lat="45.9387" lon="4.85097">
        <ele>274</ele>
        <time>2018-08-04T08:49:16Z</time>
      </trkpt>
      <trkpt lat="45.93871" lon="4.85103">
        <ele>274</ele>
        <time>2018-08-04T08:49:17Z</time>
      </trkpt>
      <trkpt lat="45.93872" lon="4.85111">
        <ele>274</ele>
        <time>2018-08-04T08:49:18Z</time>
      </trkpt>
      <trkpt lat="45.93871" lon="4.85118">
        <ele>274</ele>
        <time>2018-08-04T08:49:19Z</time>
      </trkpt>
      <trkpt lat="45.93871" lon="4.85125">
        <ele>274</ele>
        <time>2018-08-04T08:49:20Z</time>
      </trkpt>
      <trkpt lat="45.93872" lon="4.85133">
        <ele>274</ele>
        <time>2018-08-04T08:49:21Z</time>
      </trkpt>
      <trkpt lat="45.93871" lon="4.85144">
        <ele>274</ele>
        <time>2018-08-04T08:49:23Z</time>
      </trkpt>
      <trkpt lat="45.93872" lon="4.8515">
        <ele>275</ele>
        <time>2018-08-04T08:49:24Z</time>
      </trkpt>
      <trkpt lat="45.93873" lon="4.85161">
        <ele>275</ele>
        <time>2018-08-04T08:49:26Z</time>
      </trkpt>
      <trkpt lat="45.93873" lon="4.85166">
        <ele>275</ele>
        <time>2018-08-04T08:49:27Z</time>
      </trkpt>
      <trkpt lat="45.93873" lon="4.85178">
        <ele>276</ele>
        <time>2018-08-04T08:49:29Z</time>
      </trkpt>
      <trkpt lat="45.93873" lon="4.85184">
        <ele>276</ele>
        <time>2018-08-04T08:49:30Z</time>
      </trkpt>
      <trkpt lat="45.93873" lon="4.85196">
        <ele>276</ele>
        <time>2018-08-04T08:49:32Z</time>
      </trkpt>
      <trkpt lat="45.93874" lon="4.85202">
        <ele>276</ele>
        <time>2018-08-04T08:49:33Z</time>
      </trkpt>
      <trkpt lat="45.93874" lon="4.85214">
        <ele>276</ele>
        <time>2018-08-04T08:49:35Z</time>
      </trkpt>
      <trkpt lat="45.93875" lon="4.8522">
        <ele>276</ele>
        <time>2018-08-04T08:49:36Z</time>
      </trkpt>
      <trkpt lat="45.93876" lon="4.8523">
        <ele>276</ele>
        <time>2018-08-04T08:49:38Z</time>
      </trkpt>
      <trkpt lat="45.93876" lon="4.85236">
        <ele>276</ele>
        <time>2018-08-04T08:49:39Z</time>
      </trkpt>
      <trkpt lat="45.93876" lon="4.85248">
        <ele>276</ele>
        <time>2018-08-04T08:49:41Z</time>
      </trkpt>
      <trkpt lat="45.93876" lon="4.85254">
        <ele>278</ele>
        <time>2018-08-04T08:49:42Z</time>
      </trkpt>
      <trkpt lat="45.93875" lon="4.85266">
        <ele>278</ele>
        <time>2018-08-04T08:49:44Z</time>
      </trkpt>
      <trkpt lat="45.93875" lon="4.85272">
        <ele>278</ele>
        <time>2018-08-04T08:49:45Z</time>
      </trkpt>
      <trkpt lat="45.93874" lon="4.85283">
        <ele>278</ele>
        <time>2018-08-04T08:49:47Z</time>
      </trkpt>
      <trkpt lat="45.93874" lon="4.85289">
        <ele>278</ele>
        <time>2018-08-04T08:49:48Z</time>
      </trkpt>
      <trkpt lat="45.93872" lon="4.853">
        <ele>278</ele>
        <time>2018-08-04T08:49:50Z</time>
      </trkpt>
      <trkpt lat="45.93872" lon="4.85302">
        <ele>279</ele>
        <time>2018-08-04T08:49:51Z</time>
      </trkpt>
      <trkpt lat="45.9387" lon="4.8531">
        <ele>279</ele>
        <time>2018-08-04T08:49:52Z</time>
      </trkpt>
      <trkpt lat="45.93869" lon="4.85315">
        <ele>279</ele>
        <time>2018-08-04T08:49:53Z</time>
      </trkpt>
      <trkpt lat="45.93866" lon="4.85325">
        <ele>279</ele>
        <time>2018-08-04T08:49:56Z</time>
      </trkpt>
      <trkpt lat="45.93866" lon="4.85329">
        <ele>279</ele>
        <time>2018-08-04T08:49:57Z</time>
      </trkpt>
      <trkpt lat="45.93864" lon="4.85338">
        <ele>281</ele>
        <time>2018-08-04T08:49:59Z</time>
      </trkpt>
      <trkpt lat="45.93861" lon="4.8535">
        <ele>281</ele>
        <time>2018-08-04T08:50:00Z</time>
      </trkpt>
      <trkpt lat="45.93859" lon="4.8536">
        <ele>281</ele>
        <time>2018-08-04T08:50:02Z</time>
      </trkpt>
      <trkpt lat="45.93859" lon="4.85363">
        <ele>281</ele>
        <time>2018-08-04T08:50:03Z</time>
      </trkpt>
      <trkpt lat="45.93857" lon="4.85374">
        <ele>281</ele>
        <time>2018-08-04T08:50:06Z</time>
      </trkpt>
      <trkpt lat="45.93856" lon="4.85378">
        <ele>281</ele>
        <time>2018-08-04T08:50:07Z</time>
      </trkpt>
      <trkpt lat="45.93855" lon="4.85386">
        <ele>281</ele>
        <time>2018-08-04T08:50:09Z</time>
      </trkpt>
      <trkpt lat="45.93854" lon="4.85391">
        <ele>281</ele>
        <time>2018-08-04T08:50:10Z</time>
      </trkpt>
      <trkpt lat="45.93853" lon="4.854">
        <ele>281</ele>
        <time>2018-08-04T08:50:12Z</time>
      </trkpt>
      <trkpt lat="45.93852" lon="4.85405">
        <ele>281</ele>
        <time>2018-08-04T08:50:13Z</time>
      </trkpt>
      <trkpt lat="45.9385" lon="4.85414">
        <ele>281</ele>
        <time>2018-08-04T08:50:15Z</time>
      </trkpt>
      <trkpt lat="45.93848" lon="4.85428">
        <ele>283</ele>
        <time>2018-08-04T08:50:16Z</time>
      </trkpt>
      <trkpt lat="45.93846" lon="4.85438">
        <ele>283</ele>
        <time>2018-08-04T08:50:18Z</time>
      </trkpt>
      <trkpt lat="45.93845" lon="4.85444">
        <ele>283</ele>
        <time>2018-08-04T08:50:19Z</time>
      </trkpt>
      <trkpt lat="45.93843" lon="4.85449">
        <ele>283</ele>
        <time>2018-08-04T08:50:20Z</time>
      </trkpt>
      <trkpt lat="45.93842" lon="4.85457">
        <ele>283</ele>
        <time>2018-08-04T08:50:21Z</time>
      </trkpt>
      <trkpt lat="45.93841" lon="4.85464">
        <ele>283</ele>
        <time>2018-08-04T08:50:22Z</time>
      </trkpt>
      <trkpt lat="45.9384" lon="4.85472">
        <ele>283</ele>
        <time>2018-08-04T08:50:23Z</time>
      </trkpt>
      <trkpt lat="45.93839" lon="4.85478">
        <ele>283</ele>
        <time>2018-08-04T08:50:24Z</time>
      </trkpt>
      <trkpt lat="45.93838" lon="4.85485">
        <ele>283</ele>
        <time>2018-08-04T08:50:25Z</time>
      </trkpt>
      <trkpt lat="45.93837" lon="4.85492">
        <ele>283</ele>
        <time>2018-08-04T08:50:26Z</time>
      </trkpt>
      <trkpt lat="45.93836" lon="4.85499">
        <ele>283</ele>
        <time>2018-08-04T08:50:27Z</time>
      </trkpt>
      <trkpt lat="45.93834" lon="4.85506">
        <ele>284</ele>
        <time>2018-08-04T08:50:28Z</time>
      </trkpt>
      <trkpt lat="45.93833" lon="4.85513">
        <ele>283</ele>
        <time>2018-08-04T08:50:29Z</time>
      </trkpt>
      <trkpt lat="45.93832" lon="4.8552">
        <ele>282</ele>
        <time>2018-08-04T08:50:30Z</time>
      </trkpt>
      <trkpt lat="45.93832" lon="4.85526">
        <ele>282</ele>
        <time>2018-08-04T08:50:31Z</time>
      </trkpt>
      <trkpt lat="45.9383" lon="4.85538">
        <ele>282</ele>
        <time>2018-08-04T08:50:33Z</time>
      </trkpt>
      <trkpt lat="45.93829" lon="4.85543">
        <ele>282</ele>
        <time>2018-08-04T08:50:34Z</time>
      </trkpt>
      <trkpt lat="45.93828" lon="4.85549">
        <ele>282</ele>
        <time>2018-08-04T08:50:35Z</time>
      </trkpt>
      <trkpt lat="45.93827" lon="4.85555">
        <ele>283</ele>
        <time>2018-08-04T08:50:36Z</time>
      </trkpt>
      <trkpt lat="45.93824" lon="4.85566">
        <ele>283</ele>
        <time>2018-08-04T08:50:38Z</time>
      </trkpt>
      <trkpt lat="45.93823" lon="4.85572">
        <ele>283</ele>
        <time>2018-08-04T08:50:39Z</time>
      </trkpt>
      <trkpt lat="45.93821" lon="4.8558">
        <ele>283</ele>
        <time>2018-08-04T08:50:40Z</time>
      </trkpt>
      <trkpt lat="45.93821" lon="4.85587">
        <ele>283</ele>
        <time>2018-08-04T08:50:41Z</time>
      </trkpt>
      <trkpt lat="45.93821" lon="4.85594">
        <ele>283</ele>
        <time>2018-08-04T08:50:42Z</time>
      </trkpt>
      <trkpt lat="45.93821" lon="4.85602">
        <ele>283</ele>
        <time>2018-08-04T08:50:43Z</time>
      </trkpt>
      <trkpt lat="45.93819" lon="4.85608">
        <ele>283</ele>
        <time>2018-08-04T08:50:44Z</time>
      </trkpt>
      <trkpt lat="45.93819" lon="4.85616">
        <ele>283</ele>
        <time>2018-08-04T08:50:45Z</time>
      </trkpt>
      <trkpt lat="45.93819" lon="4.85622">
        <ele>283</ele>
        <time>2018-08-04T08:50:46Z</time>
      </trkpt>
      <trkpt lat="45.93819" lon="4.85629">
        <ele>283</ele>
        <time>2018-08-04T08:50:47Z</time>
      </trkpt>
      <trkpt lat="45.93819" lon="4.85642">
        <ele>283</ele>
        <time>2018-08-04T08:50:49Z</time>
      </trkpt>
      <trkpt lat="45.9382" lon="4.85647">
        <ele>283</ele>
        <time>2018-08-04T08:50:50Z</time>
      </trkpt>
      <trkpt lat="45.9382" lon="4.85654">
        <ele>283</ele>
        <time>2018-08-04T08:50:51Z</time>
      </trkpt>
      <trkpt lat="45.93822" lon="4.85662">
        <ele>283</ele>
        <time>2018-08-04T08:50:52Z</time>
      </trkpt>
      <trkpt lat="45.93823" lon="4.85668">
        <ele>283</ele>
        <time>2018-08-04T08:50:53Z</time>
      </trkpt>
      <trkpt lat="45.93824" lon="4.85675">
        <ele>283</ele>
        <time>2018-08-04T08:50:54Z</time>
      </trkpt>
      <trkpt lat="45.93823" lon="4.85682">
        <ele>283</ele>
        <time>2018-08-04T08:50:55Z</time>
      </trkpt>
      <trkpt lat="45.93824" lon="4.85688">
        <ele>283</ele>
        <time>2018-08-04T08:50:56Z</time>
      </trkpt>
      <trkpt lat="45.93824" lon="4.85696">
        <ele>283</ele>
        <time>2018-08-04T08:50:57Z</time>
      </trkpt>
      <trkpt lat="45.93824" lon="4.85703">
        <ele>283</ele>
        <time>2018-08-04T08:50:58Z</time>
      </trkpt>
      <trkpt lat="45.93825" lon="4.8571">
        <ele>283</ele>
        <time>2018-08-04T08:50:59Z</time>
      </trkpt>
      <trkpt lat="45.93826" lon="4.85717">
        <ele>283</ele>
        <time>2018-08-04T08:51:00Z</time>
      </trkpt>
      <trkpt lat="45.93827" lon="4.85725">
        <ele>283</ele>
        <time>2018-08-04T08:51:01Z</time>
      </trkpt>
      <trkpt lat="45.93827" lon="4.85731">
        <ele>283</ele>
        <time>2018-08-04T08:51:02Z</time>
      </trkpt>
      <trkpt lat="45.93829" lon="4.85739">
        <ele>283</ele>
        <time>2018-08-04T08:51:03Z</time>
      </trkpt>
      <trkpt lat="45.93829" lon="4.85746">
        <ele>283</ele>
        <time>2018-08-04T08:51:04Z</time>
      </trkpt>
      <trkpt lat="45.9383" lon="4.85754">
        <ele>283</ele>
        <time>2018-08-04T08:51:05Z</time>
      </trkpt>
      <trkpt lat="45.93831" lon="4.85762">
        <ele>283</ele>
        <time>2018-08-04T08:51:06Z</time>
      </trkpt>
      <trkpt lat="45.93832" lon="4.85769">
        <ele>283</ele>
        <time>2018-08-04T08:51:07Z</time>
      </trkpt>
      <trkpt lat="45.93834" lon="4.85776">
        <ele>284</ele>
        <time>2018-08-04T08:51:08Z</time>
      </trkpt>
      <trkpt lat="45.93835" lon="4.85782">
        <ele>284</ele>
        <time>2018-08-04T08:51:09Z</time>
      </trkpt>
      <trkpt lat="45.93837" lon="4.85789">
        <ele>284</ele>
        <time>2018-08-04T08:51:10Z</time>
      </trkpt>
      <trkpt lat="45.93838" lon="4.85796">
        <ele>284</ele>
        <time>2018-08-04T08:51:11Z</time>
      </trkpt>
      <trkpt lat="45.93838" lon="4.85804">
        <ele>284</ele>
        <time>2018-08-04T08:51:12Z</time>
      </trkpt>
      <trkpt lat="45.9384" lon="4.85811">
        <ele>284</ele>
        <time>2018-08-04T08:51:13Z</time>
      </trkpt>
      <trkpt lat="45.93841" lon="4.85817">
        <ele>284</ele>
        <time>2018-08-04T08:51:14Z</time>
      </trkpt>
      <trkpt lat="45.93841" lon="4.85825">
        <ele>283</ele>
        <time>2018-08-04T08:51:15Z</time>
      </trkpt>
      <trkpt lat="45.93842" lon="4.85833">
        <ele>283</ele>
        <time>2018-08-04T08:51:16Z</time>
      </trkpt>
      <trkpt lat="45.93843" lon="4.8584">
        <ele>284</ele>
        <time>2018-08-04T08:51:17Z</time>
      </trkpt>
      <trkpt lat="45.93844" lon="4.85847">
        <ele>284</ele>
        <time>2018-08-04T08:51:18Z</time>
      </trkpt>
      <trkpt lat="45.93846" lon="4.85859">
        <ele>284</ele>
        <time>2018-08-04T08:51:20Z</time>
      </trkpt>
      <trkpt lat="45.93846" lon="4.85865">
        <ele>284</ele>
        <time>2018-08-04T08:51:21Z</time>
      </trkpt>
      <trkpt lat="45.93847" lon="4.85872">
        <ele>284</ele>
        <time>2018-08-04T08:51:22Z</time>
      </trkpt>
      <trkpt lat="45.93848" lon="4.85878">
        <ele>284</ele>
        <time>2018-08-04T08:51:23Z</time>
      </trkpt>
      <trkpt lat="45.9385" lon="4.85888">
        <ele>284</ele>
        <time>2018-08-04T08:51:25Z</time>
      </trkpt>
      <trkpt lat="45.93852" lon="4.85893">
        <ele>284</ele>
        <time>2018-08-04T08:51:26Z</time>
      </trkpt>
      <trkpt lat="45.93853" lon="4.85899">
        <ele>284</ele>
        <time>2018-08-04T08:51:27Z</time>
      </trkpt>
      <trkpt lat="45.93854" lon="4.85906">
        <ele>284</ele>
        <time>2018-08-04T08:51:28Z</time>
      </trkpt>
      <trkpt lat="45.93853" lon="4.85913">
        <ele>285</ele>
        <time>2018-08-04T08:51:29Z</time>
      </trkpt>
      <trkpt lat="45.93853" lon="4.8592">
        <ele>285</ele>
        <time>2018-08-04T08:51:30Z</time>
      </trkpt>
      <trkpt lat="45.93855" lon="4.85933">
        <ele>285</ele>
        <time>2018-08-04T08:51:32Z</time>
      </trkpt>
      <trkpt lat="45.93856" lon="4.85939">
        <ele>284</ele>
        <time>2018-08-04T08:51:33Z</time>
      </trkpt>
      <trkpt lat="45.93856" lon="4.85945">
        <ele>284</ele>
        <time>2018-08-04T08:51:34Z</time>
      </trkpt>
      <trkpt lat="45.93857" lon="4.85953">
        <ele>284</ele>
        <time>2018-08-04T08:51:35Z</time>
      </trkpt>
      <trkpt lat="45.93859" lon="4.85964">
        <ele>284</ele>
        <time>2018-08-04T08:51:37Z</time>
      </trkpt>
      <trkpt lat="45.9386" lon="4.8597">
        <ele>284</ele>
        <time>2018-08-04T08:51:38Z</time>
      </trkpt>
      <trkpt lat="45.93861" lon="4.85976">
        <ele>284</ele>
        <time>2018-08-04T08:51:39Z</time>
      </trkpt>
      <trkpt lat="45.93862" lon="4.85983">
        <ele>284</ele>
        <time>2018-08-04T08:51:40Z</time>
      </trkpt>
      <trkpt lat="45.93863" lon="4.8599">
        <ele>284</ele>
        <time>2018-08-04T08:51:41Z</time>
      </trkpt>
      <trkpt lat="45.93863" lon="4.85996">
        <ele>284</ele>
        <time>2018-08-04T08:51:42Z</time>
      </trkpt>
      <trkpt lat="45.93862" lon="4.86004">
        <ele>284</ele>
        <time>2018-08-04T08:51:43Z</time>
      </trkpt>
      <trkpt lat="45.93863" lon="4.86011">
        <ele>284</ele>
        <time>2018-08-04T08:51:44Z</time>
      </trkpt>
      <trkpt lat="45.93865" lon="4.86019">
        <ele>284</ele>
        <time>2018-08-04T08:51:45Z</time>
      </trkpt>
      <trkpt lat="45.93865" lon="4.86026">
        <ele>284</ele>
        <time>2018-08-04T08:51:46Z</time>
      </trkpt>
      <trkpt lat="45.93866" lon="4.86033">
        <ele>284</ele>
        <time>2018-08-04T08:51:47Z</time>
      </trkpt>
      <trkpt lat="45.93866" lon="4.8604">
        <ele>284</ele>
        <time>2018-08-04T08:51:48Z</time>
      </trkpt>
      <trkpt lat="45.93867" lon="4.86051">
        <ele>284</ele>
        <time>2018-08-04T08:51:50Z</time>
      </trkpt>
      <trkpt lat="45.93869" lon="4.86058">
        <ele>284</ele>
        <time>2018-08-04T08:51:51Z</time>
      </trkpt>
      <trkpt lat="45.93868" lon="4.86071">
        <ele>284</ele>
        <time>2018-08-04T08:51:53Z</time>
      </trkpt>
      <trkpt lat="45.93869" lon="4.86077">
        <ele>285</ele>
        <time>2018-08-04T08:51:54Z</time>
      </trkpt>
      <trkpt lat="45.93869" lon="4.86084">
        <ele>285</ele>
        <time>2018-08-04T08:51:55Z</time>
      </trkpt>
      <trkpt lat="45.93869" lon="4.86091">
        <ele>285</ele>
        <time>2018-08-04T08:51:56Z</time>
      </trkpt>
      <trkpt lat="45.9387" lon="4.86097">
        <ele>285</ele>
        <time>2018-08-04T08:51:57Z</time>
      </trkpt>
      <trkpt lat="45.93871" lon="4.86104">
        <ele>286</ele>
        <time>2018-08-04T08:51:58Z</time>
      </trkpt>
      <trkpt lat="45.93872" lon="4.86112">
        <ele>286</ele>
        <time>2018-08-04T08:51:59Z</time>
      </trkpt>
      <trkpt lat="45.93873" lon="4.86119">
        <ele>286</ele>
        <time>2018-08-04T08:52:00Z</time>
      </trkpt>
      <trkpt lat="45.93874" lon="4.86126">
        <ele>286</ele>
        <time>2018-08-04T08:52:01Z</time>
      </trkpt>
      <trkpt lat="45.93874" lon="4.86133">
        <ele>286</ele>
        <time>2018-08-04T08:52:02Z</time>
      </trkpt>
      <trkpt lat="45.93875" lon="4.86141">
        <ele>286</ele>
        <time>2018-08-04T08:52:03Z</time>
      </trkpt>
      <trkpt lat="45.93876" lon="4.86149">
        <ele>286</ele>
        <time>2018-08-04T08:52:04Z</time>
      </trkpt>
      <trkpt lat="45.93875" lon="4.86156">
        <ele>286</ele>
        <time>2018-08-04T08:52:05Z</time>
      </trkpt>
      <trkpt lat="45.93875" lon="4.86164">
        <ele>286</ele>
        <time>2018-08-04T08:52:06Z</time>
      </trkpt>
      <trkpt lat="45.93875" lon="4.86172">
        <ele>287</ele>
        <time>2018-08-04T08:52:07Z</time>
      </trkpt>
      <trkpt lat="45.93875" lon="4.8618">
        <ele>287</ele>
        <time>2018-08-04T08:52:08Z</time>
      </trkpt>
      <trkpt lat="45.93877" lon="4.86186">
        <ele>287</ele>
        <time>2018-08-04T08:52:09Z</time>
      </trkpt>
      <trkpt lat="45.93877" lon="4.86193">
        <ele>287</ele>
        <time>2018-08-04T08:52:10Z</time>
      </trkpt>
      <trkpt lat="45.93876" lon="4.862">
        <ele>287</ele>
        <time>2018-08-04T08:52:11Z</time>
      </trkpt>
      <trkpt lat="45.93878" lon="4.86208">
        <ele>287</ele>
        <time>2018-08-04T08:52:12Z</time>
      </trkpt>
      <trkpt lat="45.93878" lon="4.86216">
        <ele>288</ele>
        <time>2018-08-04T08:52:13Z</time>
      </trkpt>
      <trkpt lat="45.93878" lon="4.86223">
        <ele>288</ele>
        <time>2018-08-04T08:52:14Z</time>
      </trkpt>
      <trkpt lat="45.93879" lon="4.86231">
        <ele>288</ele>
        <time>2018-08-04T08:52:15Z</time>
      </trkpt>
      <trkpt lat="45.93879" lon="4.86239">
        <ele>288</ele>
        <time>2018-08-04T08:52:16Z</time>
      </trkpt>
      <trkpt lat="45.93879" lon="4.86246">
        <ele>288</ele>
        <time>2018-08-04T08:52:17Z</time>
      </trkpt>
      <trkpt lat="45.9388" lon="4.86254">
        <ele>288</ele>
        <time>2018-08-04T08:52:18Z</time>
      </trkpt>
      <trkpt lat="45.93879" lon="4.86262">
        <ele>288</ele>
        <time>2018-08-04T08:52:19Z</time>
      </trkpt>
      <trkpt lat="45.93879" lon="4.86269">
        <ele>288</ele>
        <time>2018-08-04T08:52:20Z</time>
      </trkpt>
      <trkpt lat="45.93877" lon="4.86276">
        <ele>288</ele>
        <time>2018-08-04T08:52:21Z</time>
      </trkpt>
      <trkpt lat="45.93877" lon="4.86284">
        <ele>288</ele>
        <time>2018-08-04T08:52:22Z</time>
      </trkpt>
      <trkpt lat="45.93876" lon="4.86291">
        <ele>288</ele>
        <time>2018-08-04T08:52:23Z</time>
      </trkpt>
      <trkpt lat="45.93875" lon="4.86297">
        <ele>288</ele>
        <time>2018-08-04T08:52:24Z</time>
      </trkpt>
      <trkpt lat="45.93873" lon="4.8631">
        <ele>288</ele>
        <time>2018-08-04T08:52:26Z</time>
      </trkpt>
      <trkpt lat="45.93872" lon="4.86315">
        <ele>288</ele>
        <time>2018-08-04T08:52:27Z</time>
      </trkpt>
      <trkpt lat="45.93871" lon="4.86328">
        <ele>288</ele>
        <time>2018-08-04T08:52:29Z</time>
      </trkpt>
      <trkpt lat="45.9387" lon="4.86334">
        <ele>288</ele>
        <time>2018-08-04T08:52:30Z</time>
      </trkpt>
      <trkpt lat="45.93869" lon="4.86342">
        <ele>288</ele>
        <time>2018-08-04T08:52:31Z</time>
      </trkpt>
      <trkpt lat="45.93867" lon="4.86348">
        <ele>288</ele>
        <time>2018-08-04T08:52:32Z</time>
      </trkpt>
      <trkpt lat="45.93866" lon="4.86356">
        <ele>288</ele>
        <time>2018-08-04T08:52:33Z</time>
      </trkpt>
      <trkpt lat="45.93865" lon="4.86363">
        <ele>288</ele>
        <time>2018-08-04T08:52:34Z</time>
      </trkpt>
      <trkpt lat="45.93863" lon="4.86371">
        <ele>288</ele>
        <time>2018-08-04T08:52:35Z</time>
      </trkpt>
      <trkpt lat="45.93861" lon="4.86379">
        <ele>288</ele>
        <time>2018-08-04T08:52:36Z</time>
      </trkpt>
      <trkpt lat="45.9386" lon="4.86391">
        <ele>288</ele>
        <time>2018-08-04T08:52:38Z</time>
      </trkpt>
      <trkpt lat="45.93859" lon="4.86398">
        <ele>288</ele>
        <time>2018-08-04T08:52:39Z</time>
      </trkpt>
      <trkpt lat="45.93858" lon="4.86411">
        <ele>288</ele>
        <time>2018-08-04T08:52:41Z</time>
      </trkpt>
      <trkpt lat="45.93857" lon="4.86418">
        <ele>288</ele>
        <time>2018-08-04T08:52:42Z</time>
      </trkpt>
      <trkpt lat="45.93856" lon="4.86425">
        <ele>288</ele>
        <time>2018-08-04T08:52:43Z</time>
      </trkpt>
      <trkpt lat="45.93855" lon="4.86433">
        <ele>288</ele>
        <time>2018-08-04T08:52:44Z</time>
      </trkpt>
      <trkpt lat="45.93854" lon="4.86441">
        <ele>288</ele>
        <time>2018-08-04T08:52:45Z</time>
      </trkpt>
      <trkpt lat="45.93853" lon="4.86449">
        <ele>288</ele>
        <time>2018-08-04T08:52:46Z</time>
      </trkpt>
      <trkpt lat="45.93852" lon="4.86457">
        <ele>288</ele>
        <time>2018-08-04T08:52:47Z</time>
      </trkpt>
      <trkpt lat="45.9385" lon="4.86465">
        <ele>288</ele>
        <time>2018-08-04T08:52:48Z</time>
      </trkpt>
      <trkpt lat="45.93848" lon="4.86474">
        <ele>288</ele>
        <time>2018-08-04T08:52:49Z</time>
      </trkpt>
      <trkpt lat="45.93847" lon="4.86482">
        <ele>288</ele>
        <time>2018-08-04T08:52:50Z</time>
      </trkpt>
      <trkpt lat="45.93846" lon="4.86489">
        <ele>288</ele>
        <time>2018-08-04T08:52:51Z</time>
      </trkpt>
      <trkpt lat="45.93845" lon="4.86497">
        <ele>288</ele>
        <time>2018-08-04T08:52:52Z</time>
      </trkpt>
      <trkpt lat="45.93843" lon="4.86504">
        <ele>288</ele>
        <time>2018-08-04T08:52:53Z</time>
      </trkpt>
      <trkpt lat="45.93842" lon="4.8651">
        <ele>288</ele>
        <time>2018-08-04T08:52:54Z</time>
      </trkpt>
      <trkpt lat="45.93842" lon="4.86517">
        <ele>288</ele>
        <time>2018-08-04T08:52:55Z</time>
      </trkpt>
      <trkpt lat="45.93841" lon="4.86524">
        <ele>288</ele>
        <time>2018-08-04T08:52:56Z</time>
      </trkpt>
      <trkpt lat="45.9384" lon="4.86532">
        <ele>288</ele>
        <time>2018-08-04T08:52:57Z</time>
      </trkpt>
      <trkpt lat="45.93839" lon="4.86539">
        <ele>288</ele>
        <time>2018-08-04T08:52:58Z</time>
      </trkpt>
      <trkpt lat="45.93837" lon="4.86551">
        <ele>288</ele>
        <time>2018-08-04T08:53:00Z</time>
      </trkpt>
      <trkpt lat="45.93836" lon="4.86558">
        <ele>288</ele>
        <time>2018-08-04T08:53:01Z</time>
      </trkpt>
      <trkpt lat="45.93835" lon="4.86564">
        <ele>288</ele>
        <time>2018-08-04T08:53:02Z</time>
      </trkpt>
      <trkpt lat="45.93834" lon="4.86571">
        <ele>288</ele>
        <time>2018-08-04T08:53:03Z</time>
      </trkpt>
      <trkpt lat="45.93832" lon="4.86578">
        <ele>289</ele>
        <time>2018-08-04T08:53:04Z</time>
      </trkpt>
      <trkpt lat="45.93832" lon="4.86586">
        <ele>288</ele>
        <time>2018-08-04T08:53:05Z</time>
      </trkpt>
      <trkpt lat="45.93831" lon="4.86593">
        <ele>288</ele>
        <time>2018-08-04T08:53:06Z</time>
      </trkpt>
      <trkpt lat="45.93829" lon="4.86599">
        <ele>288</ele>
        <time>2018-08-04T08:53:07Z</time>
      </trkpt>
      <trkpt lat="45.93828" lon="4.86611">
        <ele>288</ele>
        <time>2018-08-04T08:53:09Z</time>
      </trkpt>
      <trkpt lat="45.93827" lon="4.86616">
        <ele>288</ele>
        <time>2018-08-04T08:53:10Z</time>
      </trkpt>
      <trkpt lat="45.93824" lon="4.86629">
        <ele>288</ele>
        <time>2018-08-04T08:53:12Z</time>
      </trkpt>
      <trkpt lat="45.93823" lon="4.86635">
        <ele>288</ele>
        <time>2018-08-04T08:53:13Z</time>
      </trkpt>
      <trkpt lat="45.93822" lon="4.86641">
        <ele>288</ele>
        <time>2018-08-04T08:53:14Z</time>
      </trkpt>
      <trkpt lat="45.93821" lon="4.86647">
        <ele>288</ele>
        <time>2018-08-04T08:53:15Z</time>
      </trkpt>
      <trkpt lat="45.9382" lon="4.86659">
        <ele>288</ele>
        <time>2018-08-04T08:53:17Z</time>
      </trkpt>
      <trkpt lat="45.93819" lon="4.86665">
        <ele>288</ele>
        <time>2018-08-04T08:53:18Z</time>
      </trkpt>
      <trkpt lat="45.93818" lon="4.86671">
        <ele>287</ele>
        <time>2018-08-04T08:53:19Z</time>
      </trkpt>
      <trkpt lat="45.93817" lon="4.86679">
        <ele>287</ele>
        <time>2018-08-04T08:53:20Z</time>
      </trkpt>
      <trkpt lat="45.93815" lon="4.86686">
        <ele>287</ele>
        <time>2018-08-04T08:53:21Z</time>
      </trkpt>
      <trkpt lat="45.93815" lon="4.86692">
        <ele>287</ele>
        <time>2018-08-04T08:53:22Z</time>
      </trkpt>
      <trkpt lat="45.93812" lon="4.86704">
        <ele>287</ele>
        <time>2018-08-04T08:53:24Z</time>
      </trkpt>
      <trkpt lat="45.9381" lon="4.86712">
        <ele>287</ele>
        <time>2018-08-04T08:53:25Z</time>
      </trkpt>
      <trkpt lat="45.93809" lon="4.86718">
        <ele>287</ele>
        <time>2018-08-04T08:53:26Z</time>
      </trkpt>
      <trkpt lat="45.93808" lon="4.86725">
        <ele>287</ele>
        <time>2018-08-04T08:53:27Z</time>
      </trkpt>
      <trkpt lat="45.93807" lon="4.86733">
        <ele>286</ele>
        <time>2018-08-04T08:53:28Z</time>
      </trkpt>
      <trkpt lat="45.93805" lon="4.86742">
        <ele>286</ele>
        <time>2018-08-04T08:53:29Z</time>
      </trkpt>
      <trkpt lat="45.93804" lon="4.8675">
        <ele>286</ele>
        <time>2018-08-04T08:53:30Z</time>
      </trkpt>
      <trkpt lat="45.93804" lon="4.86759">
        <ele>286</ele>
        <time>2018-08-04T08:53:31Z</time>
      </trkpt>
      <trkpt lat="45.93802" lon="4.86767">
        <ele>286</ele>
        <time>2018-08-04T08:53:32Z</time>
      </trkpt>
      <trkpt lat="45.93801" lon="4.86775">
        <ele>286</ele>
        <time>2018-08-04T08:53:33Z</time>
      </trkpt>
      <trkpt lat="45.93801" lon="4.86783">
        <ele>286</ele>
        <time>2018-08-04T08:53:34Z</time>
      </trkpt>
      <trkpt lat="45.93799" lon="4.8679">
        <ele>286</ele>
        <time>2018-08-04T08:53:35Z</time>
      </trkpt>
      <trkpt lat="45.93798" lon="4.86797">
        <ele>286</ele>
        <time>2018-08-04T08:53:36Z</time>
      </trkpt>
      <trkpt lat="45.93796" lon="4.86805">
        <ele>286</ele>
        <time>2018-08-04T08:53:37Z</time>
      </trkpt>
      <trkpt lat="45.93795" lon="4.86817">
        <ele>286</ele>
        <time>2018-08-04T08:53:39Z</time>
      </trkpt>
      <trkpt lat="45.93793" lon="4.86824">
        <ele>286</ele>
        <time>2018-08-04T08:53:40Z</time>
      </trkpt>
      <trkpt lat="45.93793" lon="4.8683">
        <ele>286</ele>
        <time>2018-08-04T08:53:41Z</time>
      </trkpt>
      <trkpt lat="45.93792" lon="4.86839">
        <ele>286</ele>
        <time>2018-08-04T08:53:42Z</time>
      </trkpt>
      <trkpt lat="45.93792" lon="4.86846">
        <ele>286</ele>
        <time>2018-08-04T08:53:43Z</time>
      </trkpt>
      <trkpt lat="45.93791" lon="4.86854">
        <ele>286</ele>
        <time>2018-08-04T08:53:44Z</time>
      </trkpt>
      <trkpt lat="45.9379" lon="4.86862">
        <ele>286</ele>
        <time>2018-08-04T08:53:45Z</time>
      </trkpt>
      <trkpt lat="45.93789" lon="4.86871">
        <ele>286</ele>
        <time>2018-08-04T08:53:46Z</time>
      </trkpt>
      <trkpt lat="45.93787" lon="4.8688">
        <ele>286</ele>
        <time>2018-08-04T08:53:47Z</time>
      </trkpt>
      <trkpt lat="45.93786" lon="4.86888">
        <ele>286</ele>
        <time>2018-08-04T08:53:48Z</time>
      </trkpt>
      <trkpt lat="45.93784" lon="4.86897">
        <ele>286</ele>
        <time>2018-08-04T08:53:49Z</time>
      </trkpt>
      <trkpt lat="45.93783" lon="4.86907">
        <ele>286</ele>
        <time>2018-08-04T08:53:50Z</time>
      </trkpt>
      <trkpt lat="45.93782" lon="4.86915">
        <ele>285</ele>
        <time>2018-08-04T08:53:51Z</time>
      </trkpt>
      <trkpt lat="45.93781" lon="4.86924">
        <ele>285</ele>
        <time>2018-08-04T08:53:52Z</time>
      </trkpt>
      <trkpt lat="45.93779" lon="4.86933">
        <ele>285</ele>
        <time>2018-08-04T08:53:53Z</time>
      </trkpt>
      <trkpt lat="45.93778" lon="4.86942">
        <ele>285</ele>
        <time>2018-08-04T08:53:54Z</time>
      </trkpt>
      <trkpt lat="45.93777" lon="4.86951">
        <ele>285</ele>
        <time>2018-08-04T08:53:55Z</time>
      </trkpt>
      <trkpt lat="45.93774" lon="4.86961">
        <ele>285</ele>
        <time>2018-08-04T08:53:56Z</time>
      </trkpt>
      <trkpt lat="45.93773" lon="4.8697">
        <ele>285</ele>
        <time>2018-08-04T08:53:57Z</time>
      </trkpt>
      <trkpt lat="45.93771" lon="4.8698">
        <ele>285</ele>
        <time>2018-08-04T08:53:58Z</time>
      </trkpt>
      <trkpt lat="45.9377" lon="4.8699">
        <ele>285</ele>
        <time>2018-08-04T08:53:59Z</time>
      </trkpt>
      <trkpt lat="45.93768" lon="4.86999">
        <ele>285</ele>
        <time>2018-08-04T08:54:00Z</time>
      </trkpt>
      <trkpt lat="45.93767" lon="4.8701">
        <ele>284</ele>
        <time>2018-08-04T08:54:01Z</time>
      </trkpt>
      <trkpt lat="45.93765" lon="4.87017">
        <ele>284</ele>
        <time>2018-08-04T08:54:02Z</time>
      </trkpt>
      <trkpt lat="45.93764" lon="4.87027">
        <ele>284</ele>
        <time>2018-08-04T08:54:03Z</time>
      </trkpt>
      <trkpt lat="45.93762" lon="4.87037">
        <ele>284</ele>
        <time>2018-08-04T08:54:04Z</time>
      </trkpt>
      <trkpt lat="45.93761" lon="4.87048">
        <ele>284</ele>
        <time>2018-08-04T08:54:05Z</time>
      </trkpt>
      <trkpt lat="45.9376" lon="4.87058">
        <ele>284</ele>
        <time>2018-08-04T08:54:06Z</time>
      </trkpt>
      <trkpt lat="45.93759" lon="4.87071">
        <ele>284</ele>
        <time>2018-08-04T08:54:07Z</time>
      </trkpt>
      <trkpt lat="45.93758" lon="4.87081">
        <ele>284</ele>
        <time>2018-08-04T08:54:08Z</time>
      </trkpt>
      <trkpt lat="45.93756" lon="4.87093">
        <ele>284</ele>
        <time>2018-08-04T08:54:09Z</time>
      </trkpt>
      <trkpt lat="45.93757" lon="4.87105">
        <ele>284</ele>
        <time>2018-08-04T08:54:10Z</time>
      </trkpt>
      <trkpt lat="45.93755" lon="4.87116">
        <ele>284</ele>
        <time>2018-08-04T08:54:11Z</time>
      </trkpt>
      <trkpt lat="45.93754" lon="4.87127">
        <ele>284</ele>
        <time>2018-08-04T08:54:12Z</time>
      </trkpt>
      <trkpt lat="45.93752" lon="4.87138">
        <ele>284</ele>
        <time>2018-08-04T08:54:13Z</time>
      </trkpt>
      <trkpt lat="45.93751" lon="4.87148">
        <ele>284</ele>
        <time>2018-08-04T08:54:14Z</time>
      </trkpt>
      <trkpt lat="45.93749" lon="4.87159">
        <ele>285</ele>
        <time>2018-08-04T08:54:15Z</time>
      </trkpt>
      <trkpt lat="45.93748" lon="4.87169">
        <ele>285</ele>
        <time>2018-08-04T08:54:16Z</time>
      </trkpt>
      <trkpt lat="45.93747" lon="4.8718">
        <ele>285</ele>
        <time>2018-08-04T08:54:17Z</time>
      </trkpt>
      <trkpt lat="45.93745" lon="4.8719">
        <ele>285</ele>
        <time>2018-08-04T08:54:18Z</time>
      </trkpt>
      <trkpt lat="45.93745" lon="4.87199">
        <ele>285</ele>
        <time>2018-08-04T08:54:19Z</time>
      </trkpt>
      <trkpt lat="45.93743" lon="4.87209">
        <ele>285</ele>
        <time>2018-08-04T08:54:20Z</time>
      </trkpt>
      <trkpt lat="45.93742" lon="4.87218">
        <ele>285</ele>
        <time>2018-08-04T08:54:21Z</time>
      </trkpt>
      <trkpt lat="45.9374" lon="4.87228">
        <ele>285</ele>
        <time>2018-08-04T08:54:22Z</time>
      </trkpt>
      <trkpt lat="45.93738" lon="4.87237">
        <ele>285</ele>
        <time>2018-08-04T08:54:23Z</time>
      </trkpt>
      <trkpt lat="45.93737" lon="4.87245">
        <ele>285</ele>
        <time>2018-08-04T08:54:24Z</time>
      </trkpt>
      <trkpt lat="45.93737" lon="4.87252">
        <ele>285</ele>
        <time>2018-08-04T08:54:25Z</time>
      </trkpt>
      <trkpt lat="45.93734" lon="4.8726">
        <ele>285</ele>
        <time>2018-08-04T08:54:26Z</time>
      </trkpt>
      <trkpt lat="45.93733" lon="4.87269">
        <ele>285</ele>
        <time>2018-08-04T08:54:27Z</time>
      </trkpt>
      <trkpt lat="45.93731" lon="4.87277">
        <ele>285</ele>
        <time>2018-08-04T08:54:28Z</time>
      </trkpt>
      <trkpt lat="45.9373" lon="4.87285">
        <ele>285</ele>
        <time>2018-08-04T08:54:29Z</time>
      </trkpt>
      <trkpt lat="45.93728" lon="4.87294">
        <ele>285</ele>
        <time>2018-08-04T08:54:30Z</time>
      </trkpt>
      <trkpt lat="45.93726" lon="4.87303">
        <ele>285</ele>
        <time>2018-08-04T08:54:31Z</time>
      </trkpt>
      <trkpt lat="45.93724" lon="4.87311">
        <ele>285</ele>
        <time>2018-08-04T08:54:32Z</time>
      </trkpt>
      <trkpt lat="45.93721" lon="4.8732">
        <ele>285</ele>
        <time>2018-08-04T08:54:33Z</time>
      </trkpt>
      <trkpt lat="45.93719" lon="4.87328">
        <ele>285</ele>
        <time>2018-08-04T08:54:34Z</time>
      </trkpt>
      <trkpt lat="45.93717" lon="4.87336">
        <ele>284</ele>
        <time>2018-08-04T08:54:35Z</time>
      </trkpt>
      <trkpt lat="45.93714" lon="4.87344">
        <ele>284</ele>
        <time>2018-08-04T08:54:36Z</time>
      </trkpt>
      <trkpt lat="45.93712" lon="4.87351">
        <ele>284</ele>
        <time>2018-08-04T08:54:37Z</time>
      </trkpt>
      <trkpt lat="45.93708" lon="4.8736">
        <ele>284</ele>
        <time>2018-08-04T08:54:38Z</time>
      </trkpt>
      <trkpt lat="45.93706" lon="4.87367">
        <ele>284</ele>
        <time>2018-08-04T08:54:39Z</time>
      </trkpt>
      <trkpt lat="45.93704" lon="4.87375">
        <ele>284</ele>
        <time>2018-08-04T08:54:40Z</time>
      </trkpt>
      <trkpt lat="45.93701" lon="4.87383">
        <ele>284</ele>
        <time>2018-08-04T08:54:41Z</time>
      </trkpt>
      <trkpt lat="45.93698" lon="4.87392">
        <ele>284</ele>
        <time>2018-08-04T08:54:42Z</time>
      </trkpt>
      <trkpt lat="45.93695" lon="4.87399">
        <ele>284</ele>
        <time>2018-08-04T08:54:43Z</time>
      </trkpt>
      <trkpt lat="45.93692" lon="4.87408">
        <ele>284</ele>
        <time>2018-08-04T08:54:44Z</time>
      </trkpt>
      <trkpt lat="45.93689" lon="4.87417">
        <ele>284</ele>
        <time>2018-08-04T08:54:45Z</time>
      </trkpt>
      <trkpt lat="45.93685" lon="4.87425">
        <ele>284</ele>
        <time>2018-08-04T08:54:46Z</time>
      </trkpt>
      <trkpt lat="45.93681" lon="4.87433">
        <ele>284</ele>
        <time>2018-08-04T08:54:47Z</time>
      </trkpt>
      <trkpt lat="45.93678" lon="4.8744">
        <ele>284</ele>
        <time>2018-08-04T08:54:48Z</time>
      </trkpt>
      <trkpt lat="45.93674" lon="4.87447">
        <ele>284</ele>
        <time>2018-08-04T08:54:49Z</time>
      </trkpt>
      <trkpt lat="45.93671" lon="4.87454">
        <ele>284</ele>
        <time>2018-08-04T08:54:50Z</time>
      </trkpt>
      <trkpt lat="45.93668" lon="4.8746">
        <ele>284</ele>
        <time>2018-08-04T08:54:51Z</time>
      </trkpt>
      <trkpt lat="45.93665" lon="4.87467">
        <ele>285</ele>
        <time>2018-08-04T08:54:52Z</time>
      </trkpt>
      <trkpt lat="45.93662" lon="4.87473">
        <ele>285</ele>
        <time>2018-08-04T08:54:53Z</time>
      </trkpt>
      <trkpt lat="45.93659" lon="4.87479">
        <ele>285</ele>
        <time>2018-08-04T08:54:54Z</time>
      </trkpt>
      <trkpt lat="45.93654" lon="4.87487">
        <ele>285</ele>
        <time>2018-08-04T08:54:55Z</time>
      </trkpt>
      <trkpt lat="45.93651" lon="4.87495">
        <ele>285</ele>
        <time>2018-08-04T08:54:56Z</time>
      </trkpt>
      <trkpt lat="45.93646" lon="4.875">
        <ele>285</ele>
        <time>2018-08-04T08:54:57Z</time>
      </trkpt>
      <trkpt lat="45.93642" lon="4.87508">
        <ele>285</ele>
        <time>2018-08-04T08:54:58Z</time>
      </trkpt>
      <trkpt lat="45.93639" lon="4.87517">
        <ele>285</ele>
        <time>2018-08-04T08:54:59Z</time>
      </trkpt>
      <trkpt lat="45.93635" lon="4.87524">
        <ele>285</ele>
        <time>2018-08-04T08:55:00Z</time>
      </trkpt>
      <trkpt lat="45.93631" lon="4.8753">
        <ele>285</ele>
        <time>2018-08-04T08:55:01Z</time>
      </trkpt>
      <trkpt lat="45.93628" lon="4.87536">
        <ele>285</ele>
        <time>2018-08-04T08:55:02Z</time>
      </trkpt>
      <trkpt lat="45.93623" lon="4.87543">
        <ele>286</ele>
        <time>2018-08-04T08:55:03Z</time>
      </trkpt>
      <trkpt lat="45.9362" lon="4.87549">
        <ele>286</ele>
        <time>2018-08-04T08:55:04Z</time>
      </trkpt>
      <trkpt lat="45.93616" lon="4.87555">
        <ele>286</ele>
        <time>2018-08-04T08:55:05Z</time>
      </trkpt>
      <trkpt lat="45.93613" lon="4.8756">
        <ele>286</ele>
        <time>2018-08-04T08:55:06Z</time>
      </trkpt>
      <trkpt lat="45.93612" lon="4.87567">
        <ele>286</ele>
        <time>2018-08-04T08:55:07Z</time>
      </trkpt>
      <trkpt lat="45.93609" lon="4.87575">
        <ele>286</ele>
        <time>2018-08-04T08:55:08Z</time>
      </trkpt>
      <trkpt lat="45.93606" lon="4.87581">
        <ele>286</ele>
        <time>2018-08-04T08:55:09Z</time>
      </trkpt>
      <trkpt lat="45.93602" lon="4.87587">
        <ele>285</ele>
        <time>2018-08-04T08:55:10Z</time>
      </trkpt>
      <trkpt lat="45.93598" lon="4.87594">
        <ele>285</ele>
        <time>2018-08-04T08:55:11Z</time>
      </trkpt>
      <trkpt lat="45.93594" lon="4.87601">
        <ele>285</ele>
        <time>2018-08-04T08:55:12Z</time>
      </trkpt>
      <trkpt lat="45.93593" lon="4.87609">
        <ele>285</ele>
        <time>2018-08-04T08:55:13Z</time>
      </trkpt>
      <trkpt lat="45.9359" lon="4.87617">
        <ele>285</ele>
        <time>2018-08-04T08:55:14Z</time>
      </trkpt>
      <trkpt lat="45.93587" lon="4.87624">
        <ele>285</ele>
        <time>2018-08-04T08:55:15Z</time>
      </trkpt>
      <trkpt lat="45.93583" lon="4.87631">
        <ele>285</ele>
        <time>2018-08-04T08:55:16Z</time>
      </trkpt>
      <trkpt lat="45.9358" lon="4.87638">
        <ele>285</ele>
        <time>2018-08-04T08:55:17Z</time>
      </trkpt>
      <trkpt lat="45.93578" lon="4.87645">
        <ele>285</ele>
        <time>2018-08-04T08:55:18Z</time>
      </trkpt>
      <trkpt lat="45.93575" lon="4.87652">
        <ele>285</ele>
        <time>2018-08-04T08:55:19Z</time>
      </trkpt>
      <trkpt lat="45.93573" lon="4.8766">
        <ele>285</ele>
        <time>2018-08-04T08:55:20Z</time>
      </trkpt>
      <trkpt lat="45.93571" lon="4.87668">
        <ele>284</ele>
        <time>2018-08-04T08:55:21Z</time>
      </trkpt>
      <trkpt lat="45.93569" lon="4.87675">
        <ele>284</ele>
        <time>2018-08-04T08:55:22Z</time>
      </trkpt>
      <trkpt lat="45.93566" lon="4.87682">
        <ele>284</ele>
        <time>2018-08-04T08:55:23Z</time>
      </trkpt>
      <trkpt lat="45.93565" lon="4.87688">
        <ele>284</ele>
        <time>2018-08-04T08:55:24Z</time>
      </trkpt>
      <trkpt lat="45.93563" lon="4.87695">
        <ele>284</ele>
        <time>2018-08-04T08:55:25Z</time>
      </trkpt>
      <trkpt lat="45.93561" lon="4.87702">
        <ele>284</ele>
        <time>2018-08-04T08:55:26Z</time>
      </trkpt>
      <trkpt lat="45.9356" lon="4.87709">
        <ele>284</ele>
        <time>2018-08-04T08:55:27Z</time>
      </trkpt>
      <trkpt lat="45.93558" lon="4.87717">
        <ele>284</ele>
        <time>2018-08-04T08:55:28Z</time>
      </trkpt>
      <trkpt lat="45.93556" lon="4.87724">
        <ele>284</ele>
        <time>2018-08-04T08:55:29Z</time>
      </trkpt>
      <trkpt lat="45.93554" lon="4.87732">
        <ele>284</ele>
        <time>2018-08-04T08:55:30Z</time>
      </trkpt>
      <trkpt lat="45.93552" lon="4.8774">
        <ele>284</ele>
        <time>2018-08-04T08:55:31Z</time>
      </trkpt>
      <trkpt lat="45.9355" lon="4.87748">
        <ele>284</ele>
        <time>2018-08-04T08:55:32Z</time>
      </trkpt>
      <trkpt lat="45.93548" lon="4.87756">
        <ele>284</ele>
        <time>2018-08-04T08:55:33Z</time>
      </trkpt>
      <trkpt lat="45.93546" lon="4.87764">
        <ele>284</ele>
        <time>2018-08-04T08:55:34Z</time>
      </trkpt>
      <trkpt lat="45.93544" lon="4.87771">
        <ele>284</ele>
        <time>2018-08-04T08:55:35Z</time>
      </trkpt>
      <trkpt lat="45.93542" lon="4.87778">
        <ele>284</ele>
        <time>2018-08-04T08:55:36Z</time>
      </trkpt>
      <trkpt lat="45.9354" lon="4.87785">
        <ele>284</ele>
        <time>2018-08-04T08:55:37Z</time>
      </trkpt>
      <trkpt lat="45.93538" lon="4.87792">
        <ele>284</ele>
        <time>2018-08-04T08:55:38Z</time>
      </trkpt>
      <trkpt lat="45.93537" lon="4.87799">
        <ele>284</ele>
        <time>2018-08-04T08:55:39Z</time>
      </trkpt>
      <trkpt lat="45.93536" lon="4.87806">
        <ele>284</ele>
        <time>2018-08-04T08:55:40Z</time>
      </trkpt>
      <trkpt lat="45.93535" lon="4.87813">
        <ele>284</ele>
        <time>2018-08-04T08:55:41Z</time>
      </trkpt>
      <trkpt lat="45.93534" lon="4.87818">
        <ele>284</ele>
        <time>2018-08-04T08:55:42Z</time>
      </trkpt>
      <trkpt lat="45.93531" lon="4.87825">
        <ele>284</ele>
        <time>2018-08-04T08:55:43Z</time>
      </trkpt>
      <trkpt lat="45.93531" lon="4.87832">
        <ele>284</ele>
        <time>2018-08-04T08:55:44Z</time>
      </trkpt>
      <trkpt lat="45.9353" lon="4.8784">
        <ele>283</ele>
        <time>2018-08-04T08:55:45Z</time>
      </trkpt>
      <trkpt lat="45.93529" lon="4.87848">
        <ele>283</ele>
        <time>2018-08-04T08:55:46Z</time>
      </trkpt>
      <trkpt lat="45.93528" lon="4.87856">
        <ele>283</ele>
        <time>2018-08-04T08:55:47Z</time>
      </trkpt>
      <trkpt lat="45.93528" lon="4.87865">
        <ele>283</ele>
        <time>2018-08-04T08:55:48Z</time>
      </trkpt>
      <trkpt lat="45.93527" lon="4.87872">
        <ele>283</ele>
        <time>2018-08-04T08:55:49Z</time>
      </trkpt>
      <trkpt lat="45.93526" lon="4.8788">
        <ele>283</ele>
        <time>2018-08-04T08:55:50Z</time>
      </trkpt>
      <trkpt lat="45.93525" lon="4.87888">
        <ele>283</ele>
        <time>2018-08-04T08:55:51Z</time>
      </trkpt>
      <trkpt lat="45.93524" lon="4.87896">
        <ele>283</ele>
        <time>2018-08-04T08:55:52Z</time>
      </trkpt>
      <trkpt lat="45.93523" lon="4.87905">
        <ele>283</ele>
        <time>2018-08-04T08:55:53Z</time>
      </trkpt>
      <trkpt lat="45.93522" lon="4.87914">
        <ele>283</ele>
        <time>2018-08-04T08:55:54Z</time>
      </trkpt>
      <trkpt lat="45.93522" lon="4.87921">
        <ele>284</ele>
        <time>2018-08-04T08:55:55Z</time>
      </trkpt>
      <trkpt lat="45.93521" lon="4.87929">
        <ele>284</ele>
        <time>2018-08-04T08:55:56Z</time>
      </trkpt>
      <trkpt lat="45.9352" lon="4.87936">
        <ele>284</ele>
        <time>2018-08-04T08:55:57Z</time>
      </trkpt>
      <trkpt lat="45.9352" lon="4.87944">
        <ele>284</ele>
        <time>2018-08-04T08:55:58Z</time>
      </trkpt>
      <trkpt lat="45.93519" lon="4.87952">
        <ele>284</ele>
        <time>2018-08-04T08:55:59Z</time>
      </trkpt>
      <trkpt lat="45.93518" lon="4.87959">
        <ele>284</ele>
        <time>2018-08-04T08:56:00Z</time>
      </trkpt>
      <trkpt lat="45.93517" lon="4.87966">
        <ele>284</ele>
        <time>2018-08-04T08:56:01Z</time>
      </trkpt>
      <trkpt lat="45.93515" lon="4.87974">
        <ele>284</ele>
        <time>2018-08-04T08:56:02Z</time>
      </trkpt>
      <trkpt lat="45.93515" lon="4.87982">
        <ele>285</ele>
        <time>2018-08-04T08:56:03Z</time>
      </trkpt>
      <trkpt lat="45.93514" lon="4.87989">
        <ele>285</ele>
        <time>2018-08-04T08:56:04Z</time>
      </trkpt>
      <trkpt lat="45.93513" lon="4.87997">
        <ele>285</ele>
        <time>2018-08-04T08:56:05Z</time>
      </trkpt>
      <trkpt lat="45.93513" lon="4.88006">
        <ele>286</ele>
        <time>2018-08-04T08:56:06Z</time>
      </trkpt>
      <trkpt lat="45.93512" lon="4.88015">
        <ele>286</ele>
        <time>2018-08-04T08:56:07Z</time>
      </trkpt>
      <trkpt lat="45.93511" lon="4.88023">
        <ele>286</ele>
        <time>2018-08-04T08:56:08Z</time>
      </trkpt>
      <trkpt lat="45.93511" lon="4.88031">
        <ele>286</ele>
        <time>2018-08-04T08:56:09Z</time>
      </trkpt>
      <trkpt lat="45.93509" lon="4.8804">
        <ele>286</ele>
        <time>2018-08-04T08:56:10Z</time>
      </trkpt>
      <trkpt lat="45.93508" lon="4.88047">
        <ele>286</ele>
        <time>2018-08-04T08:56:11Z</time>
      </trkpt>
      <trkpt lat="45.93507" lon="4.88055">
        <ele>286</ele>
        <time>2018-08-04T08:56:12Z</time>
      </trkpt>
      <trkpt lat="45.93506" lon="4.88061">
        <ele>286</ele>
        <time>2018-08-04T08:56:13Z</time>
      </trkpt>
      <trkpt lat="45.93505" lon="4.88068">
        <ele>286</ele>
        <time>2018-08-04T08:56:14Z</time>
      </trkpt>
      <trkpt lat="45.93504" lon="4.88075">
        <ele>286</ele>
        <time>2018-08-04T08:56:15Z</time>
      </trkpt>
      <trkpt lat="45.93503" lon="4.88083">
        <ele>287</ele>
        <time>2018-08-04T08:56:16Z</time>
      </trkpt>
      <trkpt lat="45.93501" lon="4.88089">
        <ele>287</ele>
        <time>2018-08-04T08:56:17Z</time>
      </trkpt>
      <trkpt lat="45.935" lon="4.88096">
        <ele>287</ele>
        <time>2018-08-04T08:56:18Z</time>
      </trkpt>
      <trkpt lat="45.935" lon="4.88102">
        <ele>288</ele>
        <time>2018-08-04T08:56:19Z</time>
      </trkpt>
      <trkpt lat="45.93496" lon="4.88112">
        <ele>288</ele>
        <time>2018-08-04T08:56:21Z</time>
      </trkpt>
      <trkpt lat="45.93495" lon="4.88119">
        <ele>288</ele>
        <time>2018-08-04T08:56:22Z</time>
      </trkpt>
      <trkpt lat="45.93493" lon="4.88126">
        <ele>288</ele>
        <time>2018-08-04T08:56:23Z</time>
      </trkpt>
      <trkpt lat="45.93491" lon="4.88132">
        <ele>288</ele>
        <time>2018-08-04T08:56:24Z</time>
      </trkpt>
      <trkpt lat="45.9349" lon="4.88138">
        <ele>288</ele>
        <time>2018-08-04T08:56:25Z</time>
      </trkpt>
      <trkpt lat="45.93489" lon="4.88147">
        <ele>288</ele>
        <time>2018-08-04T08:56:26Z</time>
      </trkpt>
      <trkpt lat="45.93486" lon="4.88159">
        <ele>288</ele>
        <time>2018-08-04T08:56:28Z</time>
      </trkpt>
      <trkpt lat="45.93485" lon="4.88166">
        <ele>288</ele>
        <time>2018-08-04T08:56:29Z</time>
      </trkpt>
      <trkpt lat="45.93485" lon="4.88173">
        <ele>288</ele>
        <time>2018-08-04T08:56:30Z</time>
      </trkpt>
      <trkpt lat="45.93485" lon="4.8818">
        <ele>288</ele>
        <time>2018-08-04T08:56:31Z</time>
      </trkpt>
      <trkpt lat="45.93485" lon="4.88191">
        <ele>289</ele>
        <time>2018-08-04T08:56:34Z</time>
      </trkpt>
      <trkpt lat="45.93483" lon="4.88193">
        <ele>289</ele>
        <time>2018-08-04T08:56:35Z</time>
      </trkpt>
      <trkpt lat="45.93479" lon="4.88197">
        <ele>289</ele>
        <time>2018-08-04T08:56:37Z</time>
      </trkpt>
      <trkpt lat="45.93473" lon="4.88205">
        <ele>289</ele>
        <time>2018-08-04T08:56:38Z</time>
      </trkpt>
      <trkpt lat="45.9347" lon="4.88213">
        <ele>289</ele>
        <time>2018-08-04T08:56:40Z</time>
      </trkpt>
      <trkpt lat="45.93469" lon="4.88218">
        <ele>289</ele>
        <time>2018-08-04T08:56:41Z</time>
      </trkpt>
      <trkpt lat="45.93472" lon="4.8823">
        <ele>289</ele>
        <time>2018-08-04T08:56:43Z</time>
      </trkpt>
      <trkpt lat="45.93477" lon="4.88236">
        <ele>289</ele>
        <time>2018-08-04T08:56:44Z</time>
      </trkpt>
      <trkpt lat="45.93484" lon="4.88243">
        <ele>289</ele>
        <time>2018-08-04T08:56:46Z</time>
      </trkpt>
      <trkpt lat="45.93488" lon="4.88243">
        <ele>289</ele>
        <time>2018-08-04T08:56:47Z</time>
      </trkpt>
      <trkpt lat="45.93492" lon="4.88243">
        <ele>289</ele>
        <time>2018-08-04T08:56:48Z</time>
      </trkpt>
      <trkpt lat="45.93497" lon="4.88241">
        <ele>289</ele>
        <time>2018-08-04T08:56:49Z</time>
      </trkpt>
      <trkpt lat="45.93502" lon="4.88238">
        <ele>288</ele>
        <time>2018-08-04T08:56:50Z</time>
      </trkpt>
      <trkpt lat="45.93506" lon="4.88234">
        <ele>288</ele>
        <time>2018-08-04T08:56:51Z</time>
      </trkpt>
      <trkpt lat="45.9351" lon="4.8823">
        <ele>288</ele>
        <time>2018-08-04T08:56:52Z</time>
      </trkpt>
      <trkpt lat="45.93515" lon="4.88227">
        <ele>288</ele>
        <time>2018-08-04T08:56:53Z</time>
      </trkpt>
      <trkpt lat="45.93519" lon="4.88224">
        <ele>288</ele>
        <time>2018-08-04T08:56:54Z</time>
      </trkpt>
      <trkpt lat="45.93523" lon="4.8822">
        <ele>288</ele>
        <time>2018-08-04T08:56:55Z</time>
      </trkpt>
      <trkpt lat="45.93528" lon="4.88219">
        <ele>288</ele>
        <time>2018-08-04T08:56:56Z</time>
      </trkpt>
      <trkpt lat="45.93533" lon="4.88216">
        <ele>287</ele>
        <time>2018-08-04T08:56:57Z</time>
      </trkpt>
      <trkpt lat="45.93539" lon="4.88214">
        <ele>287</ele>
        <time>2018-08-04T08:56:58Z</time>
      </trkpt>
      <trkpt lat="45.93542" lon="4.88213">
        <ele>287</ele>
        <time>2018-08-04T08:56:59Z</time>
      </trkpt>
      <trkpt lat="45.93549" lon="4.88209">
        <ele>287</ele>
        <time>2018-08-04T08:57:00Z</time>
      </trkpt>
      <trkpt lat="45.93556" lon="4.8821">
        <ele>287</ele>
        <time>2018-08-04T08:57:01Z</time>
      </trkpt>
      <trkpt lat="45.93561" lon="4.8821">
        <ele>287</ele>
        <time>2018-08-04T08:57:02Z</time>
      </trkpt>
      <trkpt lat="45.93568" lon="4.8821">
        <ele>287</ele>
        <time>2018-08-04T08:57:03Z</time>
      </trkpt>
      <trkpt lat="45.93571" lon="4.88208">
        <ele>287</ele>
        <time>2018-08-04T08:57:04Z</time>
      </trkpt>
      <trkpt lat="45.93577" lon="4.88208">
        <ele>287</ele>
        <time>2018-08-04T08:57:05Z</time>
      </trkpt>
      <trkpt lat="45.93583" lon="4.8821">
        <ele>287</ele>
        <time>2018-08-04T08:57:06Z</time>
      </trkpt>
      <trkpt lat="45.93589" lon="4.8821">
        <ele>286</ele>
        <time>2018-08-04T08:57:07Z</time>
      </trkpt>
      <trkpt lat="45.93598" lon="4.88209">
        <ele>285</ele>
        <time>2018-08-04T08:57:09Z</time>
      </trkpt>
      <trkpt lat="45.93603" lon="4.88209">
        <ele>285</ele>
        <time>2018-08-04T08:57:10Z</time>
      </trkpt>
      <trkpt lat="45.93608" lon="4.8821">
        <ele>285</ele>
        <time>2018-08-04T08:57:11Z</time>
      </trkpt>
      <trkpt lat="45.93613" lon="4.88211">
        <ele>285</ele>
        <time>2018-08-04T08:57:12Z</time>
      </trkpt>
      <trkpt lat="45.93622" lon="4.88209">
        <ele>285</ele>
        <time>2018-08-04T08:57:14Z</time>
      </trkpt>
      <trkpt lat="45.93627" lon="4.88209">
        <ele>285</ele>
        <time>2018-08-04T08:57:15Z</time>
      </trkpt>
      <trkpt lat="45.93632" lon="4.88209">
        <ele>285</ele>
        <time>2018-08-04T08:57:16Z</time>
      </trkpt>
      <trkpt lat="45.93638" lon="4.88207">
        <ele>285</ele>
        <time>2018-08-04T08:57:17Z</time>
      </trkpt>
      <trkpt lat="45.93644" lon="4.88208">
        <ele>285</ele>
        <time>2018-08-04T08:57:18Z</time>
      </trkpt>
      <trkpt lat="45.9365" lon="4.8821">
        <ele>285</ele>
        <time>2018-08-04T08:57:19Z</time>
      </trkpt>
      <trkpt lat="45.93655" lon="4.8821">
        <ele>285</ele>
        <time>2018-08-04T08:57:20Z</time>
      </trkpt>
      <trkpt lat="45.93661" lon="4.88211">
        <ele>285</ele>
        <time>2018-08-04T08:57:21Z</time>
      </trkpt>
      <trkpt lat="45.93667" lon="4.88209">
        <ele>285</ele>
        <time>2018-08-04T08:57:22Z</time>
      </trkpt>
      <trkpt lat="45.93673" lon="4.88209">
        <ele>285</ele>
        <time>2018-08-04T08:57:23Z</time>
      </trkpt>
      <trkpt lat="45.93679" lon="4.88209">
        <ele>285</ele>
        <time>2018-08-04T08:57:24Z</time>
      </trkpt>
      <trkpt lat="45.93685" lon="4.88209">
        <ele>285</ele>
        <time>2018-08-04T08:57:25Z</time>
      </trkpt>
      <trkpt lat="45.93691" lon="4.8821">
        <ele>285</ele>
        <time>2018-08-04T08:57:26Z</time>
      </trkpt>
      <trkpt lat="45.93697" lon="4.88211">
        <ele>285</ele>
        <time>2018-08-04T08:57:27Z</time>
      </trkpt>
      <trkpt lat="45.93704" lon="4.88212">
        <ele>285</ele>
        <time>2018-08-04T08:57:28Z</time>
      </trkpt>
      <trkpt lat="45.9371" lon="4.88212">
        <ele>285</ele>
        <time>2018-08-04T08:57:29Z</time>
      </trkpt>
      <trkpt lat="45.93716" lon="4.88212">
        <ele>285</ele>
        <time>2018-08-04T08:57:30Z</time>
      </trkpt>
      <trkpt lat="45.93723" lon="4.88213">
        <ele>285</ele>
        <time>2018-08-04T08:57:31Z</time>
      </trkpt>
      <trkpt lat="45.93729" lon="4.88214">
        <ele>286</ele>
        <time>2018-08-04T08:57:32Z</time>
      </trkpt>
      <trkpt lat="45.93735" lon="4.88214">
        <ele>286</ele>
        <time>2018-08-04T08:57:33Z</time>
      </trkpt>
      <trkpt lat="45.93741" lon="4.88214">
        <ele>286</ele>
        <time>2018-08-04T08:57:34Z</time>
      </trkpt>
      <trkpt lat="45.93748" lon="4.88214">
        <ele>286</ele>
        <time>2018-08-04T08:57:35Z</time>
      </trkpt>
      <trkpt lat="45.93753" lon="4.88214">
        <ele>287</ele>
        <time>2018-08-04T08:57:36Z</time>
      </trkpt>
      <trkpt lat="45.93759" lon="4.88215">
        <ele>287</ele>
        <time>2018-08-04T08:57:37Z</time>
      </trkpt>
      <trkpt lat="45.93764" lon="4.88215">
        <ele>287</ele>
        <time>2018-08-04T08:57:38Z</time>
      </trkpt>
      <trkpt lat="45.93771" lon="4.88216">
        <ele>287</ele>
        <time>2018-08-04T08:57:39Z</time>
      </trkpt>
      <trkpt lat="45.93776" lon="4.88218">
        <ele>287</ele>
        <time>2018-08-04T08:57:40Z</time>
      </trkpt>
      <trkpt lat="45.93782" lon="4.88218">
        <ele>287</ele>
        <time>2018-08-04T08:57:41Z</time>
      </trkpt>
      <trkpt lat="45.93787" lon="4.88219">
        <ele>288</ele>
        <time>2018-08-04T08:57:42Z</time>
      </trkpt>
      <trkpt lat="45.93792" lon="4.88221">
        <ele>288</ele>
        <time>2018-08-04T08:57:43Z</time>
      </trkpt>
      <trkpt lat="45.93797" lon="4.88221">
        <ele>288</ele>
        <time>2018-08-04T08:57:44Z</time>
      </trkpt>
      <trkpt lat="45.93802" lon="4.8822">
        <ele>288</ele>
        <time>2018-08-04T08:57:45Z</time>
      </trkpt>
      <trkpt lat="45.9381" lon="4.88221">
        <ele>288</ele>
        <time>2018-08-04T08:57:47Z</time>
      </trkpt>
      <trkpt lat="45.93816" lon="4.88221">
        <ele>288</ele>
        <time>2018-08-04T08:57:48Z</time>
      </trkpt>
      <trkpt lat="45.93822" lon="4.88225">
        <ele>289</ele>
        <time>2018-08-04T08:57:50Z</time>
      </trkpt>
      <trkpt lat="45.93828" lon="4.88225">
        <ele>289</ele>
        <time>2018-08-04T08:57:51Z</time>
      </trkpt>
      <trkpt lat="45.93836" lon="4.88226">
        <ele>290</ele>
        <time>2018-08-04T08:57:53Z</time>
      </trkpt>
      <trkpt lat="45.93843" lon="4.88227">
        <ele>290</ele>
        <time>2018-08-04T08:57:54Z</time>
      </trkpt>
      <trkpt lat="45.93848" lon="4.88228">
        <ele>289</ele>
        <time>2018-08-04T08:57:55Z</time>
      </trkpt>
      <trkpt lat="45.93855" lon="4.88227">
        <ele>289</ele>
        <time>2018-08-04T08:57:56Z</time>
      </trkpt>
      <trkpt lat="45.93859" lon="4.88225">
        <ele>289</ele>
        <time>2018-08-04T08:57:57Z</time>
      </trkpt>
      <trkpt lat="45.93867" lon="4.88226">
        <ele>289</ele>
        <time>2018-08-04T08:57:58Z</time>
      </trkpt>
      <trkpt lat="45.93874" lon="4.88222">
        <ele>289</ele>
        <time>2018-08-04T08:57:59Z</time>
      </trkpt>
      <trkpt lat="45.93882" lon="4.88222">
        <ele>289</ele>
        <time>2018-08-04T08:58:00Z</time>
      </trkpt>
      <trkpt lat="45.93888" lon="4.88223">
        <ele>289</ele>
        <time>2018-08-04T08:58:01Z</time>
      </trkpt>
      <trkpt lat="45.93893" lon="4.88225">
        <ele>289</ele>
        <time>2018-08-04T08:58:02Z</time>
      </trkpt>
      <trkpt lat="45.93899" lon="4.88226">
        <ele>289</ele>
        <time>2018-08-04T08:58:03Z</time>
      </trkpt>
      <trkpt lat="45.93904" lon="4.88222">
        <ele>289</ele>
        <time>2018-08-04T08:58:04Z</time>
      </trkpt>
      <trkpt lat="45.93907" lon="4.88222">
        <ele>289</ele>
        <time>2018-08-04T08:58:05Z</time>
      </trkpt>
      <trkpt lat="45.93914" lon="4.88221">
        <ele>289</ele>
        <time>2018-08-04T08:58:06Z</time>
      </trkpt>
      <trkpt lat="45.93918" lon="4.8822">
        <ele>288</ele>
        <time>2018-08-04T08:58:07Z</time>
      </trkpt>
      <trkpt lat="45.93922" lon="4.88223">
        <ele>288</ele>
        <time>2018-08-04T08:58:08Z</time>
      </trkpt>
      <trkpt lat="45.9393" lon="4.88218">
        <ele>287</ele>
        <time>2018-08-04T08:58:09Z</time>
      </trkpt>
      <trkpt lat="45.93935" lon="4.88219">
        <ele>287</ele>
        <time>2018-08-04T08:58:10Z</time>
      </trkpt>
      <trkpt lat="45.93939" lon="4.8822">
        <ele>287</ele>
        <time>2018-08-04T08:58:11Z</time>
      </trkpt>
      <trkpt lat="45.93946" lon="4.88219">
        <ele>287</ele>
        <time>2018-08-04T08:58:12Z</time>
      </trkpt>
      <trkpt lat="45.93951" lon="4.8822">
        <ele>287</ele>
        <time>2018-08-04T08:58:13Z</time>
      </trkpt>
      <trkpt lat="45.9396" lon="4.88218">
        <ele>286</ele>
        <time>2018-08-04T08:58:14Z</time>
      </trkpt>
      <trkpt lat="45.93967" lon="4.88219">
        <ele>286</ele>
        <time>2018-08-04T08:58:15Z</time>
      </trkpt>
      <trkpt lat="45.93972" lon="4.88221">
        <ele>286</ele>
        <time>2018-08-04T08:58:16Z</time>
      </trkpt>
      <trkpt lat="45.93978" lon="4.88223">
        <ele>286</ele>
        <time>2018-08-04T08:58:17Z</time>
      </trkpt>
      <trkpt lat="45.93984" lon="4.88224">
        <ele>286</ele>
        <time>2018-08-04T08:58:18Z</time>
      </trkpt>
      <trkpt lat="45.93991" lon="4.88224">
        <ele>286</ele>
        <time>2018-08-04T08:58:19Z</time>
      </trkpt>
      <trkpt lat="45.93997" lon="4.88226">
        <ele>286</ele>
        <time>2018-08-04T08:58:20Z</time>
      </trkpt>
      <trkpt lat="45.94002" lon="4.88227">
        <ele>284</ele>
        <time>2018-08-04T08:58:21Z</time>
      </trkpt>
      <trkpt lat="45.94007" lon="4.88228">
        <ele>284</ele>
        <time>2018-08-04T08:58:22Z</time>
      </trkpt>
      <trkpt lat="45.94012" lon="4.88229">
        <ele>284</ele>
        <time>2018-08-04T08:58:23Z</time>
      </trkpt>
      <trkpt lat="45.94017" lon="4.88228">
        <ele>284</ele>
        <time>2018-08-04T08:58:24Z</time>
      </trkpt>
      <trkpt lat="45.94022" lon="4.88228">
        <ele>284</ele>
        <time>2018-08-04T08:58:25Z</time>
      </trkpt>
      <trkpt lat="45.94029" lon="4.88229">
        <ele>283</ele>
        <time>2018-08-04T08:58:26Z</time>
      </trkpt>
      <trkpt lat="45.94035" lon="4.88231">
        <ele>283</ele>
        <time>2018-08-04T08:58:27Z</time>
      </trkpt>
      <trkpt lat="45.9404" lon="4.88231">
        <ele>283</ele>
        <time>2018-08-04T08:58:28Z</time>
      </trkpt>
      <trkpt lat="45.94045" lon="4.88231">
        <ele>283</ele>
        <time>2018-08-04T08:58:29Z</time>
      </trkpt>
      <trkpt lat="45.94051" lon="4.88232">
        <ele>283</ele>
        <time>2018-08-04T08:58:30Z</time>
      </trkpt>
      <trkpt lat="45.94057" lon="4.88233">
        <ele>283</ele>
        <time>2018-08-04T08:58:31Z</time>
      </trkpt>
      <trkpt lat="45.94063" lon="4.88233">
        <ele>282</ele>
        <time>2018-08-04T08:58:32Z</time>
      </trkpt>
      <trkpt lat="45.9407" lon="4.88234">
        <ele>282</ele>
        <time>2018-08-04T08:58:33Z</time>
      </trkpt>
      <trkpt lat="45.94075" lon="4.88235">
        <ele>282</ele>
        <time>2018-08-04T08:58:34Z</time>
      </trkpt>
      <trkpt lat="45.9408" lon="4.88236">
        <ele>282</ele>
        <time>2018-08-04T08:58:35Z</time>
      </trkpt>
      <trkpt lat="45.94086" lon="4.88236">
        <ele>281</ele>
        <time>2018-08-04T08:58:36Z</time>
      </trkpt>
      <trkpt lat="45.94091" lon="4.88236">
        <ele>281</ele>
        <time>2018-08-04T08:58:37Z</time>
      </trkpt>
      <trkpt lat="45.94096" lon="4.88237">
        <ele>281</ele>
        <time>2018-08-04T08:58:38Z</time>
      </trkpt>
      <trkpt lat="45.941" lon="4.88239">
        <ele>281</ele>
        <time>2018-08-04T08:58:39Z</time>
      </trkpt>
      <trkpt lat="45.94106" lon="4.8824">
        <ele>281</ele>
        <time>2018-08-04T08:58:40Z</time>
      </trkpt>
      <trkpt lat="45.94112" lon="4.88241">
        <ele>280</ele>
        <time>2018-08-04T08:58:41Z</time>
      </trkpt>
      <trkpt lat="45.94117" lon="4.88242">
        <ele>280</ele>
        <time>2018-08-04T08:58:42Z</time>
      </trkpt>
      <trkpt lat="45.94123" lon="4.88243">
        <ele>280</ele>
        <time>2018-08-04T08:58:43Z</time>
      </trkpt>
      <trkpt lat="45.94129" lon="4.88243">
        <ele>280</ele>
        <time>2018-08-04T08:58:44Z</time>
      </trkpt>
      <trkpt lat="45.94135" lon="4.88242">
        <ele>280</ele>
        <time>2018-08-04T08:58:45Z</time>
      </trkpt>
      <trkpt lat="45.94142" lon="4.88244">
        <ele>280</ele>
        <time>2018-08-04T08:58:46Z</time>
      </trkpt>
      <trkpt lat="45.94148" lon="4.88243">
        <ele>280</ele>
        <time>2018-08-04T08:58:47Z</time>
      </trkpt>
      <trkpt lat="45.94154" lon="4.88244">
        <ele>279</ele>
        <time>2018-08-04T08:58:48Z</time>
      </trkpt>
      <trkpt lat="45.94159" lon="4.88245">
        <ele>279</ele>
        <time>2018-08-04T08:58:49Z</time>
      </trkpt>
      <trkpt lat="45.94165" lon="4.88246">
        <ele>279</ele>
        <time>2018-08-04T08:58:50Z</time>
      </trkpt>
      <trkpt lat="45.94171" lon="4.88246">
        <ele>279</ele>
        <time>2018-08-04T08:58:51Z</time>
      </trkpt>
      <trkpt lat="45.94177" lon="4.88246">
        <ele>279</ele>
        <time>2018-08-04T08:58:52Z</time>
      </trkpt>
      <trkpt lat="45.94182" lon="4.88248">
        <ele>279</ele>
        <time>2018-08-04T08:58:53Z</time>
      </trkpt>
      <trkpt lat="45.94188" lon="4.88249">
        <ele>278</ele>
        <time>2018-08-04T08:58:54Z</time>
      </trkpt>
      <trkpt lat="45.94193" lon="4.8825">
        <ele>278</ele>
        <time>2018-08-04T08:58:55Z</time>
      </trkpt>
      <trkpt lat="45.94198" lon="4.88251">
        <ele>279</ele>
        <time>2018-08-04T08:58:56Z</time>
      </trkpt>
      <trkpt lat="45.94203" lon="4.88247">
        <ele>278</ele>
        <time>2018-08-04T08:58:57Z</time>
      </trkpt>
      <trkpt lat="45.94208" lon="4.88249">
        <ele>278</ele>
        <time>2018-08-04T08:58:58Z</time>
      </trkpt>
      <trkpt lat="45.94214" lon="4.88249">
        <ele>278</ele>
        <time>2018-08-04T08:58:59Z</time>
      </trkpt>
      <trkpt lat="45.94219" lon="4.88251">
        <ele>279</ele>
        <time>2018-08-04T08:59:00Z</time>
      </trkpt>
      <trkpt lat="45.94224" lon="4.88251">
        <ele>279</ele>
        <time>2018-08-04T08:59:01Z</time>
      </trkpt>
      <trkpt lat="45.94232" lon="4.88251">
        <ele>279</ele>
        <time>2018-08-04T08:59:02Z</time>
      </trkpt>
      <trkpt lat="45.94238" lon="4.8825">
        <ele>278</ele>
        <time>2018-08-04T08:59:03Z</time>
      </trkpt>
      <trkpt lat="45.94243" lon="4.88251">
        <ele>278</ele>
        <time>2018-08-04T08:59:04Z</time>
      </trkpt>
      <trkpt lat="45.94249" lon="4.88252">
        <ele>278</ele>
        <time>2018-08-04T08:59:05Z</time>
      </trkpt>
      <trkpt lat="45.94255" lon="4.88253">
        <ele>278</ele>
        <time>2018-08-04T08:59:06Z</time>
      </trkpt>
      <trkpt lat="45.94259" lon="4.88255">
        <ele>278</ele>
        <time>2018-08-04T08:59:07Z</time>
      </trkpt>
      <trkpt lat="45.94265" lon="4.88257">
        <ele>278</ele>
        <time>2018-08-04T08:59:08Z</time>
      </trkpt>
      <trkpt lat="45.94271" lon="4.88258">
        <ele>278</ele>
        <time>2018-08-04T08:59:09Z</time>
      </trkpt>
      <trkpt lat="45.94276" lon="4.88259">
        <ele>278</ele>
        <time>2018-08-04T08:59:10Z</time>
      </trkpt>
      <trkpt lat="45.94282" lon="4.8826">
        <ele>277</ele>
        <time>2018-08-04T08:59:11Z</time>
      </trkpt>
      <trkpt lat="45.94287" lon="4.88261">
        <ele>277</ele>
        <time>2018-08-04T08:59:12Z</time>
      </trkpt>
      <trkpt lat="45.94292" lon="4.88261">
        <ele>277</ele>
        <time>2018-08-04T08:59:13Z</time>
      </trkpt>
      <trkpt lat="45.94296" lon="4.88262">
        <ele>277</ele>
        <time>2018-08-04T08:59:14Z</time>
      </trkpt>
      <trkpt lat="45.94302" lon="4.88263">
        <ele>277</ele>
        <time>2018-08-04T08:59:15Z</time>
      </trkpt>
      <trkpt lat="45.94307" lon="4.88263">
        <ele>277</ele>
        <time>2018-08-04T08:59:16Z</time>
      </trkpt>
      <trkpt lat="45.94312" lon="4.88263">
        <ele>277</ele>
        <time>2018-08-04T08:59:17Z</time>
      </trkpt>
      <trkpt lat="45.94318" lon="4.88264">
        <ele>277</ele>
        <time>2018-08-04T08:59:18Z</time>
      </trkpt>
      <trkpt lat="45.94323" lon="4.88266">
        <ele>277</ele>
        <time>2018-08-04T08:59:19Z</time>
      </trkpt>
      <trkpt lat="45.94329" lon="4.88266">
        <ele>277</ele>
        <time>2018-08-04T08:59:20Z</time>
      </trkpt>
      <trkpt lat="45.94334" lon="4.88268">
        <ele>276</ele>
        <time>2018-08-04T08:59:21Z</time>
      </trkpt>
      <trkpt lat="45.94339" lon="4.8827">
        <ele>276</ele>
        <time>2018-08-04T08:59:22Z</time>
      </trkpt>
      <trkpt lat="45.94345" lon="4.88269">
        <ele>276</ele>
        <time>2018-08-04T08:59:23Z</time>
      </trkpt>
      <trkpt lat="45.94351" lon="4.88268">
        <ele>276</ele>
        <time>2018-08-04T08:59:24Z</time>
      </trkpt>
      <trkpt lat="45.94356" lon="4.88271">
        <ele>276</ele>
        <time>2018-08-04T08:59:25Z</time>
      </trkpt>
      <trkpt lat="45.94363" lon="4.88273">
        <ele>276</ele>
        <time>2018-08-04T08:59:26Z</time>
      </trkpt>
      <trkpt lat="45.94368" lon="4.88274">
        <ele>276</ele>
        <time>2018-08-04T08:59:27Z</time>
      </trkpt>
      <trkpt lat="45.94373" lon="4.88272">
        <ele>276</ele>
        <time>2018-08-04T08:59:28Z</time>
      </trkpt>
      <trkpt lat="45.94378" lon="4.88272">
        <ele>276</ele>
        <time>2018-08-04T08:59:29Z</time>
      </trkpt>
      <trkpt lat="45.94384" lon="4.88271">
        <ele>276</ele>
        <time>2018-08-04T08:59:30Z</time>
      </trkpt>
      <trkpt lat="45.9439" lon="4.88272">
        <ele>276</ele>
        <time>2018-08-04T08:59:31Z</time>
      </trkpt>
      <trkpt lat="45.94395" lon="4.88273">
        <ele>276</ele>
        <time>2018-08-04T08:59:32Z</time>
      </trkpt>
      <trkpt lat="45.94399" lon="4.88274">
        <ele>276</ele>
        <time>2018-08-04T08:59:33Z</time>
      </trkpt>
      <trkpt lat="45.94404" lon="4.88274">
        <ele>276</ele>
        <time>2018-08-04T08:59:34Z</time>
      </trkpt>
      <trkpt lat="45.94409" lon="4.88273">
        <ele>276</ele>
        <time>2018-08-04T08:59:35Z</time>
      </trkpt>
      <trkpt lat="45.94414" lon="4.88273">
        <ele>276</ele>
        <time>2018-08-04T08:59:36Z</time>
      </trkpt>
      <trkpt lat="45.94419" lon="4.88275">
        <ele>276</ele>
        <time>2018-08-04T08:59:37Z</time>
      </trkpt>
      <trkpt lat="45.94425" lon="4.88276">
        <ele>276</ele>
        <time>2018-08-04T08:59:38Z</time>
      </trkpt>
      <trkpt lat="45.94433" lon="4.88278">
        <ele>276</ele>
        <time>2018-08-04T08:59:40Z</time>
      </trkpt>
      <trkpt lat="45.94439" lon="4.88279">
        <ele>276</ele>
        <time>2018-08-04T08:59:41Z</time>
      </trkpt>
      <trkpt lat="45.94444" lon="4.8828">
        <ele>276</ele>
        <time>2018-08-04T08:59:42Z</time>
      </trkpt>
      <trkpt lat="45.9445" lon="4.8828">
        <ele>276</ele>
        <time>2018-08-04T08:59:43Z</time>
      </trkpt>
      <trkpt lat="45.94454" lon="4.88281">
        <ele>276</ele>
        <time>2018-08-04T08:59:44Z</time>
      </trkpt>
      <trkpt lat="45.9446" lon="4.88282">
        <ele>276</ele>
        <time>2018-08-04T08:59:45Z</time>
      </trkpt>
      <trkpt lat="45.94465" lon="4.88284">
        <ele>276</ele>
        <time>2018-08-04T08:59:46Z</time>
      </trkpt>
      <trkpt lat="45.9447" lon="4.88285">
        <ele>276</ele>
        <time>2018-08-04T08:59:47Z</time>
      </trkpt>
      <trkpt lat="45.94475" lon="4.88286">
        <ele>276</ele>
        <time>2018-08-04T08:59:48Z</time>
      </trkpt>
      <trkpt lat="45.94481" lon="4.88287">
        <ele>276</ele>
        <time>2018-08-04T08:59:49Z</time>
      </trkpt>
      <trkpt lat="45.94486" lon="4.88288">
        <ele>276</ele>
        <time>2018-08-04T08:59:50Z</time>
      </trkpt>
      <trkpt lat="45.94491" lon="4.88291">
        <ele>276</ele>
        <time>2018-08-04T08:59:51Z</time>
      </trkpt>
      <trkpt lat="45.94497" lon="4.88293">
        <ele>276</ele>
        <time>2018-08-04T08:59:52Z</time>
      </trkpt>
      <trkpt lat="45.94503" lon="4.88293">
        <ele>275</ele>
        <time>2018-08-04T08:59:53Z</time>
      </trkpt>
      <trkpt lat="45.9451" lon="4.88293">
        <ele>275</ele>
        <time>2018-08-04T08:59:54Z</time>
      </trkpt>
      <trkpt lat="45.94516" lon="4.88293">
        <ele>275</ele>
        <time>2018-08-04T08:59:55Z</time>
      </trkpt>
      <trkpt lat="45.94522" lon="4.88293">
        <ele>275</ele>
        <time>2018-08-04T08:59:56Z</time>
      </trkpt>
      <trkpt lat="45.94527" lon="4.88293">
        <ele>275</ele>
        <time>2018-08-04T08:59:57Z</time>
      </trkpt>
      <trkpt lat="45.94531" lon="4.88293">
        <ele>275</ele>
        <time>2018-08-04T08:59:58Z</time>
      </trkpt>
      <trkpt lat="45.94536" lon="4.88293">
        <ele>275</ele>
        <time>2018-08-04T08:59:59Z</time>
      </trkpt>
      <trkpt lat="45.94545" lon="4.88294">
        <ele>275</ele>
        <time>2018-08-04T09:00:01Z</time>
      </trkpt>
      <trkpt lat="45.9455" lon="4.88294">
        <ele>275</ele>
        <time>2018-08-04T09:00:02Z</time>
      </trkpt>
      <trkpt lat="45.94555" lon="4.88293">
        <ele>275</ele>
        <time>2018-08-04T09:00:03Z</time>
      </trkpt>
      <trkpt lat="45.9456" lon="4.88294">
        <ele>275</ele>
        <time>2018-08-04T09:00:04Z</time>
      </trkpt>
      <trkpt lat="45.94566" lon="4.88295">
        <ele>275</ele>
        <time>2018-08-04T09:00:05Z</time>
      </trkpt>
      <trkpt lat="45.9457" lon="4.88296">
        <ele>275</ele>
        <time>2018-08-04T09:00:06Z</time>
      </trkpt>
      <trkpt lat="45.94575" lon="4.88297">
        <ele>275</ele>
        <time>2018-08-04T09:00:07Z</time>
      </trkpt>
      <trkpt lat="45.94579" lon="4.88298">
        <ele>275</ele>
        <time>2018-08-04T09:00:08Z</time>
      </trkpt>
      <trkpt lat="45.94584" lon="4.88298">
        <ele>275</ele>
        <time>2018-08-04T09:00:09Z</time>
      </trkpt>
      <trkpt lat="45.94589" lon="4.88299">
        <ele>275</ele>
        <time>2018-08-04T09:00:10Z</time>
      </trkpt>
      <trkpt lat="45.94597" lon="4.88299">
        <ele>275</ele>
        <time>2018-08-04T09:00:12Z</time>
      </trkpt>
      <trkpt lat="45.94601" lon="4.88301">
        <ele>275</ele>
        <time>2018-08-04T09:00:13Z</time>
      </trkpt>
      <trkpt lat="45.94607" lon="4.88304">
        <ele>275</ele>
        <time>2018-08-04T09:00:15Z</time>
      </trkpt>
      <trkpt lat="45.94612" lon="4.88306">
        <ele>275</ele>
        <time>2018-08-04T09:00:16Z</time>
      </trkpt>
      <trkpt lat="45.94618" lon="4.88307">
        <ele>275</ele>
        <time>2018-08-04T09:00:17Z</time>
      </trkpt>
      <trkpt lat="45.94624" lon="4.88306">
        <ele>275</ele>
        <time>2018-08-04T09:00:18Z</time>
      </trkpt>
      <trkpt lat="45.94631" lon="4.88307">
        <ele>276</ele>
        <time>2018-08-04T09:00:19Z</time>
      </trkpt>
      <trkpt lat="45.94636" lon="4.88307">
        <ele>276</ele>
        <time>2018-08-04T09:00:20Z</time>
      </trkpt>
      <trkpt lat="45.9464" lon="4.88309">
        <ele>276</ele>
        <time>2018-08-04T09:00:21Z</time>
      </trkpt>
      <trkpt lat="45.94646" lon="4.88311">
        <ele>276</ele>
        <time>2018-08-04T09:00:22Z</time>
      </trkpt>
      <trkpt lat="45.9465" lon="4.88312">
        <ele>276</ele>
        <time>2018-08-04T09:00:23Z</time>
      </trkpt>
      <trkpt lat="45.94655" lon="4.88313">
        <ele>276</ele>
        <time>2018-08-04T09:00:24Z</time>
      </trkpt>
      <trkpt lat="45.9466" lon="4.88314">
        <ele>276</ele>
        <time>2018-08-04T09:00:25Z</time>
      </trkpt>
      <trkpt lat="45.94665" lon="4.88315">
        <ele>276</ele>
        <time>2018-08-04T09:00:26Z</time>
      </trkpt>
      <trkpt lat="45.94669" lon="4.88316">
        <ele>276</ele>
        <time>2018-08-04T09:00:27Z</time>
      </trkpt>
      <trkpt lat="45.94674" lon="4.88317">
        <ele>276</ele>
        <time>2018-08-04T09:00:28Z</time>
      </trkpt>
      <trkpt lat="45.94679" lon="4.88318">
        <ele>276</ele>
        <time>2018-08-04T09:00:29Z</time>
      </trkpt>
      <trkpt lat="45.94683" lon="4.88318">
        <ele>276</ele>
        <time>2018-08-04T09:00:30Z</time>
      </trkpt>
      <trkpt lat="45.94688" lon="4.8832">
        <ele>276</ele>
        <time>2018-08-04T09:00:31Z</time>
      </trkpt>
      <trkpt lat="45.94692" lon="4.8832">
        <ele>276</ele>
        <time>2018-08-04T09:00:32Z</time>
      </trkpt>
      <trkpt lat="45.94697" lon="4.88321">
        <ele>276</ele>
        <time>2018-08-04T09:00:33Z</time>
      </trkpt>
      <trkpt lat="45.94701" lon="4.88321">
        <ele>276</ele>
        <time>2018-08-04T09:00:34Z</time>
      </trkpt>
      <trkpt lat="45.9471" lon="4.88322">
        <ele>276</ele>
        <time>2018-08-04T09:00:36Z</time>
      </trkpt>
      <trkpt lat="45.94715" lon="4.88323">
        <ele>276</ele>
        <time>2018-08-04T09:00:37Z</time>
      </trkpt>
      <trkpt lat="45.94721" lon="4.88323">
        <ele>276</ele>
        <time>2018-08-04T09:00:38Z</time>
      </trkpt>
      <trkpt lat="45.94723" lon="4.88327">
        <ele>276</ele>
        <time>2018-08-04T09:00:39Z</time>
      </trkpt>
      <trkpt lat="45.94729" lon="4.8833">
        <ele>277</ele>
        <time>2018-08-04T09:00:41Z</time>
      </trkpt>
      <trkpt lat="45.94736" lon="4.88333">
        <ele>277</ele>
        <time>2018-08-04T09:00:42Z</time>
      </trkpt>
      <trkpt lat="45.9474" lon="4.88336">
        <ele>277</ele>
        <time>2018-08-04T09:00:44Z</time>
      </trkpt>
      <trkpt lat="45.94746" lon="4.88334">
        <ele>277</ele>
        <time>2018-08-04T09:00:45Z</time>
      </trkpt>
      <trkpt lat="45.9475" lon="4.88337">
        <ele>277</ele>
        <time>2018-08-04T09:00:46Z</time>
      </trkpt>
      <trkpt lat="45.94758" lon="4.88335">
        <ele>277</ele>
        <time>2018-08-04T09:00:47Z</time>
      </trkpt>
      <trkpt lat="45.94765" lon="4.88339">
        <ele>277</ele>
        <time>2018-08-04T09:00:49Z</time>
      </trkpt>
      <trkpt lat="45.94771" lon="4.88338">
        <ele>277</ele>
        <time>2018-08-04T09:00:50Z</time>
      </trkpt>
      <trkpt lat="45.94779" lon="4.88339">
        <ele>278</ele>
        <time>2018-08-04T09:00:52Z</time>
      </trkpt>
      <trkpt lat="45.94785" lon="4.88338">
        <ele>278</ele>
        <time>2018-08-04T09:00:53Z</time>
      </trkpt>
      <trkpt lat="45.94794" lon="4.8834">
        <ele>278</ele>
        <time>2018-08-04T09:00:55Z</time>
      </trkpt>
      <trkpt lat="45.94799" lon="4.8834">
        <ele>278</ele>
        <time>2018-08-04T09:00:56Z</time>
      </trkpt>
      <trkpt lat="45.94803" lon="4.88341">
        <ele>278</ele>
        <time>2018-08-04T09:00:57Z</time>
      </trkpt>
      <trkpt lat="45.94808" lon="4.8834">
        <ele>278</ele>
        <time>2018-08-04T09:00:58Z</time>
      </trkpt>
      <trkpt lat="45.94815" lon="4.8834">
        <ele>278</ele>
        <time>2018-08-04T09:01:00Z</time>
      </trkpt>
      <trkpt lat="45.94819" lon="4.88339">
        <ele>278</ele>
        <time>2018-08-04T09:01:01Z</time>
      </trkpt>
      <trkpt lat="45.94827" lon="4.88338">
        <ele>279</ele>
        <time>2018-08-04T09:01:03Z</time>
      </trkpt>
      <trkpt lat="45.94831" lon="4.88337">
        <ele>279</ele>
        <time>2018-08-04T09:01:04Z</time>
      </trkpt>
      <trkpt lat="45.94839" lon="4.88335">
        <ele>279</ele>
        <time>2018-08-04T09:01:06Z</time>
      </trkpt>
      <trkpt lat="45.94843" lon="4.88336">
        <ele>279</ele>
        <time>2018-08-04T09:01:07Z</time>
      </trkpt>
      <trkpt lat="45.9485" lon="4.88334">
        <ele>280</ele>
        <time>2018-08-04T09:01:09Z</time>
      </trkpt>
      <trkpt lat="45.94854" lon="4.88333">
        <ele>280</ele>
        <time>2018-08-04T09:01:10Z</time>
      </trkpt>
      <trkpt lat="45.94862" lon="4.8833">
        <ele>280</ele>
        <time>2018-08-04T09:01:12Z</time>
      </trkpt>
      <trkpt lat="45.94866" lon="4.88329">
        <ele>280</ele>
        <time>2018-08-04T09:01:13Z</time>
      </trkpt>
      <trkpt lat="45.94874" lon="4.88327">
        <ele>280</ele>
        <time>2018-08-04T09:01:15Z</time>
      </trkpt>
      <trkpt lat="45.94877" lon="4.88327">
        <ele>280</ele>
        <time>2018-08-04T09:01:16Z</time>
      </trkpt>
      <trkpt lat="45.94885" lon="4.88326">
        <ele>281</ele>
        <time>2018-08-04T09:01:19Z</time>
      </trkpt>
      <trkpt lat="45.94887" lon="4.88325">
        <ele>281</ele>
        <time>2018-08-04T09:01:20Z</time>
      </trkpt>
      <trkpt lat="45.9489" lon="4.88325">
        <ele>281</ele>
        <time>2018-08-04T09:01:21Z</time>
      </trkpt>
      <trkpt lat="45.94899" lon="4.88323">
        <ele>281</ele>
        <time>2018-08-04T09:01:22Z</time>
      </trkpt>
      <trkpt lat="45.94906" lon="4.88319">
        <ele>281</ele>
        <time>2018-08-04T09:01:24Z</time>
      </trkpt>
      <trkpt lat="45.94909" lon="4.88317">
        <ele>281</ele>
        <time>2018-08-04T09:01:25Z</time>
      </trkpt>
      <trkpt lat="45.94916" lon="4.88313">
        <ele>281</ele>
        <time>2018-08-04T09:01:27Z</time>
      </trkpt>
      <trkpt lat="45.9492" lon="4.88311">
        <ele>283</ele>
        <time>2018-08-04T09:01:28Z</time>
      </trkpt>
      <trkpt lat="45.94927" lon="4.88308">
        <ele>283</ele>
        <time>2018-08-04T09:01:30Z</time>
      </trkpt>
      <trkpt lat="45.94931" lon="4.88305">
        <ele>283</ele>
        <time>2018-08-04T09:01:31Z</time>
      </trkpt>
      <trkpt lat="45.94935" lon="4.88302">
        <ele>283</ele>
        <time>2018-08-04T09:01:32Z</time>
      </trkpt>
      <trkpt lat="45.94939" lon="4.883">
        <ele>283</ele>
        <time>2018-08-04T09:01:33Z</time>
      </trkpt>
      <trkpt lat="45.94946" lon="4.88298">
        <ele>283</ele>
        <time>2018-08-04T09:01:35Z</time>
      </trkpt>
      <trkpt lat="45.94951" lon="4.88295">
        <ele>283</ele>
        <time>2018-08-04T09:01:36Z</time>
      </trkpt>
      <trkpt lat="45.94959" lon="4.88293">
        <ele>283</ele>
        <time>2018-08-04T09:01:38Z</time>
      </trkpt>
      <trkpt lat="45.94964" lon="4.88289">
        <ele>283</ele>
        <time>2018-08-04T09:01:39Z</time>
      </trkpt>
      <trkpt lat="45.94969" lon="4.88288">
        <ele>283</ele>
        <time>2018-08-04T09:01:40Z</time>
      </trkpt>
      <trkpt lat="45.94974" lon="4.88288">
        <ele>283</ele>
        <time>2018-08-04T09:01:41Z</time>
      </trkpt>
      <trkpt lat="45.94983" lon="4.88289">
        <ele>283</ele>
        <time>2018-08-04T09:01:43Z</time>
      </trkpt>
      <trkpt lat="45.94987" lon="4.88286">
        <ele>283</ele>
        <time>2018-08-04T09:01:44Z</time>
      </trkpt>
      <trkpt lat="45.94994" lon="4.88282">
        <ele>283</ele>
        <time>2018-08-04T09:01:47Z</time>
      </trkpt>
      <trkpt lat="45.94997" lon="4.88279">
        <ele>283</ele>
        <time>2018-08-04T09:01:48Z</time>
      </trkpt>
      <trkpt lat="45.95002" lon="4.88276">
        <ele>285</ele>
        <time>2018-08-04T09:01:50Z</time>
      </trkpt>
      <trkpt lat="45.9501" lon="4.88272">
        <ele>285</ele>
        <time>2018-08-04T09:01:51Z</time>
      </trkpt>
      <trkpt lat="45.95017" lon="4.8827">
        <ele>285</ele>
        <time>2018-08-04T09:01:53Z</time>
      </trkpt>
      <trkpt lat="45.95021" lon="4.88269">
        <ele>285</ele>
        <time>2018-08-04T09:01:54Z</time>
      </trkpt>
      <trkpt lat="45.95029" lon="4.88266">
        <ele>285</ele>
        <time>2018-08-04T09:01:56Z</time>
      </trkpt>
      <trkpt lat="45.95033" lon="4.88265">
        <ele>285</ele>
        <time>2018-08-04T09:01:57Z</time>
      </trkpt>
      <trkpt lat="45.9504" lon="4.88261">
        <ele>285</ele>
        <time>2018-08-04T09:01:59Z</time>
      </trkpt>
      <trkpt lat="45.95042" lon="4.8826">
        <ele>286</ele>
        <time>2018-08-04T09:02:00Z</time>
      </trkpt>
      <trkpt lat="45.95049" lon="4.88256">
        <ele>286</ele>
        <time>2018-08-04T09:02:03Z</time>
      </trkpt>
      <trkpt lat="45.95051" lon="4.88255">
        <ele>286</ele>
        <time>2018-08-04T09:02:04Z</time>
      </trkpt>
      <trkpt lat="45.95057" lon="4.88253">
        <ele>286</ele>
        <time>2018-08-04T09:02:06Z</time>
      </trkpt>
      <trkpt lat="45.9506" lon="4.88252">
        <ele>286</ele>
        <time>2018-08-04T09:02:07Z</time>
      </trkpt>
      <trkpt lat="45.95069" lon="4.88249">
        <ele>286</ele>
        <time>2018-08-04T09:02:08Z</time>
      </trkpt>
      <trkpt lat="45.95076" lon="4.88248">
        <ele>286</ele>
        <time>2018-08-04T09:02:10Z</time>
      </trkpt>
      <trkpt lat="45.95079" lon="4.88245">
        <ele>286</ele>
        <time>2018-08-04T09:02:11Z</time>
      </trkpt>
      <trkpt lat="45.95087" lon="4.88242">
        <ele>287</ele>
        <time>2018-08-04T09:02:14Z</time>
      </trkpt>
      <trkpt lat="45.95094" lon="4.88241">
        <ele>287</ele>
        <time>2018-08-04T09:02:15Z</time>
      </trkpt>
      <trkpt lat="45.95102" lon="4.88239">
        <ele>287</ele>
        <time>2018-08-04T09:02:19Z</time>
      </trkpt>
      <trkpt lat="45.95103" lon="4.88239">
        <ele>287</ele>
        <time>2018-08-04T09:02:20Z</time>
      </trkpt>
      <trkpt lat="45.95111" lon="4.88237">
        <ele>287</ele>
        <time>2018-08-04T09:02:26Z</time>
      </trkpt>
      <trkpt lat="45.95112" lon="4.88237">
        <ele>287</ele>
        <time>2018-08-04T09:02:27Z</time>
      </trkpt>
      <trkpt lat="45.95119" lon="4.88233">
        <ele>287</ele>
        <time>2018-08-04T09:02:31Z</time>
      </trkpt>
      <trkpt lat="45.95121" lon="4.8823">
        <ele>287</ele>
        <time>2018-08-04T09:02:32Z</time>
      </trkpt>
      <trkpt lat="45.95123" lon="4.88227">
        <ele>287</ele>
        <time>2018-08-04T09:02:33Z</time>
      </trkpt>
      <trkpt lat="45.95127" lon="4.88216">
        <ele>287</ele>
        <time>2018-08-04T09:02:34Z</time>
      </trkpt>
      <trkpt lat="45.95128" lon="4.88207">
        <ele>287</ele>
        <time>2018-08-04T09:02:35Z</time>
      </trkpt>
      <trkpt lat="45.95131" lon="4.88201">
        <ele>287</ele>
        <time>2018-08-04T09:02:36Z</time>
      </trkpt>
      <trkpt lat="45.95133" lon="4.88196">
        <ele>287</ele>
        <time>2018-08-04T09:02:37Z</time>
      </trkpt>
      <trkpt lat="45.95136" lon="4.8819">
        <ele>286</ele>
        <time>2018-08-04T09:02:38Z</time>
      </trkpt>
      <trkpt lat="45.95139" lon="4.88184">
        <ele>286</ele>
        <time>2018-08-04T09:02:39Z</time>
      </trkpt>
      <trkpt lat="45.95143" lon="4.88182">
        <ele>286</ele>
        <time>2018-08-04T09:02:40Z</time>
      </trkpt>
      <trkpt lat="45.95148" lon="4.88181">
        <ele>286</ele>
        <time>2018-08-04T09:02:41Z</time>
      </trkpt>
      <trkpt lat="45.95152" lon="4.88179">
        <ele>286</ele>
        <time>2018-08-04T09:02:42Z</time>
      </trkpt>
      <trkpt lat="45.95159" lon="4.88177">
        <ele>286</ele>
        <time>2018-08-04T09:02:43Z</time>
      </trkpt>
      <trkpt lat="45.95165" lon="4.88176">
        <ele>286</ele>
        <time>2018-08-04T09:02:44Z</time>
      </trkpt>
      <trkpt lat="45.95172" lon="4.88175">
        <ele>285</ele>
        <time>2018-08-04T09:02:45Z</time>
      </trkpt>
      <trkpt lat="45.95177" lon="4.88173">
        <ele>285</ele>
        <time>2018-08-04T09:02:46Z</time>
      </trkpt>
      <trkpt lat="45.95184" lon="4.8817">
        <ele>285</ele>
        <time>2018-08-04T09:02:47Z</time>
      </trkpt>
      <trkpt lat="45.9519" lon="4.8817">
        <ele>285</ele>
        <time>2018-08-04T09:02:48Z</time>
      </trkpt>
      <trkpt lat="45.95196" lon="4.8817">
        <ele>285</ele>
        <time>2018-08-04T09:02:49Z</time>
      </trkpt>
      <trkpt lat="45.95202" lon="4.8817">
        <ele>285</ele>
        <time>2018-08-04T09:02:50Z</time>
      </trkpt>
      <trkpt lat="45.95209" lon="4.8817">
        <ele>284</ele>
        <time>2018-08-04T09:02:51Z</time>
      </trkpt>
      <trkpt lat="45.95215" lon="4.8817">
        <ele>284</ele>
        <time>2018-08-04T09:02:52Z</time>
      </trkpt>
      <trkpt lat="45.95222" lon="4.88169">
        <ele>284</ele>
        <time>2018-08-04T09:02:53Z</time>
      </trkpt>
      <trkpt lat="45.9523" lon="4.88169">
        <ele>283</ele>
        <time>2018-08-04T09:02:54Z</time>
      </trkpt>
      <trkpt lat="45.95236" lon="4.88169">
        <ele>283</ele>
        <time>2018-08-04T09:02:55Z</time>
      </trkpt>
      <trkpt lat="45.95243" lon="4.8817">
        <ele>282</ele>
        <time>2018-08-04T09:02:56Z</time>
      </trkpt>
      <trkpt lat="45.9525" lon="4.8817">
        <ele>282</ele>
        <time>2018-08-04T09:02:57Z</time>
      </trkpt>
      <trkpt lat="45.95254" lon="4.88172">
        <ele>281</ele>
        <time>2018-08-04T09:02:58Z</time>
      </trkpt>
      <trkpt lat="45.95262" lon="4.88172">
        <ele>281</ele>
        <time>2018-08-04T09:02:59Z</time>
      </trkpt>
      <trkpt lat="45.95268" lon="4.88175">
        <ele>281</ele>
        <time>2018-08-04T09:03:00Z</time>
      </trkpt>
      <trkpt lat="45.95277" lon="4.88174">
        <ele>281</ele>
        <time>2018-08-04T09:03:01Z</time>
      </trkpt>
      <trkpt lat="45.95284" lon="4.88174">
        <ele>281</ele>
        <time>2018-08-04T09:03:02Z</time>
      </trkpt>
      <trkpt lat="45.9529" lon="4.88177">
        <ele>281</ele>
        <time>2018-08-04T09:03:03Z</time>
      </trkpt>
      <trkpt lat="45.95299" lon="4.88176">
        <ele>281</ele>
        <time>2018-08-04T09:03:04Z</time>
      </trkpt>
      <trkpt lat="45.95307" lon="4.88177">
        <ele>280</ele>
        <time>2018-08-04T09:03:05Z</time>
      </trkpt>
      <trkpt lat="45.95316" lon="4.88177">
        <ele>280</ele>
        <time>2018-08-04T09:03:06Z</time>
      </trkpt>
      <trkpt lat="45.95324" lon="4.88177">
        <ele>280</ele>
        <time>2018-08-04T09:03:07Z</time>
      </trkpt>
      <trkpt lat="45.95329" lon="4.88178">
        <ele>279</ele>
        <time>2018-08-04T09:03:08Z</time>
      </trkpt>
      <trkpt lat="45.95337" lon="4.88178">
        <ele>278</ele>
        <time>2018-08-04T09:03:09Z</time>
      </trkpt>
      <trkpt lat="45.95344" lon="4.88178">
        <ele>278</ele>
        <time>2018-08-04T09:03:10Z</time>
      </trkpt>
      <trkpt lat="45.95352" lon="4.88177">
        <ele>278</ele>
        <time>2018-08-04T09:03:11Z</time>
      </trkpt>
      <trkpt lat="45.95359" lon="4.88176">
        <ele>278</ele>
        <time>2018-08-04T09:03:12Z</time>
      </trkpt>
      <trkpt lat="45.95368" lon="4.88171">
        <ele>278</ele>
        <time>2018-08-04T09:03:13Z</time>
      </trkpt>
      <trkpt lat="45.95375" lon="4.8817">
        <ele>278</ele>
        <time>2018-08-04T09:03:14Z</time>
      </trkpt>
      <trkpt lat="45.95382" lon="4.88169">
        <ele>278</ele>
        <time>2018-08-04T09:03:15Z</time>
      </trkpt>
      <trkpt lat="45.95389" lon="4.88167">
        <ele>278</ele>
        <time>2018-08-04T09:03:16Z</time>
      </trkpt>
      <trkpt lat="45.95394" lon="4.88165">
        <ele>276</ele>
        <time>2018-08-04T09:03:17Z</time>
      </trkpt>
      <trkpt lat="45.954" lon="4.88163">
        <ele>276</ele>
        <time>2018-08-04T09:03:18Z</time>
      </trkpt>
      <trkpt lat="45.95406" lon="4.8816">
        <ele>276</ele>
        <time>2018-08-04T09:03:19Z</time>
      </trkpt>
      <trkpt lat="45.95411" lon="4.88158">
        <ele>276</ele>
        <time>2018-08-04T09:03:20Z</time>
      </trkpt>
      <trkpt lat="45.95415" lon="4.88155">
        <ele>276</ele>
        <time>2018-08-04T09:03:21Z</time>
      </trkpt>
      <trkpt lat="45.95424" lon="4.88154">
        <ele>276</ele>
        <time>2018-08-04T09:03:23Z</time>
      </trkpt>
      <trkpt lat="45.95429" lon="4.8815">
        <ele>276</ele>
        <time>2018-08-04T09:03:24Z</time>
      </trkpt>
      <trkpt lat="45.95434" lon="4.88148">
        <ele>276</ele>
        <time>2018-08-04T09:03:25Z</time>
      </trkpt>
      <trkpt lat="45.95439" lon="4.88143">
        <ele>276</ele>
        <time>2018-08-04T09:03:26Z</time>
      </trkpt>
      <trkpt lat="45.95447" lon="4.88142">
        <ele>276</ele>
        <time>2018-08-04T09:03:28Z</time>
      </trkpt>
      <trkpt lat="45.95454" lon="4.8814">
        <ele>276</ele>
        <time>2018-08-04T09:03:29Z</time>
      </trkpt>
      <trkpt lat="45.95462" lon="4.88136">
        <ele>276</ele>
        <time>2018-08-04T09:03:31Z</time>
      </trkpt>
      <trkpt lat="45.95466" lon="4.88135">
        <ele>276</ele>
        <time>2018-08-04T09:03:32Z</time>
      </trkpt>
      <trkpt lat="45.95473" lon="4.8813">
        <ele>276</ele>
        <time>2018-08-04T09:03:34Z</time>
      </trkpt>
      <trkpt lat="45.95477" lon="4.88128">
        <ele>276</ele>
        <time>2018-08-04T09:03:35Z</time>
      </trkpt>
      <trkpt lat="45.95482" lon="4.88127">
        <ele>276</ele>
        <time>2018-08-04T09:03:36Z</time>
      </trkpt>
      <trkpt lat="45.95488" lon="4.88125">
        <ele>276</ele>
        <time>2018-08-04T09:03:37Z</time>
      </trkpt>
      <trkpt lat="45.95496" lon="4.88121">
        <ele>276</ele>
        <time>2018-08-04T09:03:39Z</time>
      </trkpt>
      <trkpt lat="45.95502" lon="4.88118">
        <ele>276</ele>
        <time>2018-08-04T09:03:40Z</time>
      </trkpt>
      <trkpt lat="45.95507" lon="4.88114">
        <ele>276</ele>
        <time>2018-08-04T09:03:41Z</time>
      </trkpt>
      <trkpt lat="45.95512" lon="4.88111">
        <ele>276</ele>
        <time>2018-08-04T09:03:42Z</time>
      </trkpt>
      <trkpt lat="45.95517" lon="4.88109">
        <ele>276</ele>
        <time>2018-08-04T09:03:43Z</time>
      </trkpt>
      <trkpt lat="45.95521" lon="4.88106">
        <ele>277</ele>
        <time>2018-08-04T09:03:44Z</time>
      </trkpt>
      <trkpt lat="45.95525" lon="4.88104">
        <ele>277</ele>
        <time>2018-08-04T09:03:45Z</time>
      </trkpt>
      <trkpt lat="45.9553" lon="4.881">
        <ele>277</ele>
        <time>2018-08-04T09:03:46Z</time>
      </trkpt>
      <trkpt lat="45.95534" lon="4.88099">
        <ele>277</ele>
        <time>2018-08-04T09:03:47Z</time>
      </trkpt>
      <trkpt lat="45.9554" lon="4.88094">
        <ele>277</ele>
        <time>2018-08-04T09:03:48Z</time>
      </trkpt>
      <trkpt lat="45.95547" lon="4.88089">
        <ele>277</ele>
        <time>2018-08-04T09:03:50Z</time>
      </trkpt>
      <trkpt lat="45.95551" lon="4.88089">
        <ele>277</ele>
        <time>2018-08-04T09:03:51Z</time>
      </trkpt>
      <trkpt lat="45.95558" lon="4.88087">
        <ele>277</ele>
        <time>2018-08-04T09:03:53Z</time>
      </trkpt>
      <trkpt lat="45.95562" lon="4.88085">
        <ele>277</ele>
        <time>2018-08-04T09:03:54Z</time>
      </trkpt>
      <trkpt lat="45.95569" lon="4.88085">
        <ele>277</ele>
        <time>2018-08-04T09:03:56Z</time>
      </trkpt>
      <trkpt lat="45.95573" lon="4.8808">
        <ele>277</ele>
        <time>2018-08-04T09:03:57Z</time>
      </trkpt>
      <trkpt lat="45.95579" lon="4.88077">
        <ele>277</ele>
        <time>2018-08-04T09:03:59Z</time>
      </trkpt>
      <trkpt lat="45.95583" lon="4.88076">
        <ele>277</ele>
        <time>2018-08-04T09:04:00Z</time>
      </trkpt>
      <trkpt lat="45.9559" lon="4.88069">
        <ele>278</ele>
        <time>2018-08-04T09:04:02Z</time>
      </trkpt>
      <trkpt lat="45.95594" lon="4.88066">
        <ele>278</ele>
        <time>2018-08-04T09:04:03Z</time>
      </trkpt>
      <trkpt lat="45.95601" lon="4.88061">
        <ele>278</ele>
        <time>2018-08-04T09:04:05Z</time>
      </trkpt>
      <trkpt lat="45.95605" lon="4.88058">
        <ele>278</ele>
        <time>2018-08-04T09:04:06Z</time>
      </trkpt>
      <trkpt lat="45.9561" lon="4.88056">
        <ele>278</ele>
        <time>2018-08-04T09:04:07Z</time>
      </trkpt>
      <trkpt lat="45.95613" lon="4.88051">
        <ele>278</ele>
        <time>2018-08-04T09:04:08Z</time>
      </trkpt>
      <trkpt lat="45.95617" lon="4.88046">
        <ele>278</ele>
        <time>2018-08-04T09:04:09Z</time>
      </trkpt>
      <trkpt lat="45.9562" lon="4.8804">
        <ele>278</ele>
        <time>2018-08-04T09:04:10Z</time>
      </trkpt>
      <trkpt lat="45.95622" lon="4.88035">
        <ele>278</ele>
        <time>2018-08-04T09:04:11Z</time>
      </trkpt>
      <trkpt lat="45.95625" lon="4.88029">
        <ele>278</ele>
        <time>2018-08-04T09:04:12Z</time>
      </trkpt>
      <trkpt lat="45.95628" lon="4.88024">
        <ele>279</ele>
        <time>2018-08-04T09:04:13Z</time>
      </trkpt>
      <trkpt lat="45.95631" lon="4.88019">
        <ele>279</ele>
        <time>2018-08-04T09:04:14Z</time>
      </trkpt>
      <trkpt lat="45.95638" lon="4.88011">
        <ele>279</ele>
        <time>2018-08-04T09:04:17Z</time>
      </trkpt>
      <trkpt lat="45.95642" lon="4.88006">
        <ele>279</ele>
        <time>2018-08-04T09:04:18Z</time>
      </trkpt>
      <trkpt lat="45.95649" lon="4.87999">
        <ele>279</ele>
        <time>2018-08-04T09:04:21Z</time>
      </trkpt>
      <trkpt lat="45.95651" lon="4.87996">
        <ele>279</ele>
        <time>2018-08-04T09:04:22Z</time>
      </trkpt>
      <trkpt lat="45.95658" lon="4.87989">
        <ele>280</ele>
        <time>2018-08-04T09:04:25Z</time>
      </trkpt>
      <trkpt lat="45.9566" lon="4.87987">
        <ele>280</ele>
        <time>2018-08-04T09:04:26Z</time>
      </trkpt>
      <trkpt lat="45.95665" lon="4.87982">
        <ele>279</ele>
        <time>2018-08-04T09:04:28Z</time>
      </trkpt>
      <trkpt lat="45.95668" lon="4.87979">
        <ele>282</ele>
        <time>2018-08-04T09:04:29Z</time>
      </trkpt>
      <trkpt lat="45.95674" lon="4.87974">
        <ele>282</ele>
        <time>2018-08-04T09:04:31Z</time>
      </trkpt>
      <trkpt lat="45.95677" lon="4.87971">
        <ele>282</ele>
        <time>2018-08-04T09:04:32Z</time>
      </trkpt>
      <trkpt lat="45.95682" lon="4.87967">
        <ele>282</ele>
        <time>2018-08-04T09:04:34Z</time>
      </trkpt>
      <trkpt lat="45.95686" lon="4.87965">
        <ele>282</ele>
        <time>2018-08-04T09:04:35Z</time>
      </trkpt>
      <trkpt lat="45.95693" lon="4.87961">
        <ele>282</ele>
        <time>2018-08-04T09:04:37Z</time>
      </trkpt>
      <trkpt lat="45.95696" lon="4.87958">
        <ele>282</ele>
        <time>2018-08-04T09:04:38Z</time>
      </trkpt>
      <trkpt lat="45.95701" lon="4.87954">
        <ele>282</ele>
        <time>2018-08-04T09:04:40Z</time>
      </trkpt>
      <trkpt lat="45.95704" lon="4.87952">
        <ele>283</ele>
        <time>2018-08-04T09:04:41Z</time>
      </trkpt>
      <trkpt lat="45.95706" lon="4.87949">
        <ele>283</ele>
        <time>2018-08-04T09:04:42Z</time>
      </trkpt>
      <trkpt lat="45.95714" lon="4.87942">
        <ele>283</ele>
        <time>2018-08-04T09:04:43Z</time>
      </trkpt>
      <trkpt lat="45.95721" lon="4.87936">
        <ele>283</ele>
        <time>2018-08-04T09:04:47Z</time>
      </trkpt>
      <trkpt lat="45.95724" lon="4.87934">
        <ele>283</ele>
        <time>2018-08-04T09:04:48Z</time>
      </trkpt>
      <trkpt lat="45.95731" lon="4.87929">
        <ele>284</ele>
        <time>2018-08-04T09:04:51Z</time>
      </trkpt>
      <trkpt lat="45.95733" lon="4.87928">
        <ele>284</ele>
        <time>2018-08-04T09:04:52Z</time>
      </trkpt>
      <trkpt lat="45.95741" lon="4.87922">
        <ele>284</ele>
        <time>2018-08-04T09:04:55Z</time>
      </trkpt>
      <trkpt lat="45.95743" lon="4.8792">
        <ele>284</ele>
        <time>2018-08-04T09:04:56Z</time>
      </trkpt>
      <trkpt lat="45.95751" lon="4.87914">
        <ele>285</ele>
        <time>2018-08-04T09:04:59Z</time>
      </trkpt>
      <trkpt lat="45.95754" lon="4.87912">
        <ele>285</ele>
        <time>2018-08-04T09:05:00Z</time>
      </trkpt>
      <trkpt lat="45.95762" lon="4.87907">
        <ele>286</ele>
        <time>2018-08-04T09:05:03Z</time>
      </trkpt>
      <trkpt lat="45.95765" lon="4.87905">
        <ele>286</ele>
        <time>2018-08-04T09:05:04Z</time>
      </trkpt>
      <trkpt lat="45.95773" lon="4.87901">
        <ele>286</ele>
        <time>2018-08-04T09:05:07Z</time>
      </trkpt>
      <trkpt lat="45.95775" lon="4.87899">
        <ele>286</ele>
        <time>2018-08-04T09:05:08Z</time>
      </trkpt>
      <trkpt lat="45.95783" lon="4.87893">
        <ele>286</ele>
        <time>2018-08-04T09:05:11Z</time>
      </trkpt>
      <trkpt lat="45.95785" lon="4.87891">
        <ele>286</ele>
        <time>2018-08-04T09:05:12Z</time>
      </trkpt>
      <trkpt lat="45.95792" lon="4.87887">
        <ele>286</ele>
        <time>2018-08-04T09:05:15Z</time>
      </trkpt>
      <trkpt lat="45.95795" lon="4.87886">
        <ele>286</ele>
        <time>2018-08-04T09:05:16Z</time>
      </trkpt>
      <trkpt lat="45.95802" lon="4.87883">
        <ele>287</ele>
        <time>2018-08-04T09:05:19Z</time>
      </trkpt>
      <trkpt lat="45.95804" lon="4.87882">
        <ele>287</ele>
        <time>2018-08-04T09:05:20Z</time>
      </trkpt>
      <trkpt lat="45.95811" lon="4.8788">
        <ele>287</ele>
        <time>2018-08-04T09:05:23Z</time>
      </trkpt>
      <trkpt lat="45.95814" lon="4.87878">
        <ele>287</ele>
        <time>2018-08-04T09:05:24Z</time>
      </trkpt>
      <trkpt lat="45.9582" lon="4.87876">
        <ele>287</ele>
        <time>2018-08-04T09:05:27Z</time>
      </trkpt>
      <trkpt lat="45.95823" lon="4.87876">
        <ele>287</ele>
        <time>2018-08-04T09:05:28Z</time>
      </trkpt>
      <trkpt lat="45.95829" lon="4.87881">
        <ele>287</ele>
        <time>2018-08-04T09:05:32Z</time>
      </trkpt>
      <trkpt lat="45.95831" lon="4.87882">
        <ele>287</ele>
        <time>2018-08-04T09:05:33Z</time>
      </trkpt>
      <trkpt lat="45.95836" lon="4.87881">
        <ele>289</ele>
        <time>2018-08-04T09:05:35Z</time>
      </trkpt>
      <trkpt lat="45.95842" lon="4.87875">
        <ele>289</ele>
        <time>2018-08-04T09:05:36Z</time>
      </trkpt>
      <trkpt lat="45.95846" lon="4.87865">
        <ele>289</ele>
        <time>2018-08-04T09:05:38Z</time>
      </trkpt>
      <trkpt lat="45.95848" lon="4.8786">
        <ele>289</ele>
        <time>2018-08-04T09:05:39Z</time>
      </trkpt>
      <trkpt lat="45.95853" lon="4.87851">
        <ele>289</ele>
        <time>2018-08-04T09:05:41Z</time>
      </trkpt>
      <trkpt lat="45.95857" lon="4.87848">
        <ele>289</ele>
        <time>2018-08-04T09:05:42Z</time>
      </trkpt>
      <trkpt lat="45.95863" lon="4.87842">
        <ele>289</ele>
        <time>2018-08-04T09:05:44Z</time>
      </trkpt>
      <trkpt lat="45.95867" lon="4.87839">
        <ele>289</ele>
        <time>2018-08-04T09:05:45Z</time>
      </trkpt>
      <trkpt lat="45.95874" lon="4.87832">
        <ele>288</ele>
        <time>2018-08-04T09:05:47Z</time>
      </trkpt>
      <trkpt lat="45.95877" lon="4.87828">
        <ele>288</ele>
        <time>2018-08-04T09:05:48Z</time>
      </trkpt>
      <trkpt lat="45.95884" lon="4.87822">
        <ele>288</ele>
        <time>2018-08-04T09:05:50Z</time>
      </trkpt>
      <trkpt lat="45.95888" lon="4.87819">
        <ele>288</ele>
        <time>2018-08-04T09:05:51Z</time>
      </trkpt>
      <trkpt lat="45.95894" lon="4.87811">
        <ele>288</ele>
        <time>2018-08-04T09:05:53Z</time>
      </trkpt>
      <trkpt lat="45.95897" lon="4.87807">
        <ele>288</ele>
        <time>2018-08-04T09:05:54Z</time>
      </trkpt>
      <trkpt lat="45.95902" lon="4.87798">
        <ele>288</ele>
        <time>2018-08-04T09:05:57Z</time>
      </trkpt>
      <trkpt lat="45.95906" lon="4.8779">
        <ele>288</ele>
        <time>2018-08-04T09:05:58Z</time>
      </trkpt>
      <trkpt lat="45.95909" lon="4.87783">
        <ele>288</ele>
        <time>2018-08-04T09:06:00Z</time>
      </trkpt>
      <trkpt lat="45.95913" lon="4.87776">
        <ele>288</ele>
        <time>2018-08-04T09:06:01Z</time>
      </trkpt>
      <trkpt lat="45.95916" lon="4.87771">
        <ele>288</ele>
        <time>2018-08-04T09:06:02Z</time>
      </trkpt>
      <trkpt lat="45.95919" lon="4.87766">
        <ele>288</ele>
        <time>2018-08-04T09:06:03Z</time>
      </trkpt>
      <trkpt lat="45.95922" lon="4.87761">
        <ele>288</ele>
        <time>2018-08-04T09:06:04Z</time>
      </trkpt>
      <trkpt lat="45.95925" lon="4.87756">
        <ele>288</ele>
        <time>2018-08-04T09:06:05Z</time>
      </trkpt>
      <trkpt lat="45.95931" lon="4.87747">
        <ele>288</ele>
        <time>2018-08-04T09:06:07Z</time>
      </trkpt>
      <trkpt lat="45.95934" lon="4.87743">
        <ele>288</ele>
        <time>2018-08-04T09:06:08Z</time>
      </trkpt>
      <trkpt lat="45.95937" lon="4.87738">
        <ele>288</ele>
        <time>2018-08-04T09:06:09Z</time>
      </trkpt>
      <trkpt lat="45.9594" lon="4.87733">
        <ele>289</ele>
        <time>2018-08-04T09:06:10Z</time>
      </trkpt>
      <trkpt lat="45.95943" lon="4.87728">
        <ele>289</ele>
        <time>2018-08-04T09:06:11Z</time>
      </trkpt>
      <trkpt lat="45.95946" lon="4.8772">
        <ele>289</ele>
        <time>2018-08-04T09:06:12Z</time>
      </trkpt>
      <trkpt lat="45.95949" lon="4.87715">
        <ele>289</ele>
        <time>2018-08-04T09:06:13Z</time>
      </trkpt>
      <trkpt lat="45.95953" lon="4.87711">
        <ele>289</ele>
        <time>2018-08-04T09:06:14Z</time>
      </trkpt>
      <trkpt lat="45.95956" lon="4.87706">
        <ele>289</ele>
        <time>2018-08-04T09:06:15Z</time>
      </trkpt>
      <trkpt lat="45.9596" lon="4.87702">
        <ele>289</ele>
        <time>2018-08-04T09:06:16Z</time>
      </trkpt>
      <trkpt lat="45.95964" lon="4.87698">
        <ele>289</ele>
        <time>2018-08-04T09:06:17Z</time>
      </trkpt>
      <trkpt lat="45.95968" lon="4.87694">
        <ele>289</ele>
        <time>2018-08-04T09:06:18Z</time>
      </trkpt>
      <trkpt lat="45.95976" lon="4.87688">
        <ele>289</ele>
        <time>2018-08-04T09:06:20Z</time>
      </trkpt>
      <trkpt lat="45.9598" lon="4.87685">
        <ele>289</ele>
        <time>2018-08-04T09:06:21Z</time>
      </trkpt>
      <trkpt lat="45.95987" lon="4.87679">
        <ele>289</ele>
        <time>2018-08-04T09:06:24Z</time>
      </trkpt>
      <trkpt lat="45.9599" lon="4.87674">
        <ele>290</ele>
        <time>2018-08-04T09:06:25Z</time>
      </trkpt>
      <trkpt lat="45.95993" lon="4.87669">
        <ele>290</ele>
        <time>2018-08-04T09:06:26Z</time>
      </trkpt>
      <trkpt lat="45.95997" lon="4.87665">
        <ele>290</ele>
        <time>2018-08-04T09:06:27Z</time>
      </trkpt>
      <trkpt lat="45.96005" lon="4.8766">
        <ele>290</ele>
        <time>2018-08-04T09:06:29Z</time>
      </trkpt>
      <trkpt lat="45.96009" lon="4.87657">
        <ele>289</ele>
        <time>2018-08-04T09:06:30Z</time>
      </trkpt>
      <trkpt lat="45.96014" lon="4.87649">
        <ele>289</ele>
        <time>2018-08-04T09:06:31Z</time>
      </trkpt>
      <trkpt lat="45.96017" lon="4.87641">
        <ele>289</ele>
        <time>2018-08-04T09:06:32Z</time>
      </trkpt>
      <trkpt lat="45.96021" lon="4.87636">
        <ele>289</ele>
        <time>2018-08-04T09:06:33Z</time>
      </trkpt>
      <trkpt lat="45.96025" lon="4.87631">
        <ele>289</ele>
        <time>2018-08-04T09:06:34Z</time>
      </trkpt>
      <trkpt lat="45.96029" lon="4.87622">
        <ele>289</ele>
        <time>2018-08-04T09:06:35Z</time>
      </trkpt>
      <trkpt lat="45.96034" lon="4.87618">
        <ele>289</ele>
        <time>2018-08-04T09:06:36Z</time>
      </trkpt>
      <trkpt lat="45.96038" lon="4.87613">
        <ele>289</ele>
        <time>2018-08-04T09:06:37Z</time>
      </trkpt>
      <trkpt lat="45.96042" lon="4.87609">
        <ele>289</ele>
        <time>2018-08-04T09:06:38Z</time>
      </trkpt>
      <trkpt lat="45.96047" lon="4.87604">
        <ele>289</ele>
        <time>2018-08-04T09:06:39Z</time>
      </trkpt>
      <trkpt lat="45.96051" lon="4.876">
        <ele>289</ele>
        <time>2018-08-04T09:06:40Z</time>
      </trkpt>
      <trkpt lat="45.96056" lon="4.87596">
        <ele>288</ele>
        <time>2018-08-04T09:06:41Z</time>
      </trkpt>
      <trkpt lat="45.96061" lon="4.87592">
        <ele>288</ele>
        <time>2018-08-04T09:06:42Z</time>
      </trkpt>
      <trkpt lat="45.96065" lon="4.87588">
        <ele>288</ele>
        <time>2018-08-04T09:06:43Z</time>
      </trkpt>
      <trkpt lat="45.96068" lon="4.87584">
        <ele>288</ele>
        <time>2018-08-04T09:06:44Z</time>
      </trkpt>
      <trkpt lat="45.96072" lon="4.8758">
        <ele>288</ele>
        <time>2018-08-04T09:06:45Z</time>
      </trkpt>
      <trkpt lat="45.96077" lon="4.87574">
        <ele>288</ele>
        <time>2018-08-04T09:06:46Z</time>
      </trkpt>
      <trkpt lat="45.96083" lon="4.87566">
        <ele>287</ele>
        <time>2018-08-04T09:06:48Z</time>
      </trkpt>
      <trkpt lat="45.96087" lon="4.87563">
        <ele>287</ele>
        <time>2018-08-04T09:06:49Z</time>
      </trkpt>
      <trkpt lat="45.96094" lon="4.87556">
        <ele>287</ele>
        <time>2018-08-04T09:06:51Z</time>
      </trkpt>
      <trkpt lat="45.96098" lon="4.87552">
        <ele>287</ele>
        <time>2018-08-04T09:06:52Z</time>
      </trkpt>
      <trkpt lat="45.96103" lon="4.87548">
        <ele>287</ele>
        <time>2018-08-04T09:06:53Z</time>
      </trkpt>
      <trkpt lat="45.96107" lon="4.87543">
        <ele>287</ele>
        <time>2018-08-04T09:06:54Z</time>
      </trkpt>
      <trkpt lat="45.96114" lon="4.87536">
        <ele>287</ele>
        <time>2018-08-04T09:06:56Z</time>
      </trkpt>
      <trkpt lat="45.96118" lon="4.87531">
        <ele>287</ele>
        <time>2018-08-04T09:06:57Z</time>
      </trkpt>
      <trkpt lat="45.96124" lon="4.87523">
        <ele>286</ele>
        <time>2018-08-04T09:06:58Z</time>
      </trkpt>
      <trkpt lat="45.96128" lon="4.87517">
        <ele>286</ele>
        <time>2018-08-04T09:06:59Z</time>
      </trkpt>
      <trkpt lat="45.96131" lon="4.87512">
        <ele>286</ele>
        <time>2018-08-04T09:07:00Z</time>
      </trkpt>
      <trkpt lat="45.96136" lon="4.87507">
        <ele>286</ele>
        <time>2018-08-04T09:07:01Z</time>
      </trkpt>
      <trkpt lat="45.96141" lon="4.87503">
        <ele>286</ele>
        <time>2018-08-04T09:07:02Z</time>
      </trkpt>
      <trkpt lat="45.96146" lon="4.87498">
        <ele>285</ele>
        <time>2018-08-04T09:07:03Z</time>
      </trkpt>
      <trkpt lat="45.96152" lon="4.87491">
        <ele>285</ele>
        <time>2018-08-04T09:07:04Z</time>
      </trkpt>
      <trkpt lat="45.96157" lon="4.87484">
        <ele>285</ele>
        <time>2018-08-04T09:07:05Z</time>
      </trkpt>
      <trkpt lat="45.96162" lon="4.87479">
        <ele>285</ele>
        <time>2018-08-04T09:07:06Z</time>
      </trkpt>
      <trkpt lat="45.96167" lon="4.87474">
        <ele>285</ele>
        <time>2018-08-04T09:07:07Z</time>
      </trkpt>
      <trkpt lat="45.96172" lon="4.87469">
        <ele>284</ele>
        <time>2018-08-04T09:07:08Z</time>
      </trkpt>
      <trkpt lat="45.96176" lon="4.87462">
        <ele>284</ele>
        <time>2018-08-04T09:07:09Z</time>
      </trkpt>
      <trkpt lat="45.96182" lon="4.87457">
        <ele>284</ele>
        <time>2018-08-04T09:07:10Z</time>
      </trkpt>
      <trkpt lat="45.96186" lon="4.87451">
        <ele>284</ele>
        <time>2018-08-04T09:07:11Z</time>
      </trkpt>
      <trkpt lat="45.96191" lon="4.87445">
        <ele>284</ele>
        <time>2018-08-04T09:07:12Z</time>
      </trkpt>
      <trkpt lat="45.96195" lon="4.8744">
        <ele>284</ele>
        <time>2018-08-04T09:07:13Z</time>
      </trkpt>
      <trkpt lat="45.962" lon="4.87434">
        <ele>284</ele>
        <time>2018-08-04T09:07:14Z</time>
      </trkpt>
      <trkpt lat="45.96205" lon="4.87429">
        <ele>284</ele>
        <time>2018-08-04T09:07:15Z</time>
      </trkpt>
      <trkpt lat="45.9621" lon="4.87423">
        <ele>284</ele>
        <time>2018-08-04T09:07:16Z</time>
      </trkpt>
      <trkpt lat="45.96214" lon="4.87419">
        <ele>284</ele>
        <time>2018-08-04T09:07:17Z</time>
      </trkpt>
      <trkpt lat="45.96219" lon="4.87412">
        <ele>283</ele>
        <time>2018-08-04T09:07:18Z</time>
      </trkpt>
      <trkpt lat="45.96223" lon="4.87407">
        <ele>283</ele>
        <time>2018-08-04T09:07:19Z</time>
      </trkpt>
      <trkpt lat="45.96228" lon="4.87402">
        <ele>283</ele>
        <time>2018-08-04T09:07:20Z</time>
      </trkpt>
      <trkpt lat="45.96232" lon="4.87396">
        <ele>283</ele>
        <time>2018-08-04T09:07:21Z</time>
      </trkpt>
      <trkpt lat="45.96237" lon="4.87391">
        <ele>283</ele>
        <time>2018-08-04T09:07:22Z</time>
      </trkpt>
      <trkpt lat="45.9624" lon="4.87385">
        <ele>283</ele>
        <time>2018-08-04T09:07:23Z</time>
      </trkpt>
      <trkpt lat="45.96244" lon="4.87379">
        <ele>283</ele>
        <time>2018-08-04T09:07:24Z</time>
      </trkpt>
      <trkpt lat="45.96249" lon="4.87374">
        <ele>283</ele>
        <time>2018-08-04T09:07:25Z</time>
      </trkpt>
      <trkpt lat="45.96253" lon="4.8737">
        <ele>283</ele>
        <time>2018-08-04T09:07:26Z</time>
      </trkpt>
      <trkpt lat="45.96256" lon="4.87365">
        <ele>283</ele>
        <time>2018-08-04T09:07:27Z</time>
      </trkpt>
      <trkpt lat="45.9626" lon="4.87358">
        <ele>283</ele>
        <time>2018-08-04T09:07:29Z</time>
      </trkpt>
      <trkpt lat="45.96265" lon="4.87348">
        <ele>283</ele>
        <time>2018-08-04T09:07:30Z</time>
      </trkpt>
      <trkpt lat="45.96272" lon="4.87343">
        <ele>283</ele>
        <time>2018-08-04T09:07:32Z</time>
      </trkpt>
      <trkpt lat="45.96272" lon="4.87337">
        <ele>283</ele>
        <time>2018-08-04T09:07:33Z</time>
      </trkpt>
      <trkpt lat="45.96277" lon="4.87329">
        <ele>283</ele>
        <time>2018-08-04T09:07:34Z</time>
      </trkpt>
      <trkpt lat="45.96282" lon="4.87324">
        <ele>283</ele>
        <time>2018-08-04T09:07:35Z</time>
      </trkpt>
      <trkpt lat="45.96287" lon="4.8732">
        <ele>283</ele>
        <time>2018-08-04T09:07:36Z</time>
      </trkpt>
      <trkpt lat="45.96291" lon="4.87314">
        <ele>283</ele>
        <time>2018-08-04T09:07:37Z</time>
      </trkpt>
      <trkpt lat="45.96296" lon="4.8731">
        <ele>283</ele>
        <time>2018-08-04T09:07:38Z</time>
      </trkpt>
      <trkpt lat="45.96301" lon="4.87304">
        <ele>283</ele>
        <time>2018-08-04T09:07:39Z</time>
      </trkpt>
      <trkpt lat="45.96306" lon="4.87299">
        <ele>283</ele>
        <time>2018-08-04T09:07:40Z</time>
      </trkpt>
      <trkpt lat="45.9631" lon="4.87294">
        <ele>283</ele>
        <time>2018-08-04T09:07:41Z</time>
      </trkpt>
      <trkpt lat="45.96314" lon="4.87289">
        <ele>283</ele>
        <time>2018-08-04T09:07:42Z</time>
      </trkpt>
      <trkpt lat="45.96317" lon="4.87285">
        <ele>283</ele>
        <time>2018-08-04T09:07:43Z</time>
      </trkpt>
      <trkpt lat="45.96322" lon="4.87279">
        <ele>283</ele>
        <time>2018-08-04T09:07:44Z</time>
      </trkpt>
      <trkpt lat="45.96325" lon="4.87276">
        <ele>283</ele>
        <time>2018-08-04T09:07:45Z</time>
      </trkpt>
      <trkpt lat="45.96328" lon="4.87271">
        <ele>283</ele>
        <time>2018-08-04T09:07:46Z</time>
      </trkpt>
      <trkpt lat="45.96333" lon="4.87266">
        <ele>283</ele>
        <time>2018-08-04T09:07:47Z</time>
      </trkpt>
      <trkpt lat="45.96333" lon="4.87259">
        <ele>283</ele>
        <time>2018-08-04T09:07:48Z</time>
      </trkpt>
      <trkpt lat="45.96338" lon="4.87253">
        <ele>283</ele>
        <time>2018-08-04T09:07:49Z</time>
      </trkpt>
      <trkpt lat="45.96343" lon="4.8725">
        <ele>283</ele>
        <time>2018-08-04T09:07:50Z</time>
      </trkpt>
      <trkpt lat="45.96347" lon="4.87244">
        <ele>283</ele>
        <time>2018-08-04T09:07:51Z</time>
      </trkpt>
      <trkpt lat="45.96351" lon="4.87241">
        <ele>282</ele>
        <time>2018-08-04T09:07:52Z</time>
      </trkpt>
      <trkpt lat="45.96354" lon="4.87235">
        <ele>282</ele>
        <time>2018-08-04T09:07:53Z</time>
      </trkpt>
      <trkpt lat="45.96358" lon="4.87231">
        <ele>282</ele>
        <time>2018-08-04T09:07:54Z</time>
      </trkpt>
      <trkpt lat="45.96362" lon="4.87227">
        <ele>282</ele>
        <time>2018-08-04T09:07:55Z</time>
      </trkpt>
      <trkpt lat="45.96366" lon="4.87223">
        <ele>282</ele>
        <time>2018-08-04T09:07:56Z</time>
      </trkpt>
      <trkpt lat="45.9637" lon="4.87218">
        <ele>282</ele>
        <time>2018-08-04T09:07:57Z</time>
      </trkpt>
      <trkpt lat="45.96374" lon="4.8721">
        <ele>282</ele>
        <time>2018-08-04T09:07:58Z</time>
      </trkpt>
      <trkpt lat="45.96376" lon="4.87205">
        <ele>282</ele>
        <time>2018-08-04T09:07:59Z</time>
      </trkpt>
      <trkpt lat="45.9638" lon="4.872">
        <ele>282</ele>
        <time>2018-08-04T09:08:00Z</time>
      </trkpt>
      <trkpt lat="45.96385" lon="4.87195">
        <ele>282</ele>
        <time>2018-08-04T09:08:01Z</time>
      </trkpt>
      <trkpt lat="45.96388" lon="4.87189">
        <ele>282</ele>
        <time>2018-08-04T09:08:02Z</time>
      </trkpt>
      <trkpt lat="45.96393" lon="4.87184">
        <ele>282</ele>
        <time>2018-08-04T09:08:03Z</time>
      </trkpt>
      <trkpt lat="45.96397" lon="4.87179">
        <ele>282</ele>
        <time>2018-08-04T09:08:04Z</time>
      </trkpt>
      <trkpt lat="45.96401" lon="4.87174">
        <ele>281</ele>
        <time>2018-08-04T09:08:05Z</time>
      </trkpt>
      <trkpt lat="45.96405" lon="4.87171">
        <ele>281</ele>
        <time>2018-08-04T09:08:06Z</time>
      </trkpt>
      <trkpt lat="45.9641" lon="4.87167">
        <ele>281</ele>
        <time>2018-08-04T09:08:07Z</time>
      </trkpt>
      <trkpt lat="45.96417" lon="4.87161">
        <ele>281</ele>
        <time>2018-08-04T09:08:09Z</time>
      </trkpt>
      <trkpt lat="45.96421" lon="4.87157">
        <ele>281</ele>
        <time>2018-08-04T09:08:10Z</time>
      </trkpt>
      <trkpt lat="45.96424" lon="4.87152">
        <ele>281</ele>
        <time>2018-08-04T09:08:11Z</time>
      </trkpt>
      <trkpt lat="45.96428" lon="4.87148">
        <ele>281</ele>
        <time>2018-08-04T09:08:12Z</time>
      </trkpt>
      <trkpt lat="45.96434" lon="4.8714">
        <ele>281</ele>
        <time>2018-08-04T09:08:14Z</time>
      </trkpt>
      <trkpt lat="45.96438" lon="4.87135">
        <ele>281</ele>
        <time>2018-08-04T09:08:15Z</time>
      </trkpt>
      <trkpt lat="45.96442" lon="4.8713">
        <ele>281</ele>
        <time>2018-08-04T09:08:16Z</time>
      </trkpt>
      <trkpt lat="45.96444" lon="4.8712">
        <ele>281</ele>
        <time>2018-08-04T09:08:17Z</time>
      </trkpt>
      <trkpt lat="45.96451" lon="4.87113">
        <ele>281</ele>
        <time>2018-08-04T09:08:19Z</time>
      </trkpt>
      <trkpt lat="45.96454" lon="4.87108">
        <ele>281</ele>
        <time>2018-08-04T09:08:20Z</time>
      </trkpt>
      <trkpt lat="45.96458" lon="4.87104">
        <ele>281</ele>
        <time>2018-08-04T09:08:21Z</time>
      </trkpt>
      <trkpt lat="45.96462" lon="4.871">
        <ele>282</ele>
        <time>2018-08-04T09:08:22Z</time>
      </trkpt>
      <trkpt lat="45.96465" lon="4.87096">
        <ele>282</ele>
        <time>2018-08-04T09:08:23Z</time>
      </trkpt>
      <trkpt lat="45.9647" lon="4.8709">
        <ele>282</ele>
        <time>2018-08-04T09:08:24Z</time>
      </trkpt>
      <trkpt lat="45.96477" lon="4.87083">
        <ele>282</ele>
        <time>2018-08-04T09:08:26Z</time>
      </trkpt>
      <trkpt lat="45.96479" lon="4.87079">
        <ele>282</ele>
        <time>2018-08-04T09:08:27Z</time>
      </trkpt>
      <trkpt lat="45.96482" lon="4.87075">
        <ele>282</ele>
        <time>2018-08-04T09:08:28Z</time>
      </trkpt>
      <trkpt lat="45.96485" lon="4.87069">
        <ele>282</ele>
        <time>2018-08-04T09:08:29Z</time>
      </trkpt>
      <trkpt lat="45.96489" lon="4.87058">
        <ele>281</ele>
        <time>2018-08-04T09:08:31Z</time>
      </trkpt>
      <trkpt lat="45.96492" lon="4.8705">
        <ele>281</ele>
        <time>2018-08-04T09:08:32Z</time>
      </trkpt>
      <trkpt lat="45.96498" lon="4.87046">
        <ele>281</ele>
        <time>2018-08-04T09:08:35Z</time>
      </trkpt>
      <trkpt lat="45.96503" lon="4.87046">
        <ele>282</ele>
        <time>2018-08-04T09:08:36Z</time>
      </trkpt>
      <trkpt lat="45.9651" lon="4.87051">
        <ele>283</ele>
        <time>2018-08-04T09:08:40Z</time>
      </trkpt>
      <trkpt lat="45.96511" lon="4.87054">
        <ele>283</ele>
        <time>2018-08-04T09:08:41Z</time>
      </trkpt>
      <trkpt lat="45.96516" lon="4.87062">
        <ele>283</ele>
        <time>2018-08-04T09:08:44Z</time>
      </trkpt>
      <trkpt lat="45.96519" lon="4.87065">
        <ele>283</ele>
        <time>2018-08-04T09:08:45Z</time>
      </trkpt>
      <trkpt lat="45.96527" lon="4.87065">
        <ele>283</ele>
        <time>2018-08-04T09:08:48Z</time>
      </trkpt>
      <trkpt lat="45.9653" lon="4.87063">
        <ele>283</ele>
        <time>2018-08-04T09:08:49Z</time>
      </trkpt>
      <trkpt lat="45.96537" lon="4.87058">
        <ele>283</ele>
        <time>2018-08-04T09:08:52Z</time>
      </trkpt>
      <trkpt lat="45.96538" lon="4.87059">
        <ele>283</ele>
        <time>2018-08-04T09:08:53Z</time>
      </trkpt>
      <trkpt lat="45.96544" lon="4.87066">
        <ele>283</ele>
        <time>2018-08-04T09:08:57Z</time>
      </trkpt>
      <trkpt lat="45.96546" lon="4.87068">
        <ele>283</ele>
        <time>2018-08-04T09:08:58Z</time>
      </trkpt>
      <trkpt lat="45.96554" lon="4.8707">
        <ele>283</ele>
        <time>2018-08-04T09:09:02Z</time>
      </trkpt>
      <trkpt lat="45.96557" lon="4.87069">
        <ele>283</ele>
        <time>2018-08-04T09:09:03Z</time>
      </trkpt>
      <trkpt lat="45.96563" lon="4.87061">
        <ele>283</ele>
        <time>2018-08-04T09:09:04Z</time>
      </trkpt>
      <trkpt lat="45.96563" lon="4.87058">
        <ele>283</ele>
        <time>2018-08-04T09:09:05Z</time>
      </trkpt>
      <trkpt lat="45.96561" lon="4.87047">
        <ele>283</ele>
        <time>2018-08-04T09:09:07Z</time>
      </trkpt>
      <trkpt lat="45.9656" lon="4.8704">
        <ele>283</ele>
        <time>2018-08-04T09:09:08Z</time>
      </trkpt>
      <trkpt lat="45.96557" lon="4.8703">
        <ele>283</ele>
        <time>2018-08-04T09:09:11Z</time>
      </trkpt>
      <trkpt lat="45.96556" lon="4.87027">
        <ele>283</ele>
        <time>2018-08-04T09:09:12Z</time>
      </trkpt>
      <trkpt lat="45.9655" lon="4.8702">
        <ele>283</ele>
        <time>2018-08-04T09:09:15Z</time>
      </trkpt>
      <trkpt lat="45.96549" lon="4.87019">
        <ele>283</ele>
        <time>2018-08-04T09:09:16Z</time>
      </trkpt>
      <trkpt lat="45.96546" lon="4.87008">
        <ele>283</ele>
        <time>2018-08-04T09:18:31Z</time>
      </trkpt>
      <trkpt lat="45.96545" lon="4.87005">
        <ele>283</ele>
        <time>2018-08-04T09:18:32Z</time>
      </trkpt>
      <trkpt lat="45.96545" lon="4.86994">
        <ele>283</ele>
        <time>2018-08-04T09:18:35Z</time>
      </trkpt>
      <trkpt lat="45.96545" lon="4.8699">
        <ele>283</ele>
        <time>2018-08-04T09:18:36Z</time>
      </trkpt>
      <trkpt lat="45.96551" lon="4.86982">
        <ele>283</ele>
        <time>2018-08-04T09:18:40Z</time>
      </trkpt>
      <trkpt lat="45.96553" lon="4.8698">
        <ele>283</ele>
        <time>2018-08-04T09:18:41Z</time>
      </trkpt>
      <trkpt lat="45.96557" lon="4.86975">
        <ele>283</ele>
        <time>2018-08-04T09:18:43Z</time>
      </trkpt>
      <trkpt lat="45.96565" lon="4.86961">
        <ele>284</ele>
        <time>2018-08-04T09:18:44Z</time>
      </trkpt>
      <trkpt lat="45.9657" lon="4.86954">
        <ele>284</ele>
        <time>2018-08-04T09:18:47Z</time>
      </trkpt>
      <trkpt lat="45.96571" lon="4.86952">
        <ele>284</ele>
        <time>2018-08-04T09:18:48Z</time>
      </trkpt>
      <trkpt lat="45.96575" lon="4.86945">
        <ele>284</ele>
        <time>2018-08-04T09:18:50Z</time>
      </trkpt>
      <trkpt lat="45.96579" lon="4.86934">
        <ele>284</ele>
        <time>2018-08-04T09:18:51Z</time>
      </trkpt>
      <trkpt lat="45.96584" lon="4.86927">
        <ele>285</ele>
        <time>2018-08-04T09:18:54Z</time>
      </trkpt>
      <trkpt lat="45.96589" lon="4.86918">
        <ele>285</ele>
        <time>2018-08-04T09:18:55Z</time>
      </trkpt>
      <trkpt lat="45.96591" lon="4.86912">
        <ele>286</ele>
        <time>2018-08-04T09:18:56Z</time>
      </trkpt>
      <trkpt lat="45.96595" lon="4.86907">
        <ele>286</ele>
        <time>2018-08-04T09:18:57Z</time>
      </trkpt>
      <trkpt lat="45.96599" lon="4.86897">
        <ele>286</ele>
        <time>2018-08-04T09:19:00Z</time>
      </trkpt>
      <trkpt lat="45.966" lon="4.86895">
        <ele>286</ele>
        <time>2018-08-04T09:19:01Z</time>
      </trkpt>
      <trkpt lat="45.96606" lon="4.86886">
        <ele>287</ele>
        <time>2018-08-04T09:19:05Z</time>
      </trkpt>
      <trkpt lat="45.96608" lon="4.86883">
        <ele>287</ele>
        <time>2018-08-04T09:19:06Z</time>
      </trkpt>
      <trkpt lat="45.96612" lon="4.86877">
        <ele>287</ele>
        <time>2018-08-04T09:19:08Z</time>
      </trkpt>
      <trkpt lat="45.96615" lon="4.86874">
        <ele>287</ele>
        <time>2018-08-04T09:19:09Z</time>
      </trkpt>
      <trkpt lat="45.96617" lon="4.86871">
        <ele>287</ele>
        <time>2018-08-04T09:19:10Z</time>
      </trkpt>
      <trkpt lat="45.96625" lon="4.86855">
        <ele>287</ele>
        <time>2018-08-04T09:19:11Z</time>
      </trkpt>
      <trkpt lat="45.96632" lon="4.86851">
        <ele>287</ele>
        <time>2018-08-04T09:19:15Z</time>
      </trkpt>
      <trkpt lat="45.96633" lon="4.86848">
        <ele>287</ele>
        <time>2018-08-04T09:19:16Z</time>
      </trkpt>
      <trkpt lat="45.9664" lon="4.86834">
        <ele>287</ele>
        <time>2018-08-04T09:19:17Z</time>
      </trkpt>
      <trkpt lat="45.96644" lon="4.86831">
        <ele>288</ele>
        <time>2018-08-04T09:19:19Z</time>
      </trkpt>
      <trkpt lat="45.96649" lon="4.86821">
        <ele>288</ele>
        <time>2018-08-04T09:19:20Z</time>
      </trkpt>
      <trkpt lat="45.96655" lon="4.86814">
        <ele>288</ele>
        <time>2018-08-04T09:19:22Z</time>
      </trkpt>
      <trkpt lat="45.96656" lon="4.86812">
        <ele>288</ele>
        <time>2018-08-04T09:19:23Z</time>
      </trkpt>
      <trkpt lat="45.96661" lon="4.86803">
        <ele>288</ele>
        <time>2018-08-04T09:19:25Z</time>
      </trkpt>
      <trkpt lat="45.96662" lon="4.86801">
        <ele>288</ele>
        <time>2018-08-04T09:19:26Z</time>
      </trkpt>
      <trkpt lat="45.96666" lon="4.86793">
        <ele>288</ele>
        <time>2018-08-04T09:19:27Z</time>
      </trkpt>
      <trkpt lat="45.96669" lon="4.86789">
        <ele>289</ele>
        <time>2018-08-04T09:19:28Z</time>
      </trkpt>
      <trkpt lat="45.96674" lon="4.86781">
        <ele>289</ele>
        <time>2018-08-04T09:19:30Z</time>
      </trkpt>
      <trkpt lat="45.96677" lon="4.86777">
        <ele>289</ele>
        <time>2018-08-04T09:19:31Z</time>
      </trkpt>
      <trkpt lat="45.96682" lon="4.86768">
        <ele>289</ele>
        <time>2018-08-04T09:19:33Z</time>
      </trkpt>
      <trkpt lat="45.96682" lon="4.86759">
        <ele>289</ele>
        <time>2018-08-04T09:19:34Z</time>
      </trkpt>
      <trkpt lat="45.96686" lon="4.86752">
        <ele>289</ele>
        <time>2018-08-04T09:19:35Z</time>
      </trkpt>
      <trkpt lat="45.96689" lon="4.86745">
        <ele>289</ele>
        <time>2018-08-04T09:19:36Z</time>
      </trkpt>
      <trkpt lat="45.96694" lon="4.86739">
        <ele>289</ele>
        <time>2018-08-04T09:19:38Z</time>
      </trkpt>
      <trkpt lat="45.96699" lon="4.86729">
        <ele>289</ele>
        <time>2018-08-04T09:19:39Z</time>
      </trkpt>
      <trkpt lat="45.96705" lon="4.8672">
        <ele>289</ele>
        <time>2018-08-04T09:19:41Z</time>
      </trkpt>
      <trkpt lat="45.96707" lon="4.86716">
        <ele>289</ele>
        <time>2018-08-04T09:19:42Z</time>
      </trkpt>
      <trkpt lat="45.9671" lon="4.86713">
        <ele>289</ele>
        <time>2018-08-04T09:19:43Z</time>
      </trkpt>
      <trkpt lat="45.96713" lon="4.86706">
        <ele>289</ele>
        <time>2018-08-04T09:19:44Z</time>
      </trkpt>
      <trkpt lat="45.96718" lon="4.86699">
        <ele>289</ele>
        <time>2018-08-04T09:19:46Z</time>
      </trkpt>
      <trkpt lat="45.9672" lon="4.86693">
        <ele>289</ele>
        <time>2018-08-04T09:19:47Z</time>
      </trkpt>
      <trkpt lat="45.96723" lon="4.86687">
        <ele>289</ele>
        <time>2018-08-04T09:19:48Z</time>
      </trkpt>
      <trkpt lat="45.96725" lon="4.86682">
        <ele>289</ele>
        <time>2018-08-04T09:19:49Z</time>
      </trkpt>
      <trkpt lat="45.96731" lon="4.86673">
        <ele>290</ele>
        <time>2018-08-04T09:19:51Z</time>
      </trkpt>
      <trkpt lat="45.96733" lon="4.86669">
        <ele>290</ele>
        <time>2018-08-04T09:19:52Z</time>
      </trkpt>
      <trkpt lat="45.96739" lon="4.86663">
        <ele>290</ele>
        <time>2018-08-04T09:19:54Z</time>
      </trkpt>
      <trkpt lat="45.96741" lon="4.86659">
        <ele>290</ele>
        <time>2018-08-04T09:19:55Z</time>
      </trkpt>
      <trkpt lat="45.96746" lon="4.86651">
        <ele>290</ele>
        <time>2018-08-04T09:19:58Z</time>
      </trkpt>
      <trkpt lat="45.96748" lon="4.86648">
        <ele>290</ele>
        <time>2018-08-04T09:19:59Z</time>
      </trkpt>
      <trkpt lat="45.96753" lon="4.8664">
        <ele>290</ele>
        <time>2018-08-04T09:20:00Z</time>
      </trkpt>
      <trkpt lat="45.96756" lon="4.86635">
        <ele>290</ele>
        <time>2018-08-04T09:20:01Z</time>
      </trkpt>
      <trkpt lat="45.96761" lon="4.86625">
        <ele>289</ele>
        <time>2018-08-04T09:20:03Z</time>
      </trkpt>
      <trkpt lat="45.96764" lon="4.8662">
        <ele>289</ele>
        <time>2018-08-04T09:20:04Z</time>
      </trkpt>
      <trkpt lat="45.96769" lon="4.86613">
        <ele>289</ele>
        <time>2018-08-04T09:20:06Z</time>
      </trkpt>
      <trkpt lat="45.96771" lon="4.86609">
        <ele>289</ele>
        <time>2018-08-04T09:20:07Z</time>
      </trkpt>
      <trkpt lat="45.96776" lon="4.86601">
        <ele>289</ele>
        <time>2018-08-04T09:20:09Z</time>
      </trkpt>
      <trkpt lat="45.96779" lon="4.86596">
        <ele>289</ele>
        <time>2018-08-04T09:20:10Z</time>
      </trkpt>
      <trkpt lat="45.96784" lon="4.86586">
        <ele>289</ele>
        <time>2018-08-04T09:20:12Z</time>
      </trkpt>
      <trkpt lat="45.96787" lon="4.8658">
        <ele>290</ele>
        <time>2018-08-04T09:20:13Z</time>
      </trkpt>
      <trkpt lat="45.9679" lon="4.86577">
        <ele>290</ele>
        <time>2018-08-04T09:20:14Z</time>
      </trkpt>
      <trkpt lat="45.96793" lon="4.86571">
        <ele>290</ele>
        <time>2018-08-04T09:20:15Z</time>
      </trkpt>
      <trkpt lat="45.96796" lon="4.86566">
        <ele>290</ele>
        <time>2018-08-04T09:20:16Z</time>
      </trkpt>
      <trkpt lat="45.96799" lon="4.8656">
        <ele>290</ele>
        <time>2018-08-04T09:20:17Z</time>
      </trkpt>
      <trkpt lat="45.96803" lon="4.86555">
        <ele>290</ele>
        <time>2018-08-04T09:20:18Z</time>
      </trkpt>
      <trkpt lat="45.96806" lon="4.86551">
        <ele>290</ele>
        <time>2018-08-04T09:20:19Z</time>
      </trkpt>
      <trkpt lat="45.96811" lon="4.86541">
        <ele>290</ele>
        <time>2018-08-04T09:20:21Z</time>
      </trkpt>
      <trkpt lat="45.96813" lon="4.86537">
        <ele>290</ele>
        <time>2018-08-04T09:20:22Z</time>
      </trkpt>
      <trkpt lat="45.96819" lon="4.86529">
        <ele>290</ele>
        <time>2018-08-04T09:20:24Z</time>
      </trkpt>
      <trkpt lat="45.96821" lon="4.86526">
        <ele>289</ele>
        <time>2018-08-04T09:20:25Z</time>
      </trkpt>
      <trkpt lat="45.96827" lon="4.86518">
        <ele>289</ele>
        <time>2018-08-04T09:20:27Z</time>
      </trkpt>
      <trkpt lat="45.9683" lon="4.86514">
        <ele>289</ele>
        <time>2018-08-04T09:20:28Z</time>
      </trkpt>
      <trkpt lat="45.96834" lon="4.86505">
        <ele>289</ele>
        <time>2018-08-04T09:20:30Z</time>
      </trkpt>
      <trkpt lat="45.96837" lon="4.865">
        <ele>289</ele>
        <time>2018-08-04T09:20:31Z</time>
      </trkpt>
      <trkpt lat="45.96841" lon="4.86489">
        <ele>289</ele>
        <time>2018-08-04T09:20:33Z</time>
      </trkpt>
      <trkpt lat="45.96843" lon="4.86483">
        <ele>289</ele>
        <time>2018-08-04T09:20:34Z</time>
      </trkpt>
      <trkpt lat="45.96844" lon="4.86476">
        <ele>289</ele>
        <time>2018-08-04T09:20:35Z</time>
      </trkpt>
      <trkpt lat="45.96847" lon="4.8647">
        <ele>289</ele>
        <time>2018-08-04T09:20:36Z</time>
      </trkpt>
      <trkpt lat="45.9685" lon="4.8646">
        <ele>289</ele>
        <time>2018-08-04T09:20:38Z</time>
      </trkpt>
      <trkpt lat="45.96851" lon="4.86453">
        <ele>289</ele>
        <time>2018-08-04T09:20:39Z</time>
      </trkpt>
      <trkpt lat="45.96853" lon="4.86447">
        <ele>289</ele>
        <time>2018-08-04T09:20:40Z</time>
      </trkpt>
      <trkpt lat="45.96853" lon="4.86439">
        <ele>290</ele>
        <time>2018-08-04T09:20:41Z</time>
      </trkpt>
      <trkpt lat="45.96855" lon="4.86433">
        <ele>290</ele>
        <time>2018-08-04T09:20:42Z</time>
      </trkpt>
      <trkpt lat="45.96856" lon="4.86427">
        <ele>290</ele>
        <time>2018-08-04T09:20:43Z</time>
      </trkpt>
      <trkpt lat="45.96858" lon="4.86415">
        <ele>290</ele>
        <time>2018-08-04T09:20:45Z</time>
      </trkpt>
      <trkpt lat="45.96859" lon="4.86409">
        <ele>290</ele>
        <time>2018-08-04T09:20:46Z</time>
      </trkpt>
      <trkpt lat="45.9686" lon="4.86402">
        <ele>290</ele>
        <time>2018-08-04T09:20:47Z</time>
      </trkpt>
      <trkpt lat="45.96862" lon="4.86395">
        <ele>290</ele>
        <time>2018-08-04T09:20:48Z</time>
      </trkpt>
      <trkpt lat="45.96863" lon="4.86384">
        <ele>290</ele>
        <time>2018-08-04T09:20:50Z</time>
      </trkpt>
      <trkpt lat="45.96864" lon="4.86377">
        <ele>290</ele>
        <time>2018-08-04T09:20:51Z</time>
      </trkpt>
      <trkpt lat="45.96864" lon="4.86371">
        <ele>290</ele>
        <time>2018-08-04T09:20:52Z</time>
      </trkpt>
      <trkpt lat="45.96864" lon="4.86362">
        <ele>290</ele>
        <time>2018-08-04T09:20:53Z</time>
      </trkpt>
      <trkpt lat="45.96867" lon="4.8635">
        <ele>290</ele>
        <time>2018-08-04T09:20:55Z</time>
      </trkpt>
      <trkpt lat="45.96868" lon="4.86344">
        <ele>290</ele>
        <time>2018-08-04T09:20:56Z</time>
      </trkpt>
      <trkpt lat="45.96868" lon="4.86336">
        <ele>290</ele>
        <time>2018-08-04T09:20:57Z</time>
      </trkpt>
      <trkpt lat="45.96869" lon="4.8633">
        <ele>289</ele>
        <time>2018-08-04T09:20:58Z</time>
      </trkpt>
      <trkpt lat="45.96871" lon="4.86323">
        <ele>289</ele>
        <time>2018-08-04T09:20:59Z</time>
      </trkpt>
      <trkpt lat="45.96872" lon="4.86316">
        <ele>289</ele>
        <time>2018-08-04T09:21:00Z</time>
      </trkpt>
      <trkpt lat="45.96874" lon="4.86303">
        <ele>289</ele>
        <time>2018-08-04T09:21:02Z</time>
      </trkpt>
      <trkpt lat="45.96875" lon="4.86297">
        <ele>289</ele>
        <time>2018-08-04T09:21:03Z</time>
      </trkpt>
      <trkpt lat="45.96877" lon="4.86286">
        <ele>289</ele>
        <time>2018-08-04T09:21:05Z</time>
      </trkpt>
      <trkpt lat="45.96878" lon="4.86279">
        <ele>289</ele>
        <time>2018-08-04T09:21:06Z</time>
      </trkpt>
      <trkpt lat="45.96879" lon="4.8627">
        <ele>288</ele>
        <time>2018-08-04T09:21:08Z</time>
      </trkpt>
      <trkpt lat="45.9688" lon="4.86265">
        <ele>288</ele>
        <time>2018-08-04T09:21:09Z</time>
      </trkpt>
      <trkpt lat="45.96882" lon="4.86253">
        <ele>288</ele>
        <time>2018-08-04T09:21:11Z</time>
      </trkpt>
      <trkpt lat="45.96882" lon="4.86247">
        <ele>288</ele>
        <time>2018-08-04T09:21:12Z</time>
      </trkpt>
      <trkpt lat="45.96883" lon="4.8624">
        <ele>289</ele>
        <time>2018-08-04T09:21:13Z</time>
      </trkpt>
      <trkpt lat="45.96884" lon="4.86233">
        <ele>289</ele>
        <time>2018-08-04T09:21:14Z</time>
      </trkpt>
      <trkpt lat="45.96885" lon="4.86225">
        <ele>289</ele>
        <time>2018-08-04T09:21:15Z</time>
      </trkpt>
      <trkpt lat="45.96886" lon="4.86217">
        <ele>289</ele>
        <time>2018-08-04T09:21:16Z</time>
      </trkpt>
      <trkpt lat="45.96887" lon="4.8621">
        <ele>289</ele>
        <time>2018-08-04T09:21:17Z</time>
      </trkpt>
      <trkpt lat="45.96888" lon="4.86203">
        <ele>289</ele>
        <time>2018-08-04T09:21:18Z</time>
      </trkpt>
      <trkpt lat="45.96889" lon="4.86195">
        <ele>289</ele>
        <time>2018-08-04T09:21:19Z</time>
      </trkpt>
      <trkpt lat="45.96889" lon="4.86188">
        <ele>289</ele>
        <time>2018-08-04T09:21:20Z</time>
      </trkpt>
      <trkpt lat="45.9689" lon="4.8618">
        <ele>289</ele>
        <time>2018-08-04T09:21:21Z</time>
      </trkpt>
      <trkpt lat="45.96891" lon="4.86172">
        <ele>289</ele>
        <time>2018-08-04T09:21:22Z</time>
      </trkpt>
      <trkpt lat="45.96892" lon="4.86165">
        <ele>289</ele>
        <time>2018-08-04T09:21:23Z</time>
      </trkpt>
      <trkpt lat="45.96893" lon="4.86157">
        <ele>289</ele>
        <time>2018-08-04T09:21:24Z</time>
      </trkpt>
      <trkpt lat="45.96894" lon="4.86149">
        <ele>289</ele>
        <time>2018-08-04T09:21:25Z</time>
      </trkpt>
      <trkpt lat="45.96894" lon="4.86141">
        <ele>289</ele>
        <time>2018-08-04T09:21:26Z</time>
      </trkpt>
      <trkpt lat="45.96895" lon="4.86131">
        <ele>289</ele>
        <time>2018-08-04T09:21:27Z</time>
      </trkpt>
      <trkpt lat="45.96896" lon="4.86123">
        <ele>289</ele>
        <time>2018-08-04T09:21:28Z</time>
      </trkpt>
      <trkpt lat="45.96897" lon="4.86114">
        <ele>289</ele>
        <time>2018-08-04T09:21:29Z</time>
      </trkpt>
      <trkpt lat="45.96898" lon="4.86105">
        <ele>289</ele>
        <time>2018-08-04T09:21:30Z</time>
      </trkpt>
      <trkpt lat="45.96898" lon="4.86097">
        <ele>288</ele>
        <time>2018-08-04T09:21:31Z</time>
      </trkpt>
      <trkpt lat="45.969" lon="4.86089">
        <ele>288</ele>
        <time>2018-08-04T09:21:32Z</time>
      </trkpt>
      <trkpt lat="45.96901" lon="4.86081">
        <ele>288</ele>
        <time>2018-08-04T09:21:33Z</time>
      </trkpt>
      <trkpt lat="45.96902" lon="4.86073">
        <ele>288</ele>
        <time>2018-08-04T09:21:34Z</time>
      </trkpt>
      <trkpt lat="45.96904" lon="4.86065">
        <ele>288</ele>
        <time>2018-08-04T09:21:35Z</time>
      </trkpt>
      <trkpt lat="45.96904" lon="4.86057">
        <ele>289</ele>
        <time>2018-08-04T09:21:36Z</time>
      </trkpt>
      <trkpt lat="45.96906" lon="4.86049">
        <ele>289</ele>
        <time>2018-08-04T09:21:37Z</time>
      </trkpt>
      <trkpt lat="45.96908" lon="4.86041">
        <ele>289</ele>
        <time>2018-08-04T09:21:38Z</time>
      </trkpt>
      <trkpt lat="45.96906" lon="4.86031">
        <ele>289</ele>
        <time>2018-08-04T09:21:39Z</time>
      </trkpt>
      <trkpt lat="45.96908" lon="4.86021">
        <ele>289</ele>
        <time>2018-08-04T09:21:40Z</time>
      </trkpt>
      <trkpt lat="45.96912" lon="4.86016">
        <ele>289</ele>
        <time>2018-08-04T09:21:41Z</time>
      </trkpt>
      <trkpt lat="45.96915" lon="4.86009">
        <ele>288</ele>
        <time>2018-08-04T09:21:42Z</time>
      </trkpt>
      <trkpt lat="45.96916" lon="4.85998">
        <ele>288</ele>
        <time>2018-08-04T09:21:43Z</time>
      </trkpt>
      <trkpt lat="45.96915" lon="4.85987">
        <ele>288</ele>
        <time>2018-08-04T09:21:44Z</time>
      </trkpt>
      <trkpt lat="45.96917" lon="4.85979">
        <ele>287</ele>
        <time>2018-08-04T09:21:45Z</time>
      </trkpt>
      <trkpt lat="45.96918" lon="4.85972">
        <ele>287</ele>
        <time>2018-08-04T09:21:46Z</time>
      </trkpt>
      <trkpt lat="45.96921" lon="4.85965">
        <ele>287</ele>
        <time>2018-08-04T09:21:47Z</time>
      </trkpt>
      <trkpt lat="45.96923" lon="4.85956">
        <ele>287</ele>
        <time>2018-08-04T09:21:48Z</time>
      </trkpt>
      <trkpt lat="45.96924" lon="4.85947">
        <ele>286</ele>
        <time>2018-08-04T09:21:49Z</time>
      </trkpt>
      <trkpt lat="45.96927" lon="4.85941">
        <ele>286</ele>
        <time>2018-08-04T09:21:50Z</time>
      </trkpt>
      <trkpt lat="45.96929" lon="4.85934">
        <ele>286</ele>
        <time>2018-08-04T09:21:51Z</time>
      </trkpt>
      <trkpt lat="45.96931" lon="4.85927">
        <ele>286</ele>
        <time>2018-08-04T09:21:52Z</time>
      </trkpt>
      <trkpt lat="45.96932" lon="4.85919">
        <ele>286</ele>
        <time>2018-08-04T09:21:53Z</time>
      </trkpt>
      <trkpt lat="45.96935" lon="4.85912">
        <ele>286</ele>
        <time>2018-08-04T09:21:54Z</time>
      </trkpt>
      <trkpt lat="45.96937" lon="4.85904">
        <ele>286</ele>
        <time>2018-08-04T09:21:55Z</time>
      </trkpt>
      <trkpt lat="45.96939" lon="4.85895">
        <ele>285</ele>
        <time>2018-08-04T09:21:56Z</time>
      </trkpt>
      <trkpt lat="45.96941" lon="4.85887">
        <ele>285</ele>
        <time>2018-08-04T09:21:57Z</time>
      </trkpt>
      <trkpt lat="45.96944" lon="4.85878">
        <ele>285</ele>
        <time>2018-08-04T09:21:58Z</time>
      </trkpt>
      <trkpt lat="45.96947" lon="4.8587">
        <ele>285</ele>
        <time>2018-08-04T09:21:59Z</time>
      </trkpt>
      <trkpt lat="45.96949" lon="4.85861">
        <ele>285</ele>
        <time>2018-08-04T09:22:00Z</time>
      </trkpt>
      <trkpt lat="45.96951" lon="4.85852">
        <ele>285</ele>
        <time>2018-08-04T09:22:01Z</time>
      </trkpt>
      <trkpt lat="45.96953" lon="4.85844">
        <ele>285</ele>
        <time>2018-08-04T09:22:02Z</time>
      </trkpt>
      <trkpt lat="45.96955" lon="4.85836">
        <ele>285</ele>
        <time>2018-08-04T09:22:03Z</time>
      </trkpt>
      <trkpt lat="45.96958" lon="4.85828">
        <ele>285</ele>
        <time>2018-08-04T09:22:04Z</time>
      </trkpt>
      <trkpt lat="45.96959" lon="4.85821">
        <ele>285</ele>
        <time>2018-08-04T09:22:05Z</time>
      </trkpt>
      <trkpt lat="45.96961" lon="4.85812">
        <ele>285</ele>
        <time>2018-08-04T09:22:06Z</time>
      </trkpt>
      <trkpt lat="45.96962" lon="4.85803">
        <ele>285</ele>
        <time>2018-08-04T09:22:07Z</time>
      </trkpt>
      <trkpt lat="45.96964" lon="4.85795">
        <ele>285</ele>
        <time>2018-08-04T09:22:08Z</time>
      </trkpt>
      <trkpt lat="45.96965" lon="4.85788">
        <ele>285</ele>
        <time>2018-08-04T09:22:09Z</time>
      </trkpt>
      <trkpt lat="45.96968" lon="4.8578">
        <ele>285</ele>
        <time>2018-08-04T09:22:10Z</time>
      </trkpt>
      <trkpt lat="45.9697" lon="4.85773">
        <ele>285</ele>
        <time>2018-08-04T09:22:11Z</time>
      </trkpt>
      <trkpt lat="45.96972" lon="4.85765">
        <ele>285</ele>
        <time>2018-08-04T09:22:12Z</time>
      </trkpt>
      <trkpt lat="45.96975" lon="4.85758">
        <ele>285</ele>
        <time>2018-08-04T09:22:13Z</time>
      </trkpt>
      <trkpt lat="45.96977" lon="4.85752">
        <ele>285</ele>
        <time>2018-08-04T09:22:14Z</time>
      </trkpt>
      <trkpt lat="45.96979" lon="4.85744">
        <ele>285</ele>
        <time>2018-08-04T09:22:15Z</time>
      </trkpt>
      <trkpt lat="45.96983" lon="4.85737">
        <ele>285</ele>
        <time>2018-08-04T09:22:16Z</time>
      </trkpt>
      <trkpt lat="45.96985" lon="4.8573">
        <ele>285</ele>
        <time>2018-08-04T09:22:17Z</time>
      </trkpt>
      <trkpt lat="45.96986" lon="4.85722">
        <ele>285</ele>
        <time>2018-08-04T09:22:18Z</time>
      </trkpt>
      <trkpt lat="45.96989" lon="4.85714">
        <ele>285</ele>
        <time>2018-08-04T09:22:19Z</time>
      </trkpt>
      <trkpt lat="45.9699" lon="4.85707">
        <ele>285</ele>
        <time>2018-08-04T09:22:20Z</time>
      </trkpt>
      <trkpt lat="45.96993" lon="4.857">
        <ele>285</ele>
        <time>2018-08-04T09:22:21Z</time>
      </trkpt>
      <trkpt lat="45.96994" lon="4.85692">
        <ele>285</ele>
        <time>2018-08-04T09:22:22Z</time>
      </trkpt>
      <trkpt lat="45.96997" lon="4.85685">
        <ele>285</ele>
        <time>2018-08-04T09:22:23Z</time>
      </trkpt>
      <trkpt lat="45.96998" lon="4.85677">
        <ele>286</ele>
        <time>2018-08-04T09:22:24Z</time>
      </trkpt>
      <trkpt lat="45.97001" lon="4.8567">
        <ele>286</ele>
        <time>2018-08-04T09:22:25Z</time>
      </trkpt>
      <trkpt lat="45.97003" lon="4.85662">
        <ele>285</ele>
        <time>2018-08-04T09:22:26Z</time>
      </trkpt>
      <trkpt lat="45.97004" lon="4.85654">
        <ele>285</ele>
        <time>2018-08-04T09:22:27Z</time>
      </trkpt>
      <trkpt lat="45.97006" lon="4.85646">
        <ele>284</ele>
        <time>2018-08-04T09:22:28Z</time>
      </trkpt>
      <trkpt lat="45.97008" lon="4.85638">
        <ele>284</ele>
        <time>2018-08-04T09:22:29Z</time>
      </trkpt>
      <trkpt lat="45.9701" lon="4.8563">
        <ele>284</ele>
        <time>2018-08-04T09:22:30Z</time>
      </trkpt>
      <trkpt lat="45.97011" lon="4.85623">
        <ele>284</ele>
        <time>2018-08-04T09:22:31Z</time>
      </trkpt>
      <trkpt lat="45.97014" lon="4.85615">
        <ele>284</ele>
        <time>2018-08-04T09:22:32Z</time>
      </trkpt>
      <trkpt lat="45.97016" lon="4.85609">
        <ele>284</ele>
        <time>2018-08-04T09:22:33Z</time>
      </trkpt>
      <trkpt lat="45.97019" lon="4.85601">
        <ele>284</ele>
        <time>2018-08-04T09:22:34Z</time>
      </trkpt>
      <trkpt lat="45.97021" lon="4.85592">
        <ele>284</ele>
        <time>2018-08-04T09:22:35Z</time>
      </trkpt>
      <trkpt lat="45.97023" lon="4.85585">
        <ele>284</ele>
        <time>2018-08-04T09:22:36Z</time>
      </trkpt>
      <trkpt lat="45.97026" lon="4.85577">
        <ele>283</ele>
        <time>2018-08-04T09:22:37Z</time>
      </trkpt>
      <trkpt lat="45.97028" lon="4.8557">
        <ele>283</ele>
        <time>2018-08-04T09:22:38Z</time>
      </trkpt>
      <trkpt lat="45.97031" lon="4.85562">
        <ele>283</ele>
        <time>2018-08-04T09:22:39Z</time>
      </trkpt>
      <trkpt lat="45.97033" lon="4.85554">
        <ele>283</ele>
        <time>2018-08-04T09:22:40Z</time>
      </trkpt>
      <trkpt lat="45.97036" lon="4.85546">
        <ele>282</ele>
        <time>2018-08-04T09:22:41Z</time>
      </trkpt>
      <trkpt lat="45.97038" lon="4.85538">
        <ele>282</ele>
        <time>2018-08-04T09:22:42Z</time>
      </trkpt>
      <trkpt lat="45.9704" lon="4.8553">
        <ele>282</ele>
        <time>2018-08-04T09:22:43Z</time>
      </trkpt>
      <trkpt lat="45.97042" lon="4.85522">
        <ele>282</ele>
        <time>2018-08-04T09:22:44Z</time>
      </trkpt>
      <trkpt lat="45.97044" lon="4.85514">
        <ele>282</ele>
        <time>2018-08-04T09:22:45Z</time>
      </trkpt>
      <trkpt lat="45.97047" lon="4.85505">
        <ele>282</ele>
        <time>2018-08-04T09:22:46Z</time>
      </trkpt>
      <trkpt lat="45.9705" lon="4.85498">
        <ele>281</ele>
        <time>2018-08-04T09:22:47Z</time>
      </trkpt>
      <trkpt lat="45.97052" lon="4.85489">
        <ele>281</ele>
        <time>2018-08-04T09:22:48Z</time>
      </trkpt>
      <trkpt lat="45.97055" lon="4.85481">
        <ele>281</ele>
        <time>2018-08-04T09:22:49Z</time>
      </trkpt>
      <trkpt lat="45.97057" lon="4.85472">
        <ele>281</ele>
        <time>2018-08-04T09:22:50Z</time>
      </trkpt>
      <trkpt lat="45.97059" lon="4.85465">
        <ele>281</ele>
        <time>2018-08-04T09:22:51Z</time>
      </trkpt>
      <trkpt lat="45.97061" lon="4.85457">
        <ele>281</ele>
        <time>2018-08-04T09:22:52Z</time>
      </trkpt>
      <trkpt lat="45.97064" lon="4.8545">
        <ele>281</ele>
        <time>2018-08-04T09:22:53Z</time>
      </trkpt>
      <trkpt lat="45.97066" lon="4.85441">
        <ele>281</ele>
        <time>2018-08-04T09:22:54Z</time>
      </trkpt>
      <trkpt lat="45.97069" lon="4.85433">
        <ele>281</ele>
        <time>2018-08-04T09:22:55Z</time>
      </trkpt>
      <trkpt lat="45.97072" lon="4.85425">
        <ele>281</ele>
        <time>2018-08-04T09:22:56Z</time>
      </trkpt>
      <trkpt lat="45.97074" lon="4.85416">
        <ele>281</ele>
        <time>2018-08-04T09:22:57Z</time>
      </trkpt>
      <trkpt lat="45.97077" lon="4.85408">
        <ele>281</ele>
        <time>2018-08-04T09:22:58Z</time>
      </trkpt>
      <trkpt lat="45.9708" lon="4.85399">
        <ele>281</ele>
        <time>2018-08-04T09:22:59Z</time>
      </trkpt>
      <trkpt lat="45.97083" lon="4.8539">
        <ele>281</ele>
        <time>2018-08-04T09:23:00Z</time>
      </trkpt>
      <trkpt lat="45.97086" lon="4.85381">
        <ele>280</ele>
        <time>2018-08-04T09:23:01Z</time>
      </trkpt>
      <trkpt lat="45.97089" lon="4.85372">
        <ele>280</ele>
        <time>2018-08-04T09:23:02Z</time>
      </trkpt>
      <trkpt lat="45.97091" lon="4.85361">
        <ele>280</ele>
        <time>2018-08-04T09:23:03Z</time>
      </trkpt>
      <trkpt lat="45.97093" lon="4.85352">
        <ele>280</ele>
        <time>2018-08-04T09:23:04Z</time>
      </trkpt>
      <trkpt lat="45.97096" lon="4.85343">
        <ele>280</ele>
        <time>2018-08-04T09:23:05Z</time>
      </trkpt>
      <trkpt lat="45.97099" lon="4.85334">
        <ele>280</ele>
        <time>2018-08-04T09:23:06Z</time>
      </trkpt>
      <trkpt lat="45.97101" lon="4.85326">
        <ele>280</ele>
        <time>2018-08-04T09:23:07Z</time>
      </trkpt>
      <trkpt lat="45.97104" lon="4.85317">
        <ele>280</ele>
        <time>2018-08-04T09:23:08Z</time>
      </trkpt>
      <trkpt lat="45.97107" lon="4.8531">
        <ele>280</ele>
        <time>2018-08-04T09:23:09Z</time>
      </trkpt>
      <trkpt lat="45.9711" lon="4.85302">
        <ele>280</ele>
        <time>2018-08-04T09:23:10Z</time>
      </trkpt>
      <trkpt lat="45.97114" lon="4.85294">
        <ele>280</ele>
        <time>2018-08-04T09:23:11Z</time>
      </trkpt>
      <trkpt lat="45.97117" lon="4.85286">
        <ele>280</ele>
        <time>2018-08-04T09:23:12Z</time>
      </trkpt>
      <trkpt lat="45.9712" lon="4.8528">
        <ele>280</ele>
        <time>2018-08-04T09:23:13Z</time>
      </trkpt>
      <trkpt lat="45.97122" lon="4.85274">
        <ele>280</ele>
        <time>2018-08-04T09:23:14Z</time>
      </trkpt>
      <trkpt lat="45.97125" lon="4.85267">
        <ele>280</ele>
        <time>2018-08-04T09:23:15Z</time>
      </trkpt>
      <trkpt lat="45.97128" lon="4.85261">
        <ele>279</ele>
        <time>2018-08-04T09:23:16Z</time>
      </trkpt>
      <trkpt lat="45.97132" lon="4.85254">
        <ele>279</ele>
        <time>2018-08-04T09:23:17Z</time>
      </trkpt>
      <trkpt lat="45.97136" lon="4.85247">
        <ele>279</ele>
        <time>2018-08-04T09:23:18Z</time>
      </trkpt>
      <trkpt lat="45.97139" lon="4.8524">
        <ele>279</ele>
        <time>2018-08-04T09:23:19Z</time>
      </trkpt>
      <trkpt lat="45.97143" lon="4.85233">
        <ele>279</ele>
        <time>2018-08-04T09:23:20Z</time>
      </trkpt>
      <trkpt lat="45.97147" lon="4.85225">
        <ele>279</ele>
        <time>2018-08-04T09:23:21Z</time>
      </trkpt>
      <trkpt lat="45.97151" lon="4.85219">
        <ele>279</ele>
        <time>2018-08-04T09:23:22Z</time>
      </trkpt>
      <trkpt lat="45.97155" lon="4.85211">
        <ele>279</ele>
        <time>2018-08-04T09:23:23Z</time>
      </trkpt>
      <trkpt lat="45.97158" lon="4.85204">
        <ele>279</ele>
        <time>2018-08-04T09:23:24Z</time>
      </trkpt>
      <trkpt lat="45.97161" lon="4.85197">
        <ele>279</ele>
        <time>2018-08-04T09:23:25Z</time>
      </trkpt>
      <trkpt lat="45.97165" lon="4.8519">
        <ele>279</ele>
        <time>2018-08-04T09:23:26Z</time>
      </trkpt>
      <trkpt lat="45.97168" lon="4.85184">
        <ele>278</ele>
        <time>2018-08-04T09:23:27Z</time>
      </trkpt>
      <trkpt lat="45.97171" lon="4.85178">
        <ele>278</ele>
        <time>2018-08-04T09:23:28Z</time>
      </trkpt>
      <trkpt lat="45.97173" lon="4.85172">
        <ele>278</ele>
        <time>2018-08-04T09:23:29Z</time>
      </trkpt>
      <trkpt lat="45.97176" lon="4.85165">
        <ele>278</ele>
        <time>2018-08-04T09:23:30Z</time>
      </trkpt>
      <trkpt lat="45.97179" lon="4.85161">
        <ele>278</ele>
        <time>2018-08-04T09:23:31Z</time>
      </trkpt>
      <trkpt lat="45.97182" lon="4.85155">
        <ele>278</ele>
        <time>2018-08-04T09:23:32Z</time>
      </trkpt>
      <trkpt lat="45.97184" lon="4.85147">
        <ele>278</ele>
        <time>2018-08-04T09:23:33Z</time>
      </trkpt>
      <trkpt lat="45.97189" lon="4.85142">
        <ele>278</ele>
        <time>2018-08-04T09:23:34Z</time>
      </trkpt>
      <trkpt lat="45.97193" lon="4.85138">
        <ele>278</ele>
        <time>2018-08-04T09:23:35Z</time>
      </trkpt>
      <trkpt lat="45.97197" lon="4.85132">
        <ele>278</ele>
        <time>2018-08-04T09:23:36Z</time>
      </trkpt>
      <trkpt lat="45.97199" lon="4.85126">
        <ele>278</ele>
        <time>2018-08-04T09:23:37Z</time>
      </trkpt>
      <trkpt lat="45.97202" lon="4.85117">
        <ele>278</ele>
        <time>2018-08-04T09:23:38Z</time>
      </trkpt>
      <trkpt lat="45.97206" lon="4.85111">
        <ele>278</ele>
        <time>2018-08-04T09:23:39Z</time>
      </trkpt>
      <trkpt lat="45.97209" lon="4.85104">
        <ele>278</ele>
        <time>2018-08-04T09:23:40Z</time>
      </trkpt>
      <trkpt lat="45.97211" lon="4.85097">
        <ele>278</ele>
        <time>2018-08-04T09:23:41Z</time>
      </trkpt>
      <trkpt lat="45.97215" lon="4.8509">
        <ele>278</ele>
        <time>2018-08-04T09:23:42Z</time>
      </trkpt>
      <trkpt lat="45.97219" lon="4.85084">
        <ele>278</ele>
        <time>2018-08-04T09:23:43Z</time>
      </trkpt>
      <trkpt lat="45.97223" lon="4.85077">
        <ele>278</ele>
        <time>2018-08-04T09:23:44Z</time>
      </trkpt>
      <trkpt lat="45.97226" lon="4.85071">
        <ele>278</ele>
        <time>2018-08-04T09:23:45Z</time>
      </trkpt>
      <trkpt lat="45.97229" lon="4.85063">
        <ele>278</ele>
        <time>2018-08-04T09:23:46Z</time>
      </trkpt>
      <trkpt lat="45.97231" lon="4.85056">
        <ele>279</ele>
        <time>2018-08-04T09:23:47Z</time>
      </trkpt>
      <trkpt lat="45.97235" lon="4.8505">
        <ele>279</ele>
        <time>2018-08-04T09:23:48Z</time>
      </trkpt>
      <trkpt lat="45.97238" lon="4.85043">
        <ele>279</ele>
        <time>2018-08-04T09:23:49Z</time>
      </trkpt>
      <trkpt lat="45.97242" lon="4.85036">
        <ele>279</ele>
        <time>2018-08-04T09:23:50Z</time>
      </trkpt>
      <trkpt lat="45.97244" lon="4.8503">
        <ele>279</ele>
        <time>2018-08-04T09:23:51Z</time>
      </trkpt>
      <trkpt lat="45.97248" lon="4.85023">
        <ele>279</ele>
        <time>2018-08-04T09:23:52Z</time>
      </trkpt>
      <trkpt lat="45.97252" lon="4.85016">
        <ele>279</ele>
        <time>2018-08-04T09:23:53Z</time>
      </trkpt>
      <trkpt lat="45.97255" lon="4.85009">
        <ele>279</ele>
        <time>2018-08-04T09:23:54Z</time>
      </trkpt>
      <trkpt lat="45.97258" lon="4.85002">
        <ele>279</ele>
        <time>2018-08-04T09:23:55Z</time>
      </trkpt>
      <trkpt lat="45.97261" lon="4.84996">
        <ele>279</ele>
        <time>2018-08-04T09:23:56Z</time>
      </trkpt>
      <trkpt lat="45.97265" lon="4.84987">
        <ele>279</ele>
        <time>2018-08-04T09:23:57Z</time>
      </trkpt>
      <trkpt lat="45.97268" lon="4.8498">
        <ele>279</ele>
        <time>2018-08-04T09:23:58Z</time>
      </trkpt>
      <trkpt lat="45.97271" lon="4.84974">
        <ele>278</ele>
        <time>2018-08-04T09:23:59Z</time>
      </trkpt>
      <trkpt lat="45.97274" lon="4.84969">
        <ele>278</ele>
        <time>2018-08-04T09:24:00Z</time>
      </trkpt>
      <trkpt lat="45.97278" lon="4.84962">
        <ele>278</ele>
        <time>2018-08-04T09:24:01Z</time>
      </trkpt>
      <trkpt lat="45.9728" lon="4.84958">
        <ele>278</ele>
        <time>2018-08-04T09:24:02Z</time>
      </trkpt>
      <trkpt lat="45.97283" lon="4.84951">
        <ele>278</ele>
        <time>2018-08-04T09:24:03Z</time>
      </trkpt>
      <trkpt lat="45.97286" lon="4.84947">
        <ele>278</ele>
        <time>2018-08-04T09:24:04Z</time>
      </trkpt>
      <trkpt lat="45.97291" lon="4.84936">
        <ele>278</ele>
        <time>2018-08-04T09:24:06Z</time>
      </trkpt>
      <trkpt lat="45.97294" lon="4.84931">
        <ele>278</ele>
        <time>2018-08-04T09:24:07Z</time>
      </trkpt>
      <trkpt lat="45.97299" lon="4.84923">
        <ele>278</ele>
        <time>2018-08-04T09:24:08Z</time>
      </trkpt>
      <trkpt lat="45.97303" lon="4.84918">
        <ele>278</ele>
        <time>2018-08-04T09:24:09Z</time>
      </trkpt>
      <trkpt lat="45.97306" lon="4.84912">
        <ele>278</ele>
        <time>2018-08-04T09:24:10Z</time>
      </trkpt>
      <trkpt lat="45.9731" lon="4.84905">
        <ele>278</ele>
        <time>2018-08-04T09:24:11Z</time>
      </trkpt>
      <trkpt lat="45.97313" lon="4.84899">
        <ele>278</ele>
        <time>2018-08-04T09:24:12Z</time>
      </trkpt>
      <trkpt lat="45.97317" lon="4.84891">
        <ele>278</ele>
        <time>2018-08-04T09:24:13Z</time>
      </trkpt>
      <trkpt lat="45.97321" lon="4.84885">
        <ele>278</ele>
        <time>2018-08-04T09:24:14Z</time>
      </trkpt>
      <trkpt lat="45.97325" lon="4.84879">
        <ele>278</ele>
        <time>2018-08-04T09:24:15Z</time>
      </trkpt>
      <trkpt lat="45.97329" lon="4.84872">
        <ele>278</ele>
        <time>2018-08-04T09:24:16Z</time>
      </trkpt>
      <trkpt lat="45.97331" lon="4.84868">
        <ele>278</ele>
        <time>2018-08-04T09:24:17Z</time>
      </trkpt>
      <trkpt lat="45.97334" lon="4.84862">
        <ele>277</ele>
        <time>2018-08-04T09:24:18Z</time>
      </trkpt>
      <trkpt lat="45.97337" lon="4.84857">
        <ele>277</ele>
        <time>2018-08-04T09:24:19Z</time>
      </trkpt>
      <trkpt lat="45.9734" lon="4.84851">
        <ele>277</ele>
        <time>2018-08-04T09:24:20Z</time>
      </trkpt>
      <trkpt lat="45.97343" lon="4.84845">
        <ele>277</ele>
        <time>2018-08-04T09:24:21Z</time>
      </trkpt>
      <trkpt lat="45.97346" lon="4.84837">
        <ele>277</ele>
        <time>2018-08-04T09:24:22Z</time>
      </trkpt>
      <trkpt lat="45.97348" lon="4.84832">
        <ele>278</ele>
        <time>2018-08-04T09:24:23Z</time>
      </trkpt>
      <trkpt lat="45.97351" lon="4.84826">
        <ele>278</ele>
        <time>2018-08-04T09:24:24Z</time>
      </trkpt>
      <trkpt lat="45.97352" lon="4.84818">
        <ele>278</ele>
        <time>2018-08-04T09:24:25Z</time>
      </trkpt>
      <trkpt lat="45.97354" lon="4.84811">
        <ele>278</ele>
        <time>2018-08-04T09:24:26Z</time>
      </trkpt>
      <trkpt lat="45.97356" lon="4.84804">
        <ele>278</ele>
        <time>2018-08-04T09:24:27Z</time>
      </trkpt>
      <trkpt lat="45.97358" lon="4.84797">
        <ele>278</ele>
        <time>2018-08-04T09:24:28Z</time>
      </trkpt>
      <trkpt lat="45.9736" lon="4.8479">
        <ele>278</ele>
        <time>2018-08-04T09:24:29Z</time>
      </trkpt>
      <trkpt lat="45.97362" lon="4.84783">
        <ele>278</ele>
        <time>2018-08-04T09:24:30Z</time>
      </trkpt>
      <trkpt lat="45.97364" lon="4.84777">
        <ele>278</ele>
        <time>2018-08-04T09:24:31Z</time>
      </trkpt>
      <trkpt lat="45.97367" lon="4.84771">
        <ele>278</ele>
        <time>2018-08-04T09:24:32Z</time>
      </trkpt>
      <trkpt lat="45.97369" lon="4.84765">
        <ele>278</ele>
        <time>2018-08-04T09:24:33Z</time>
      </trkpt>
      <trkpt lat="45.97371" lon="4.84758">
        <ele>278</ele>
        <time>2018-08-04T09:24:34Z</time>
      </trkpt>
      <trkpt lat="45.97374" lon="4.84752">
        <ele>278</ele>
        <time>2018-08-04T09:24:35Z</time>
      </trkpt>
      <trkpt lat="45.97377" lon="4.84746">
        <ele>278</ele>
        <time>2018-08-04T09:24:36Z</time>
      </trkpt>
      <trkpt lat="45.9738" lon="4.8474">
        <ele>278</ele>
        <time>2018-08-04T09:24:37Z</time>
      </trkpt>
      <trkpt lat="45.97381" lon="4.84733">
        <ele>278</ele>
        <time>2018-08-04T09:24:38Z</time>
      </trkpt>
      <trkpt lat="45.97384" lon="4.84725">
        <ele>278</ele>
        <time>2018-08-04T09:24:39Z</time>
      </trkpt>
      <trkpt lat="45.97386" lon="4.84719">
        <ele>278</ele>
        <time>2018-08-04T09:24:40Z</time>
      </trkpt>
      <trkpt lat="45.97388" lon="4.8471">
        <ele>278</ele>
        <time>2018-08-04T09:24:41Z</time>
      </trkpt>
      <trkpt lat="45.97391" lon="4.84704">
        <ele>278</ele>
        <time>2018-08-04T09:24:42Z</time>
      </trkpt>
      <trkpt lat="45.97394" lon="4.84697">
        <ele>278</ele>
        <time>2018-08-04T09:24:43Z</time>
      </trkpt>
      <trkpt lat="45.97395" lon="4.8469">
        <ele>278</ele>
        <time>2018-08-04T09:24:44Z</time>
      </trkpt>
      <trkpt lat="45.97398" lon="4.84682">
        <ele>278</ele>
        <time>2018-08-04T09:24:45Z</time>
      </trkpt>
      <trkpt lat="45.974" lon="4.84675">
        <ele>278</ele>
        <time>2018-08-04T09:24:46Z</time>
      </trkpt>
      <trkpt lat="45.97403" lon="4.84667">
        <ele>277</ele>
        <time>2018-08-04T09:24:47Z</time>
      </trkpt>
      <trkpt lat="45.97404" lon="4.84659">
        <ele>277</ele>
        <time>2018-08-04T09:24:48Z</time>
      </trkpt>
      <trkpt lat="45.97406" lon="4.84652">
        <ele>278</ele>
        <time>2018-08-04T09:24:49Z</time>
      </trkpt>
      <trkpt lat="45.97408" lon="4.84646">
        <ele>278</ele>
        <time>2018-08-04T09:24:50Z</time>
      </trkpt>
      <trkpt lat="45.9741" lon="4.84638">
        <ele>278</ele>
        <time>2018-08-04T09:24:51Z</time>
      </trkpt>
      <trkpt lat="45.97411" lon="4.84631">
        <ele>278</ele>
        <time>2018-08-04T09:24:52Z</time>
      </trkpt>
      <trkpt lat="45.97413" lon="4.84623">
        <ele>278</ele>
        <time>2018-08-04T09:24:53Z</time>
      </trkpt>
      <trkpt lat="45.97414" lon="4.84615">
        <ele>278</ele>
        <time>2018-08-04T09:24:54Z</time>
      </trkpt>
      <trkpt lat="45.97416" lon="4.84608">
        <ele>278</ele>
        <time>2018-08-04T09:24:55Z</time>
      </trkpt>
      <trkpt lat="45.97417" lon="4.846">
        <ele>277</ele>
        <time>2018-08-04T09:24:56Z</time>
      </trkpt>
      <trkpt lat="45.97421" lon="4.84593">
        <ele>277</ele>
        <time>2018-08-04T09:24:57Z</time>
      </trkpt>
      <trkpt lat="45.97422" lon="4.84585">
        <ele>277</ele>
        <time>2018-08-04T09:24:58Z</time>
      </trkpt>
      <trkpt lat="45.97424" lon="4.84578">
        <ele>277</ele>
        <time>2018-08-04T09:24:59Z</time>
      </trkpt>
      <trkpt lat="45.97425" lon="4.84569">
        <ele>277</ele>
        <time>2018-08-04T09:25:00Z</time>
      </trkpt>
      <trkpt lat="45.97426" lon="4.84562">
        <ele>277</ele>
        <time>2018-08-04T09:25:01Z</time>
      </trkpt>
      <trkpt lat="45.97428" lon="4.84554">
        <ele>277</ele>
        <time>2018-08-04T09:25:02Z</time>
      </trkpt>
      <trkpt lat="45.97428" lon="4.84546">
        <ele>277</ele>
        <time>2018-08-04T09:25:03Z</time>
      </trkpt>
      <trkpt lat="45.97429" lon="4.84537">
        <ele>277</ele>
        <time>2018-08-04T09:25:04Z</time>
      </trkpt>
      <trkpt lat="45.9743" lon="4.8453">
        <ele>277</ele>
        <time>2018-08-04T09:25:05Z</time>
      </trkpt>
      <trkpt lat="45.97432" lon="4.84522">
        <ele>277</ele>
        <time>2018-08-04T09:25:06Z</time>
      </trkpt>
      <trkpt lat="45.97434" lon="4.84513">
        <ele>277</ele>
        <time>2018-08-04T09:25:07Z</time>
      </trkpt>
      <trkpt lat="45.97434" lon="4.84505">
        <ele>277</ele>
        <time>2018-08-04T09:25:08Z</time>
      </trkpt>
      <trkpt lat="45.97435" lon="4.84496">
        <ele>278</ele>
        <time>2018-08-04T09:25:09Z</time>
      </trkpt>
      <trkpt lat="45.97435" lon="4.84488">
        <ele>278</ele>
        <time>2018-08-04T09:25:10Z</time>
      </trkpt>
      <trkpt lat="45.97436" lon="4.8448">
        <ele>277</ele>
        <time>2018-08-04T09:25:11Z</time>
      </trkpt>
      <trkpt lat="45.97437" lon="4.84471">
        <ele>277</ele>
        <time>2018-08-04T09:25:12Z</time>
      </trkpt>
      <trkpt lat="45.97439" lon="4.84462">
        <ele>277</ele>
        <time>2018-08-04T09:25:13Z</time>
      </trkpt>
      <trkpt lat="45.97441" lon="4.84454">
        <ele>278</ele>
        <time>2018-08-04T09:25:14Z</time>
      </trkpt>
      <trkpt lat="45.97442" lon="4.84447">
        <ele>278</ele>
        <time>2018-08-04T09:25:15Z</time>
      </trkpt>
      <trkpt lat="45.97441" lon="4.84438">
        <ele>278</ele>
        <time>2018-08-04T09:25:16Z</time>
      </trkpt>
      <trkpt lat="45.97442" lon="4.84429">
        <ele>278</ele>
        <time>2018-08-04T09:25:17Z</time>
      </trkpt>
      <trkpt lat="45.97442" lon="4.84421">
        <ele>278</ele>
        <time>2018-08-04T09:25:18Z</time>
      </trkpt>
      <trkpt lat="45.97443" lon="4.84412">
        <ele>278</ele>
        <time>2018-08-04T09:25:19Z</time>
      </trkpt>
      <trkpt lat="45.97445" lon="4.84404">
        <ele>278</ele>
        <time>2018-08-04T09:25:20Z</time>
      </trkpt>
      <trkpt lat="45.97446" lon="4.84395">
        <ele>278</ele>
        <time>2018-08-04T09:25:21Z</time>
      </trkpt>
      <trkpt lat="45.97448" lon="4.84384">
        <ele>278</ele>
        <time>2018-08-04T09:25:23Z</time>
      </trkpt>
      <trkpt lat="45.97449" lon="4.84377">
        <ele>278</ele>
        <time>2018-08-04T09:25:24Z</time>
      </trkpt>
      <trkpt lat="45.9745" lon="4.84369">
        <ele>278</ele>
        <time>2018-08-04T09:25:25Z</time>
      </trkpt>
      <trkpt lat="45.9745" lon="4.84362">
        <ele>278</ele>
        <time>2018-08-04T09:25:26Z</time>
      </trkpt>
      <trkpt lat="45.9745" lon="4.84355">
        <ele>277</ele>
        <time>2018-08-04T09:25:27Z</time>
      </trkpt>
      <trkpt lat="45.97452" lon="4.84349">
        <ele>277</ele>
        <time>2018-08-04T09:25:28Z</time>
      </trkpt>
      <trkpt lat="45.97453" lon="4.84342">
        <ele>277</ele>
        <time>2018-08-04T09:25:29Z</time>
      </trkpt>
      <trkpt lat="45.97454" lon="4.84335">
        <ele>277</ele>
        <time>2018-08-04T09:25:30Z</time>
      </trkpt>
      <trkpt lat="45.97455" lon="4.84329">
        <ele>278</ele>
        <time>2018-08-04T09:25:31Z</time>
      </trkpt>
      <trkpt lat="45.97456" lon="4.84322">
        <ele>278</ele>
        <time>2018-08-04T09:25:32Z</time>
      </trkpt>
      <trkpt lat="45.97457" lon="4.84314">
        <ele>278</ele>
        <time>2018-08-04T09:25:33Z</time>
      </trkpt>
      <trkpt lat="45.97456" lon="4.84307">
        <ele>278</ele>
        <time>2018-08-04T09:25:34Z</time>
      </trkpt>
      <trkpt lat="45.97457" lon="4.84299">
        <ele>278</ele>
        <time>2018-08-04T09:25:35Z</time>
      </trkpt>
      <trkpt lat="45.97459" lon="4.84292">
        <ele>278</ele>
        <time>2018-08-04T09:25:36Z</time>
      </trkpt>
      <trkpt lat="45.97459" lon="4.84285">
        <ele>278</ele>
        <time>2018-08-04T09:25:37Z</time>
      </trkpt>
      <trkpt lat="45.97459" lon="4.84277">
        <ele>278</ele>
        <time>2018-08-04T09:25:38Z</time>
      </trkpt>
      <trkpt lat="45.9746" lon="4.84269">
        <ele>278</ele>
        <time>2018-08-04T09:25:39Z</time>
      </trkpt>
      <trkpt lat="45.97461" lon="4.84263">
        <ele>278</ele>
        <time>2018-08-04T09:25:40Z</time>
      </trkpt>
      <trkpt lat="45.97463" lon="4.84256">
        <ele>278</ele>
        <time>2018-08-04T09:25:41Z</time>
      </trkpt>
      <trkpt lat="45.97465" lon="4.8425">
        <ele>279</ele>
        <time>2018-08-04T09:25:42Z</time>
      </trkpt>
      <trkpt lat="45.97467" lon="4.84243">
        <ele>279</ele>
        <time>2018-08-04T09:25:43Z</time>
      </trkpt>
      <trkpt lat="45.97468" lon="4.84235">
        <ele>279</ele>
        <time>2018-08-04T09:25:44Z</time>
      </trkpt>
      <trkpt lat="45.97469" lon="4.84225">
        <ele>279</ele>
        <time>2018-08-04T09:25:45Z</time>
      </trkpt>
      <trkpt lat="45.97471" lon="4.84217">
        <ele>279</ele>
        <time>2018-08-04T09:25:46Z</time>
      </trkpt>
      <trkpt lat="45.97472" lon="4.84209">
        <ele>279</ele>
        <time>2018-08-04T09:25:47Z</time>
      </trkpt>
      <trkpt lat="45.97472" lon="4.84202">
        <ele>279</ele>
        <time>2018-08-04T09:25:48Z</time>
      </trkpt>
      <trkpt lat="45.97473" lon="4.84194">
        <ele>279</ele>
        <time>2018-08-04T09:25:49Z</time>
      </trkpt>
      <trkpt lat="45.97474" lon="4.84186">
        <ele>279</ele>
        <time>2018-08-04T09:25:50Z</time>
      </trkpt>
      <trkpt lat="45.97475" lon="4.84178">
        <ele>279</ele>
        <time>2018-08-04T09:25:51Z</time>
      </trkpt>
      <trkpt lat="45.97477" lon="4.84171">
        <ele>279</ele>
        <time>2018-08-04T09:25:52Z</time>
      </trkpt>
      <trkpt lat="45.97478" lon="4.84162">
        <ele>279</ele>
        <time>2018-08-04T09:25:53Z</time>
      </trkpt>
      <trkpt lat="45.97479" lon="4.84154">
        <ele>279</ele>
        <time>2018-08-04T09:25:54Z</time>
      </trkpt>
      <trkpt lat="45.9748" lon="4.84146">
        <ele>279</ele>
        <time>2018-08-04T09:25:55Z</time>
      </trkpt>
      <trkpt lat="45.97481" lon="4.84138">
        <ele>279</ele>
        <time>2018-08-04T09:25:56Z</time>
      </trkpt>
      <trkpt lat="45.97483" lon="4.8413">
        <ele>279</ele>
        <time>2018-08-04T09:25:57Z</time>
      </trkpt>
      <trkpt lat="45.97485" lon="4.84122">
        <ele>279</ele>
        <time>2018-08-04T09:25:58Z</time>
      </trkpt>
      <trkpt lat="45.97487" lon="4.84114">
        <ele>279</ele>
        <time>2018-08-04T09:25:59Z</time>
      </trkpt>
      <trkpt lat="45.97488" lon="4.84106">
        <ele>279</ele>
        <time>2018-08-04T09:26:00Z</time>
      </trkpt>
      <trkpt lat="45.9749" lon="4.84098">
        <ele>279</ele>
        <time>2018-08-04T09:26:01Z</time>
      </trkpt>
      <trkpt lat="45.97492" lon="4.8409">
        <ele>278</ele>
        <time>2018-08-04T09:26:02Z</time>
      </trkpt>
      <trkpt lat="45.97494" lon="4.84081">
        <ele>278</ele>
        <time>2018-08-04T09:26:03Z</time>
      </trkpt>
      <trkpt lat="45.97494" lon="4.84071">
        <ele>278</ele>
        <time>2018-08-04T09:26:04Z</time>
      </trkpt>
      <trkpt lat="45.97496" lon="4.84064">
        <ele>278</ele>
        <time>2018-08-04T09:26:05Z</time>
      </trkpt>
      <trkpt lat="45.97497" lon="4.84056">
        <ele>278</ele>
        <time>2018-08-04T09:26:06Z</time>
      </trkpt>
      <trkpt lat="45.97499" lon="4.84049">
        <ele>278</ele>
        <time>2018-08-04T09:26:07Z</time>
      </trkpt>
      <trkpt lat="45.97501" lon="4.84042">
        <ele>277</ele>
        <time>2018-08-04T09:26:08Z</time>
      </trkpt>
      <trkpt lat="45.97502" lon="4.84035">
        <ele>277</ele>
        <time>2018-08-04T09:26:09Z</time>
      </trkpt>
      <trkpt lat="45.97504" lon="4.8403">
        <ele>277</ele>
        <time>2018-08-04T09:26:10Z</time>
      </trkpt>
      <trkpt lat="45.97506" lon="4.84022">
        <ele>277</ele>
        <time>2018-08-04T09:26:11Z</time>
      </trkpt>
      <trkpt lat="45.97507" lon="4.84015">
        <ele>277</ele>
        <time>2018-08-04T09:26:12Z</time>
      </trkpt>
      <trkpt lat="45.97508" lon="4.84008">
        <ele>277</ele>
        <time>2018-08-04T09:26:13Z</time>
      </trkpt>
      <trkpt lat="45.97509" lon="4.83998">
        <ele>277</ele>
        <time>2018-08-04T09:26:14Z</time>
      </trkpt>
      <trkpt lat="45.97511" lon="4.83991">
        <ele>277</ele>
        <time>2018-08-04T09:26:15Z</time>
      </trkpt>
      <trkpt lat="45.97512" lon="4.83983">
        <ele>277</ele>
        <time>2018-08-04T09:26:16Z</time>
      </trkpt>
      <trkpt lat="45.97513" lon="4.83976">
        <ele>277</ele>
        <time>2018-08-04T09:26:17Z</time>
      </trkpt>
      <trkpt lat="45.97515" lon="4.83968">
        <ele>277</ele>
        <time>2018-08-04T09:26:18Z</time>
      </trkpt>
      <trkpt lat="45.97516" lon="4.83959">
        <ele>277</ele>
        <time>2018-08-04T09:26:19Z</time>
      </trkpt>
      <trkpt lat="45.97519" lon="4.83949">
        <ele>277</ele>
        <time>2018-08-04T09:26:20Z</time>
      </trkpt>
      <trkpt lat="45.9752" lon="4.83942">
        <ele>277</ele>
        <time>2018-08-04T09:26:21Z</time>
      </trkpt>
      <trkpt lat="45.97522" lon="4.83936">
        <ele>277</ele>
        <time>2018-08-04T09:26:22Z</time>
      </trkpt>
      <trkpt lat="45.97524" lon="4.83928">
        <ele>277</ele>
        <time>2018-08-04T09:26:23Z</time>
      </trkpt>
      <trkpt lat="45.97527" lon="4.83921">
        <ele>277</ele>
        <time>2018-08-04T09:26:24Z</time>
      </trkpt>
      <trkpt lat="45.97528" lon="4.83914">
        <ele>277</ele>
        <time>2018-08-04T09:26:25Z</time>
      </trkpt>
      <trkpt lat="45.9753" lon="4.83906">
        <ele>277</ele>
        <time>2018-08-04T09:26:26Z</time>
      </trkpt>
      <trkpt lat="45.97531" lon="4.83899">
        <ele>278</ele>
        <time>2018-08-04T09:26:27Z</time>
      </trkpt>
      <trkpt lat="45.97532" lon="4.83891">
        <ele>278</ele>
        <time>2018-08-04T09:26:28Z</time>
      </trkpt>
      <trkpt lat="45.97534" lon="4.83883">
        <ele>278</ele>
        <time>2018-08-04T09:26:29Z</time>
      </trkpt>
      <trkpt lat="45.97535" lon="4.83875">
        <ele>278</ele>
        <time>2018-08-04T09:26:30Z</time>
      </trkpt>
      <trkpt lat="45.97536" lon="4.83868">
        <ele>278</ele>
        <time>2018-08-04T09:26:31Z</time>
      </trkpt>
      <trkpt lat="45.97537" lon="4.83861">
        <ele>278</ele>
        <time>2018-08-04T09:26:32Z</time>
      </trkpt>
      <trkpt lat="45.97539" lon="4.83855">
        <ele>278</ele>
        <time>2018-08-04T09:26:33Z</time>
      </trkpt>
      <trkpt lat="45.97539" lon="4.83847">
        <ele>278</ele>
        <time>2018-08-04T09:26:34Z</time>
      </trkpt>
      <trkpt lat="45.97541" lon="4.8384">
        <ele>278</ele>
        <time>2018-08-04T09:26:35Z</time>
      </trkpt>
      <trkpt lat="45.97542" lon="4.83833">
        <ele>278</ele>
        <time>2018-08-04T09:26:36Z</time>
      </trkpt>
      <trkpt lat="45.97542" lon="4.83825">
        <ele>278</ele>
        <time>2018-08-04T09:26:37Z</time>
      </trkpt>
      <trkpt lat="45.97541" lon="4.83818">
        <ele>279</ele>
        <time>2018-08-04T09:26:38Z</time>
      </trkpt>
      <trkpt lat="45.97543" lon="4.83807">
        <ele>278</ele>
        <time>2018-08-04T09:26:40Z</time>
      </trkpt>
      <trkpt lat="45.97542" lon="4.83799">
        <ele>279</ele>
        <time>2018-08-04T09:26:41Z</time>
      </trkpt>
      <trkpt lat="45.97544" lon="4.83792">
        <ele>278</ele>
        <time>2018-08-04T09:26:42Z</time>
      </trkpt>
      <trkpt lat="45.97543" lon="4.83785">
        <ele>278</ele>
        <time>2018-08-04T09:26:43Z</time>
      </trkpt>
      <trkpt lat="45.97543" lon="4.83779">
        <ele>278</ele>
        <time>2018-08-04T09:26:44Z</time>
      </trkpt>
      <trkpt lat="45.97543" lon="4.8377">
        <ele>278</ele>
        <time>2018-08-04T09:26:45Z</time>
      </trkpt>
      <trkpt lat="45.97543" lon="4.83763">
        <ele>278</ele>
        <time>2018-08-04T09:26:46Z</time>
      </trkpt>
      <trkpt lat="45.97543" lon="4.83755">
        <ele>278</ele>
        <time>2018-08-04T09:26:47Z</time>
      </trkpt>
      <trkpt lat="45.97542" lon="4.83748">
        <ele>278</ele>
        <time>2018-08-04T09:26:48Z</time>
      </trkpt>
      <trkpt lat="45.97542" lon="4.8374">
        <ele>278</ele>
        <time>2018-08-04T09:26:49Z</time>
      </trkpt>
      <trkpt lat="45.97542" lon="4.83732">
        <ele>278</ele>
        <time>2018-08-04T09:26:50Z</time>
      </trkpt>
      <trkpt lat="45.97542" lon="4.83724">
        <ele>278</ele>
        <time>2018-08-04T09:26:51Z</time>
      </trkpt>
      <trkpt lat="45.97541" lon="4.83717">
        <ele>278</ele>
        <time>2018-08-04T09:26:52Z</time>
      </trkpt>
      <trkpt lat="45.9754" lon="4.83709">
        <ele>278</ele>
        <time>2018-08-04T09:26:53Z</time>
      </trkpt>
      <trkpt lat="45.9754" lon="4.83702">
        <ele>278</ele>
        <time>2018-08-04T09:26:54Z</time>
      </trkpt>
      <trkpt lat="45.9754" lon="4.83694">
        <ele>278</ele>
        <time>2018-08-04T09:26:55Z</time>
      </trkpt>
      <trkpt lat="45.97539" lon="4.83686">
        <ele>278</ele>
        <time>2018-08-04T09:26:56Z</time>
      </trkpt>
      <trkpt lat="45.97537" lon="4.83679">
        <ele>278</ele>
        <time>2018-08-04T09:26:57Z</time>
      </trkpt>
      <trkpt lat="45.97535" lon="4.83673">
        <ele>278</ele>
        <time>2018-08-04T09:26:58Z</time>
      </trkpt>
      <trkpt lat="45.97537" lon="4.83665">
        <ele>277</ele>
        <time>2018-08-04T09:26:59Z</time>
      </trkpt>
      <trkpt lat="45.97531" lon="4.83659">
        <ele>277</ele>
        <time>2018-08-04T09:27:00Z</time>
      </trkpt>
      <trkpt lat="45.97532" lon="4.8365">
        <ele>277</ele>
        <time>2018-08-04T09:27:01Z</time>
      </trkpt>
      <trkpt lat="45.97531" lon="4.83643">
        <ele>277</ele>
        <time>2018-08-04T09:27:02Z</time>
      </trkpt>
      <trkpt lat="45.97533" lon="4.83636">
        <ele>277</ele>
        <time>2018-08-04T09:27:03Z</time>
      </trkpt>
      <trkpt lat="45.97534" lon="4.8363">
        <ele>277</ele>
        <time>2018-08-04T09:27:04Z</time>
      </trkpt>
      <trkpt lat="45.97534" lon="4.83622">
        <ele>277</ele>
        <time>2018-08-04T09:27:05Z</time>
      </trkpt>
      <trkpt lat="45.97536" lon="4.83614">
        <ele>277</ele>
        <time>2018-08-04T09:27:06Z</time>
      </trkpt>
      <trkpt lat="45.97536" lon="4.83605">
        <ele>277</ele>
        <time>2018-08-04T09:27:07Z</time>
      </trkpt>
      <trkpt lat="45.97535" lon="4.83598">
        <ele>277</ele>
        <time>2018-08-04T09:27:08Z</time>
      </trkpt>
      <trkpt lat="45.97536" lon="4.83589">
        <ele>277</ele>
        <time>2018-08-04T09:27:09Z</time>
      </trkpt>
      <trkpt lat="45.97535" lon="4.8358">
        <ele>276</ele>
        <time>2018-08-04T09:27:10Z</time>
      </trkpt>
      <trkpt lat="45.97536" lon="4.83573">
        <ele>276</ele>
        <time>2018-08-04T09:27:11Z</time>
      </trkpt>
      <trkpt lat="45.97536" lon="4.83564">
        <ele>276</ele>
        <time>2018-08-04T09:27:12Z</time>
      </trkpt>
      <trkpt lat="45.97536" lon="4.83556">
        <ele>276</ele>
        <time>2018-08-04T09:27:13Z</time>
      </trkpt>
      <trkpt lat="45.97537" lon="4.83549">
        <ele>276</ele>
        <time>2018-08-04T09:27:14Z</time>
      </trkpt>
      <trkpt lat="45.97537" lon="4.83541">
        <ele>276</ele>
        <time>2018-08-04T09:27:15Z</time>
      </trkpt>
      <trkpt lat="45.97536" lon="4.83533">
        <ele>276</ele>
        <time>2018-08-04T09:27:16Z</time>
      </trkpt>
      <trkpt lat="45.97537" lon="4.83525">
        <ele>276</ele>
        <time>2018-08-04T09:27:17Z</time>
      </trkpt>
      <trkpt lat="45.97538" lon="4.83515">
        <ele>276</ele>
        <time>2018-08-04T09:27:18Z</time>
      </trkpt>
      <trkpt lat="45.97538" lon="4.83507">
        <ele>276</ele>
        <time>2018-08-04T09:27:19Z</time>
      </trkpt>
      <trkpt lat="45.97538" lon="4.835">
        <ele>276</ele>
        <time>2018-08-04T09:27:20Z</time>
      </trkpt>
      <trkpt lat="45.97538" lon="4.83491">
        <ele>276</ele>
        <time>2018-08-04T09:27:21Z</time>
      </trkpt>
      <trkpt lat="45.97538" lon="4.83484">
        <ele>276</ele>
        <time>2018-08-04T09:27:22Z</time>
      </trkpt>
      <trkpt lat="45.97539" lon="4.83477">
        <ele>276</ele>
        <time>2018-08-04T09:27:23Z</time>
      </trkpt>
      <trkpt lat="45.97539" lon="4.83469">
        <ele>276</ele>
        <time>2018-08-04T09:27:24Z</time>
      </trkpt>
      <trkpt lat="45.9754" lon="4.83461">
        <ele>276</ele>
        <time>2018-08-04T09:27:25Z</time>
      </trkpt>
      <trkpt lat="45.97541" lon="4.83455">
        <ele>276</ele>
        <time>2018-08-04T09:27:26Z</time>
      </trkpt>
      <trkpt lat="45.97541" lon="4.83447">
        <ele>276</ele>
        <time>2018-08-04T09:27:27Z</time>
      </trkpt>
      <trkpt lat="45.97542" lon="4.83437">
        <ele>276</ele>
        <time>2018-08-04T09:27:28Z</time>
      </trkpt>
      <trkpt lat="45.9754" lon="4.83428">
        <ele>276</ele>
        <time>2018-08-04T09:27:29Z</time>
      </trkpt>
      <trkpt lat="45.97543" lon="4.83422">
        <ele>276</ele>
        <time>2018-08-04T09:27:30Z</time>
      </trkpt>
      <trkpt lat="45.97543" lon="4.83414">
        <ele>276</ele>
        <time>2018-08-04T09:27:31Z</time>
      </trkpt>
      <trkpt lat="45.97543" lon="4.83407">
        <ele>276</ele>
        <time>2018-08-04T09:27:32Z</time>
      </trkpt>
      <trkpt lat="45.97543" lon="4.83399">
        <ele>276</ele>
        <time>2018-08-04T09:27:33Z</time>
      </trkpt>
      <trkpt lat="45.97542" lon="4.83392">
        <ele>276</ele>
        <time>2018-08-04T09:27:34Z</time>
      </trkpt>
      <trkpt lat="45.97542" lon="4.83385">
        <ele>277</ele>
        <time>2018-08-04T09:27:35Z</time>
      </trkpt>
      <trkpt lat="45.97542" lon="4.83378">
        <ele>276</ele>
        <time>2018-08-04T09:27:36Z</time>
      </trkpt>
      <trkpt lat="45.97543" lon="4.83372">
        <ele>276</ele>
        <time>2018-08-04T09:27:37Z</time>
      </trkpt>
      <trkpt lat="45.97544" lon="4.83365">
        <ele>276</ele>
        <time>2018-08-04T09:27:38Z</time>
      </trkpt>
      <trkpt lat="45.97543" lon="4.83357">
        <ele>276</ele>
        <time>2018-08-04T09:27:39Z</time>
      </trkpt>
      <trkpt lat="45.97543" lon="4.83348">
        <ele>276</ele>
        <time>2018-08-04T09:27:40Z</time>
      </trkpt>
      <trkpt lat="45.97543" lon="4.8334">
        <ele>276</ele>
        <time>2018-08-04T09:27:41Z</time>
      </trkpt>
      <trkpt lat="45.97541" lon="4.83331">
        <ele>276</ele>
        <time>2018-08-04T09:27:42Z</time>
      </trkpt>
      <trkpt lat="45.9754" lon="4.83324">
        <ele>276</ele>
        <time>2018-08-04T09:27:43Z</time>
      </trkpt>
      <trkpt lat="45.9754" lon="4.83315">
        <ele>276</ele>
        <time>2018-08-04T09:27:44Z</time>
      </trkpt>
      <trkpt lat="45.97541" lon="4.83306">
        <ele>276</ele>
        <time>2018-08-04T09:27:45Z</time>
      </trkpt>
      <trkpt lat="45.97541" lon="4.83297">
        <ele>276</ele>
        <time>2018-08-04T09:27:46Z</time>
      </trkpt>
      <trkpt lat="45.97543" lon="4.83288">
        <ele>276</ele>
        <time>2018-08-04T09:27:47Z</time>
      </trkpt>
      <trkpt lat="45.97539" lon="4.83278">
        <ele>276</ele>
        <time>2018-08-04T09:27:48Z</time>
      </trkpt>
      <trkpt lat="45.97538" lon="4.8327">
        <ele>276</ele>
        <time>2018-08-04T09:27:49Z</time>
      </trkpt>
      <trkpt lat="45.97537" lon="4.83262">
        <ele>276</ele>
        <time>2018-08-04T09:27:50Z</time>
      </trkpt>
      <trkpt lat="45.97535" lon="4.83252">
        <ele>276</ele>
        <time>2018-08-04T09:27:51Z</time>
      </trkpt>
      <trkpt lat="45.97533" lon="4.83243">
        <ele>275</ele>
        <time>2018-08-04T09:27:52Z</time>
      </trkpt>
      <trkpt lat="45.97528" lon="4.83233">
        <ele>275</ele>
        <time>2018-08-04T09:27:53Z</time>
      </trkpt>
      <trkpt lat="45.97526" lon="4.83224">
        <ele>275</ele>
        <time>2018-08-04T09:27:54Z</time>
      </trkpt>
      <trkpt lat="45.97523" lon="4.83215">
        <ele>275</ele>
        <time>2018-08-04T09:27:55Z</time>
      </trkpt>
      <trkpt lat="45.97519" lon="4.83207">
        <ele>275</ele>
        <time>2018-08-04T09:27:56Z</time>
      </trkpt>
      <trkpt lat="45.97516" lon="4.83198">
        <ele>275</ele>
        <time>2018-08-04T09:27:57Z</time>
      </trkpt>
      <trkpt lat="45.97513" lon="4.8319">
        <ele>275</ele>
        <time>2018-08-04T09:27:58Z</time>
      </trkpt>
      <trkpt lat="45.97509" lon="4.83181">
        <ele>275</ele>
        <time>2018-08-04T09:27:59Z</time>
      </trkpt>
      <trkpt lat="45.97506" lon="4.83172">
        <ele>274</ele>
        <time>2018-08-04T09:28:00Z</time>
      </trkpt>
      <trkpt lat="45.97503" lon="4.83164">
        <ele>274</ele>
        <time>2018-08-04T09:28:01Z</time>
      </trkpt>
      <trkpt lat="45.97499" lon="4.83155">
        <ele>273</ele>
        <time>2018-08-04T09:28:02Z</time>
      </trkpt>
      <trkpt lat="45.97497" lon="4.83147">
        <ele>273</ele>
        <time>2018-08-04T09:28:03Z</time>
      </trkpt>
      <trkpt lat="45.97495" lon="4.83138">
        <ele>273</ele>
        <time>2018-08-04T09:28:04Z</time>
      </trkpt>
      <trkpt lat="45.97491" lon="4.83128">
        <ele>273</ele>
        <time>2018-08-04T09:28:05Z</time>
      </trkpt>
      <trkpt lat="45.97488" lon="4.83118">
        <ele>273</ele>
        <time>2018-08-04T09:28:06Z</time>
      </trkpt>
      <trkpt lat="45.97485" lon="4.83109">
        <ele>272</ele>
        <time>2018-08-04T09:28:07Z</time>
      </trkpt>
      <trkpt lat="45.97484" lon="4.831">
        <ele>272</ele>
        <time>2018-08-04T09:28:08Z</time>
      </trkpt>
      <trkpt lat="45.97482" lon="4.8309">
        <ele>272</ele>
        <time>2018-08-04T09:28:09Z</time>
      </trkpt>
      <trkpt lat="45.97479" lon="4.8308">
        <ele>271</ele>
        <time>2018-08-04T09:28:10Z</time>
      </trkpt>
      <trkpt lat="45.97476" lon="4.83069">
        <ele>271</ele>
        <time>2018-08-04T09:28:11Z</time>
      </trkpt>
      <trkpt lat="45.97472" lon="4.83059">
        <ele>271</ele>
        <time>2018-08-04T09:28:12Z</time>
      </trkpt>
      <trkpt lat="45.97469" lon="4.83049">
        <ele>271</ele>
        <time>2018-08-04T09:28:13Z</time>
      </trkpt>
      <trkpt lat="45.97466" lon="4.83037">
        <ele>271</ele>
        <time>2018-08-04T09:28:14Z</time>
      </trkpt>
      <trkpt lat="45.97463" lon="4.83027">
        <ele>270</ele>
        <time>2018-08-04T09:28:15Z</time>
      </trkpt>
      <trkpt lat="45.9746" lon="4.83016">
        <ele>270</ele>
        <time>2018-08-04T09:28:16Z</time>
      </trkpt>
      <trkpt lat="45.97458" lon="4.83005">
        <ele>270</ele>
        <time>2018-08-04T09:28:17Z</time>
      </trkpt>
      <trkpt lat="45.97456" lon="4.82995">
        <ele>269</ele>
        <time>2018-08-04T09:28:18Z</time>
      </trkpt>
      <trkpt lat="45.97453" lon="4.82984">
        <ele>269</ele>
        <time>2018-08-04T09:28:19Z</time>
      </trkpt>
      <trkpt lat="45.97449" lon="4.82973">
        <ele>269</ele>
        <time>2018-08-04T09:28:20Z</time>
      </trkpt>
      <trkpt lat="45.97447" lon="4.82962">
        <ele>269</ele>
        <time>2018-08-04T09:28:21Z</time>
      </trkpt>
      <trkpt lat="45.97445" lon="4.82951">
        <ele>269</ele>
        <time>2018-08-04T09:28:22Z</time>
      </trkpt>
      <trkpt lat="45.97443" lon="4.82939">
        <ele>269</ele>
        <time>2018-08-04T09:28:23Z</time>
      </trkpt>
      <trkpt lat="45.97444" lon="4.82929">
        <ele>268</ele>
        <time>2018-08-04T09:28:24Z</time>
      </trkpt>
      <trkpt lat="45.97441" lon="4.82917">
        <ele>267</ele>
        <time>2018-08-04T09:28:25Z</time>
      </trkpt>
      <trkpt lat="45.97439" lon="4.82905">
        <ele>267</ele>
        <time>2018-08-04T09:28:26Z</time>
      </trkpt>
      <trkpt lat="45.97438" lon="4.82893">
        <ele>267</ele>
        <time>2018-08-04T09:28:27Z</time>
      </trkpt>
      <trkpt lat="45.97435" lon="4.82881">
        <ele>267</ele>
        <time>2018-08-04T09:28:28Z</time>
      </trkpt>
      <trkpt lat="45.97433" lon="4.82867">
        <ele>267</ele>
        <time>2018-08-04T09:28:29Z</time>
      </trkpt>
      <trkpt lat="45.97431" lon="4.82856">
        <ele>267</ele>
        <time>2018-08-04T09:28:30Z</time>
      </trkpt>
      <trkpt lat="45.97429" lon="4.82844">
        <ele>267</ele>
        <time>2018-08-04T09:28:31Z</time>
      </trkpt>
      <trkpt lat="45.97427" lon="4.82831">
        <ele>266</ele>
        <time>2018-08-04T09:28:32Z</time>
      </trkpt>
      <trkpt lat="45.97426" lon="4.82818">
        <ele>266</ele>
        <time>2018-08-04T09:28:33Z</time>
      </trkpt>
      <trkpt lat="45.97423" lon="4.82807">
        <ele>265</ele>
        <time>2018-08-04T09:28:34Z</time>
      </trkpt>
      <trkpt lat="45.97419" lon="4.82795">
        <ele>265</ele>
        <time>2018-08-04T09:28:35Z</time>
      </trkpt>
      <trkpt lat="45.97417" lon="4.82782">
        <ele>265</ele>
        <time>2018-08-04T09:28:36Z</time>
      </trkpt>
      <trkpt lat="45.97415" lon="4.8277">
        <ele>264</ele>
        <time>2018-08-04T09:28:37Z</time>
      </trkpt>
      <trkpt lat="45.97412" lon="4.82757">
        <ele>263</ele>
        <time>2018-08-04T09:28:38Z</time>
      </trkpt>
      <trkpt lat="45.9741" lon="4.82745">
        <ele>263</ele>
        <time>2018-08-04T09:28:39Z</time>
      </trkpt>
      <trkpt lat="45.97408" lon="4.82733">
        <ele>263</ele>
        <time>2018-08-04T09:28:40Z</time>
      </trkpt>
      <trkpt lat="45.97406" lon="4.82721">
        <ele>263</ele>
        <time>2018-08-04T09:28:41Z</time>
      </trkpt>
      <trkpt lat="45.97404" lon="4.82709">
        <ele>262</ele>
        <time>2018-08-04T09:28:42Z</time>
      </trkpt>
      <trkpt lat="45.97403" lon="4.82697">
        <ele>262</ele>
        <time>2018-08-04T09:28:43Z</time>
      </trkpt>
      <trkpt lat="45.97401" lon="4.82685">
        <ele>263</ele>
        <time>2018-08-04T09:28:44Z</time>
      </trkpt>
      <trkpt lat="45.97399" lon="4.82673">
        <ele>263</ele>
        <time>2018-08-04T09:28:45Z</time>
      </trkpt>
      <trkpt lat="45.97398" lon="4.82662">
        <ele>262</ele>
        <time>2018-08-04T09:28:46Z</time>
      </trkpt>
      <trkpt lat="45.97397" lon="4.82651">
        <ele>262</ele>
        <time>2018-08-04T09:28:47Z</time>
      </trkpt>
      <trkpt lat="45.97395" lon="4.8264">
        <ele>262</ele>
        <time>2018-08-04T09:28:48Z</time>
      </trkpt>
      <trkpt lat="45.97396" lon="4.82631">
        <ele>262</ele>
        <time>2018-08-04T09:28:49Z</time>
      </trkpt>
      <trkpt lat="45.97395" lon="4.8262">
        <ele>262</ele>
        <time>2018-08-04T09:28:50Z</time>
      </trkpt>
      <trkpt lat="45.97392" lon="4.82611">
        <ele>262</ele>
        <time>2018-08-04T09:28:51Z</time>
      </trkpt>
      <trkpt lat="45.97391" lon="4.826">
        <ele>262</ele>
        <time>2018-08-04T09:28:52Z</time>
      </trkpt>
      <trkpt lat="45.97389" lon="4.8259">
        <ele>262</ele>
        <time>2018-08-04T09:28:53Z</time>
      </trkpt>
      <trkpt lat="45.97387" lon="4.82581">
        <ele>262</ele>
        <time>2018-08-04T09:28:54Z</time>
      </trkpt>
      <trkpt lat="45.97385" lon="4.82571">
        <ele>262</ele>
        <time>2018-08-04T09:28:55Z</time>
      </trkpt>
      <trkpt lat="45.97384" lon="4.82563">
        <ele>262</ele>
        <time>2018-08-04T09:28:56Z</time>
      </trkpt>
      <trkpt lat="45.97385" lon="4.82554">
        <ele>262</ele>
        <time>2018-08-04T09:28:57Z</time>
      </trkpt>
      <trkpt lat="45.97386" lon="4.82545">
        <ele>262</ele>
        <time>2018-08-04T09:28:58Z</time>
      </trkpt>
      <trkpt lat="45.97389" lon="4.82537">
        <ele>262</ele>
        <time>2018-08-04T09:28:59Z</time>
      </trkpt>
      <trkpt lat="45.97391" lon="4.82529">
        <ele>262</ele>
        <time>2018-08-04T09:29:00Z</time>
      </trkpt>
      <trkpt lat="45.97388" lon="4.8252">
        <ele>262</ele>
        <time>2018-08-04T09:29:01Z</time>
      </trkpt>
      <trkpt lat="45.97383" lon="4.82512">
        <ele>262</ele>
        <time>2018-08-04T09:29:02Z</time>
      </trkpt>
      <trkpt lat="45.97381" lon="4.82503">
        <ele>262</ele>
        <time>2018-08-04T09:29:03Z</time>
      </trkpt>
      <trkpt lat="45.97381" lon="4.82496">
        <ele>262</ele>
        <time>2018-08-04T09:29:04Z</time>
      </trkpt>
      <trkpt lat="45.97379" lon="4.82488">
        <ele>262</ele>
        <time>2018-08-04T09:29:05Z</time>
      </trkpt>
      <trkpt lat="45.97379" lon="4.82478">
        <ele>262</ele>
        <time>2018-08-04T09:29:06Z</time>
      </trkpt>
      <trkpt lat="45.97378" lon="4.82469">
        <ele>262</ele>
        <time>2018-08-04T09:29:07Z</time>
      </trkpt>
      <trkpt lat="45.97378" lon="4.8246">
        <ele>262</ele>
        <time>2018-08-04T09:29:08Z</time>
      </trkpt>
      <trkpt lat="45.97378" lon="4.82451">
        <ele>262</ele>
        <time>2018-08-04T09:29:09Z</time>
      </trkpt>
      <trkpt lat="45.97377" lon="4.82441">
        <ele>262</ele>
        <time>2018-08-04T09:29:10Z</time>
      </trkpt>
      <trkpt lat="45.97378" lon="4.82433">
        <ele>262</ele>
        <time>2018-08-04T09:29:11Z</time>
      </trkpt>
      <trkpt lat="45.97378" lon="4.82424">
        <ele>262</ele>
        <time>2018-08-04T09:29:12Z</time>
      </trkpt>
      <trkpt lat="45.97378" lon="4.82416">
        <ele>263</ele>
        <time>2018-08-04T09:29:13Z</time>
      </trkpt>
      <trkpt lat="45.97379" lon="4.82409">
        <ele>263</ele>
        <time>2018-08-04T09:29:14Z</time>
      </trkpt>
      <trkpt lat="45.97377" lon="4.824">
        <ele>263</ele>
        <time>2018-08-04T09:29:15Z</time>
      </trkpt>
      <trkpt lat="45.97377" lon="4.82391">
        <ele>263</ele>
        <time>2018-08-04T09:29:16Z</time>
      </trkpt>
      <trkpt lat="45.97377" lon="4.82384">
        <ele>263</ele>
        <time>2018-08-04T09:29:17Z</time>
      </trkpt>
      <trkpt lat="45.97378" lon="4.82377">
        <ele>263</ele>
        <time>2018-08-04T09:29:18Z</time>
      </trkpt>
      <trkpt lat="45.97377" lon="4.82369">
        <ele>263</ele>
        <time>2018-08-04T09:29:19Z</time>
      </trkpt>
      <trkpt lat="45.97376" lon="4.82362">
        <ele>263</ele>
        <time>2018-08-04T09:29:20Z</time>
      </trkpt>
      <trkpt lat="45.97377" lon="4.82353">
        <ele>263</ele>
        <time>2018-08-04T09:29:21Z</time>
      </trkpt>
      <trkpt lat="45.97376" lon="4.82346">
        <ele>263</ele>
        <time>2018-08-04T09:29:22Z</time>
      </trkpt>
      <trkpt lat="45.97377" lon="4.82338">
        <ele>263</ele>
        <time>2018-08-04T09:29:23Z</time>
      </trkpt>
      <trkpt lat="45.97376" lon="4.8233">
        <ele>263</ele>
        <time>2018-08-04T09:29:24Z</time>
      </trkpt>
      <trkpt lat="45.97376" lon="4.82323">
        <ele>263</ele>
        <time>2018-08-04T09:29:25Z</time>
      </trkpt>
      <trkpt lat="45.97377" lon="4.82314">
        <ele>263</ele>
        <time>2018-08-04T09:29:26Z</time>
      </trkpt>
      <trkpt lat="45.97377" lon="4.82308">
        <ele>263</ele>
        <time>2018-08-04T09:29:27Z</time>
      </trkpt>
      <trkpt lat="45.97379" lon="4.82302">
        <ele>263</ele>
        <time>2018-08-04T09:29:28Z</time>
      </trkpt>
      <trkpt lat="45.97381" lon="4.82295">
        <ele>263</ele>
        <time>2018-08-04T09:29:29Z</time>
      </trkpt>
      <trkpt lat="45.97379" lon="4.82287">
        <ele>263</ele>
        <time>2018-08-04T09:29:30Z</time>
      </trkpt>
      <trkpt lat="45.9738" lon="4.82278">
        <ele>263</ele>
        <time>2018-08-04T09:29:31Z</time>
      </trkpt>
      <trkpt lat="45.9738" lon="4.8227">
        <ele>263</ele>
        <time>2018-08-04T09:29:32Z</time>
      </trkpt>
      <trkpt lat="45.97382" lon="4.8226">
        <ele>263</ele>
        <time>2018-08-04T09:29:34Z</time>
      </trkpt>
      <trkpt lat="45.97382" lon="4.82253">
        <ele>263</ele>
        <time>2018-08-04T09:29:35Z</time>
      </trkpt>
      <trkpt lat="45.97382" lon="4.82246">
        <ele>263</ele>
        <time>2018-08-04T09:29:36Z</time>
      </trkpt>
      <trkpt lat="45.97383" lon="4.82238">
        <ele>263</ele>
        <time>2018-08-04T09:29:37Z</time>
      </trkpt>
      <trkpt lat="45.97384" lon="4.8223">
        <ele>263</ele>
        <time>2018-08-04T09:29:38Z</time>
      </trkpt>
      <trkpt lat="45.97386" lon="4.82221">
        <ele>263</ele>
        <time>2018-08-04T09:29:39Z</time>
      </trkpt>
      <trkpt lat="45.97389" lon="4.82213">
        <ele>263</ele>
        <time>2018-08-04T09:29:40Z</time>
      </trkpt>
      <trkpt lat="45.9739" lon="4.82205">
        <ele>263</ele>
        <time>2018-08-04T09:29:41Z</time>
      </trkpt>
      <trkpt lat="45.97393" lon="4.82198">
        <ele>262</ele>
        <time>2018-08-04T09:29:42Z</time>
      </trkpt>
      <trkpt lat="45.97396" lon="4.8219">
        <ele>262</ele>
        <time>2018-08-04T09:29:43Z</time>
      </trkpt>
      <trkpt lat="45.974" lon="4.82182">
        <ele>262</ele>
        <time>2018-08-04T09:29:44Z</time>
      </trkpt>
      <trkpt lat="45.97405" lon="4.82176">
        <ele>262</ele>
        <time>2018-08-04T09:29:45Z</time>
      </trkpt>
      <trkpt lat="45.97409" lon="4.82171">
        <ele>262</ele>
        <time>2018-08-04T09:29:46Z</time>
      </trkpt>
      <trkpt lat="45.97414" lon="4.82166">
        <ele>261</ele>
        <time>2018-08-04T09:29:47Z</time>
      </trkpt>
      <trkpt lat="45.97419" lon="4.8216">
        <ele>261</ele>
        <time>2018-08-04T09:29:48Z</time>
      </trkpt>
      <trkpt lat="45.97423" lon="4.82155">
        <ele>261</ele>
        <time>2018-08-04T09:29:49Z</time>
      </trkpt>
      <trkpt lat="45.97427" lon="4.82151">
        <ele>261</ele>
        <time>2018-08-04T09:29:50Z</time>
      </trkpt>
      <trkpt lat="45.97432" lon="4.82145">
        <ele>261</ele>
        <time>2018-08-04T09:29:51Z</time>
      </trkpt>
      <trkpt lat="45.97436" lon="4.82139">
        <ele>261</ele>
        <time>2018-08-04T09:29:52Z</time>
      </trkpt>
      <trkpt lat="45.9744" lon="4.82132">
        <ele>260</ele>
        <time>2018-08-04T09:29:53Z</time>
      </trkpt>
      <trkpt lat="45.97443" lon="4.82125">
        <ele>260</ele>
        <time>2018-08-04T09:29:54Z</time>
      </trkpt>
      <trkpt lat="45.97446" lon="4.82119">
        <ele>260</ele>
        <time>2018-08-04T09:29:55Z</time>
      </trkpt>
      <trkpt lat="45.97448" lon="4.82112">
        <ele>260</ele>
        <time>2018-08-04T09:29:56Z</time>
      </trkpt>
      <trkpt lat="45.97451" lon="4.82104">
        <ele>260</ele>
        <time>2018-08-04T09:29:57Z</time>
      </trkpt>
      <trkpt lat="45.97453" lon="4.82093">
        <ele>260</ele>
        <time>2018-08-04T09:29:58Z</time>
      </trkpt>
      <trkpt lat="45.97455" lon="4.82084">
        <ele>260</ele>
        <time>2018-08-04T09:29:59Z</time>
      </trkpt>
      <trkpt lat="45.97457" lon="4.82076">
        <ele>258</ele>
        <time>2018-08-04T09:30:00Z</time>
      </trkpt>
      <trkpt lat="45.97458" lon="4.82069">
        <ele>258</ele>
        <time>2018-08-04T09:30:01Z</time>
      </trkpt>
      <trkpt lat="45.97459" lon="4.82059">
        <ele>258</ele>
        <time>2018-08-04T09:30:02Z</time>
      </trkpt>
      <trkpt lat="45.97458" lon="4.8205">
        <ele>258</ele>
        <time>2018-08-04T09:30:03Z</time>
      </trkpt>
      <trkpt lat="45.97459" lon="4.82043">
        <ele>258</ele>
        <time>2018-08-04T09:30:04Z</time>
      </trkpt>
      <trkpt lat="45.97458" lon="4.82033">
        <ele>258</ele>
        <time>2018-08-04T09:30:05Z</time>
      </trkpt>
      <trkpt lat="45.97457" lon="4.82022">
        <ele>257</ele>
        <time>2018-08-04T09:30:06Z</time>
      </trkpt>
      <trkpt lat="45.97457" lon="4.82013">
        <ele>257</ele>
        <time>2018-08-04T09:30:07Z</time>
      </trkpt>
      <trkpt lat="45.97454" lon="4.82004">
        <ele>257</ele>
        <time>2018-08-04T09:30:08Z</time>
      </trkpt>
      <trkpt lat="45.97452" lon="4.81994">
        <ele>255</ele>
        <time>2018-08-04T09:30:09Z</time>
      </trkpt>
      <trkpt lat="45.97451" lon="4.81983">
        <ele>255</ele>
        <time>2018-08-04T09:30:10Z</time>
      </trkpt>
      <trkpt lat="45.9745" lon="4.81972">
        <ele>255</ele>
        <time>2018-08-04T09:30:11Z</time>
      </trkpt>
      <trkpt lat="45.97449" lon="4.81962">
        <ele>255</ele>
        <time>2018-08-04T09:30:12Z</time>
      </trkpt>
      <trkpt lat="45.97448" lon="4.81951">
        <ele>255</ele>
        <time>2018-08-04T09:30:13Z</time>
      </trkpt>
      <trkpt lat="45.97447" lon="4.8194">
        <ele>255</ele>
        <time>2018-08-04T09:30:14Z</time>
      </trkpt>
      <trkpt lat="45.97446" lon="4.81929">
        <ele>254</ele>
        <time>2018-08-04T09:30:15Z</time>
      </trkpt>
      <trkpt lat="45.97445" lon="4.81918">
        <ele>254</ele>
        <time>2018-08-04T09:30:16Z</time>
      </trkpt>
      <trkpt lat="45.97444" lon="4.81905">
        <ele>253</ele>
        <time>2018-08-04T09:30:17Z</time>
      </trkpt>
      <trkpt lat="45.97442" lon="4.81893">
        <ele>253</ele>
        <time>2018-08-04T09:30:18Z</time>
      </trkpt>
      <trkpt lat="45.97441" lon="4.81881">
        <ele>253</ele>
        <time>2018-08-04T09:30:19Z</time>
      </trkpt>
      <trkpt lat="45.9744" lon="4.81869">
        <ele>253</ele>
        <time>2018-08-04T09:30:20Z</time>
      </trkpt>
      <trkpt lat="45.97439" lon="4.81858">
        <ele>253</ele>
        <time>2018-08-04T09:30:21Z</time>
      </trkpt>
      <trkpt lat="45.97438" lon="4.81847">
        <ele>253</ele>
        <time>2018-08-04T09:30:22Z</time>
      </trkpt>
      <trkpt lat="45.97437" lon="4.81835">
        <ele>252</ele>
        <time>2018-08-04T09:30:23Z</time>
      </trkpt>
      <trkpt lat="45.97434" lon="4.81822">
        <ele>252</ele>
        <time>2018-08-04T09:30:24Z</time>
      </trkpt>
      <trkpt lat="45.97433" lon="4.81811">
        <ele>252</ele>
        <time>2018-08-04T09:30:25Z</time>
      </trkpt>
      <trkpt lat="45.97434" lon="4.81799">
        <ele>252</ele>
        <time>2018-08-04T09:30:26Z</time>
      </trkpt>
      <trkpt lat="45.97434" lon="4.81788">
        <ele>252</ele>
        <time>2018-08-04T09:30:27Z</time>
      </trkpt>
      <trkpt lat="45.97433" lon="4.81776">
        <ele>251</ele>
        <time>2018-08-04T09:30:28Z</time>
      </trkpt>
      <trkpt lat="45.97432" lon="4.81764">
        <ele>251</ele>
        <time>2018-08-04T09:30:29Z</time>
      </trkpt>
      <trkpt lat="45.97431" lon="4.8175">
        <ele>250</ele>
        <time>2018-08-04T09:30:30Z</time>
      </trkpt>
      <trkpt lat="45.97433" lon="4.81739">
        <ele>250</ele>
        <time>2018-08-04T09:30:31Z</time>
      </trkpt>
      <trkpt lat="45.97432" lon="4.81725">
        <ele>250</ele>
        <time>2018-08-04T09:30:32Z</time>
      </trkpt>
      <trkpt lat="45.97432" lon="4.81712">
        <ele>250</ele>
        <time>2018-08-04T09:30:33Z</time>
      </trkpt>
      <trkpt lat="45.97432" lon="4.81698">
        <ele>250</ele>
        <time>2018-08-04T09:30:34Z</time>
      </trkpt>
      <trkpt lat="45.97433" lon="4.81685">
        <ele>249</ele>
        <time>2018-08-04T09:30:35Z</time>
      </trkpt>
      <trkpt lat="45.97432" lon="4.81673">
        <ele>249</ele>
        <time>2018-08-04T09:30:36Z</time>
      </trkpt>
      <trkpt lat="45.97433" lon="4.81661">
        <ele>248</ele>
        <time>2018-08-04T09:30:37Z</time>
      </trkpt>
      <trkpt lat="45.97433" lon="4.81647">
        <ele>248</ele>
        <time>2018-08-04T09:30:38Z</time>
      </trkpt>
      <trkpt lat="45.97433" lon="4.81633">
        <ele>248</ele>
        <time>2018-08-04T09:30:39Z</time>
      </trkpt>
      <trkpt lat="45.97434" lon="4.81619">
        <ele>248</ele>
        <time>2018-08-04T09:30:40Z</time>
      </trkpt>
      <trkpt lat="45.97435" lon="4.81606">
        <ele>248</ele>
        <time>2018-08-04T09:30:41Z</time>
      </trkpt>
      <trkpt lat="45.97436" lon="4.81593">
        <ele>247</ele>
        <time>2018-08-04T09:30:42Z</time>
      </trkpt>
      <trkpt lat="45.97437" lon="4.81581">
        <ele>246</ele>
        <time>2018-08-04T09:30:43Z</time>
      </trkpt>
      <trkpt lat="45.97436" lon="4.81568">
        <ele>246</ele>
        <time>2018-08-04T09:30:44Z</time>
      </trkpt>
      <trkpt lat="45.97437" lon="4.81555">
        <ele>246</ele>
        <time>2018-08-04T09:30:45Z</time>
      </trkpt>
      <trkpt lat="45.97436" lon="4.81542">
        <ele>246</ele>
        <time>2018-08-04T09:30:46Z</time>
      </trkpt>
      <trkpt lat="45.97437" lon="4.81531">
        <ele>245</ele>
        <time>2018-08-04T09:30:47Z</time>
      </trkpt>
      <trkpt lat="45.97437" lon="4.81518">
        <ele>245</ele>
        <time>2018-08-04T09:30:48Z</time>
      </trkpt>
      <trkpt lat="45.97436" lon="4.81506">
        <ele>244</ele>
        <time>2018-08-04T09:30:49Z</time>
      </trkpt>
      <trkpt lat="45.97436" lon="4.81494">
        <ele>243</ele>
        <time>2018-08-04T09:30:50Z</time>
      </trkpt>
      <trkpt lat="45.97433" lon="4.81482">
        <ele>243</ele>
        <time>2018-08-04T09:30:51Z</time>
      </trkpt>
      <trkpt lat="45.97431" lon="4.81472">
        <ele>243</ele>
        <time>2018-08-04T09:30:52Z</time>
      </trkpt>
      <trkpt lat="45.97428" lon="4.81461">
        <ele>243</ele>
        <time>2018-08-04T09:30:53Z</time>
      </trkpt>
      <trkpt lat="45.97424" lon="4.81451">
        <ele>243</ele>
        <time>2018-08-04T09:30:54Z</time>
      </trkpt>
      <trkpt lat="45.97421" lon="4.81444">
        <ele>242</ele>
        <time>2018-08-04T09:30:55Z</time>
      </trkpt>
      <trkpt lat="45.97413" lon="4.81435">
        <ele>241</ele>
        <time>2018-08-04T09:30:56Z</time>
      </trkpt>
      <trkpt lat="45.97405" lon="4.81427">
        <ele>241</ele>
        <time>2018-08-04T09:30:57Z</time>
      </trkpt>
      <trkpt lat="45.974" lon="4.81421">
        <ele>241</ele>
        <time>2018-08-04T09:30:58Z</time>
      </trkpt>
      <trkpt lat="45.97395" lon="4.81415">
        <ele>240</ele>
        <time>2018-08-04T09:30:59Z</time>
      </trkpt>
      <trkpt lat="45.9739" lon="4.81408">
        <ele>240</ele>
        <time>2018-08-04T09:31:00Z</time>
      </trkpt>
      <trkpt lat="45.97388" lon="4.81399">
        <ele>240</ele>
        <time>2018-08-04T09:31:01Z</time>
      </trkpt>
      <trkpt lat="45.97384" lon="4.8139">
        <ele>240</ele>
        <time>2018-08-04T09:31:02Z</time>
      </trkpt>
      <trkpt lat="45.97383" lon="4.81382">
        <ele>239</ele>
        <time>2018-08-04T09:31:03Z</time>
      </trkpt>
      <trkpt lat="45.97381" lon="4.81373">
        <ele>239</ele>
        <time>2018-08-04T09:31:04Z</time>
      </trkpt>
      <trkpt lat="45.9738" lon="4.81364">
        <ele>239</ele>
        <time>2018-08-04T09:31:05Z</time>
      </trkpt>
      <trkpt lat="45.9738" lon="4.81355">
        <ele>239</ele>
        <time>2018-08-04T09:31:06Z</time>
      </trkpt>
      <trkpt lat="45.97379" lon="4.81346">
        <ele>239</ele>
        <time>2018-08-04T09:31:07Z</time>
      </trkpt>
      <trkpt lat="45.97382" lon="4.81337">
        <ele>239</ele>
        <time>2018-08-04T09:31:08Z</time>
      </trkpt>
      <trkpt lat="45.97383" lon="4.81328">
        <ele>238</ele>
        <time>2018-08-04T09:31:09Z</time>
      </trkpt>
      <trkpt lat="45.97384" lon="4.81318">
        <ele>238</ele>
        <time>2018-08-04T09:31:10Z</time>
      </trkpt>
      <trkpt lat="45.97385" lon="4.81309">
        <ele>238</ele>
        <time>2018-08-04T09:31:11Z</time>
      </trkpt>
      <trkpt lat="45.97386" lon="4.813">
        <ele>238</ele>
        <time>2018-08-04T09:31:12Z</time>
      </trkpt>
      <trkpt lat="45.97388" lon="4.8129">
        <ele>238</ele>
        <time>2018-08-04T09:31:13Z</time>
      </trkpt>
      <trkpt lat="45.97389" lon="4.8128">
        <ele>238</ele>
        <time>2018-08-04T09:31:14Z</time>
      </trkpt>
      <trkpt lat="45.9739" lon="4.81271">
        <ele>238</ele>
        <time>2018-08-04T09:31:15Z</time>
      </trkpt>
      <trkpt lat="45.97391" lon="4.81261">
        <ele>238</ele>
        <time>2018-08-04T09:31:16Z</time>
      </trkpt>
      <trkpt lat="45.97393" lon="4.81252">
        <ele>238</ele>
        <time>2018-08-04T09:31:17Z</time>
      </trkpt>
      <trkpt lat="45.97393" lon="4.81244">
        <ele>237</ele>
        <time>2018-08-04T09:31:18Z</time>
      </trkpt>
      <trkpt lat="45.97391" lon="4.81234">
        <ele>237</ele>
        <time>2018-08-04T09:31:19Z</time>
      </trkpt>
      <trkpt lat="45.97391" lon="4.81224">
        <ele>237</ele>
        <time>2018-08-04T09:31:20Z</time>
      </trkpt>
      <trkpt lat="45.97391" lon="4.81219">
        <ele>237</ele>
        <time>2018-08-04T09:31:21Z</time>
      </trkpt>
      <trkpt lat="45.97393" lon="4.81208">
        <ele>237</ele>
        <time>2018-08-04T09:31:22Z</time>
      </trkpt>
      <trkpt lat="45.97393" lon="4.81197">
        <ele>237</ele>
        <time>2018-08-04T09:31:23Z</time>
      </trkpt>
      <trkpt lat="45.97393" lon="4.81187">
        <ele>237</ele>
        <time>2018-08-04T09:31:24Z</time>
      </trkpt>
      <trkpt lat="45.97392" lon="4.81176">
        <ele>237</ele>
        <time>2018-08-04T09:31:25Z</time>
      </trkpt>
      <trkpt lat="45.97391" lon="4.81167">
        <ele>237</ele>
        <time>2018-08-04T09:31:26Z</time>
      </trkpt>
      <trkpt lat="45.97392" lon="4.81157">
        <ele>236</ele>
        <time>2018-08-04T09:31:27Z</time>
      </trkpt>
      <trkpt lat="45.9739" lon="4.81149">
        <ele>236</ele>
        <time>2018-08-04T09:31:28Z</time>
      </trkpt>
      <trkpt lat="45.97391" lon="4.8114">
        <ele>236</ele>
        <time>2018-08-04T09:31:29Z</time>
      </trkpt>
      <trkpt lat="45.97391" lon="4.81129">
        <ele>236</ele>
        <time>2018-08-04T09:31:30Z</time>
      </trkpt>
      <trkpt lat="45.97389" lon="4.81123">
        <ele>235</ele>
        <time>2018-08-04T09:31:31Z</time>
      </trkpt>
      <trkpt lat="45.9739" lon="4.8111">
        <ele>235</ele>
        <time>2018-08-04T09:31:33Z</time>
      </trkpt>
      <trkpt lat="45.97388" lon="4.81104">
        <ele>235</ele>
        <time>2018-08-04T09:31:34Z</time>
      </trkpt>
      <trkpt lat="45.97388" lon="4.81092">
        <ele>235</ele>
        <time>2018-08-04T09:31:36Z</time>
      </trkpt>
      <trkpt lat="45.97388" lon="4.81085">
        <ele>235</ele>
        <time>2018-08-04T09:31:37Z</time>
      </trkpt>
      <trkpt lat="45.97383" lon="4.81074">
        <ele>234</ele>
        <time>2018-08-04T09:31:39Z</time>
      </trkpt>
      <trkpt lat="45.97381" lon="4.81068">
        <ele>234</ele>
        <time>2018-08-04T09:31:40Z</time>
      </trkpt>
      <trkpt lat="45.97378" lon="4.8106">
        <ele>233</ele>
        <time>2018-08-04T09:31:41Z</time>
      </trkpt>
      <trkpt lat="45.97374" lon="4.81051">
        <ele>233</ele>
        <time>2018-08-04T09:31:42Z</time>
      </trkpt>
      <trkpt lat="45.97371" lon="4.81044">
        <ele>233</ele>
        <time>2018-08-04T09:31:43Z</time>
      </trkpt>
      <trkpt lat="45.97368" lon="4.81036">
        <ele>233</ele>
        <time>2018-08-04T09:31:44Z</time>
      </trkpt>
      <trkpt lat="45.97365" lon="4.8103">
        <ele>233</ele>
        <time>2018-08-04T09:31:45Z</time>
      </trkpt>
      <trkpt lat="45.97363" lon="4.81023">
        <ele>233</ele>
        <time>2018-08-04T09:31:46Z</time>
      </trkpt>
      <trkpt lat="45.97362" lon="4.81016">
        <ele>233</ele>
        <time>2018-08-04T09:31:47Z</time>
      </trkpt>
      <trkpt lat="45.9736" lon="4.81009">
        <ele>233</ele>
        <time>2018-08-04T09:31:48Z</time>
      </trkpt>
      <trkpt lat="45.97359" lon="4.81002">
        <ele>233</ele>
        <time>2018-08-04T09:31:49Z</time>
      </trkpt>
      <trkpt lat="45.97358" lon="4.80995">
        <ele>232</ele>
        <time>2018-08-04T09:31:50Z</time>
      </trkpt>
      <trkpt lat="45.97357" lon="4.80988">
        <ele>232</ele>
        <time>2018-08-04T09:31:51Z</time>
      </trkpt>
      <trkpt lat="45.97356" lon="4.80981">
        <ele>232</ele>
        <time>2018-08-04T09:31:52Z</time>
      </trkpt>
      <trkpt lat="45.97355" lon="4.80973">
        <ele>232</ele>
        <time>2018-08-04T09:31:53Z</time>
      </trkpt>
      <trkpt lat="45.97355" lon="4.80965">
        <ele>231</ele>
        <time>2018-08-04T09:31:54Z</time>
      </trkpt>
      <trkpt lat="45.97356" lon="4.80956">
        <ele>231</ele>
        <time>2018-08-04T09:31:55Z</time>
      </trkpt>
      <trkpt lat="45.97354" lon="4.80948">
        <ele>231</ele>
        <time>2018-08-04T09:31:56Z</time>
      </trkpt>
      <trkpt lat="45.97352" lon="4.80941">
        <ele>231</ele>
        <time>2018-08-04T09:31:57Z</time>
      </trkpt>
      <trkpt lat="45.9735" lon="4.80932">
        <ele>231</ele>
        <time>2018-08-04T09:31:58Z</time>
      </trkpt>
      <trkpt lat="45.97348" lon="4.80924">
        <ele>231</ele>
        <time>2018-08-04T09:31:59Z</time>
      </trkpt>
      <trkpt lat="45.97346" lon="4.80915">
        <ele>230</ele>
        <time>2018-08-04T09:32:00Z</time>
      </trkpt>
      <trkpt lat="45.97343" lon="4.80907">
        <ele>230</ele>
        <time>2018-08-04T09:32:01Z</time>
      </trkpt>
      <trkpt lat="45.97341" lon="4.80898">
        <ele>230</ele>
        <time>2018-08-04T09:32:02Z</time>
      </trkpt>
      <trkpt lat="45.97335" lon="4.80889">
        <ele>229</ele>
        <time>2018-08-04T09:32:03Z</time>
      </trkpt>
      <trkpt lat="45.9733" lon="4.80881">
        <ele>228</ele>
        <time>2018-08-04T09:32:04Z</time>
      </trkpt>
      <trkpt lat="45.97325" lon="4.80873">
        <ele>228</ele>
        <time>2018-08-04T09:32:05Z</time>
      </trkpt>
      <trkpt lat="45.97319" lon="4.80867">
        <ele>228</ele>
        <time>2018-08-04T09:32:06Z</time>
      </trkpt>
      <trkpt lat="45.97312" lon="4.80861">
        <ele>228</ele>
        <time>2018-08-04T09:32:07Z</time>
      </trkpt>
      <trkpt lat="45.97304" lon="4.80858">
        <ele>228</ele>
        <time>2018-08-04T09:32:08Z</time>
      </trkpt>
      <trkpt lat="45.97296" lon="4.80856">
        <ele>228</ele>
        <time>2018-08-04T09:32:09Z</time>
      </trkpt>
      <trkpt lat="45.97287" lon="4.80853">
        <ele>228</ele>
        <time>2018-08-04T09:32:10Z</time>
      </trkpt>
      <trkpt lat="45.9728" lon="4.80852">
        <ele>227</ele>
        <time>2018-08-04T09:32:11Z</time>
      </trkpt>
      <trkpt lat="45.97273" lon="4.80848">
        <ele>227</ele>
        <time>2018-08-04T09:32:12Z</time>
      </trkpt>
      <trkpt lat="45.97268" lon="4.80843">
        <ele>227</ele>
        <time>2018-08-04T09:32:13Z</time>
      </trkpt>
      <trkpt lat="45.97261" lon="4.80839">
        <ele>227</ele>
        <time>2018-08-04T09:32:14Z</time>
      </trkpt>
      <trkpt lat="45.97259" lon="4.80828">
        <ele>227</ele>
        <time>2018-08-04T09:32:15Z</time>
      </trkpt>
      <trkpt lat="45.97255" lon="4.8082">
        <ele>227</ele>
        <time>2018-08-04T09:32:16Z</time>
      </trkpt>
      <trkpt lat="45.97253" lon="4.80811">
        <ele>227</ele>
        <time>2018-08-04T09:32:17Z</time>
      </trkpt>
      <trkpt lat="45.97252" lon="4.80802">
        <ele>227</ele>
        <time>2018-08-04T09:32:18Z</time>
      </trkpt>
      <trkpt lat="45.97249" lon="4.80792">
        <ele>229</ele>
        <time>2018-08-04T09:32:19Z</time>
      </trkpt>
      <trkpt lat="45.97247" lon="4.80783">
        <ele>229</ele>
        <time>2018-08-04T09:32:20Z</time>
      </trkpt>
      <trkpt lat="45.97245" lon="4.80773">
        <ele>229</ele>
        <time>2018-08-04T09:32:21Z</time>
      </trkpt>
      <trkpt lat="45.97246" lon="4.80764">
        <ele>228</ele>
        <time>2018-08-04T09:32:22Z</time>
      </trkpt>
      <trkpt lat="45.97248" lon="4.80756">
        <ele>228</ele>
        <time>2018-08-04T09:32:23Z</time>
      </trkpt>
      <trkpt lat="45.97249" lon="4.80749">
        <ele>228</ele>
        <time>2018-08-04T09:32:24Z</time>
      </trkpt>
      <trkpt lat="45.97249" lon="4.80741">
        <ele>228</ele>
        <time>2018-08-04T09:32:25Z</time>
      </trkpt>
      <trkpt lat="45.97249" lon="4.80732">
        <ele>229</ele>
        <time>2018-08-04T09:32:26Z</time>
      </trkpt>
      <trkpt lat="45.97251" lon="4.80725">
        <ele>227</ele>
        <time>2018-08-04T09:32:27Z</time>
      </trkpt>
      <trkpt lat="45.97251" lon="4.80719">
        <ele>227</ele>
        <time>2018-08-04T09:32:28Z</time>
      </trkpt>
      <trkpt lat="45.9725" lon="4.80709">
        <ele>227</ele>
        <time>2018-08-04T09:32:29Z</time>
      </trkpt>
      <trkpt lat="45.9725" lon="4.80701">
        <ele>227</ele>
        <time>2018-08-04T09:32:30Z</time>
      </trkpt>
      <trkpt lat="45.97248" lon="4.80694">
        <ele>229</ele>
        <time>2018-08-04T09:32:31Z</time>
      </trkpt>
      <trkpt lat="45.97247" lon="4.80687">
        <ele>229</ele>
        <time>2018-08-04T09:32:32Z</time>
      </trkpt>
      <trkpt lat="45.97246" lon="4.80679">
        <ele>229</ele>
        <time>2018-08-04T09:32:33Z</time>
      </trkpt>
      <trkpt lat="45.97246" lon="4.80673">
        <ele>228</ele>
        <time>2018-08-04T09:32:34Z</time>
      </trkpt>
      <trkpt lat="45.97245" lon="4.80663">
        <ele>228</ele>
        <time>2018-08-04T09:32:35Z</time>
      </trkpt>
      <trkpt lat="45.97245" lon="4.80656">
        <ele>228</ele>
        <time>2018-08-04T09:32:36Z</time>
      </trkpt>
      <trkpt lat="45.97246" lon="4.80649">
        <ele>229</ele>
        <time>2018-08-04T09:32:37Z</time>
      </trkpt>
      <trkpt lat="45.97246" lon="4.80642">
        <ele>229</ele>
        <time>2018-08-04T09:32:38Z</time>
      </trkpt>
      <trkpt lat="45.97246" lon="4.80635">
        <ele>229</ele>
        <time>2018-08-04T09:32:39Z</time>
      </trkpt>
      <trkpt lat="45.97245" lon="4.80628">
        <ele>229</ele>
        <time>2018-08-04T09:32:40Z</time>
      </trkpt>
      <trkpt lat="45.97245" lon="4.8062">
        <ele>229</ele>
        <time>2018-08-04T09:32:41Z</time>
      </trkpt>
      <trkpt lat="45.97244" lon="4.80613">
        <ele>228</ele>
        <time>2018-08-04T09:32:42Z</time>
      </trkpt>
      <trkpt lat="45.97244" lon="4.80604">
        <ele>228</ele>
        <time>2018-08-04T09:32:43Z</time>
      </trkpt>
      <trkpt lat="45.97244" lon="4.80596">
        <ele>228</ele>
        <time>2018-08-04T09:32:44Z</time>
      </trkpt>
      <trkpt lat="45.97242" lon="4.80589">
        <ele>228</ele>
        <time>2018-08-04T09:32:45Z</time>
      </trkpt>
      <trkpt lat="45.9724" lon="4.80581">
        <ele>227</ele>
        <time>2018-08-04T09:32:46Z</time>
      </trkpt>
      <trkpt lat="45.97238" lon="4.80574">
        <ele>227</ele>
        <time>2018-08-04T09:32:47Z</time>
      </trkpt>
      <trkpt lat="45.97241" lon="4.80568">
        <ele>227</ele>
        <time>2018-08-04T09:32:48Z</time>
      </trkpt>
      <trkpt lat="45.9724" lon="4.80561">
        <ele>228</ele>
        <time>2018-08-04T09:32:49Z</time>
      </trkpt>
      <trkpt lat="45.97238" lon="4.80553">
        <ele>228</ele>
        <time>2018-08-04T09:32:50Z</time>
      </trkpt>
      <trkpt lat="45.97237" lon="4.80545">
        <ele>227</ele>
        <time>2018-08-04T09:32:51Z</time>
      </trkpt>
      <trkpt lat="45.97234" lon="4.80538">
        <ele>227</ele>
        <time>2018-08-04T09:32:52Z</time>
      </trkpt>
      <trkpt lat="45.97231" lon="4.80529">
        <ele>227</ele>
        <time>2018-08-04T09:32:53Z</time>
      </trkpt>
      <trkpt lat="45.97229" lon="4.80521">
        <ele>227</ele>
        <time>2018-08-04T09:32:54Z</time>
      </trkpt>
      <trkpt lat="45.97228" lon="4.80512">
        <ele>227</ele>
        <time>2018-08-04T09:32:55Z</time>
      </trkpt>
      <trkpt lat="45.97225" lon="4.80504">
        <ele>227</ele>
        <time>2018-08-04T09:32:56Z</time>
      </trkpt>
      <trkpt lat="45.97224" lon="4.80496">
        <ele>225</ele>
        <time>2018-08-04T09:32:57Z</time>
      </trkpt>
      <trkpt lat="45.97221" lon="4.80486">
        <ele>225</ele>
        <time>2018-08-04T09:32:58Z</time>
      </trkpt>
      <trkpt lat="45.97218" lon="4.80477">
        <ele>225</ele>
        <time>2018-08-04T09:32:59Z</time>
      </trkpt>
      <trkpt lat="45.97216" lon="4.80468">
        <ele>225</ele>
        <time>2018-08-04T09:33:00Z</time>
      </trkpt>
      <trkpt lat="45.97214" lon="4.8046">
        <ele>225</ele>
        <time>2018-08-04T09:33:01Z</time>
      </trkpt>
      <trkpt lat="45.9721" lon="4.80451">
        <ele>224</ele>
        <time>2018-08-04T09:33:02Z</time>
      </trkpt>
      <trkpt lat="45.97208" lon="4.80441">
        <ele>224</ele>
        <time>2018-08-04T09:33:03Z</time>
      </trkpt>
      <trkpt lat="45.97206" lon="4.80433">
        <ele>224</ele>
        <time>2018-08-04T09:33:04Z</time>
      </trkpt>
      <trkpt lat="45.97204" lon="4.80423">
        <ele>224</ele>
        <time>2018-08-04T09:33:05Z</time>
      </trkpt>
      <trkpt lat="45.97201" lon="4.80414">
        <ele>222</ele>
        <time>2018-08-04T09:33:06Z</time>
      </trkpt>
      <trkpt lat="45.97198" lon="4.80405">
        <ele>222</ele>
        <time>2018-08-04T09:33:07Z</time>
      </trkpt>
      <trkpt lat="45.97195" lon="4.80396">
        <ele>222</ele>
        <time>2018-08-04T09:33:08Z</time>
      </trkpt>
      <trkpt lat="45.97189" lon="4.80386">
        <ele>222</ele>
        <time>2018-08-04T09:33:09Z</time>
      </trkpt>
      <trkpt lat="45.97185" lon="4.80376">
        <ele>222</ele>
        <time>2018-08-04T09:33:10Z</time>
      </trkpt>
      <trkpt lat="45.97182" lon="4.80367">
        <ele>222</ele>
        <time>2018-08-04T09:33:11Z</time>
      </trkpt>
      <trkpt lat="45.97179" lon="4.80358">
        <ele>222</ele>
        <time>2018-08-04T09:33:12Z</time>
      </trkpt>
      <trkpt lat="45.97177" lon="4.80349">
        <ele>222</ele>
        <time>2018-08-04T09:33:13Z</time>
      </trkpt>
      <trkpt lat="45.97174" lon="4.8034">
        <ele>222</ele>
        <time>2018-08-04T09:33:14Z</time>
      </trkpt>
      <trkpt lat="45.97171" lon="4.8033">
        <ele>222</ele>
        <time>2018-08-04T09:33:15Z</time>
      </trkpt>
      <trkpt lat="45.97168" lon="4.80321">
        <ele>221</ele>
        <time>2018-08-04T09:33:16Z</time>
      </trkpt>
      <trkpt lat="45.97165" lon="4.80314">
        <ele>224</ele>
        <time>2018-08-04T09:33:17Z</time>
      </trkpt>
      <trkpt lat="45.97161" lon="4.80306">
        <ele>224</ele>
        <time>2018-08-04T09:33:18Z</time>
      </trkpt>
      <trkpt lat="45.97158" lon="4.80298">
        <ele>224</ele>
        <time>2018-08-04T09:33:19Z</time>
      </trkpt>
      <trkpt lat="45.97155" lon="4.8029">
        <ele>224</ele>
        <time>2018-08-04T09:33:20Z</time>
      </trkpt>
      <trkpt lat="45.97152" lon="4.80283">
        <ele>224</ele>
        <time>2018-08-04T09:33:21Z</time>
      </trkpt>
      <trkpt lat="45.9715" lon="4.80277">
        <ele>223</ele>
        <time>2018-08-04T09:33:22Z</time>
      </trkpt>
      <trkpt lat="45.97147" lon="4.80269">
        <ele>223</ele>
        <time>2018-08-04T09:33:23Z</time>
      </trkpt>
      <trkpt lat="45.97144" lon="4.80262">
        <ele>223</ele>
        <time>2018-08-04T09:33:24Z</time>
      </trkpt>
      <trkpt lat="45.97141" lon="4.80256">
        <ele>223</ele>
        <time>2018-08-04T09:33:25Z</time>
      </trkpt>
      <trkpt lat="45.97139" lon="4.80249">
        <ele>220</ele>
        <time>2018-08-04T09:33:26Z</time>
      </trkpt>
      <trkpt lat="45.97136" lon="4.80242">
        <ele>220</ele>
        <time>2018-08-04T09:33:27Z</time>
      </trkpt>
      <trkpt lat="45.97133" lon="4.80235">
        <ele>220</ele>
        <time>2018-08-04T09:33:28Z</time>
      </trkpt>
      <trkpt lat="45.9713" lon="4.80227">
        <ele>220</ele>
        <time>2018-08-04T09:33:29Z</time>
      </trkpt>
      <trkpt lat="45.97127" lon="4.80219">
        <ele>220</ele>
        <time>2018-08-04T09:33:30Z</time>
      </trkpt>
      <trkpt lat="45.97124" lon="4.80211">
        <ele>220</ele>
        <time>2018-08-04T09:33:31Z</time>
      </trkpt>
      <trkpt lat="45.97118" lon="4.80203">
        <ele>220</ele>
        <time>2018-08-04T09:33:32Z</time>
      </trkpt>
      <trkpt lat="45.97114" lon="4.80194">
        <ele>220</ele>
        <time>2018-08-04T09:33:33Z</time>
      </trkpt>
      <trkpt lat="45.97108" lon="4.80186">
        <ele>220</ele>
        <time>2018-08-04T09:33:34Z</time>
      </trkpt>
      <trkpt lat="45.971" lon="4.80176">
        <ele>220</ele>
        <time>2018-08-04T09:33:35Z</time>
      </trkpt>
      <trkpt lat="45.97095" lon="4.80169">
        <ele>220</ele>
        <time>2018-08-04T09:33:36Z</time>
      </trkpt>
      <trkpt lat="45.97089" lon="4.80161">
        <ele>218</ele>
        <time>2018-08-04T09:33:37Z</time>
      </trkpt>
      <trkpt lat="45.97083" lon="4.80153">
        <ele>219</ele>
        <time>2018-08-04T09:33:38Z</time>
      </trkpt>
      <trkpt lat="45.97077" lon="4.80144">
        <ele>218</ele>
        <time>2018-08-04T09:33:39Z</time>
      </trkpt>
      <trkpt lat="45.97071" lon="4.80136">
        <ele>218</ele>
        <time>2018-08-04T09:33:40Z</time>
      </trkpt>
      <trkpt lat="45.97064" lon="4.80129">
        <ele>217</ele>
        <time>2018-08-04T09:33:41Z</time>
      </trkpt>
      <trkpt lat="45.97059" lon="4.8012">
        <ele>217</ele>
        <time>2018-08-04T09:33:42Z</time>
      </trkpt>
      <trkpt lat="45.97056" lon="4.80113">
        <ele>217</ele>
        <time>2018-08-04T09:33:43Z</time>
      </trkpt>
      <trkpt lat="45.97051" lon="4.80105">
        <ele>217</ele>
        <time>2018-08-04T09:33:44Z</time>
      </trkpt>
      <trkpt lat="45.97047" lon="4.80098">
        <ele>216</ele>
        <time>2018-08-04T09:33:45Z</time>
      </trkpt>
      <trkpt lat="45.97042" lon="4.80091">
        <ele>216</ele>
        <time>2018-08-04T09:33:46Z</time>
      </trkpt>
      <trkpt lat="45.97039" lon="4.80085">
        <ele>216</ele>
        <time>2018-08-04T09:33:47Z</time>
      </trkpt>
      <trkpt lat="45.97035" lon="4.80078">
        <ele>215</ele>
        <time>2018-08-04T09:33:48Z</time>
      </trkpt>
      <trkpt lat="45.97033" lon="4.80072">
        <ele>215</ele>
        <time>2018-08-04T09:33:49Z</time>
      </trkpt>
      <trkpt lat="45.97032" lon="4.8006">
        <ele>214</ele>
        <time>2018-08-04T09:33:51Z</time>
      </trkpt>
      <trkpt lat="45.97032" lon="4.80053">
        <ele>214</ele>
        <time>2018-08-04T09:33:52Z</time>
      </trkpt>
      <trkpt lat="45.97036" lon="4.80041">
        <ele>214</ele>
        <time>2018-08-04T09:33:54Z</time>
      </trkpt>
      <trkpt lat="45.9704" lon="4.80038">
        <ele>214</ele>
        <time>2018-08-04T09:33:55Z</time>
      </trkpt>
      <trkpt lat="45.97045" lon="4.80034">
        <ele>214</ele>
        <time>2018-08-04T09:33:56Z</time>
      </trkpt>
      <trkpt lat="45.9705" lon="4.80029">
        <ele>214</ele>
        <time>2018-08-04T09:33:57Z</time>
      </trkpt>
      <trkpt lat="45.97055" lon="4.80023">
        <ele>214</ele>
        <time>2018-08-04T09:33:58Z</time>
      </trkpt>
      <trkpt lat="45.97058" lon="4.80017">
        <ele>214</ele>
        <time>2018-08-04T09:33:59Z</time>
      </trkpt>
      <trkpt lat="45.97062" lon="4.80011">
        <ele>214</ele>
        <time>2018-08-04T09:34:00Z</time>
      </trkpt>
      <trkpt lat="45.97067" lon="4.80005">
        <ele>214</ele>
        <time>2018-08-04T09:34:01Z</time>
      </trkpt>
      <trkpt lat="45.9707" lon="4.79998">
        <ele>213</ele>
        <time>2018-08-04T09:34:02Z</time>
      </trkpt>
      <trkpt lat="45.97075" lon="4.79992">
        <ele>213</ele>
        <time>2018-08-04T09:34:03Z</time>
      </trkpt>
      <trkpt lat="45.97079" lon="4.79984">
        <ele>213</ele>
        <time>2018-08-04T09:34:04Z</time>
      </trkpt>
      <trkpt lat="45.97084" lon="4.79976">
        <ele>212</ele>
        <time>2018-08-04T09:34:05Z</time>
      </trkpt>
      <trkpt lat="45.97089" lon="4.79969">
        <ele>212</ele>
        <time>2018-08-04T09:34:06Z</time>
      </trkpt>
      <trkpt lat="45.97094" lon="4.79962">
        <ele>211</ele>
        <time>2018-08-04T09:34:07Z</time>
      </trkpt>
      <trkpt lat="45.97099" lon="4.79956">
        <ele>211</ele>
        <time>2018-08-04T09:34:08Z</time>
      </trkpt>
      <trkpt lat="45.97106" lon="4.79952">
        <ele>211</ele>
        <time>2018-08-04T09:34:09Z</time>
      </trkpt>
      <trkpt lat="45.97111" lon="4.7995">
        <ele>211</ele>
        <time>2018-08-04T09:34:10Z</time>
      </trkpt>
      <trkpt lat="45.97119" lon="4.79946">
        <ele>211</ele>
        <time>2018-08-04T09:34:11Z</time>
      </trkpt>
      <trkpt lat="45.97125" lon="4.79943">
        <ele>211</ele>
        <time>2018-08-04T09:34:12Z</time>
      </trkpt>
      <trkpt lat="45.97131" lon="4.79942">
        <ele>211</ele>
        <time>2018-08-04T09:34:13Z</time>
      </trkpt>
      <trkpt lat="45.97136" lon="4.79939">
        <ele>211</ele>
        <time>2018-08-04T09:34:14Z</time>
      </trkpt>
      <trkpt lat="45.97142" lon="4.79936">
        <ele>211</ele>
        <time>2018-08-04T09:34:15Z</time>
      </trkpt>
      <trkpt lat="45.97146" lon="4.79934">
        <ele>211</ele>
        <time>2018-08-04T09:34:16Z</time>
      </trkpt>
      <trkpt lat="45.97151" lon="4.79936">
        <ele>211</ele>
        <time>2018-08-04T09:34:17Z</time>
      </trkpt>
      <trkpt lat="45.97155" lon="4.79936">
        <ele>211</ele>
        <time>2018-08-04T09:34:18Z</time>
      </trkpt>
      <trkpt lat="45.97161" lon="4.79933">
        <ele>210</ele>
        <time>2018-08-04T09:34:19Z</time>
      </trkpt>
      <trkpt lat="45.97166" lon="4.79934">
        <ele>210</ele>
        <time>2018-08-04T09:34:20Z</time>
      </trkpt>
      <trkpt lat="45.97172" lon="4.79933">
        <ele>210</ele>
        <time>2018-08-04T09:34:21Z</time>
      </trkpt>
      <trkpt lat="45.97181" lon="4.79932">
        <ele>210</ele>
        <time>2018-08-04T09:34:23Z</time>
      </trkpt>
      <trkpt lat="45.97186" lon="4.79932">
        <ele>211</ele>
        <time>2018-08-04T09:34:24Z</time>
      </trkpt>
      <trkpt lat="45.9719" lon="4.79931">
        <ele>211</ele>
        <time>2018-08-04T09:34:25Z</time>
      </trkpt>
      <trkpt lat="45.97195" lon="4.7993">
        <ele>211</ele>
        <time>2018-08-04T09:34:26Z</time>
      </trkpt>
      <trkpt lat="45.972" lon="4.79929">
        <ele>211</ele>
        <time>2018-08-04T09:34:27Z</time>
      </trkpt>
      <trkpt lat="45.97204" lon="4.7993">
        <ele>211</ele>
        <time>2018-08-04T09:34:28Z</time>
      </trkpt>
      <trkpt lat="45.97209" lon="4.79929">
        <ele>211</ele>
        <time>2018-08-04T09:34:29Z</time>
      </trkpt>
      <trkpt lat="45.97214" lon="4.79928">
        <ele>211</ele>
        <time>2018-08-04T09:34:30Z</time>
      </trkpt>
      <trkpt lat="45.97221" lon="4.79927">
        <ele>211</ele>
        <time>2018-08-04T09:34:32Z</time>
      </trkpt>
      <trkpt lat="45.97227" lon="4.79925">
        <ele>211</ele>
        <time>2018-08-04T09:34:33Z</time>
      </trkpt>
      <trkpt lat="45.97232" lon="4.79924">
        <ele>211</ele>
        <time>2018-08-04T09:34:34Z</time>
      </trkpt>
      <trkpt lat="45.97236" lon="4.79923">
        <ele>211</ele>
        <time>2018-08-04T09:34:35Z</time>
      </trkpt>
      <trkpt lat="45.97244" lon="4.79924">
        <ele>212</ele>
        <time>2018-08-04T09:34:38Z</time>
      </trkpt>
      <trkpt lat="45.9725" lon="4.79921">
        <ele>212</ele>
        <time>2018-08-04T09:34:39Z</time>
      </trkpt>
      <trkpt lat="45.97255" lon="4.7991">
        <ele>212</ele>
        <time>2018-08-04T09:34:42Z</time>
      </trkpt>
      <trkpt lat="45.97253" lon="4.79903">
        <ele>213</ele>
        <time>2018-08-04T09:34:43Z</time>
      </trkpt>
      <trkpt lat="45.97249" lon="4.79891">
        <ele>211</ele>
        <time>2018-08-04T09:34:45Z</time>
      </trkpt>
      <trkpt lat="45.97247" lon="4.79885">
        <ele>211</ele>
        <time>2018-08-04T09:34:46Z</time>
      </trkpt>
      <trkpt lat="45.97244" lon="4.79877">
        <ele>211</ele>
        <time>2018-08-04T09:34:47Z</time>
      </trkpt>
      <trkpt lat="45.97242" lon="4.79869">
        <ele>211</ele>
        <time>2018-08-04T09:34:48Z</time>
      </trkpt>
      <trkpt lat="45.97239" lon="4.79861">
        <ele>211</ele>
        <time>2018-08-04T09:34:49Z</time>
      </trkpt>
      <trkpt lat="45.97238" lon="4.79852">
        <ele>211</ele>
        <time>2018-08-04T09:34:50Z</time>
      </trkpt>
      <trkpt lat="45.97238" lon="4.79845">
        <ele>211</ele>
        <time>2018-08-04T09:34:51Z</time>
      </trkpt>
      <trkpt lat="45.97237" lon="4.79838">
        <ele>211</ele>
        <time>2018-08-04T09:34:52Z</time>
      </trkpt>
      <trkpt lat="45.97238" lon="4.79829">
        <ele>211</ele>
        <time>2018-08-04T09:34:53Z</time>
      </trkpt>
      <trkpt lat="45.97238" lon="4.79822">
        <ele>211</ele>
        <time>2018-08-04T09:34:54Z</time>
      </trkpt>
      <trkpt lat="45.97239" lon="4.79813">
        <ele>211</ele>
        <time>2018-08-04T09:34:55Z</time>
      </trkpt>
      <trkpt lat="45.97238" lon="4.79804">
        <ele>210</ele>
        <time>2018-08-04T09:34:56Z</time>
      </trkpt>
      <trkpt lat="45.97238" lon="4.79796">
        <ele>210</ele>
        <time>2018-08-04T09:34:57Z</time>
      </trkpt>
      <trkpt lat="45.97241" lon="4.79789">
        <ele>210</ele>
        <time>2018-08-04T09:34:58Z</time>
      </trkpt>
      <trkpt lat="45.97241" lon="4.79782">
        <ele>210</ele>
        <time>2018-08-04T09:34:59Z</time>
      </trkpt>
      <trkpt lat="45.97242" lon="4.79772">
        <ele>210</ele>
        <time>2018-08-04T09:35:00Z</time>
      </trkpt>
      <trkpt lat="45.97243" lon="4.79766">
        <ele>209</ele>
        <time>2018-08-04T09:35:01Z</time>
      </trkpt>
      <trkpt lat="45.97244" lon="4.79759">
        <ele>209</ele>
        <time>2018-08-04T09:35:02Z</time>
      </trkpt>
      <trkpt lat="45.97245" lon="4.7975">
        <ele>209</ele>
        <time>2018-08-04T09:35:03Z</time>
      </trkpt>
      <trkpt lat="45.97246" lon="4.79743">
        <ele>209</ele>
        <time>2018-08-04T09:35:04Z</time>
      </trkpt>
      <trkpt lat="45.97246" lon="4.79735">
        <ele>209</ele>
        <time>2018-08-04T09:35:05Z</time>
      </trkpt>
      <trkpt lat="45.97246" lon="4.79726">
        <ele>209</ele>
        <time>2018-08-04T09:35:06Z</time>
      </trkpt>
      <trkpt lat="45.97247" lon="4.79718">
        <ele>209</ele>
        <time>2018-08-04T09:35:07Z</time>
      </trkpt>
      <trkpt lat="45.97248" lon="4.79711">
        <ele>209</ele>
        <time>2018-08-04T09:35:08Z</time>
      </trkpt>
      <trkpt lat="45.9725" lon="4.79701">
        <ele>208</ele>
        <time>2018-08-04T09:35:09Z</time>
      </trkpt>
      <trkpt lat="45.97251" lon="4.79692">
        <ele>212</ele>
        <time>2018-08-04T09:35:10Z</time>
      </trkpt>
      <trkpt lat="45.97253" lon="4.79684">
        <ele>211</ele>
        <time>2018-08-04T09:35:11Z</time>
      </trkpt>
      <trkpt lat="45.97254" lon="4.79678">
        <ele>210</ele>
        <time>2018-08-04T09:35:12Z</time>
      </trkpt>
      <trkpt lat="45.97254" lon="4.79669">
        <ele>209</ele>
        <time>2018-08-04T09:35:13Z</time>
      </trkpt>
      <trkpt lat="45.97256" lon="4.7966">
        <ele>210</ele>
        <time>2018-08-04T09:35:14Z</time>
      </trkpt>
      <trkpt lat="45.97255" lon="4.79651">
        <ele>211</ele>
        <time>2018-08-04T09:35:15Z</time>
      </trkpt>
      <trkpt lat="45.97255" lon="4.79643">
        <ele>212</ele>
        <time>2018-08-04T09:35:16Z</time>
      </trkpt>
      <trkpt lat="45.97254" lon="4.79634">
        <ele>213</ele>
        <time>2018-08-04T09:35:17Z</time>
      </trkpt>
      <trkpt lat="45.97254" lon="4.79626">
        <ele>213</ele>
        <time>2018-08-04T09:35:18Z</time>
      </trkpt>
      <trkpt lat="45.97254" lon="4.79617">
        <ele>213</ele>
        <time>2018-08-04T09:35:19Z</time>
      </trkpt>
      <trkpt lat="45.97252" lon="4.79609">
        <ele>213</ele>
        <time>2018-08-04T09:35:20Z</time>
      </trkpt>
      <trkpt lat="45.9725" lon="4.796">
        <ele>209</ele>
        <time>2018-08-04T09:35:21Z</time>
      </trkpt>
      <trkpt lat="45.9725" lon="4.79593">
        <ele>210</ele>
        <time>2018-08-04T09:35:22Z</time>
      </trkpt>
      <trkpt lat="45.9725" lon="4.79587">
        <ele>211</ele>
        <time>2018-08-04T09:35:23Z</time>
      </trkpt>
      <trkpt lat="45.97252" lon="4.7958">
        <ele>211</ele>
        <time>2018-08-04T09:35:24Z</time>
      </trkpt>
      <trkpt lat="45.97252" lon="4.79572">
        <ele>212</ele>
        <time>2018-08-04T09:35:25Z</time>
      </trkpt>
      <trkpt lat="45.97251" lon="4.79564">
        <ele>213</ele>
        <time>2018-08-04T09:35:26Z</time>
      </trkpt>
      <trkpt lat="45.97251" lon="4.79558">
        <ele>213</ele>
        <time>2018-08-04T09:35:27Z</time>
      </trkpt>
      <trkpt lat="45.97251" lon="4.79551">
        <ele>214</ele>
        <time>2018-08-04T09:35:28Z</time>
      </trkpt>
      <trkpt lat="45.97249" lon="4.79542">
        <ele>210</ele>
        <time>2018-08-04T09:35:29Z</time>
      </trkpt>
      <trkpt lat="45.97249" lon="4.79535">
        <ele>210</ele>
        <time>2018-08-04T09:35:30Z</time>
      </trkpt>
      <trkpt lat="45.97249" lon="4.79527">
        <ele>210</ele>
        <time>2018-08-04T09:35:31Z</time>
      </trkpt>
      <trkpt lat="45.97247" lon="4.79519">
        <ele>210</ele>
        <time>2018-08-04T09:35:32Z</time>
      </trkpt>
      <trkpt lat="45.97245" lon="4.79511">
        <ele>210</ele>
        <time>2018-08-04T09:35:33Z</time>
      </trkpt>
      <trkpt lat="45.97243" lon="4.79503">
        <ele>210</ele>
        <time>2018-08-04T09:35:34Z</time>
      </trkpt>
      <trkpt lat="45.97242" lon="4.79495">
        <ele>210</ele>
        <time>2018-08-04T09:35:35Z</time>
      </trkpt>
      <trkpt lat="45.97239" lon="4.79486">
        <ele>210</ele>
        <time>2018-08-04T09:35:36Z</time>
      </trkpt>
      <trkpt lat="45.97238" lon="4.79479">
        <ele>209</ele>
        <time>2018-08-04T09:35:37Z</time>
      </trkpt>
      <trkpt lat="45.97237" lon="4.79471">
        <ele>209</ele>
        <time>2018-08-04T09:35:38Z</time>
      </trkpt>
      <trkpt lat="45.97235" lon="4.79464">
        <ele>209</ele>
        <time>2018-08-04T09:35:39Z</time>
      </trkpt>
      <trkpt lat="45.97233" lon="4.79456">
        <ele>209</ele>
        <time>2018-08-04T09:35:40Z</time>
      </trkpt>
      <trkpt lat="45.97229" lon="4.79449">
        <ele>209</ele>
        <time>2018-08-04T09:35:41Z</time>
      </trkpt>
      <trkpt lat="45.97227" lon="4.79442">
        <ele>209</ele>
        <time>2018-08-04T09:35:42Z</time>
      </trkpt>
      <trkpt lat="45.97224" lon="4.79434">
        <ele>209</ele>
        <time>2018-08-04T09:35:43Z</time>
      </trkpt>
      <trkpt lat="45.97221" lon="4.79426">
        <ele>209</ele>
        <time>2018-08-04T09:35:44Z</time>
      </trkpt>
      <trkpt lat="45.97218" lon="4.79419">
        <ele>208</ele>
        <time>2018-08-04T09:35:45Z</time>
      </trkpt>
      <trkpt lat="45.97216" lon="4.79412">
        <ele>208</ele>
        <time>2018-08-04T09:35:46Z</time>
      </trkpt>
      <trkpt lat="45.97213" lon="4.79404">
        <ele>208</ele>
        <time>2018-08-04T09:35:47Z</time>
      </trkpt>
      <trkpt lat="45.9721" lon="4.79397">
        <ele>208</ele>
        <time>2018-08-04T09:35:48Z</time>
      </trkpt>
      <trkpt lat="45.97207" lon="4.7939">
        <ele>208</ele>
        <time>2018-08-04T09:35:49Z</time>
      </trkpt>
      <trkpt lat="45.97204" lon="4.79382">
        <ele>208</ele>
        <time>2018-08-04T09:35:50Z</time>
      </trkpt>
      <trkpt lat="45.97199" lon="4.79374">
        <ele>207</ele>
        <time>2018-08-04T09:35:51Z</time>
      </trkpt>
      <trkpt lat="45.97196" lon="4.79367">
        <ele>207</ele>
        <time>2018-08-04T09:35:52Z</time>
      </trkpt>
      <trkpt lat="45.97194" lon="4.79359">
        <ele>207</ele>
        <time>2018-08-04T09:35:53Z</time>
      </trkpt>
      <trkpt lat="45.9719" lon="4.79353">
        <ele>207</ele>
        <time>2018-08-04T09:35:54Z</time>
      </trkpt>
      <trkpt lat="45.97188" lon="4.79345">
        <ele>207</ele>
        <time>2018-08-04T09:35:55Z</time>
      </trkpt>
      <trkpt lat="45.97186" lon="4.79339">
        <ele>207</ele>
        <time>2018-08-04T09:35:56Z</time>
      </trkpt>
      <trkpt lat="45.97184" lon="4.79332">
        <ele>207</ele>
        <time>2018-08-04T09:35:57Z</time>
      </trkpt>
      <trkpt lat="45.97182" lon="4.79324">
        <ele>207</ele>
        <time>2018-08-04T09:35:58Z</time>
      </trkpt>
      <trkpt lat="45.97178" lon="4.79316">
        <ele>207</ele>
        <time>2018-08-04T09:35:59Z</time>
      </trkpt>
      <trkpt lat="45.97174" lon="4.79308">
        <ele>207</ele>
        <time>2018-08-04T09:36:00Z</time>
      </trkpt>
      <trkpt lat="45.97171" lon="4.79301">
        <ele>207</ele>
        <time>2018-08-04T09:36:01Z</time>
      </trkpt>
      <trkpt lat="45.97168" lon="4.79292">
        <ele>207</ele>
        <time>2018-08-04T09:36:02Z</time>
      </trkpt>
      <trkpt lat="45.97165" lon="4.79283">
        <ele>204</ele>
        <time>2018-08-04T09:36:03Z</time>
      </trkpt>
      <trkpt lat="45.97162" lon="4.79275">
        <ele>204</ele>
        <time>2018-08-04T09:36:04Z</time>
      </trkpt>
      <trkpt lat="45.97159" lon="4.79267">
        <ele>204</ele>
        <time>2018-08-04T09:36:05Z</time>
      </trkpt>
      <trkpt lat="45.97156" lon="4.7926">
        <ele>205</ele>
        <time>2018-08-04T09:36:06Z</time>
      </trkpt>
      <trkpt lat="45.97152" lon="4.79252">
        <ele>205</ele>
        <time>2018-08-04T09:36:07Z</time>
      </trkpt>
      <trkpt lat="45.97149" lon="4.79245">
        <ele>205</ele>
        <time>2018-08-04T09:36:08Z</time>
      </trkpt>
      <trkpt lat="45.97145" lon="4.79237">
        <ele>205</ele>
        <time>2018-08-04T09:36:09Z</time>
      </trkpt>
      <trkpt lat="45.97141" lon="4.79228">
        <ele>205</ele>
        <time>2018-08-04T09:36:10Z</time>
      </trkpt>
      <trkpt lat="45.97138" lon="4.79219">
        <ele>206</ele>
        <time>2018-08-04T09:36:11Z</time>
      </trkpt>
      <trkpt lat="45.97134" lon="4.79212">
        <ele>206</ele>
        <time>2018-08-04T09:36:12Z</time>
      </trkpt>
      <trkpt lat="45.97131" lon="4.79203">
        <ele>206</ele>
        <time>2018-08-04T09:36:13Z</time>
      </trkpt>
      <trkpt lat="45.97128" lon="4.79195">
        <ele>206</ele>
        <time>2018-08-04T09:36:14Z</time>
      </trkpt>
      <trkpt lat="45.97125" lon="4.79187">
        <ele>206</ele>
        <time>2018-08-04T09:36:15Z</time>
      </trkpt>
      <trkpt lat="45.97122" lon="4.79179">
        <ele>206</ele>
        <time>2018-08-04T09:36:16Z</time>
      </trkpt>
      <trkpt lat="45.9712" lon="4.79172">
        <ele>206</ele>
        <time>2018-08-04T09:36:17Z</time>
      </trkpt>
      <trkpt lat="45.97114" lon="4.79165">
        <ele>207</ele>
        <time>2018-08-04T09:36:18Z</time>
      </trkpt>
      <trkpt lat="45.97109" lon="4.79158">
        <ele>206</ele>
        <time>2018-08-04T09:36:19Z</time>
      </trkpt>
      <trkpt lat="45.97108" lon="4.79149">
        <ele>206</ele>
        <time>2018-08-04T09:36:20Z</time>
      </trkpt>
      <trkpt lat="45.97103" lon="4.79143">
        <ele>206</ele>
        <time>2018-08-04T09:36:21Z</time>
      </trkpt>
      <trkpt lat="45.97099" lon="4.79136">
        <ele>206</ele>
        <time>2018-08-04T09:36:22Z</time>
      </trkpt>
      <trkpt lat="45.97095" lon="4.7913">
        <ele>206</ele>
        <time>2018-08-04T09:36:23Z</time>
      </trkpt>
      <trkpt lat="45.97091" lon="4.79123">
        <ele>206</ele>
        <time>2018-08-04T09:36:24Z</time>
      </trkpt>
      <trkpt lat="45.9709" lon="4.79115">
        <ele>206</ele>
        <time>2018-08-04T09:36:25Z</time>
      </trkpt>
      <trkpt lat="45.97087" lon="4.79106">
        <ele>206</ele>
        <time>2018-08-04T09:36:26Z</time>
      </trkpt>
      <trkpt lat="45.97088" lon="4.79097">
        <ele>205</ele>
        <time>2018-08-04T09:36:27Z</time>
      </trkpt>
      <trkpt lat="45.97087" lon="4.79086">
        <ele>205</ele>
        <time>2018-08-04T09:36:28Z</time>
      </trkpt>
      <trkpt lat="45.97086" lon="4.79078">
        <ele>205</ele>
        <time>2018-08-04T09:36:29Z</time>
      </trkpt>
      <trkpt lat="45.9708" lon="4.79069">
        <ele>204</ele>
        <time>2018-08-04T09:36:30Z</time>
      </trkpt>
      <trkpt lat="45.97077" lon="4.7906">
        <ele>204</ele>
        <time>2018-08-04T09:36:31Z</time>
      </trkpt>
      <trkpt lat="45.97075" lon="4.79052">
        <ele>203</ele>
        <time>2018-08-04T09:36:32Z</time>
      </trkpt>
      <trkpt lat="45.97073" lon="4.79044">
        <ele>203</ele>
        <time>2018-08-04T09:36:33Z</time>
      </trkpt>
      <trkpt lat="45.97072" lon="4.79037">
        <ele>204</ele>
        <time>2018-08-04T09:36:34Z</time>
      </trkpt>
      <trkpt lat="45.97068" lon="4.79029">
        <ele>204</ele>
        <time>2018-08-04T09:36:35Z</time>
      </trkpt>
      <trkpt lat="45.97066" lon="4.79023">
        <ele>204</ele>
        <time>2018-08-04T09:36:36Z</time>
      </trkpt>
      <trkpt lat="45.97064" lon="4.79017">
        <ele>204</ele>
        <time>2018-08-04T09:36:37Z</time>
      </trkpt>
      <trkpt lat="45.9706" lon="4.79013">
        <ele>204</ele>
        <time>2018-08-04T09:36:38Z</time>
      </trkpt>
      <trkpt lat="45.97057" lon="4.79008">
        <ele>204</ele>
        <time>2018-08-04T09:36:39Z</time>
      </trkpt>
      <trkpt lat="45.97053" lon="4.79001">
        <ele>203</ele>
        <time>2018-08-04T09:36:40Z</time>
      </trkpt>
      <trkpt lat="45.9705" lon="4.78994">
        <ele>205</ele>
        <time>2018-08-04T09:36:41Z</time>
      </trkpt>
      <trkpt lat="45.97047" lon="4.78988">
        <ele>205</ele>
        <time>2018-08-04T09:36:42Z</time>
      </trkpt>
      <trkpt lat="45.97045" lon="4.7898">
        <ele>205</ele>
        <time>2018-08-04T09:36:43Z</time>
      </trkpt>
      <trkpt lat="45.97042" lon="4.78974">
        <ele>205</ele>
        <time>2018-08-04T09:36:44Z</time>
      </trkpt>
      <trkpt lat="45.97038" lon="4.78967">
        <ele>205</ele>
        <time>2018-08-04T09:36:45Z</time>
      </trkpt>
      <trkpt lat="45.97035" lon="4.78959">
        <ele>205</ele>
        <time>2018-08-04T09:36:46Z</time>
      </trkpt>
      <trkpt lat="45.97031" lon="4.78953">
        <ele>205</ele>
        <time>2018-08-04T09:36:47Z</time>
      </trkpt>
      <trkpt lat="45.97023" lon="4.78945">
        <ele>205</ele>
        <time>2018-08-04T09:36:48Z</time>
      </trkpt>
      <trkpt lat="45.97017" lon="4.78937">
        <ele>205</ele>
        <time>2018-08-04T09:36:49Z</time>
      </trkpt>
      <trkpt lat="45.97013" lon="4.7893">
        <ele>205</ele>
        <time>2018-08-04T09:36:50Z</time>
      </trkpt>
      <trkpt lat="45.97008" lon="4.78924">
        <ele>204</ele>
        <time>2018-08-04T09:36:51Z</time>
      </trkpt>
      <trkpt lat="45.97001" lon="4.78918">
        <ele>204</ele>
        <time>2018-08-04T09:36:52Z</time>
      </trkpt>
      <trkpt lat="45.96997" lon="4.78911">
        <ele>204</ele>
        <time>2018-08-04T09:36:53Z</time>
      </trkpt>
      <trkpt lat="45.96994" lon="4.78903">
        <ele>204</ele>
        <time>2018-08-04T09:36:54Z</time>
      </trkpt>
      <trkpt lat="45.96989" lon="4.78896">
        <ele>203</ele>
        <time>2018-08-04T09:36:55Z</time>
      </trkpt>
      <trkpt lat="45.96984" lon="4.7889">
        <ele>203</ele>
        <time>2018-08-04T09:36:56Z</time>
      </trkpt>
      <trkpt lat="45.96979" lon="4.78883">
        <ele>203</ele>
        <time>2018-08-04T09:36:57Z</time>
      </trkpt>
      <trkpt lat="45.96974" lon="4.78878">
        <ele>203</ele>
        <time>2018-08-04T09:36:58Z</time>
      </trkpt>
      <trkpt lat="45.96969" lon="4.78871">
        <ele>203</ele>
        <time>2018-08-04T09:36:59Z</time>
      </trkpt>
      <trkpt lat="45.96964" lon="4.78865">
        <ele>203</ele>
        <time>2018-08-04T09:37:00Z</time>
      </trkpt>
      <trkpt lat="45.96959" lon="4.7886">
        <ele>203</ele>
        <time>2018-08-04T09:37:01Z</time>
      </trkpt>
      <trkpt lat="45.96953" lon="4.78854">
        <ele>203</ele>
        <time>2018-08-04T09:37:02Z</time>
      </trkpt>
      <trkpt lat="45.96948" lon="4.78848">
        <ele>202</ele>
        <time>2018-08-04T09:37:03Z</time>
      </trkpt>
      <trkpt lat="45.96944" lon="4.78842">
        <ele>202</ele>
        <time>2018-08-04T09:37:04Z</time>
      </trkpt>
      <trkpt lat="45.96937" lon="4.78836">
        <ele>202</ele>
        <time>2018-08-04T09:37:05Z</time>
      </trkpt>
      <trkpt lat="45.96934" lon="4.78829">
        <ele>202</ele>
        <time>2018-08-04T09:37:06Z</time>
      </trkpt>
      <trkpt lat="45.96929" lon="4.78823">
        <ele>202</ele>
        <time>2018-08-04T09:37:07Z</time>
      </trkpt>
      <trkpt lat="45.96925" lon="4.78816">
        <ele>202</ele>
        <time>2018-08-04T09:37:08Z</time>
      </trkpt>
      <trkpt lat="45.96922" lon="4.78809">
        <ele>202</ele>
        <time>2018-08-04T09:37:09Z</time>
      </trkpt>
      <trkpt lat="45.96918" lon="4.78801">
        <ele>203</ele>
        <time>2018-08-04T09:37:10Z</time>
      </trkpt>
      <trkpt lat="45.96913" lon="4.78791">
        <ele>201</ele>
        <time>2018-08-04T09:37:11Z</time>
      </trkpt>
      <trkpt lat="45.96909" lon="4.78783">
        <ele>201</ele>
        <time>2018-08-04T09:37:12Z</time>
      </trkpt>
      <trkpt lat="45.96904" lon="4.78775">
        <ele>201</ele>
        <time>2018-08-04T09:37:13Z</time>
      </trkpt>
      <trkpt lat="45.969" lon="4.78766">
        <ele>201</ele>
        <time>2018-08-04T09:37:14Z</time>
      </trkpt>
      <trkpt lat="45.96896" lon="4.78758">
        <ele>201</ele>
        <time>2018-08-04T09:37:15Z</time>
      </trkpt>
      <trkpt lat="45.96892" lon="4.78749">
        <ele>202</ele>
        <time>2018-08-04T09:37:16Z</time>
      </trkpt>
      <trkpt lat="45.96889" lon="4.7874">
        <ele>202</ele>
        <time>2018-08-04T09:37:17Z</time>
      </trkpt>
      <trkpt lat="45.96884" lon="4.78732">
        <ele>202</ele>
        <time>2018-08-04T09:37:18Z</time>
      </trkpt>
      <trkpt lat="45.96881" lon="4.78724">
        <ele>202</ele>
        <time>2018-08-04T09:37:19Z</time>
      </trkpt>
      <trkpt lat="45.96876" lon="4.78717">
        <ele>202</ele>
        <time>2018-08-04T09:37:20Z</time>
      </trkpt>
      <trkpt lat="45.96872" lon="4.78709">
        <ele>202</ele>
        <time>2018-08-04T09:37:21Z</time>
      </trkpt>
      <trkpt lat="45.96868" lon="4.78701">
        <ele>202</ele>
        <time>2018-08-04T09:37:22Z</time>
      </trkpt>
      <trkpt lat="45.96864" lon="4.78693">
        <ele>202</ele>
        <time>2018-08-04T09:37:23Z</time>
      </trkpt>
      <trkpt lat="45.96861" lon="4.78684">
        <ele>202</ele>
        <time>2018-08-04T09:37:24Z</time>
      </trkpt>
      <trkpt lat="45.96857" lon="4.78677">
        <ele>202</ele>
        <time>2018-08-04T09:37:25Z</time>
      </trkpt>
      <trkpt lat="45.96853" lon="4.78669">
        <ele>202</ele>
        <time>2018-08-04T09:37:26Z</time>
      </trkpt>
      <trkpt lat="45.9685" lon="4.7866">
        <ele>202</ele>
        <time>2018-08-04T09:37:27Z</time>
      </trkpt>
      <trkpt lat="45.96847" lon="4.78653">
        <ele>203</ele>
        <time>2018-08-04T09:37:28Z</time>
      </trkpt>
      <trkpt lat="45.96843" lon="4.78644">
        <ele>203</ele>
        <time>2018-08-04T09:37:29Z</time>
      </trkpt>
      <trkpt lat="45.9684" lon="4.78637">
        <ele>203</ele>
        <time>2018-08-04T09:37:30Z</time>
      </trkpt>
      <trkpt lat="45.96839" lon="4.78628">
        <ele>203</ele>
        <time>2018-08-04T09:37:31Z</time>
      </trkpt>
      <trkpt lat="45.96834" lon="4.78621">
        <ele>203</ele>
        <time>2018-08-04T09:37:32Z</time>
      </trkpt>
      <trkpt lat="45.96832" lon="4.78613">
        <ele>202</ele>
        <time>2018-08-04T09:37:33Z</time>
      </trkpt>
      <trkpt lat="45.96828" lon="4.78604">
        <ele>202</ele>
        <time>2018-08-04T09:37:34Z</time>
      </trkpt>
      <trkpt lat="45.96826" lon="4.78597">
        <ele>202</ele>
        <time>2018-08-04T09:37:35Z</time>
      </trkpt>
      <trkpt lat="45.96824" lon="4.78589">
        <ele>202</ele>
        <time>2018-08-04T09:37:36Z</time>
      </trkpt>
      <trkpt lat="45.96821" lon="4.78582">
        <ele>203</ele>
        <time>2018-08-04T09:37:37Z</time>
      </trkpt>
      <trkpt lat="45.96817" lon="4.78576">
        <ele>203</ele>
        <time>2018-08-04T09:37:38Z</time>
      </trkpt>
      <trkpt lat="45.96814" lon="4.7857">
        <ele>203</ele>
        <time>2018-08-04T09:37:39Z</time>
      </trkpt>
      <trkpt lat="45.96806" lon="4.78562">
        <ele>203</ele>
        <time>2018-08-04T09:37:40Z</time>
      </trkpt>
      <trkpt lat="45.96801" lon="4.78555">
        <ele>203</ele>
        <time>2018-08-04T09:37:41Z</time>
      </trkpt>
      <trkpt lat="45.96797" lon="4.78548">
        <ele>203</ele>
        <time>2018-08-04T09:37:42Z</time>
      </trkpt>
      <trkpt lat="45.96796" lon="4.7854">
        <ele>203</ele>
        <time>2018-08-04T09:37:43Z</time>
      </trkpt>
      <trkpt lat="45.96791" lon="4.78534">
        <ele>203</ele>
        <time>2018-08-04T09:37:44Z</time>
      </trkpt>
      <trkpt lat="45.96786" lon="4.78527">
        <ele>203</ele>
        <time>2018-08-04T09:37:45Z</time>
      </trkpt>
      <trkpt lat="45.96782" lon="4.7852">
        <ele>203</ele>
        <time>2018-08-04T09:37:46Z</time>
      </trkpt>
      <trkpt lat="45.96778" lon="4.78513">
        <ele>203</ele>
        <time>2018-08-04T09:37:47Z</time>
      </trkpt>
      <trkpt lat="45.96771" lon="4.78506">
        <ele>203</ele>
        <time>2018-08-04T09:37:48Z</time>
      </trkpt>
      <trkpt lat="45.96766" lon="4.78499">
        <ele>205</ele>
        <time>2018-08-04T09:37:49Z</time>
      </trkpt>
      <trkpt lat="45.96761" lon="4.78492">
        <ele>204</ele>
        <time>2018-08-04T09:37:50Z</time>
      </trkpt>
      <trkpt lat="45.96756" lon="4.78486">
        <ele>205</ele>
        <time>2018-08-04T09:37:51Z</time>
      </trkpt>
      <trkpt lat="45.96751" lon="4.78481">
        <ele>205</ele>
        <time>2018-08-04T09:37:52Z</time>
      </trkpt>
      <trkpt lat="45.96747" lon="4.78476">
        <ele>203</ele>
        <time>2018-08-04T09:37:53Z</time>
      </trkpt>
      <trkpt lat="45.96743" lon="4.7847">
        <ele>203</ele>
        <time>2018-08-04T09:37:54Z</time>
      </trkpt>
      <trkpt lat="45.96737" lon="4.78465">
        <ele>203</ele>
        <time>2018-08-04T09:37:55Z</time>
      </trkpt>
      <trkpt lat="45.96731" lon="4.78462">
        <ele>203</ele>
        <time>2018-08-04T09:37:56Z</time>
      </trkpt>
      <trkpt lat="45.96726" lon="4.78457">
        <ele>203</ele>
        <time>2018-08-04T09:37:57Z</time>
      </trkpt>
      <trkpt lat="45.9672" lon="4.78452">
        <ele>203</ele>
        <time>2018-08-04T09:37:58Z</time>
      </trkpt>
      <trkpt lat="45.96716" lon="4.78445">
        <ele>203</ele>
        <time>2018-08-04T09:37:59Z</time>
      </trkpt>
      <trkpt lat="45.96711" lon="4.78439">
        <ele>203</ele>
        <time>2018-08-04T09:38:00Z</time>
      </trkpt>
      <trkpt lat="45.96707" lon="4.78435">
        <ele>203</ele>
        <time>2018-08-04T09:38:01Z</time>
      </trkpt>
      <trkpt lat="45.96701" lon="4.78429">
        <ele>203</ele>
        <time>2018-08-04T09:38:02Z</time>
      </trkpt>
      <trkpt lat="45.96697" lon="4.78424">
        <ele>203</ele>
        <time>2018-08-04T09:38:03Z</time>
      </trkpt>
      <trkpt lat="45.96693" lon="4.7842">
        <ele>202</ele>
        <time>2018-08-04T09:38:04Z</time>
      </trkpt>
      <trkpt lat="45.96688" lon="4.78416">
        <ele>204</ele>
        <time>2018-08-04T09:38:05Z</time>
      </trkpt>
      <trkpt lat="45.96686" lon="4.7841">
        <ele>204</ele>
        <time>2018-08-04T09:38:06Z</time>
      </trkpt>
      <trkpt lat="45.9668" lon="4.78405">
        <ele>204</ele>
        <time>2018-08-04T09:38:07Z</time>
      </trkpt>
      <trkpt lat="45.96674" lon="4.784">
        <ele>204</ele>
        <time>2018-08-04T09:38:08Z</time>
      </trkpt>
      <trkpt lat="45.96671" lon="4.78395">
        <ele>204</ele>
        <time>2018-08-04T09:38:09Z</time>
      </trkpt>
      <trkpt lat="45.96666" lon="4.7839">
        <ele>201</ele>
        <time>2018-08-04T09:38:10Z</time>
      </trkpt>
      <trkpt lat="45.9666" lon="4.78385">
        <ele>201</ele>
        <time>2018-08-04T09:38:11Z</time>
      </trkpt>
      <trkpt lat="45.96655" lon="4.78381">
        <ele>201</ele>
        <time>2018-08-04T09:38:12Z</time>
      </trkpt>
      <trkpt lat="45.9665" lon="4.78375">
        <ele>201</ele>
        <time>2018-08-04T09:38:13Z</time>
      </trkpt>
      <trkpt lat="45.96644" lon="4.78369">
        <ele>202</ele>
        <time>2018-08-04T09:38:14Z</time>
      </trkpt>
      <trkpt lat="45.96638" lon="4.78364">
        <ele>201</ele>
        <time>2018-08-04T09:38:15Z</time>
      </trkpt>
      <trkpt lat="45.96633" lon="4.78359">
        <ele>201</ele>
        <time>2018-08-04T09:38:16Z</time>
      </trkpt>
      <trkpt lat="45.96628" lon="4.78354">
        <ele>201</ele>
        <time>2018-08-04T09:38:17Z</time>
      </trkpt>
      <trkpt lat="45.96623" lon="4.7835">
        <ele>201</ele>
        <time>2018-08-04T09:38:18Z</time>
      </trkpt>
      <trkpt lat="45.96617" lon="4.78344">
        <ele>201</ele>
        <time>2018-08-04T09:38:19Z</time>
      </trkpt>
      <trkpt lat="45.96612" lon="4.78338">
        <ele>200</ele>
        <time>2018-08-04T09:38:20Z</time>
      </trkpt>
      <trkpt lat="45.96605" lon="4.78333">
        <ele>203</ele>
        <time>2018-08-04T09:38:21Z</time>
      </trkpt>
      <trkpt lat="45.96599" lon="4.78327">
        <ele>202</ele>
        <time>2018-08-04T09:38:22Z</time>
      </trkpt>
      <trkpt lat="45.96592" lon="4.78322">
        <ele>202</ele>
        <time>2018-08-04T09:38:23Z</time>
      </trkpt>
      <trkpt lat="45.96587" lon="4.78317">
        <ele>202</ele>
        <time>2018-08-04T09:38:24Z</time>
      </trkpt>
      <trkpt lat="45.96582" lon="4.78312">
        <ele>199</ele>
        <time>2018-08-04T09:38:25Z</time>
      </trkpt>
      <trkpt lat="45.96576" lon="4.78306">
        <ele>200</ele>
        <time>2018-08-04T09:38:26Z</time>
      </trkpt>
      <trkpt lat="45.96571" lon="4.78301">
        <ele>200</ele>
        <time>2018-08-04T09:38:27Z</time>
      </trkpt>
      <trkpt lat="45.96567" lon="4.78296">
        <ele>200</ele>
        <time>2018-08-04T09:38:28Z</time>
      </trkpt>
      <trkpt lat="45.96562" lon="4.7829">
        <ele>200</ele>
        <time>2018-08-04T09:38:29Z</time>
      </trkpt>
      <trkpt lat="45.96557" lon="4.78284">
        <ele>200</ele>
        <time>2018-08-04T09:38:30Z</time>
      </trkpt>
      <trkpt lat="45.96553" lon="4.78278">
        <ele>200</ele>
        <time>2018-08-04T09:38:31Z</time>
      </trkpt>
      <trkpt lat="45.96549" lon="4.78272">
        <ele>200</ele>
        <time>2018-08-04T09:38:32Z</time>
      </trkpt>
      <trkpt lat="45.96545" lon="4.78267">
        <ele>200</ele>
        <time>2018-08-04T09:38:33Z</time>
      </trkpt>
      <trkpt lat="45.9654" lon="4.78262">
        <ele>200</ele>
        <time>2018-08-04T09:38:34Z</time>
      </trkpt>
      <trkpt lat="45.96536" lon="4.78256">
        <ele>200</ele>
        <time>2018-08-04T09:38:35Z</time>
      </trkpt>
      <trkpt lat="45.96533" lon="4.78251">
        <ele>200</ele>
        <time>2018-08-04T09:38:36Z</time>
      </trkpt>
      <trkpt lat="45.96529" lon="4.78246">
        <ele>204</ele>
        <time>2018-08-04T09:38:37Z</time>
      </trkpt>
      <trkpt lat="45.96525" lon="4.78239">
        <ele>204</ele>
        <time>2018-08-04T09:38:38Z</time>
      </trkpt>
      <trkpt lat="45.96522" lon="4.78234">
        <ele>204</ele>
        <time>2018-08-04T09:38:39Z</time>
      </trkpt>
      <trkpt lat="45.96519" lon="4.78228">
        <ele>204</ele>
        <time>2018-08-04T09:38:40Z</time>
      </trkpt>
      <trkpt lat="45.96516" lon="4.78222">
        <ele>204</ele>
        <time>2018-08-04T09:38:41Z</time>
      </trkpt>
      <trkpt lat="45.9651" lon="4.78216">
        <ele>205</ele>
        <time>2018-08-04T09:38:42Z</time>
      </trkpt>
      <trkpt lat="45.96505" lon="4.78211">
        <ele>205</ele>
        <time>2018-08-04T09:38:43Z</time>
      </trkpt>
      <trkpt lat="45.96498" lon="4.78204">
        <ele>200</ele>
        <time>2018-08-04T09:38:44Z</time>
      </trkpt>
      <trkpt lat="45.96494" lon="4.78199">
        <ele>201</ele>
        <time>2018-08-04T09:38:45Z</time>
      </trkpt>
      <trkpt lat="45.96489" lon="4.78194">
        <ele>201</ele>
        <time>2018-08-04T09:38:46Z</time>
      </trkpt>
      <trkpt lat="45.96485" lon="4.7819">
        <ele>201</ele>
        <time>2018-08-04T09:38:47Z</time>
      </trkpt>
      <trkpt lat="45.96476" lon="4.78187">
        <ele>200</ele>
        <time>2018-08-04T09:38:48Z</time>
      </trkpt>
      <trkpt lat="45.96469" lon="4.78183">
        <ele>200</ele>
        <time>2018-08-04T09:38:49Z</time>
      </trkpt>
      <trkpt lat="45.96465" lon="4.78178">
        <ele>200</ele>
        <time>2018-08-04T09:38:50Z</time>
      </trkpt>
      <trkpt lat="45.9646" lon="4.78173">
        <ele>200</ele>
        <time>2018-08-04T09:38:51Z</time>
      </trkpt>
      <trkpt lat="45.96456" lon="4.78166">
        <ele>204</ele>
        <time>2018-08-04T09:38:52Z</time>
      </trkpt>
      <trkpt lat="45.96452" lon="4.78161">
        <ele>204</ele>
        <time>2018-08-04T09:38:53Z</time>
      </trkpt>
      <trkpt lat="45.96447" lon="4.78156">
        <ele>204</ele>
        <time>2018-08-04T09:38:54Z</time>
      </trkpt>
      <trkpt lat="45.96442" lon="4.78151">
        <ele>203</ele>
        <time>2018-08-04T09:38:55Z</time>
      </trkpt>
      <trkpt lat="45.96437" lon="4.78146">
        <ele>203</ele>
        <time>2018-08-04T09:38:56Z</time>
      </trkpt>
      <trkpt lat="45.96431" lon="4.78141">
        <ele>203</ele>
        <time>2018-08-04T09:38:57Z</time>
      </trkpt>
      <trkpt lat="45.96425" lon="4.78137">
        <ele>203</ele>
        <time>2018-08-04T09:38:58Z</time>
      </trkpt>
      <trkpt lat="45.96417" lon="4.78133">
        <ele>203</ele>
        <time>2018-08-04T09:38:59Z</time>
      </trkpt>
      <trkpt lat="45.96411" lon="4.78128">
        <ele>200</ele>
        <time>2018-08-04T09:39:00Z</time>
      </trkpt>
      <trkpt lat="45.96406" lon="4.78125">
        <ele>200</ele>
        <time>2018-08-04T09:39:01Z</time>
      </trkpt>
      <trkpt lat="45.96401" lon="4.7812">
        <ele>200</ele>
        <time>2018-08-04T09:39:02Z</time>
      </trkpt>
      <trkpt lat="45.96397" lon="4.78115">
        <ele>200</ele>
        <time>2018-08-04T09:39:03Z</time>
      </trkpt>
      <trkpt lat="45.96392" lon="4.78111">
        <ele>200</ele>
        <time>2018-08-04T09:39:04Z</time>
      </trkpt>
      <trkpt lat="45.96388" lon="4.78108">
        <ele>200</ele>
        <time>2018-08-04T09:39:05Z</time>
      </trkpt>
      <trkpt lat="45.96383" lon="4.78104">
        <ele>200</ele>
        <time>2018-08-04T09:39:06Z</time>
      </trkpt>
      <trkpt lat="45.96379" lon="4.78099">
        <ele>200</ele>
        <time>2018-08-04T09:39:07Z</time>
      </trkpt>
      <trkpt lat="45.96375" lon="4.78094">
        <ele>200</ele>
        <time>2018-08-04T09:39:08Z</time>
      </trkpt>
      <trkpt lat="45.96368" lon="4.78092">
        <ele>199</ele>
        <time>2018-08-04T09:39:09Z</time>
      </trkpt>
      <trkpt lat="45.96363" lon="4.78087">
        <ele>199</ele>
        <time>2018-08-04T09:39:10Z</time>
      </trkpt>
      <trkpt lat="45.96358" lon="4.78083">
        <ele>202</ele>
        <time>2018-08-04T09:39:11Z</time>
      </trkpt>
      <trkpt lat="45.96353" lon="4.78077">
        <ele>201</ele>
        <time>2018-08-04T09:39:12Z</time>
      </trkpt>
      <trkpt lat="45.96349" lon="4.78072">
        <ele>201</ele>
        <time>2018-08-04T09:39:13Z</time>
      </trkpt>
      <trkpt lat="45.96346" lon="4.78066">
        <ele>202</ele>
        <time>2018-08-04T09:39:14Z</time>
      </trkpt>
      <trkpt lat="45.96342" lon="4.78059">
        <ele>202</ele>
        <time>2018-08-04T09:39:15Z</time>
      </trkpt>
      <trkpt lat="45.96338" lon="4.78055">
        <ele>202</ele>
        <time>2018-08-04T09:39:16Z</time>
      </trkpt>
      <trkpt lat="45.96334" lon="4.78048">
        <ele>203</ele>
        <time>2018-08-04T09:39:17Z</time>
      </trkpt>
      <trkpt lat="45.9633" lon="4.78043">
        <ele>199</ele>
        <time>2018-08-04T09:39:18Z</time>
      </trkpt>
      <trkpt lat="45.96328" lon="4.78037">
        <ele>200</ele>
        <time>2018-08-04T09:39:19Z</time>
      </trkpt>
      <trkpt lat="45.96323" lon="4.78033">
        <ele>200</ele>
        <time>2018-08-04T09:39:20Z</time>
      </trkpt>
      <trkpt lat="45.96317" lon="4.78026">
        <ele>200</ele>
        <time>2018-08-04T09:39:21Z</time>
      </trkpt>
      <trkpt lat="45.96311" lon="4.78021">
        <ele>200</ele>
        <time>2018-08-04T09:39:22Z</time>
      </trkpt>
      <trkpt lat="45.96307" lon="4.78016">
        <ele>200</ele>
        <time>2018-08-04T09:39:23Z</time>
      </trkpt>
      <trkpt lat="45.96302" lon="4.78011">
        <ele>200</ele>
        <time>2018-08-04T09:39:24Z</time>
      </trkpt>
      <trkpt lat="45.96296" lon="4.78006">
        <ele>199</ele>
        <time>2018-08-04T09:39:25Z</time>
      </trkpt>
      <trkpt lat="45.96292" lon="4.78">
        <ele>204</ele>
        <time>2018-08-04T09:39:26Z</time>
      </trkpt>
      <trkpt lat="45.96287" lon="4.77995">
        <ele>204</ele>
        <time>2018-08-04T09:39:27Z</time>
      </trkpt>
      <trkpt lat="45.96283" lon="4.77991">
        <ele>204</ele>
        <time>2018-08-04T09:39:28Z</time>
      </trkpt>
      <trkpt lat="45.96278" lon="4.77986">
        <ele>203</ele>
        <time>2018-08-04T09:39:29Z</time>
      </trkpt>
      <trkpt lat="45.96273" lon="4.77984">
        <ele>203</ele>
        <time>2018-08-04T09:39:30Z</time>
      </trkpt>
      <trkpt lat="45.96272" lon="4.77976">
        <ele>204</ele>
        <time>2018-08-04T09:39:31Z</time>
      </trkpt>
      <trkpt lat="45.96265" lon="4.77973">
        <ele>203</ele>
        <time>2018-08-04T09:39:32Z</time>
      </trkpt>
      <trkpt lat="45.9626" lon="4.77969">
        <ele>204</ele>
        <time>2018-08-04T09:39:33Z</time>
      </trkpt>
      <trkpt lat="45.96255" lon="4.77964">
        <ele>204</ele>
        <time>2018-08-04T09:39:34Z</time>
      </trkpt>
      <trkpt lat="45.96249" lon="4.7796">
        <ele>199</ele>
        <time>2018-08-04T09:39:35Z</time>
      </trkpt>
      <trkpt lat="45.96244" lon="4.77955">
        <ele>200</ele>
        <time>2018-08-04T09:39:36Z</time>
      </trkpt>
      <trkpt lat="45.9624" lon="4.7795">
        <ele>200</ele>
        <time>2018-08-04T09:39:37Z</time>
      </trkpt>
      <trkpt lat="45.96233" lon="4.77946">
        <ele>200</ele>
        <time>2018-08-04T09:39:38Z</time>
      </trkpt>
      <trkpt lat="45.96227" lon="4.7794">
        <ele>200</ele>
        <time>2018-08-04T09:39:39Z</time>
      </trkpt>
      <trkpt lat="45.96224" lon="4.77935">
        <ele>200</ele>
        <time>2018-08-04T09:39:40Z</time>
      </trkpt>
      <trkpt lat="45.9622" lon="4.77928">
        <ele>200</ele>
        <time>2018-08-04T09:39:41Z</time>
      </trkpt>
      <trkpt lat="45.96214" lon="4.77924">
        <ele>200</ele>
        <time>2018-08-04T09:39:42Z</time>
      </trkpt>
      <trkpt lat="45.9621" lon="4.77919">
        <ele>199</ele>
        <time>2018-08-04T09:39:43Z</time>
      </trkpt>
      <trkpt lat="45.96205" lon="4.77913">
        <ele>202</ele>
        <time>2018-08-04T09:39:44Z</time>
      </trkpt>
      <trkpt lat="45.96203" lon="4.77907">
        <ele>202</ele>
        <time>2018-08-04T09:39:45Z</time>
      </trkpt>
      <trkpt lat="45.96199" lon="4.77901">
        <ele>201</ele>
        <time>2018-08-04T09:39:46Z</time>
      </trkpt>
      <trkpt lat="45.96197" lon="4.77895">
        <ele>201</ele>
        <time>2018-08-04T09:39:47Z</time>
      </trkpt>
      <trkpt lat="45.96194" lon="4.7789">
        <ele>201</ele>
        <time>2018-08-04T09:39:48Z</time>
      </trkpt>
      <trkpt lat="45.96191" lon="4.77885">
        <ele>201</ele>
        <time>2018-08-04T09:39:49Z</time>
      </trkpt>
      <trkpt lat="45.96184" lon="4.77878">
        <ele>201</ele>
        <time>2018-08-04T09:39:50Z</time>
      </trkpt>
      <trkpt lat="45.96182" lon="4.77873">
        <ele>201</ele>
        <time>2018-08-04T09:39:51Z</time>
      </trkpt>
      <trkpt lat="45.96178" lon="4.77866">
        <ele>201</ele>
        <time>2018-08-04T09:39:52Z</time>
      </trkpt>
      <trkpt lat="45.96172" lon="4.7786">
        <ele>201</ele>
        <time>2018-08-04T09:39:53Z</time>
      </trkpt>
      <trkpt lat="45.96168" lon="4.77854">
        <ele>201</ele>
        <time>2018-08-04T09:39:54Z</time>
      </trkpt>
      <trkpt lat="45.96163" lon="4.77849">
        <ele>197</ele>
        <time>2018-08-04T09:39:55Z</time>
      </trkpt>
      <trkpt lat="45.9616" lon="4.77842">
        <ele>197</ele>
        <time>2018-08-04T09:39:56Z</time>
      </trkpt>
      <trkpt lat="45.96156" lon="4.77837">
        <ele>197</ele>
        <time>2018-08-04T09:39:57Z</time>
      </trkpt>
      <trkpt lat="45.96154" lon="4.77831">
        <ele>198</ele>
        <time>2018-08-04T09:39:58Z</time>
      </trkpt>
      <trkpt lat="45.96151" lon="4.77826">
        <ele>198</ele>
        <time>2018-08-04T09:39:59Z</time>
      </trkpt>
      <trkpt lat="45.96148" lon="4.7782">
        <ele>198</ele>
        <time>2018-08-04T09:40:00Z</time>
      </trkpt>
      <trkpt lat="45.96145" lon="4.77815">
        <ele>198</ele>
        <time>2018-08-04T09:40:01Z</time>
      </trkpt>
      <trkpt lat="45.96142" lon="4.77809">
        <ele>198</ele>
        <time>2018-08-04T09:40:02Z</time>
      </trkpt>
      <trkpt lat="45.96137" lon="4.77802">
        <ele>198</ele>
        <time>2018-08-04T09:40:03Z</time>
      </trkpt>
      <trkpt lat="45.96132" lon="4.77796">
        <ele>197</ele>
        <time>2018-08-04T09:40:04Z</time>
      </trkpt>
      <trkpt lat="45.96129" lon="4.7779">
        <ele>197</ele>
        <time>2018-08-04T09:40:05Z</time>
      </trkpt>
      <trkpt lat="45.96126" lon="4.77783">
        <ele>197</ele>
        <time>2018-08-04T09:40:06Z</time>
      </trkpt>
      <trkpt lat="45.96122" lon="4.77776">
        <ele>197</ele>
        <time>2018-08-04T09:40:07Z</time>
      </trkpt>
      <trkpt lat="45.96116" lon="4.7777">
        <ele>197</ele>
        <time>2018-08-04T09:40:08Z</time>
      </trkpt>
      <trkpt lat="45.96111" lon="4.77763">
        <ele>197</ele>
        <time>2018-08-04T09:40:09Z</time>
      </trkpt>
      <trkpt lat="45.96106" lon="4.77757">
        <ele>197</ele>
        <time>2018-08-04T09:40:10Z</time>
      </trkpt>
      <trkpt lat="45.96102" lon="4.7775">
        <ele>198</ele>
        <time>2018-08-04T09:40:11Z</time>
      </trkpt>
      <trkpt lat="45.96098" lon="4.77743">
        <ele>198</ele>
        <time>2018-08-04T09:40:12Z</time>
      </trkpt>
      <trkpt lat="45.96094" lon="4.77736">
        <ele>198</ele>
        <time>2018-08-04T09:40:13Z</time>
      </trkpt>
      <trkpt lat="45.9609" lon="4.77728">
        <ele>198</ele>
        <time>2018-08-04T09:40:14Z</time>
      </trkpt>
      <trkpt lat="45.96086" lon="4.77721">
        <ele>199</ele>
        <time>2018-08-04T09:40:15Z</time>
      </trkpt>
      <trkpt lat="45.96081" lon="4.77713">
        <ele>196</ele>
        <time>2018-08-04T09:40:16Z</time>
      </trkpt>
      <trkpt lat="45.96078" lon="4.77705">
        <ele>197</ele>
        <time>2018-08-04T09:40:17Z</time>
      </trkpt>
      <trkpt lat="45.96074" lon="4.77699">
        <ele>197</ele>
        <time>2018-08-04T09:40:18Z</time>
      </trkpt>
      <trkpt lat="45.9607" lon="4.77692">
        <ele>197</ele>
        <time>2018-08-04T09:40:19Z</time>
      </trkpt>
      <trkpt lat="45.96066" lon="4.77686">
        <ele>198</ele>
        <time>2018-08-04T09:40:20Z</time>
      </trkpt>
      <trkpt lat="45.96062" lon="4.77681">
        <ele>198</ele>
        <time>2018-08-04T09:40:21Z</time>
      </trkpt>
      <trkpt lat="45.96058" lon="4.77674">
        <ele>197</ele>
        <time>2018-08-04T09:40:22Z</time>
      </trkpt>
      <trkpt lat="45.96055" lon="4.77668">
        <ele>197</ele>
        <time>2018-08-04T09:40:23Z</time>
      </trkpt>
      <trkpt lat="45.96051" lon="4.77662">
        <ele>200</ele>
        <time>2018-08-04T09:40:24Z</time>
      </trkpt>
      <trkpt lat="45.96047" lon="4.77656">
        <ele>199</ele>
        <time>2018-08-04T09:40:25Z</time>
      </trkpt>
      <trkpt lat="45.96043" lon="4.7765">
        <ele>199</ele>
        <time>2018-08-04T09:40:26Z</time>
      </trkpt>
      <trkpt lat="45.96037" lon="4.77645">
        <ele>199</ele>
        <time>2018-08-04T09:40:27Z</time>
      </trkpt>
      <trkpt lat="45.96033" lon="4.7764">
        <ele>199</ele>
        <time>2018-08-04T09:40:28Z</time>
      </trkpt>
      <trkpt lat="45.96029" lon="4.77636">
        <ele>199</ele>
        <time>2018-08-04T09:40:29Z</time>
      </trkpt>
      <trkpt lat="45.96024" lon="4.77631">
        <ele>199</ele>
        <time>2018-08-04T09:40:30Z</time>
      </trkpt>
      <trkpt lat="45.96019" lon="4.77624">
        <ele>199</ele>
        <time>2018-08-04T09:40:31Z</time>
      </trkpt>
      <trkpt lat="45.96016" lon="4.77618">
        <ele>199</ele>
        <time>2018-08-04T09:40:32Z</time>
      </trkpt>
      <trkpt lat="45.96013" lon="4.77612">
        <ele>199</ele>
        <time>2018-08-04T09:40:33Z</time>
      </trkpt>
      <trkpt lat="45.9601" lon="4.77607">
        <ele>199</ele>
        <time>2018-08-04T09:40:34Z</time>
      </trkpt>
      <trkpt lat="45.96006" lon="4.77601">
        <ele>198</ele>
        <time>2018-08-04T09:40:35Z</time>
      </trkpt>
      <trkpt lat="45.96003" lon="4.77597">
        <ele>198</ele>
        <time>2018-08-04T09:40:36Z</time>
      </trkpt>
      <trkpt lat="45.95999" lon="4.77591">
        <ele>196</ele>
        <time>2018-08-04T09:40:37Z</time>
      </trkpt>
      <trkpt lat="45.95995" lon="4.77583">
        <ele>197</ele>
        <time>2018-08-04T09:40:38Z</time>
      </trkpt>
      <trkpt lat="45.95991" lon="4.77577">
        <ele>196</ele>
        <time>2018-08-04T09:40:39Z</time>
      </trkpt>
      <trkpt lat="45.95988" lon="4.77571">
        <ele>196</ele>
        <time>2018-08-04T09:40:40Z</time>
      </trkpt>
      <trkpt lat="45.95985" lon="4.77564">
        <ele>196</ele>
        <time>2018-08-04T09:40:41Z</time>
      </trkpt>
      <trkpt lat="45.95981" lon="4.77557">
        <ele>196</ele>
        <time>2018-08-04T09:40:42Z</time>
      </trkpt>
      <trkpt lat="45.95981" lon="4.77546">
        <ele>196</ele>
        <time>2018-08-04T09:40:44Z</time>
      </trkpt>
      <trkpt lat="45.9598" lon="4.7754">
        <ele>196</ele>
        <time>2018-08-04T09:40:45Z</time>
      </trkpt>
      <trkpt lat="45.95977" lon="4.77534">
        <ele>196</ele>
        <time>2018-08-04T09:40:46Z</time>
      </trkpt>
      <trkpt lat="45.95976" lon="4.77527">
        <ele>196</ele>
        <time>2018-08-04T09:40:47Z</time>
      </trkpt>
      <trkpt lat="45.95971" lon="4.77521">
        <ele>196</ele>
        <time>2018-08-04T09:40:48Z</time>
      </trkpt>
      <trkpt lat="45.95967" lon="4.77513">
        <ele>196</ele>
        <time>2018-08-04T09:40:49Z</time>
      </trkpt>
      <trkpt lat="45.95963" lon="4.77506">
        <ele>195</ele>
        <time>2018-08-04T09:40:50Z</time>
      </trkpt>
      <trkpt lat="45.9596" lon="4.77499">
        <ele>196</ele>
        <time>2018-08-04T09:40:51Z</time>
      </trkpt>
      <trkpt lat="45.95957" lon="4.77492">
        <ele>196</ele>
        <time>2018-08-04T09:40:52Z</time>
      </trkpt>
      <trkpt lat="45.95953" lon="4.77483">
        <ele>196</ele>
        <time>2018-08-04T09:40:53Z</time>
      </trkpt>
      <trkpt lat="45.9595" lon="4.77475">
        <ele>196</ele>
        <time>2018-08-04T09:40:54Z</time>
      </trkpt>
      <trkpt lat="45.95947" lon="4.77466">
        <ele>196</ele>
        <time>2018-08-04T09:40:55Z</time>
      </trkpt>
      <trkpt lat="45.95943" lon="4.77458">
        <ele>196</ele>
        <time>2018-08-04T09:40:56Z</time>
      </trkpt>
      <trkpt lat="45.9594" lon="4.77451">
        <ele>196</ele>
        <time>2018-08-04T09:40:57Z</time>
      </trkpt>
      <trkpt lat="45.95937" lon="4.77444">
        <ele>196</ele>
        <time>2018-08-04T09:40:58Z</time>
      </trkpt>
      <trkpt lat="45.95935" lon="4.77435">
        <ele>195</ele>
        <time>2018-08-04T09:40:59Z</time>
      </trkpt>
      <trkpt lat="45.95932" lon="4.77426">
        <ele>195</ele>
        <time>2018-08-04T09:41:00Z</time>
      </trkpt>
      <trkpt lat="45.95929" lon="4.77417">
        <ele>195</ele>
        <time>2018-08-04T09:41:01Z</time>
      </trkpt>
      <trkpt lat="45.95927" lon="4.77408">
        <ele>195</ele>
        <time>2018-08-04T09:41:02Z</time>
      </trkpt>
      <trkpt lat="45.95925" lon="4.774">
        <ele>196</ele>
        <time>2018-08-04T09:41:03Z</time>
      </trkpt>
      <trkpt lat="45.95922" lon="4.77391">
        <ele>196</ele>
        <time>2018-08-04T09:41:04Z</time>
      </trkpt>
      <trkpt lat="45.95919" lon="4.77383">
        <ele>196</ele>
        <time>2018-08-04T09:41:05Z</time>
      </trkpt>
      <trkpt lat="45.95916" lon="4.77375">
        <ele>193</ele>
        <time>2018-08-04T09:41:06Z</time>
      </trkpt>
      <trkpt lat="45.95912" lon="4.77366">
        <ele>193</ele>
        <time>2018-08-04T09:41:07Z</time>
      </trkpt>
      <trkpt lat="45.95909" lon="4.77358">
        <ele>193</ele>
        <time>2018-08-04T09:41:08Z</time>
      </trkpt>
      <trkpt lat="45.95907" lon="4.77349">
        <ele>193</ele>
        <time>2018-08-04T09:41:09Z</time>
      </trkpt>
      <trkpt lat="45.95905" lon="4.77341">
        <ele>194</ele>
        <time>2018-08-04T09:41:10Z</time>
      </trkpt>
      <trkpt lat="45.95902" lon="4.77331">
        <ele>194</ele>
        <time>2018-08-04T09:41:11Z</time>
      </trkpt>
      <trkpt lat="45.95899" lon="4.77322">
        <ele>194</ele>
        <time>2018-08-04T09:41:12Z</time>
      </trkpt>
      <trkpt lat="45.95896" lon="4.77311">
        <ele>193</ele>
        <time>2018-08-04T09:41:13Z</time>
      </trkpt>
      <trkpt lat="45.95893" lon="4.77303">
        <ele>193</ele>
        <time>2018-08-04T09:41:14Z</time>
      </trkpt>
      <trkpt lat="45.9589" lon="4.77292">
        <ele>193</ele>
        <time>2018-08-04T09:41:15Z</time>
      </trkpt>
      <trkpt lat="45.95886" lon="4.77279">
        <ele>193</ele>
        <time>2018-08-04T09:41:16Z</time>
      </trkpt>
      <trkpt lat="45.95884" lon="4.77269">
        <ele>193</ele>
        <time>2018-08-04T09:41:17Z</time>
      </trkpt>
      <trkpt lat="45.95881" lon="4.77258">
        <ele>193</ele>
        <time>2018-08-04T09:41:18Z</time>
      </trkpt>
      <trkpt lat="45.95879" lon="4.7725">
        <ele>193</ele>
        <time>2018-08-04T09:41:19Z</time>
      </trkpt>
      <trkpt lat="45.95877" lon="4.77241">
        <ele>193</ele>
        <time>2018-08-04T09:41:20Z</time>
      </trkpt>
      <trkpt lat="45.95875" lon="4.77231">
        <ele>193</ele>
        <time>2018-08-04T09:41:21Z</time>
      </trkpt>
      <trkpt lat="45.95873" lon="4.77222">
        <ele>193</ele>
        <time>2018-08-04T09:41:22Z</time>
      </trkpt>
      <trkpt lat="45.9587" lon="4.77214">
        <ele>193</ele>
        <time>2018-08-04T09:41:23Z</time>
      </trkpt>
      <trkpt lat="45.95868" lon="4.77204">
        <ele>193</ele>
        <time>2018-08-04T09:41:24Z</time>
      </trkpt>
      <trkpt lat="45.95866" lon="4.77195">
        <ele>193</ele>
        <time>2018-08-04T09:41:25Z</time>
      </trkpt>
      <trkpt lat="45.95864" lon="4.77187">
        <ele>192</ele>
        <time>2018-08-04T09:41:26Z</time>
      </trkpt>
      <trkpt lat="45.95861" lon="4.77179">
        <ele>192</ele>
        <time>2018-08-04T09:41:27Z</time>
      </trkpt>
      <trkpt lat="45.95859" lon="4.77171">
        <ele>192</ele>
        <time>2018-08-04T09:41:28Z</time>
      </trkpt>
      <trkpt lat="45.95857" lon="4.77163">
        <ele>192</ele>
        <time>2018-08-04T09:41:29Z</time>
      </trkpt>
      <trkpt lat="45.95855" lon="4.77154">
        <ele>192</ele>
        <time>2018-08-04T09:41:30Z</time>
      </trkpt>
      <trkpt lat="45.95853" lon="4.77145">
        <ele>193</ele>
        <time>2018-08-04T09:41:31Z</time>
      </trkpt>
      <trkpt lat="45.95851" lon="4.77136">
        <ele>193</ele>
        <time>2018-08-04T09:41:32Z</time>
      </trkpt>
      <trkpt lat="45.95847" lon="4.77127">
        <ele>193</ele>
        <time>2018-08-04T09:41:33Z</time>
      </trkpt>
      <trkpt lat="45.95843" lon="4.77117">
        <ele>193</ele>
        <time>2018-08-04T09:41:34Z</time>
      </trkpt>
      <trkpt lat="45.95841" lon="4.77107">
        <ele>193</ele>
        <time>2018-08-04T09:41:35Z</time>
      </trkpt>
      <trkpt lat="45.95841" lon="4.77099">
        <ele>193</ele>
        <time>2018-08-04T09:41:36Z</time>
      </trkpt>
      <trkpt lat="45.95836" lon="4.7709">
        <ele>192</ele>
        <time>2018-08-04T09:41:37Z</time>
      </trkpt>
      <trkpt lat="45.95833" lon="4.77081">
        <ele>192</ele>
        <time>2018-08-04T09:41:38Z</time>
      </trkpt>
      <trkpt lat="45.95829" lon="4.77072">
        <ele>191</ele>
        <time>2018-08-04T09:41:39Z</time>
      </trkpt>
      <trkpt lat="45.9582" lon="4.77061">
        <ele>190</ele>
        <time>2018-08-04T09:41:40Z</time>
      </trkpt>
      <trkpt lat="45.95818" lon="4.77054">
        <ele>190</ele>
        <time>2018-08-04T09:41:41Z</time>
      </trkpt>
      <trkpt lat="45.95817" lon="4.77047">
        <ele>190</ele>
        <time>2018-08-04T09:41:42Z</time>
      </trkpt>
      <trkpt lat="45.95814" lon="4.77039">
        <ele>190</ele>
        <time>2018-08-04T09:41:43Z</time>
      </trkpt>
      <trkpt lat="45.95811" lon="4.77031">
        <ele>190</ele>
        <time>2018-08-04T09:41:44Z</time>
      </trkpt>
      <trkpt lat="45.95808" lon="4.77024">
        <ele>190</ele>
        <time>2018-08-04T09:41:45Z</time>
      </trkpt>
      <trkpt lat="45.95805" lon="4.77017">
        <ele>190</ele>
        <time>2018-08-04T09:41:46Z</time>
      </trkpt>
      <trkpt lat="45.95802" lon="4.77008">
        <ele>190</ele>
        <time>2018-08-04T09:41:47Z</time>
      </trkpt>
      <trkpt lat="45.958" lon="4.76999">
        <ele>189</ele>
        <time>2018-08-04T09:41:48Z</time>
      </trkpt>
      <trkpt lat="45.95798" lon="4.76989">
        <ele>189</ele>
        <time>2018-08-04T09:41:49Z</time>
      </trkpt>
      <trkpt lat="45.95799" lon="4.7698">
        <ele>189</ele>
        <time>2018-08-04T09:41:50Z</time>
      </trkpt>
      <trkpt lat="45.95798" lon="4.76969">
        <ele>189</ele>
        <time>2018-08-04T09:41:51Z</time>
      </trkpt>
      <trkpt lat="45.958" lon="4.76961">
        <ele>189</ele>
        <time>2018-08-04T09:41:52Z</time>
      </trkpt>
      <trkpt lat="45.95801" lon="4.76951">
        <ele>189</ele>
        <time>2018-08-04T09:41:53Z</time>
      </trkpt>
      <trkpt lat="45.95803" lon="4.76942">
        <ele>189</ele>
        <time>2018-08-04T09:41:54Z</time>
      </trkpt>
      <trkpt lat="45.95805" lon="4.76934">
        <ele>189</ele>
        <time>2018-08-04T09:41:55Z</time>
      </trkpt>
      <trkpt lat="45.95808" lon="4.76926">
        <ele>189</ele>
        <time>2018-08-04T09:41:56Z</time>
      </trkpt>
      <trkpt lat="45.9581" lon="4.76917">
        <ele>189</ele>
        <time>2018-08-04T09:41:57Z</time>
      </trkpt>
      <trkpt lat="45.95812" lon="4.76908">
        <ele>189</ele>
        <time>2018-08-04T09:41:58Z</time>
      </trkpt>
      <trkpt lat="45.95814" lon="4.76901">
        <ele>189</ele>
        <time>2018-08-04T09:41:59Z</time>
      </trkpt>
      <trkpt lat="45.95814" lon="4.76893">
        <ele>189</ele>
        <time>2018-08-04T09:42:00Z</time>
      </trkpt>
      <trkpt lat="45.95815" lon="4.76884">
        <ele>189</ele>
        <time>2018-08-04T09:42:01Z</time>
      </trkpt>
      <trkpt lat="45.95816" lon="4.76877">
        <ele>189</ele>
        <time>2018-08-04T09:42:02Z</time>
      </trkpt>
      <trkpt lat="45.95818" lon="4.76869">
        <ele>189</ele>
        <time>2018-08-04T09:42:03Z</time>
      </trkpt>
      <trkpt lat="45.95819" lon="4.76863">
        <ele>189</ele>
        <time>2018-08-04T09:42:04Z</time>
      </trkpt>
      <trkpt lat="45.95821" lon="4.76856">
        <ele>189</ele>
        <time>2018-08-04T09:42:05Z</time>
      </trkpt>
      <trkpt lat="45.95822" lon="4.76848">
        <ele>190</ele>
        <time>2018-08-04T09:42:06Z</time>
      </trkpt>
      <trkpt lat="45.95823" lon="4.76841">
        <ele>190</ele>
        <time>2018-08-04T09:42:07Z</time>
      </trkpt>
      <trkpt lat="45.95824" lon="4.76834">
        <ele>190</ele>
        <time>2018-08-04T09:42:08Z</time>
      </trkpt>
      <trkpt lat="45.95826" lon="4.76826">
        <ele>190</ele>
        <time>2018-08-04T09:42:09Z</time>
      </trkpt>
      <trkpt lat="45.95825" lon="4.76819">
        <ele>190</ele>
        <time>2018-08-04T09:42:10Z</time>
      </trkpt>
      <trkpt lat="45.95827" lon="4.76806">
        <ele>190</ele>
        <time>2018-08-04T09:42:12Z</time>
      </trkpt>
      <trkpt lat="45.95828" lon="4.768">
        <ele>190</ele>
        <time>2018-08-04T09:42:13Z</time>
      </trkpt>
      <trkpt lat="45.9583" lon="4.76793">
        <ele>190</ele>
        <time>2018-08-04T09:42:14Z</time>
      </trkpt>
      <trkpt lat="45.95829" lon="4.76787">
        <ele>190</ele>
        <time>2018-08-04T09:42:15Z</time>
      </trkpt>
      <trkpt lat="45.95829" lon="4.76779">
        <ele>190</ele>
        <time>2018-08-04T09:42:16Z</time>
      </trkpt>
      <trkpt lat="45.95827" lon="4.76773">
        <ele>190</ele>
        <time>2018-08-04T09:42:17Z</time>
      </trkpt>
      <trkpt lat="45.95826" lon="4.76766">
        <ele>190</ele>
        <time>2018-08-04T09:42:18Z</time>
      </trkpt>
      <trkpt lat="45.95824" lon="4.76758">
        <ele>190</ele>
        <time>2018-08-04T09:42:19Z</time>
      </trkpt>
      <trkpt lat="45.95821" lon="4.76749">
        <ele>190</ele>
        <time>2018-08-04T09:42:20Z</time>
      </trkpt>
      <trkpt lat="45.9582" lon="4.76739">
        <ele>190</ele>
        <time>2018-08-04T09:42:21Z</time>
      </trkpt>
      <trkpt lat="45.95818" lon="4.76729">
        <ele>190</ele>
        <time>2018-08-04T09:42:22Z</time>
      </trkpt>
      <trkpt lat="45.95816" lon="4.7672">
        <ele>189</ele>
        <time>2018-08-04T09:42:23Z</time>
      </trkpt>
      <trkpt lat="45.95814" lon="4.76711">
        <ele>189</ele>
        <time>2018-08-04T09:42:24Z</time>
      </trkpt>
      <trkpt lat="45.95813" lon="4.76702">
        <ele>189</ele>
        <time>2018-08-04T09:42:25Z</time>
      </trkpt>
      <trkpt lat="45.95812" lon="4.76692">
        <ele>189</ele>
        <time>2018-08-04T09:42:26Z</time>
      </trkpt>
      <trkpt lat="45.95811" lon="4.76683">
        <ele>189</ele>
        <time>2018-08-04T09:42:27Z</time>
      </trkpt>
      <trkpt lat="45.9581" lon="4.76676">
        <ele>189</ele>
        <time>2018-08-04T09:42:28Z</time>
      </trkpt>
      <trkpt lat="45.95808" lon="4.76667">
        <ele>188</ele>
        <time>2018-08-04T09:42:29Z</time>
      </trkpt>
      <trkpt lat="45.95807" lon="4.76659">
        <ele>188</ele>
        <time>2018-08-04T09:42:30Z</time>
      </trkpt>
      <trkpt lat="45.95808" lon="4.76651">
        <ele>188</ele>
        <time>2018-08-04T09:42:31Z</time>
      </trkpt>
      <trkpt lat="45.95808" lon="4.76642">
        <ele>188</ele>
        <time>2018-08-04T09:42:32Z</time>
      </trkpt>
      <trkpt lat="45.95805" lon="4.76634">
        <ele>188</ele>
        <time>2018-08-04T09:42:33Z</time>
      </trkpt>
      <trkpt lat="45.95804" lon="4.76625">
        <ele>188</ele>
        <time>2018-08-04T09:42:34Z</time>
      </trkpt>
      <trkpt lat="45.95804" lon="4.76616">
        <ele>188</ele>
        <time>2018-08-04T09:42:35Z</time>
      </trkpt>
      <trkpt lat="45.95803" lon="4.76607">
        <ele>188</ele>
        <time>2018-08-04T09:42:36Z</time>
      </trkpt>
      <trkpt lat="45.95803" lon="4.76597">
        <ele>187</ele>
        <time>2018-08-04T09:42:37Z</time>
      </trkpt>
      <trkpt lat="45.95802" lon="4.76589">
        <ele>187</ele>
        <time>2018-08-04T09:42:38Z</time>
      </trkpt>
      <trkpt lat="45.958" lon="4.7658">
        <ele>187</ele>
        <time>2018-08-04T09:42:39Z</time>
      </trkpt>
      <trkpt lat="45.95798" lon="4.76571">
        <ele>187</ele>
        <time>2018-08-04T09:42:40Z</time>
      </trkpt>
      <trkpt lat="45.95795" lon="4.76562">
        <ele>187</ele>
        <time>2018-08-04T09:42:41Z</time>
      </trkpt>
      <trkpt lat="45.95794" lon="4.76552">
        <ele>187</ele>
        <time>2018-08-04T09:42:42Z</time>
      </trkpt>
      <trkpt lat="45.95793" lon="4.76544">
        <ele>187</ele>
        <time>2018-08-04T09:42:43Z</time>
      </trkpt>
      <trkpt lat="45.95789" lon="4.76535">
        <ele>187</ele>
        <time>2018-08-04T09:42:44Z</time>
      </trkpt>
      <trkpt lat="45.95788" lon="4.76527">
        <ele>187</ele>
        <time>2018-08-04T09:42:45Z</time>
      </trkpt>
      <trkpt lat="45.95787" lon="4.76518">
        <ele>187</ele>
        <time>2018-08-04T09:42:46Z</time>
      </trkpt>
      <trkpt lat="45.95785" lon="4.7651">
        <ele>187</ele>
        <time>2018-08-04T09:42:47Z</time>
      </trkpt>
      <trkpt lat="45.95784" lon="4.76501">
        <ele>186</ele>
        <time>2018-08-04T09:42:48Z</time>
      </trkpt>
      <trkpt lat="45.95784" lon="4.76492">
        <ele>186</ele>
        <time>2018-08-04T09:42:49Z</time>
      </trkpt>
      <trkpt lat="45.95782" lon="4.76483">
        <ele>186</ele>
        <time>2018-08-04T09:42:50Z</time>
      </trkpt>
      <trkpt lat="45.95781" lon="4.76475">
        <ele>186</ele>
        <time>2018-08-04T09:42:51Z</time>
      </trkpt>
      <trkpt lat="45.9578" lon="4.76467">
        <ele>186</ele>
        <time>2018-08-04T09:42:52Z</time>
      </trkpt>
      <trkpt lat="45.95779" lon="4.76458">
        <ele>186</ele>
        <time>2018-08-04T09:42:53Z</time>
      </trkpt>
      <trkpt lat="45.95778" lon="4.76451">
        <ele>186</ele>
        <time>2018-08-04T09:42:54Z</time>
      </trkpt>
      <trkpt lat="45.95777" lon="4.76443">
        <ele>186</ele>
        <time>2018-08-04T09:42:55Z</time>
      </trkpt>
      <trkpt lat="45.95776" lon="4.76434">
        <ele>186</ele>
        <time>2018-08-04T09:42:56Z</time>
      </trkpt>
      <trkpt lat="45.95775" lon="4.76426">
        <ele>186</ele>
        <time>2018-08-04T09:42:57Z</time>
      </trkpt>
      <trkpt lat="45.95775" lon="4.76419">
        <ele>186</ele>
        <time>2018-08-04T09:42:58Z</time>
      </trkpt>
      <trkpt lat="45.95775" lon="4.76412">
        <ele>186</ele>
        <time>2018-08-04T09:42:59Z</time>
      </trkpt>
      <trkpt lat="45.95775" lon="4.76405">
        <ele>186</ele>
        <time>2018-08-04T09:43:00Z</time>
      </trkpt>
      <trkpt lat="45.95774" lon="4.76399">
        <ele>186</ele>
        <time>2018-08-04T09:43:01Z</time>
      </trkpt>
      <trkpt lat="45.95774" lon="4.76387">
        <ele>186</ele>
        <time>2018-08-04T09:43:05Z</time>
      </trkpt>
      <trkpt lat="45.95774" lon="4.76385">
        <ele>186</ele>
        <time>2018-08-04T09:43:06Z</time>
      </trkpt>
      <trkpt lat="45.95768" lon="4.76392">
        <ele>186</ele>
        <time>2018-08-04T09:44:35Z</time>
      </trkpt>
      <trkpt lat="45.95768" lon="4.76392">
        <ele>186</ele>
        <time>2018-08-04T09:44:36Z</time>
      </trkpt>
      <trkpt lat="45.95768" lon="4.76394">
        <ele>186</ele>
        <time>2018-08-04T09:44:50Z</time>
      </trkpt>
      <trkpt lat="45.95768" lon="4.76394">
        <ele>186</ele>
        <time>2018-08-04T09:44:51Z</time>
      </trkpt>
      <trkpt lat="45.95768" lon="4.76381">
        <ele>186</ele>
        <time>2018-08-04T09:45:11Z</time>
      </trkpt>
      <trkpt lat="45.95768" lon="4.76381">
        <ele>186</ele>
        <time>2018-08-04T09:45:12Z</time>
      </trkpt>
      <trkpt lat="45.95771" lon="4.76369">
        <ele>186</ele>
        <time>2018-08-04T09:46:40Z</time>
      </trkpt>
      <trkpt lat="45.95771" lon="4.76366">
        <ele>186</ele>
        <time>2018-08-04T09:46:41Z</time>
      </trkpt>
      <trkpt lat="45.95771" lon="4.76354">
        <ele>186</ele>
        <time>2018-08-04T09:46:45Z</time>
      </trkpt>
      <trkpt lat="45.95771" lon="4.7635">
        <ele>186</ele>
        <time>2018-08-04T09:46:46Z</time>
      </trkpt>
      <trkpt lat="45.9577" lon="4.76338">
        <ele>186</ele>
        <time>2018-08-04T09:46:49Z</time>
      </trkpt>
      <trkpt lat="45.95769" lon="4.76326">
        <ele>185</ele>
        <time>2018-08-04T09:46:50Z</time>
      </trkpt>
      <trkpt lat="45.95769" lon="4.76316">
        <ele>185</ele>
        <time>2018-08-04T09:46:52Z</time>
      </trkpt>
      <trkpt lat="45.95769" lon="4.7631">
        <ele>185</ele>
        <time>2018-08-04T09:46:53Z</time>
      </trkpt>
      <trkpt lat="45.95769" lon="4.76298">
        <ele>186</ele>
        <time>2018-08-04T09:46:55Z</time>
      </trkpt>
      <trkpt lat="45.95767" lon="4.76291">
        <ele>186</ele>
        <time>2018-08-04T09:46:56Z</time>
      </trkpt>
      <trkpt lat="45.95765" lon="4.76279">
        <ele>186</ele>
        <time>2018-08-04T09:46:58Z</time>
      </trkpt>
      <trkpt lat="45.95765" lon="4.76271">
        <ele>185</ele>
        <time>2018-08-04T09:46:59Z</time>
      </trkpt>
      <trkpt lat="45.95764" lon="4.76264">
        <ele>185</ele>
        <time>2018-08-04T09:47:00Z</time>
      </trkpt>
      <trkpt lat="45.95763" lon="4.76257">
        <ele>185</ele>
        <time>2018-08-04T09:47:01Z</time>
      </trkpt>
      <trkpt lat="45.95763" lon="4.76248">
        <ele>185</ele>
        <time>2018-08-04T09:47:02Z</time>
      </trkpt>
      <trkpt lat="45.95762" lon="4.76242">
        <ele>185</ele>
        <time>2018-08-04T09:47:03Z</time>
      </trkpt>
      <trkpt lat="45.95762" lon="4.76229">
        <ele>186</ele>
        <time>2018-08-04T09:47:05Z</time>
      </trkpt>
      <trkpt lat="45.95761" lon="4.76222">
        <ele>186</ele>
        <time>2018-08-04T09:47:06Z</time>
      </trkpt>
      <trkpt lat="45.95761" lon="4.76215">
        <ele>186</ele>
        <time>2018-08-04T09:47:07Z</time>
      </trkpt>
      <trkpt lat="45.95761" lon="4.76208">
        <ele>186</ele>
        <time>2018-08-04T09:47:08Z</time>
      </trkpt>
      <trkpt lat="45.9576" lon="4.76201">
        <ele>186</ele>
        <time>2018-08-04T09:47:09Z</time>
      </trkpt>
      <trkpt lat="45.9576" lon="4.76195">
        <ele>186</ele>
        <time>2018-08-04T09:47:10Z</time>
      </trkpt>
      <trkpt lat="45.95759" lon="4.76188">
        <ele>186</ele>
        <time>2018-08-04T09:47:11Z</time>
      </trkpt>
      <trkpt lat="45.95758" lon="4.76181">
        <ele>185</ele>
        <time>2018-08-04T09:47:12Z</time>
      </trkpt>
      <trkpt lat="45.95757" lon="4.76173">
        <ele>185</ele>
        <time>2018-08-04T09:47:13Z</time>
      </trkpt>
      <trkpt lat="45.95758" lon="4.76167">
        <ele>185</ele>
        <time>2018-08-04T09:47:14Z</time>
      </trkpt>
      <trkpt lat="45.95757" lon="4.76159">
        <ele>185</ele>
        <time>2018-08-04T09:47:15Z</time>
      </trkpt>
      <trkpt lat="45.95756" lon="4.7615">
        <ele>186</ele>
        <time>2018-08-04T09:47:16Z</time>
      </trkpt>
      <trkpt lat="45.95756" lon="4.76144">
        <ele>186</ele>
        <time>2018-08-04T09:47:17Z</time>
      </trkpt>
      <trkpt lat="45.95755" lon="4.76137">
        <ele>186</ele>
        <time>2018-08-04T09:47:18Z</time>
      </trkpt>
      <trkpt lat="45.95755" lon="4.76129">
        <ele>186</ele>
        <time>2018-08-04T09:47:19Z</time>
      </trkpt>
      <trkpt lat="45.95755" lon="4.76123">
        <ele>186</ele>
        <time>2018-08-04T09:47:20Z</time>
      </trkpt>
      <trkpt lat="45.95755" lon="4.76116">
        <ele>186</ele>
        <time>2018-08-04T09:47:21Z</time>
      </trkpt>
      <trkpt lat="45.95754" lon="4.76109">
        <ele>186</ele>
        <time>2018-08-04T09:47:22Z</time>
      </trkpt>
      <trkpt lat="45.95752" lon="4.76103">
        <ele>186</ele>
        <time>2018-08-04T09:47:23Z</time>
      </trkpt>
      <trkpt lat="45.95751" lon="4.76096">
        <ele>186</ele>
        <time>2018-08-04T09:47:24Z</time>
      </trkpt>
      <trkpt lat="45.95749" lon="4.76089">
        <ele>185</ele>
        <time>2018-08-04T09:47:25Z</time>
      </trkpt>
      <trkpt lat="45.95746" lon="4.76083">
        <ele>185</ele>
        <time>2018-08-04T09:47:26Z</time>
      </trkpt>
      <trkpt lat="45.95743" lon="4.76075">
        <ele>185</ele>
        <time>2018-08-04T09:47:27Z</time>
      </trkpt>
      <trkpt lat="45.95741" lon="4.76069">
        <ele>185</ele>
        <time>2018-08-04T09:47:28Z</time>
      </trkpt>
      <trkpt lat="45.95737" lon="4.76062">
        <ele>184</ele>
        <time>2018-08-04T09:47:29Z</time>
      </trkpt>
      <trkpt lat="45.95733" lon="4.76054">
        <ele>184</ele>
        <time>2018-08-04T09:47:30Z</time>
      </trkpt>
      <trkpt lat="45.9573" lon="4.76046">
        <ele>184</ele>
        <time>2018-08-04T09:47:31Z</time>
      </trkpt>
      <trkpt lat="45.95728" lon="4.76039">
        <ele>184</ele>
        <time>2018-08-04T09:47:32Z</time>
      </trkpt>
      <trkpt lat="45.95725" lon="4.76032">
        <ele>184</ele>
        <time>2018-08-04T09:47:33Z</time>
      </trkpt>
      <trkpt lat="45.95724" lon="4.76024">
        <ele>184</ele>
        <time>2018-08-04T09:47:34Z</time>
      </trkpt>
      <trkpt lat="45.9572" lon="4.76017">
        <ele>184</ele>
        <time>2018-08-04T09:47:35Z</time>
      </trkpt>
      <trkpt lat="45.9572" lon="4.76011">
        <ele>184</ele>
        <time>2018-08-04T09:47:36Z</time>
      </trkpt>
      <trkpt lat="45.95717" lon="4.76004">
        <ele>184</ele>
        <time>2018-08-04T09:47:37Z</time>
      </trkpt>
      <trkpt lat="45.95713" lon="4.75999">
        <ele>185</ele>
        <time>2018-08-04T09:47:38Z</time>
      </trkpt>
      <trkpt lat="45.9571" lon="4.75991">
        <ele>185</ele>
        <time>2018-08-04T09:47:39Z</time>
      </trkpt>
      <trkpt lat="45.95709" lon="4.75985">
        <ele>185</ele>
        <time>2018-08-04T09:47:40Z</time>
      </trkpt>
      <trkpt lat="45.95707" lon="4.75979">
        <ele>185</ele>
        <time>2018-08-04T09:47:41Z</time>
      </trkpt>
      <trkpt lat="45.95704" lon="4.75972">
        <ele>185</ele>
        <time>2018-08-04T09:47:42Z</time>
      </trkpt>
      <trkpt lat="45.957" lon="4.75965">
        <ele>185</ele>
        <time>2018-08-04T09:47:43Z</time>
      </trkpt>
      <trkpt lat="45.95698" lon="4.75959">
        <ele>185</ele>
        <time>2018-08-04T09:47:44Z</time>
      </trkpt>
      <trkpt lat="45.95694" lon="4.75952">
        <ele>185</ele>
        <time>2018-08-04T09:47:45Z</time>
      </trkpt>
      <trkpt lat="45.95693" lon="4.75945">
        <ele>185</ele>
        <time>2018-08-04T09:47:46Z</time>
      </trkpt>
      <trkpt lat="45.95689" lon="4.75938">
        <ele>185</ele>
        <time>2018-08-04T09:47:47Z</time>
      </trkpt>
      <trkpt lat="45.95685" lon="4.75931">
        <ele>185</ele>
        <time>2018-08-04T09:47:48Z</time>
      </trkpt>
      <trkpt lat="45.95682" lon="4.75923">
        <ele>185</ele>
        <time>2018-08-04T09:47:49Z</time>
      </trkpt>
      <trkpt lat="45.95679" lon="4.75915">
        <ele>185</ele>
        <time>2018-08-04T09:47:50Z</time>
      </trkpt>
      <trkpt lat="45.95678" lon="4.75908">
        <ele>185</ele>
        <time>2018-08-04T09:47:51Z</time>
      </trkpt>
      <trkpt lat="45.95675" lon="4.759">
        <ele>185</ele>
        <time>2018-08-04T09:47:52Z</time>
      </trkpt>
      <trkpt lat="45.95674" lon="4.75894">
        <ele>186</ele>
        <time>2018-08-04T09:47:53Z</time>
      </trkpt>
      <trkpt lat="45.95672" lon="4.75887">
        <ele>186</ele>
        <time>2018-08-04T09:47:54Z</time>
      </trkpt>
      <trkpt lat="45.95671" lon="4.75879">
        <ele>186</ele>
        <time>2018-08-04T09:47:55Z</time>
      </trkpt>
      <trkpt lat="45.95668" lon="4.75872">
        <ele>186</ele>
        <time>2018-08-04T09:47:56Z</time>
      </trkpt>
      <trkpt lat="45.95666" lon="4.75866">
        <ele>184</ele>
        <time>2018-08-04T09:47:57Z</time>
      </trkpt>
      <trkpt lat="45.95662" lon="4.7586">
        <ele>184</ele>
        <time>2018-08-04T09:47:58Z</time>
      </trkpt>
      <trkpt lat="45.95658" lon="4.75852">
        <ele>185</ele>
        <time>2018-08-04T09:47:59Z</time>
      </trkpt>
      <trkpt lat="45.95656" lon="4.75844">
        <ele>185</ele>
        <time>2018-08-04T09:48:00Z</time>
      </trkpt>
      <trkpt lat="45.95654" lon="4.75836">
        <ele>185</ele>
        <time>2018-08-04T09:48:01Z</time>
      </trkpt>
      <trkpt lat="45.95653" lon="4.75829">
        <ele>185</ele>
        <time>2018-08-04T09:48:02Z</time>
      </trkpt>
      <trkpt lat="45.9565" lon="4.75821">
        <ele>185</ele>
        <time>2018-08-04T09:48:03Z</time>
      </trkpt>
      <trkpt lat="45.95647" lon="4.75814">
        <ele>185</ele>
        <time>2018-08-04T09:48:04Z</time>
      </trkpt>
      <trkpt lat="45.95646" lon="4.75808">
        <ele>185</ele>
        <time>2018-08-04T09:48:05Z</time>
      </trkpt>
      <trkpt lat="45.95644" lon="4.75801">
        <ele>185</ele>
        <time>2018-08-04T09:48:06Z</time>
      </trkpt>
      <trkpt lat="45.95643" lon="4.7579">
        <ele>185</ele>
        <time>2018-08-04T09:48:08Z</time>
      </trkpt>
      <trkpt lat="45.95642" lon="4.75783">
        <ele>186</ele>
        <time>2018-08-04T09:48:09Z</time>
      </trkpt>
      <trkpt lat="45.95641" lon="4.75776">
        <ele>186</ele>
        <time>2018-08-04T09:48:10Z</time>
      </trkpt>
      <trkpt lat="45.95641" lon="4.7577">
        <ele>186</ele>
        <time>2018-08-04T09:48:11Z</time>
      </trkpt>
      <trkpt lat="45.9564" lon="4.75763">
        <ele>186</ele>
        <time>2018-08-04T09:48:12Z</time>
      </trkpt>
      <trkpt lat="45.9564" lon="4.75756">
        <ele>186</ele>
        <time>2018-08-04T09:48:13Z</time>
      </trkpt>
      <trkpt lat="45.95638" lon="4.75749">
        <ele>187</ele>
        <time>2018-08-04T09:48:14Z</time>
      </trkpt>
      <trkpt lat="45.95638" lon="4.75741">
        <ele>187</ele>
        <time>2018-08-04T09:48:15Z</time>
      </trkpt>
      <trkpt lat="45.95636" lon="4.75734">
        <ele>187</ele>
        <time>2018-08-04T09:48:16Z</time>
      </trkpt>
      <trkpt lat="45.95637" lon="4.75728">
        <ele>187</ele>
        <time>2018-08-04T09:48:17Z</time>
      </trkpt>
      <trkpt lat="45.95636" lon="4.7572">
        <ele>187</ele>
        <time>2018-08-04T09:48:18Z</time>
      </trkpt>
      <trkpt lat="45.95634" lon="4.75712">
        <ele>187</ele>
        <time>2018-08-04T09:48:19Z</time>
      </trkpt>
      <trkpt lat="45.95634" lon="4.75704">
        <ele>187</ele>
        <time>2018-08-04T09:48:20Z</time>
      </trkpt>
      <trkpt lat="45.95633" lon="4.75697">
        <ele>187</ele>
        <time>2018-08-04T09:48:21Z</time>
      </trkpt>
      <trkpt lat="45.95632" lon="4.7569">
        <ele>187</ele>
        <time>2018-08-04T09:48:22Z</time>
      </trkpt>
      <trkpt lat="45.95629" lon="4.75683">
        <ele>187</ele>
        <time>2018-08-04T09:48:23Z</time>
      </trkpt>
      <trkpt lat="45.95628" lon="4.75675">
        <ele>187</ele>
        <time>2018-08-04T09:48:24Z</time>
      </trkpt>
      <trkpt lat="45.95627" lon="4.75668">
        <ele>187</ele>
        <time>2018-08-04T09:48:25Z</time>
      </trkpt>
      <trkpt lat="45.95625" lon="4.75661">
        <ele>188</ele>
        <time>2018-08-04T09:48:26Z</time>
      </trkpt>
      <trkpt lat="45.95623" lon="4.75653">
        <ele>188</ele>
        <time>2018-08-04T09:48:27Z</time>
      </trkpt>
      <trkpt lat="45.95622" lon="4.75644">
        <ele>188</ele>
        <time>2018-08-04T09:48:28Z</time>
      </trkpt>
      <trkpt lat="45.9562" lon="4.75637">
        <ele>188</ele>
        <time>2018-08-04T09:48:29Z</time>
      </trkpt>
      <trkpt lat="45.95617" lon="4.75629">
        <ele>188</ele>
        <time>2018-08-04T09:48:30Z</time>
      </trkpt>
      <trkpt lat="45.95616" lon="4.75622">
        <ele>188</ele>
        <time>2018-08-04T09:48:31Z</time>
      </trkpt>
      <trkpt lat="45.95612" lon="4.75616">
        <ele>188</ele>
        <time>2018-08-04T09:48:32Z</time>
      </trkpt>
      <trkpt lat="45.95609" lon="4.75608">
        <ele>188</ele>
        <time>2018-08-04T09:48:33Z</time>
      </trkpt>
      <trkpt lat="45.95605" lon="4.756">
        <ele>187</ele>
        <time>2018-08-04T09:48:34Z</time>
      </trkpt>
      <trkpt lat="45.95603" lon="4.75593">
        <ele>187</ele>
        <time>2018-08-04T09:48:35Z</time>
      </trkpt>
      <trkpt lat="45.95599" lon="4.75589">
        <ele>187</ele>
        <time>2018-08-04T09:48:36Z</time>
      </trkpt>
      <trkpt lat="45.95596" lon="4.75581">
        <ele>187</ele>
        <time>2018-08-04T09:48:37Z</time>
      </trkpt>
      <trkpt lat="45.95593" lon="4.75575">
        <ele>187</ele>
        <time>2018-08-04T09:48:38Z</time>
      </trkpt>
      <trkpt lat="45.9559" lon="4.75568">
        <ele>188</ele>
        <time>2018-08-04T09:48:39Z</time>
      </trkpt>
      <trkpt lat="45.95588" lon="4.75562">
        <ele>188</ele>
        <time>2018-08-04T09:48:40Z</time>
      </trkpt>
      <trkpt lat="45.95584" lon="4.75556">
        <ele>188</ele>
        <time>2018-08-04T09:48:41Z</time>
      </trkpt>
      <trkpt lat="45.95581" lon="4.7555">
        <ele>186</ele>
        <time>2018-08-04T09:48:42Z</time>
      </trkpt>
      <trkpt lat="45.95577" lon="4.75544">
        <ele>186</ele>
        <time>2018-08-04T09:48:43Z</time>
      </trkpt>
      <trkpt lat="45.9557" lon="4.75539">
        <ele>186</ele>
        <time>2018-08-04T09:48:44Z</time>
      </trkpt>
      <trkpt lat="45.95566" lon="4.75533">
        <ele>186</ele>
        <time>2018-08-04T09:48:45Z</time>
      </trkpt>
      <trkpt lat="45.95561" lon="4.75528">
        <ele>186</ele>
        <time>2018-08-04T09:48:46Z</time>
      </trkpt>
      <trkpt lat="45.95557" lon="4.75523">
        <ele>186</ele>
        <time>2018-08-04T09:48:47Z</time>
      </trkpt>
      <trkpt lat="45.95553" lon="4.75518">
        <ele>186</ele>
        <time>2018-08-04T09:48:48Z</time>
      </trkpt>
      <trkpt lat="45.9555" lon="4.75513">
        <ele>186</ele>
        <time>2018-08-04T09:48:49Z</time>
      </trkpt>
      <trkpt lat="45.95546" lon="4.75502">
        <ele>186</ele>
        <time>2018-08-04T09:48:51Z</time>
      </trkpt>
      <trkpt lat="45.95544" lon="4.75497">
        <ele>187</ele>
        <time>2018-08-04T09:48:52Z</time>
      </trkpt>
      <trkpt lat="45.9554" lon="4.75491">
        <ele>187</ele>
        <time>2018-08-04T09:48:53Z</time>
      </trkpt>
      <trkpt lat="45.95538" lon="4.75485">
        <ele>187</ele>
        <time>2018-08-04T09:48:54Z</time>
      </trkpt>
      <trkpt lat="45.95537" lon="4.75472">
        <ele>187</ele>
        <time>2018-08-04T09:48:56Z</time>
      </trkpt>
      <trkpt lat="45.95537" lon="4.75466">
        <ele>187</ele>
        <time>2018-08-04T09:48:57Z</time>
      </trkpt>
      <trkpt lat="45.95535" lon="4.7546">
        <ele>187</ele>
        <time>2018-08-04T09:48:58Z</time>
      </trkpt>
      <trkpt lat="45.9553" lon="4.75454">
        <ele>187</ele>
        <time>2018-08-04T09:48:59Z</time>
      </trkpt>
      <trkpt lat="45.95525" lon="4.75448">
        <ele>187</ele>
        <time>2018-08-04T09:49:00Z</time>
      </trkpt>
      <trkpt lat="45.9552" lon="4.75442">
        <ele>187</ele>
        <time>2018-08-04T09:49:01Z</time>
      </trkpt>
      <trkpt lat="45.95516" lon="4.75437">
        <ele>187</ele>
        <time>2018-08-04T09:49:02Z</time>
      </trkpt>
      <trkpt lat="45.95512" lon="4.75429">
        <ele>186</ele>
        <time>2018-08-04T09:49:03Z</time>
      </trkpt>
      <trkpt lat="45.9551" lon="4.75417">
        <ele>186</ele>
        <time>2018-08-04T09:49:05Z</time>
      </trkpt>
      <trkpt lat="45.95508" lon="4.75412">
        <ele>186</ele>
        <time>2018-08-04T09:49:06Z</time>
      </trkpt>
      <trkpt lat="45.95507" lon="4.75399">
        <ele>187</ele>
        <time>2018-08-04T09:49:08Z</time>
      </trkpt>
      <trkpt lat="45.95505" lon="4.75394">
        <ele>188</ele>
        <time>2018-08-04T09:49:09Z</time>
      </trkpt>
      <trkpt lat="45.95501" lon="4.75388">
        <ele>188</ele>
        <time>2018-08-04T09:49:10Z</time>
      </trkpt>
      <trkpt lat="45.95499" lon="4.75382">
        <ele>185</ele>
        <time>2018-08-04T09:49:11Z</time>
      </trkpt>
      <trkpt lat="45.95495" lon="4.75375">
        <ele>185</ele>
        <time>2018-08-04T09:49:12Z</time>
      </trkpt>
      <trkpt lat="45.95493" lon="4.75368">
        <ele>186</ele>
        <time>2018-08-04T09:49:13Z</time>
      </trkpt>
      <trkpt lat="45.9549" lon="4.75362">
        <ele>186</ele>
        <time>2018-08-04T09:49:14Z</time>
      </trkpt>
      <trkpt lat="45.95486" lon="4.75356">
        <ele>186</ele>
        <time>2018-08-04T09:49:15Z</time>
      </trkpt>
      <trkpt lat="45.95483" lon="4.75351">
        <ele>186</ele>
        <time>2018-08-04T09:49:16Z</time>
      </trkpt>
      <trkpt lat="45.9548" lon="4.75346">
        <ele>186</ele>
        <time>2018-08-04T09:49:17Z</time>
      </trkpt>
      <trkpt lat="45.95478" lon="4.7534">
        <ele>186</ele>
        <time>2018-08-04T09:49:18Z</time>
      </trkpt>
      <trkpt lat="45.95474" lon="4.75334">
        <ele>186</ele>
        <time>2018-08-04T09:49:19Z</time>
      </trkpt>
      <trkpt lat="45.95471" lon="4.75329">
        <ele>188</ele>
        <time>2018-08-04T09:49:20Z</time>
      </trkpt>
      <trkpt lat="45.95469" lon="4.75323">
        <ele>188</ele>
        <time>2018-08-04T09:49:21Z</time>
      </trkpt>
      <trkpt lat="45.95466" lon="4.75317">
        <ele>188</ele>
        <time>2018-08-04T09:49:22Z</time>
      </trkpt>
      <trkpt lat="45.95463" lon="4.75312">
        <ele>188</ele>
        <time>2018-08-04T09:49:23Z</time>
      </trkpt>
      <trkpt lat="45.95462" lon="4.75306">
        <ele>188</ele>
        <time>2018-08-04T09:49:24Z</time>
      </trkpt>
      <trkpt lat="45.95458" lon="4.753">
        <ele>188</ele>
        <time>2018-08-04T09:49:25Z</time>
      </trkpt>
      <trkpt lat="45.95455" lon="4.75294">
        <ele>188</ele>
        <time>2018-08-04T09:49:26Z</time>
      </trkpt>
      <trkpt lat="45.95453" lon="4.75289">
        <ele>188</ele>
        <time>2018-08-04T09:49:27Z</time>
      </trkpt>
      <trkpt lat="45.95448" lon="4.75279">
        <ele>189</ele>
        <time>2018-08-04T09:49:29Z</time>
      </trkpt>
      <trkpt lat="45.95444" lon="4.75273">
        <ele>189</ele>
        <time>2018-08-04T09:49:30Z</time>
      </trkpt>
      <trkpt lat="45.95442" lon="4.75269">
        <ele>189</ele>
        <time>2018-08-04T09:49:31Z</time>
      </trkpt>
      <trkpt lat="45.95438" lon="4.75262">
        <ele>189</ele>
        <time>2018-08-04T09:49:32Z</time>
      </trkpt>
      <trkpt lat="45.95436" lon="4.75256">
        <ele>189</ele>
        <time>2018-08-04T09:49:33Z</time>
      </trkpt>
      <trkpt lat="45.95432" lon="4.75251">
        <ele>189</ele>
        <time>2018-08-04T09:49:34Z</time>
      </trkpt>
      <trkpt lat="45.9543" lon="4.75245">
        <ele>190</ele>
        <time>2018-08-04T09:49:35Z</time>
      </trkpt>
      <trkpt lat="45.95426" lon="4.75241">
        <ele>190</ele>
        <time>2018-08-04T09:49:36Z</time>
      </trkpt>
      <trkpt lat="45.95421" lon="4.7523">
        <ele>190</ele>
        <time>2018-08-04T09:49:38Z</time>
      </trkpt>
      <trkpt lat="45.95419" lon="4.75225">
        <ele>191</ele>
        <time>2018-08-04T09:49:39Z</time>
      </trkpt>
      <trkpt lat="45.95416" lon="4.7522">
        <ele>189</ele>
        <time>2018-08-04T09:49:40Z</time>
      </trkpt>
      <trkpt lat="45.95413" lon="4.75215">
        <ele>189</ele>
        <time>2018-08-04T09:49:41Z</time>
      </trkpt>
      <trkpt lat="45.9541" lon="4.7521">
        <ele>189</ele>
        <time>2018-08-04T09:49:42Z</time>
      </trkpt>
      <trkpt lat="45.95406" lon="4.75204">
        <ele>189</ele>
        <time>2018-08-04T09:49:43Z</time>
      </trkpt>
      <trkpt lat="45.95403" lon="4.752">
        <ele>189</ele>
        <time>2018-08-04T09:49:44Z</time>
      </trkpt>
      <trkpt lat="45.95399" lon="4.75194">
        <ele>189</ele>
        <time>2018-08-04T09:49:45Z</time>
      </trkpt>
      <trkpt lat="45.95397" lon="4.75188">
        <ele>189</ele>
        <time>2018-08-04T09:49:46Z</time>
      </trkpt>
      <trkpt lat="45.95394" lon="4.75183">
        <ele>189</ele>
        <time>2018-08-04T09:49:47Z</time>
      </trkpt>
      <trkpt lat="45.9539" lon="4.75178">
        <ele>189</ele>
        <time>2018-08-04T09:49:48Z</time>
      </trkpt>
      <trkpt lat="45.95387" lon="4.75174">
        <ele>189</ele>
        <time>2018-08-04T09:49:49Z</time>
      </trkpt>
      <trkpt lat="45.95383" lon="4.75169">
        <ele>189</ele>
        <time>2018-08-04T09:49:50Z</time>
      </trkpt>
      <trkpt lat="45.95379" lon="4.75164">
        <ele>191</ele>
        <time>2018-08-04T09:49:51Z</time>
      </trkpt>
      <trkpt lat="45.95375" lon="4.75159">
        <ele>191</ele>
        <time>2018-08-04T09:49:52Z</time>
      </trkpt>
      <trkpt lat="45.95373" lon="4.75153">
        <ele>191</ele>
        <time>2018-08-04T09:49:53Z</time>
      </trkpt>
      <trkpt lat="45.9537" lon="4.75148">
        <ele>191</ele>
        <time>2018-08-04T09:49:54Z</time>
      </trkpt>
      <trkpt lat="45.95368" lon="4.75141">
        <ele>191</ele>
        <time>2018-08-04T09:49:55Z</time>
      </trkpt>
      <trkpt lat="45.95363" lon="4.75135">
        <ele>191</ele>
        <time>2018-08-04T09:49:56Z</time>
      </trkpt>
      <trkpt lat="45.9536" lon="4.75129">
        <ele>191</ele>
        <time>2018-08-04T09:49:57Z</time>
      </trkpt>
      <trkpt lat="45.95357" lon="4.75123">
        <ele>191</ele>
        <time>2018-08-04T09:49:58Z</time>
      </trkpt>
      <trkpt lat="45.95353" lon="4.75118">
        <ele>191</ele>
        <time>2018-08-04T09:49:59Z</time>
      </trkpt>
      <trkpt lat="45.95347" lon="4.75108">
        <ele>192</ele>
        <time>2018-08-04T09:50:01Z</time>
      </trkpt>
      <trkpt lat="45.95346" lon="4.75103">
        <ele>192</ele>
        <time>2018-08-04T09:50:02Z</time>
      </trkpt>
      <trkpt lat="45.95341" lon="4.75094">
        <ele>192</ele>
        <time>2018-08-04T09:50:04Z</time>
      </trkpt>
      <trkpt lat="45.95338" lon="4.75089">
        <ele>193</ele>
        <time>2018-08-04T09:50:05Z</time>
      </trkpt>
      <trkpt lat="45.95335" lon="4.75084">
        <ele>193</ele>
        <time>2018-08-04T09:50:06Z</time>
      </trkpt>
      <trkpt lat="45.95331" lon="4.75078">
        <ele>193</ele>
        <time>2018-08-04T09:50:07Z</time>
      </trkpt>
      <trkpt lat="45.95328" lon="4.75073">
        <ele>192</ele>
        <time>2018-08-04T09:50:08Z</time>
      </trkpt>
      <trkpt lat="45.95323" lon="4.75067">
        <ele>192</ele>
        <time>2018-08-04T09:50:09Z</time>
      </trkpt>
      <trkpt lat="45.9532" lon="4.75061">
        <ele>192</ele>
        <time>2018-08-04T09:50:10Z</time>
      </trkpt>
      <trkpt lat="45.95316" lon="4.75056">
        <ele>192</ele>
        <time>2018-08-04T09:50:11Z</time>
      </trkpt>
      <trkpt lat="45.95313" lon="4.75051">
        <ele>192</ele>
        <time>2018-08-04T09:50:12Z</time>
      </trkpt>
      <trkpt lat="45.9531" lon="4.75046">
        <ele>192</ele>
        <time>2018-08-04T09:50:13Z</time>
      </trkpt>
      <trkpt lat="45.95307" lon="4.75041">
        <ele>192</ele>
        <time>2018-08-04T09:50:14Z</time>
      </trkpt>
      <trkpt lat="45.95303" lon="4.75036">
        <ele>192</ele>
        <time>2018-08-04T09:50:15Z</time>
      </trkpt>
      <trkpt lat="45.95298" lon="4.75027">
        <ele>191</ele>
        <time>2018-08-04T09:50:17Z</time>
      </trkpt>
      <trkpt lat="45.95294" lon="4.75022">
        <ele>191</ele>
        <time>2018-08-04T09:50:18Z</time>
      </trkpt>
      <trkpt lat="45.95291" lon="4.75016">
        <ele>191</ele>
        <time>2018-08-04T09:50:19Z</time>
      </trkpt>
      <trkpt lat="45.95288" lon="4.75011">
        <ele>191</ele>
        <time>2018-08-04T09:50:20Z</time>
      </trkpt>
      <trkpt lat="45.95282" lon="4.75002">
        <ele>191</ele>
        <time>2018-08-04T09:50:22Z</time>
      </trkpt>
      <trkpt lat="45.95279" lon="4.74996">
        <ele>192</ele>
        <time>2018-08-04T09:50:23Z</time>
      </trkpt>
      <trkpt lat="45.95271" lon="4.7499">
        <ele>192</ele>
        <time>2018-08-04T09:50:25Z</time>
      </trkpt>
      <trkpt lat="45.95268" lon="4.74985">
        <ele>192</ele>
        <time>2018-08-04T09:50:26Z</time>
      </trkpt>
      <trkpt lat="45.95266" lon="4.7498">
        <ele>192</ele>
        <time>2018-08-04T09:50:27Z</time>
      </trkpt>
      <trkpt lat="45.95262" lon="4.74975">
        <ele>192</ele>
        <time>2018-08-04T09:50:28Z</time>
      </trkpt>
      <trkpt lat="45.95257" lon="4.74967">
        <ele>192</ele>
        <time>2018-08-04T09:50:30Z</time>
      </trkpt>
      <trkpt lat="45.95253" lon="4.74962">
        <ele>192</ele>
        <time>2018-08-04T09:50:31Z</time>
      </trkpt>
      <trkpt lat="45.95249" lon="4.74953">
        <ele>192</ele>
        <time>2018-08-04T09:50:33Z</time>
      </trkpt>
      <trkpt lat="45.95245" lon="4.74948">
        <ele>192</ele>
        <time>2018-08-04T09:50:34Z</time>
      </trkpt>
      <trkpt lat="45.95242" lon="4.74942">
        <ele>192</ele>
        <time>2018-08-04T09:50:35Z</time>
      </trkpt>
      <trkpt lat="45.95239" lon="4.74937">
        <ele>192</ele>
        <time>2018-08-04T09:50:36Z</time>
      </trkpt>
      <trkpt lat="45.95235" lon="4.74932">
        <ele>192</ele>
        <time>2018-08-04T09:50:37Z</time>
      </trkpt>
      <trkpt lat="45.95232" lon="4.74927">
        <ele>192</ele>
        <time>2018-08-04T09:50:38Z</time>
      </trkpt>
      <trkpt lat="45.95228" lon="4.74921">
        <ele>192</ele>
        <time>2018-08-04T09:50:39Z</time>
      </trkpt>
      <trkpt lat="45.95225" lon="4.74916">
        <ele>193</ele>
        <time>2018-08-04T09:50:40Z</time>
      </trkpt>
      <trkpt lat="45.95221" lon="4.74909">
        <ele>193</ele>
        <time>2018-08-04T09:50:41Z</time>
      </trkpt>
      <trkpt lat="45.95218" lon="4.74903">
        <ele>193</ele>
        <time>2018-08-04T09:50:42Z</time>
      </trkpt>
      <trkpt lat="45.95214" lon="4.74897">
        <ele>193</ele>
        <time>2018-08-04T09:50:43Z</time>
      </trkpt>
      <trkpt lat="45.95212" lon="4.74892">
        <ele>193</ele>
        <time>2018-08-04T09:50:44Z</time>
      </trkpt>
      <trkpt lat="45.95208" lon="4.74886">
        <ele>193</ele>
        <time>2018-08-04T09:50:45Z</time>
      </trkpt>
      <trkpt lat="45.95205" lon="4.74881">
        <ele>194</ele>
        <time>2018-08-04T09:50:46Z</time>
      </trkpt>
      <trkpt lat="45.95204" lon="4.74875">
        <ele>194</ele>
        <time>2018-08-04T09:50:47Z</time>
      </trkpt>
      <trkpt lat="45.95199" lon="4.7487">
        <ele>194</ele>
        <time>2018-08-04T09:50:48Z</time>
      </trkpt>
      <trkpt lat="45.95196" lon="4.74864">
        <ele>194</ele>
        <time>2018-08-04T09:50:49Z</time>
      </trkpt>
      <trkpt lat="45.95191" lon="4.74859">
        <ele>194</ele>
        <time>2018-08-04T09:50:50Z</time>
      </trkpt>
      <trkpt lat="45.95186" lon="4.74852">
        <ele>194</ele>
        <time>2018-08-04T09:50:51Z</time>
      </trkpt>
      <trkpt lat="45.95183" lon="4.74846">
        <ele>194</ele>
        <time>2018-08-04T09:50:52Z</time>
      </trkpt>
      <trkpt lat="45.95179" lon="4.74841">
        <ele>194</ele>
        <time>2018-08-04T09:50:53Z</time>
      </trkpt>
      <trkpt lat="45.95173" lon="4.74834">
        <ele>194</ele>
        <time>2018-08-04T09:50:54Z</time>
      </trkpt>
      <trkpt lat="45.95167" lon="4.74828">
        <ele>194</ele>
        <time>2018-08-04T09:50:55Z</time>
      </trkpt>
      <trkpt lat="45.95163" lon="4.74821">
        <ele>194</ele>
        <time>2018-08-04T09:50:56Z</time>
      </trkpt>
      <trkpt lat="45.95159" lon="4.74815">
        <ele>194</ele>
        <time>2018-08-04T09:50:57Z</time>
      </trkpt>
      <trkpt lat="45.95157" lon="4.74809">
        <ele>194</ele>
        <time>2018-08-04T09:50:58Z</time>
      </trkpt>
      <trkpt lat="45.95153" lon="4.74803">
        <ele>194</ele>
        <time>2018-08-04T09:50:59Z</time>
      </trkpt>
      <trkpt lat="45.9515" lon="4.74797">
        <ele>194</ele>
        <time>2018-08-04T09:51:00Z</time>
      </trkpt>
      <trkpt lat="45.95145" lon="4.7479">
        <ele>194</ele>
        <time>2018-08-04T09:51:01Z</time>
      </trkpt>
      <trkpt lat="45.95141" lon="4.74783">
        <ele>194</ele>
        <time>2018-08-04T09:51:02Z</time>
      </trkpt>
      <trkpt lat="45.95138" lon="4.74777">
        <ele>194</ele>
        <time>2018-08-04T09:51:03Z</time>
      </trkpt>
      <trkpt lat="45.95133" lon="4.74773">
        <ele>194</ele>
        <time>2018-08-04T09:51:04Z</time>
      </trkpt>
      <trkpt lat="45.95129" lon="4.74767">
        <ele>194</ele>
        <time>2018-08-04T09:51:05Z</time>
      </trkpt>
      <trkpt lat="45.95125" lon="4.74761">
        <ele>194</ele>
        <time>2018-08-04T09:51:06Z</time>
      </trkpt>
      <trkpt lat="45.95122" lon="4.74754">
        <ele>194</ele>
        <time>2018-08-04T09:51:07Z</time>
      </trkpt>
      <trkpt lat="45.9512" lon="4.74747">
        <ele>194</ele>
        <time>2018-08-04T09:51:08Z</time>
      </trkpt>
      <trkpt lat="45.95117" lon="4.74738">
        <ele>194</ele>
        <time>2018-08-04T09:51:09Z</time>
      </trkpt>
      <trkpt lat="45.95112" lon="4.74731">
        <ele>194</ele>
        <time>2018-08-04T09:51:10Z</time>
      </trkpt>
      <trkpt lat="45.95111" lon="4.74723">
        <ele>194</ele>
        <time>2018-08-04T09:51:11Z</time>
      </trkpt>
      <trkpt lat="45.95107" lon="4.74717">
        <ele>194</ele>
        <time>2018-08-04T09:51:12Z</time>
      </trkpt>
      <trkpt lat="45.95103" lon="4.74711">
        <ele>194</ele>
        <time>2018-08-04T09:51:13Z</time>
      </trkpt>
      <trkpt lat="45.95099" lon="4.74705">
        <ele>194</ele>
        <time>2018-08-04T09:51:14Z</time>
      </trkpt>
      <trkpt lat="45.95095" lon="4.747">
        <ele>194</ele>
        <time>2018-08-04T09:51:15Z</time>
      </trkpt>
      <trkpt lat="45.95092" lon="4.74695">
        <ele>194</ele>
        <time>2018-08-04T09:51:16Z</time>
      </trkpt>
      <trkpt lat="45.95089" lon="4.74688">
        <ele>195</ele>
        <time>2018-08-04T09:51:17Z</time>
      </trkpt>
      <trkpt lat="45.95084" lon="4.74681">
        <ele>195</ele>
        <time>2018-08-04T09:51:18Z</time>
      </trkpt>
      <trkpt lat="45.9508" lon="4.74675">
        <ele>195</ele>
        <time>2018-08-04T09:51:19Z</time>
      </trkpt>
      <trkpt lat="45.95077" lon="4.74669">
        <ele>195</ele>
        <time>2018-08-04T09:51:20Z</time>
      </trkpt>
      <trkpt lat="45.95074" lon="4.74662">
        <ele>195</ele>
        <time>2018-08-04T09:51:21Z</time>
      </trkpt>
      <trkpt lat="45.95069" lon="4.74656">
        <ele>195</ele>
        <time>2018-08-04T09:51:22Z</time>
      </trkpt>
      <trkpt lat="45.95065" lon="4.74649">
        <ele>195</ele>
        <time>2018-08-04T09:51:23Z</time>
      </trkpt>
      <trkpt lat="45.95059" lon="4.74642">
        <ele>194</ele>
        <time>2018-08-04T09:51:24Z</time>
      </trkpt>
      <trkpt lat="45.95055" lon="4.74635">
        <ele>194</ele>
        <time>2018-08-04T09:51:25Z</time>
      </trkpt>
      <trkpt lat="45.95051" lon="4.74628">
        <ele>194</ele>
        <time>2018-08-04T09:51:26Z</time>
      </trkpt>
      <trkpt lat="45.95047" lon="4.74621">
        <ele>194</ele>
        <time>2018-08-04T09:51:27Z</time>
      </trkpt>
      <trkpt lat="45.95044" lon="4.74614">
        <ele>194</ele>
        <time>2018-08-04T09:51:28Z</time>
      </trkpt>
      <trkpt lat="45.9504" lon="4.74607">
        <ele>194</ele>
        <time>2018-08-04T09:51:29Z</time>
      </trkpt>
      <trkpt lat="45.95037" lon="4.74602">
        <ele>194</ele>
        <time>2018-08-04T09:51:30Z</time>
      </trkpt>
      <trkpt lat="45.95034" lon="4.74595">
        <ele>194</ele>
        <time>2018-08-04T09:51:31Z</time>
      </trkpt>
      <trkpt lat="45.95031" lon="4.74589">
        <ele>194</ele>
        <time>2018-08-04T09:51:32Z</time>
      </trkpt>
      <trkpt lat="45.95027" lon="4.74582">
        <ele>194</ele>
        <time>2018-08-04T09:51:33Z</time>
      </trkpt>
      <trkpt lat="45.95024" lon="4.74576">
        <ele>194</ele>
        <time>2018-08-04T09:51:34Z</time>
      </trkpt>
      <trkpt lat="45.95021" lon="4.74569">
        <ele>194</ele>
        <time>2018-08-04T09:51:35Z</time>
      </trkpt>
      <trkpt lat="45.95017" lon="4.74563">
        <ele>194</ele>
        <time>2018-08-04T09:51:36Z</time>
      </trkpt>
      <trkpt lat="45.95015" lon="4.74556">
        <ele>194</ele>
        <time>2018-08-04T09:51:37Z</time>
      </trkpt>
      <trkpt lat="45.95011" lon="4.7455">
        <ele>194</ele>
        <time>2018-08-04T09:51:38Z</time>
      </trkpt>
      <trkpt lat="45.95007" lon="4.74542">
        <ele>194</ele>
        <time>2018-08-04T09:51:39Z</time>
      </trkpt>
      <trkpt lat="45.95004" lon="4.74534">
        <ele>194</ele>
        <time>2018-08-04T09:51:40Z</time>
      </trkpt>
      <trkpt lat="45.94999" lon="4.74527">
        <ele>193</ele>
        <time>2018-08-04T09:51:41Z</time>
      </trkpt>
      <trkpt lat="45.94996" lon="4.74519">
        <ele>193</ele>
        <time>2018-08-04T09:51:42Z</time>
      </trkpt>
      <trkpt lat="45.94989" lon="4.7451">
        <ele>193</ele>
        <time>2018-08-04T09:51:43Z</time>
      </trkpt>
      <trkpt lat="45.94985" lon="4.74502">
        <ele>193</ele>
        <time>2018-08-04T09:51:44Z</time>
      </trkpt>
      <trkpt lat="45.94981" lon="4.74493">
        <ele>193</ele>
        <time>2018-08-04T09:51:45Z</time>
      </trkpt>
      <trkpt lat="45.94977" lon="4.74485">
        <ele>193</ele>
        <time>2018-08-04T09:51:46Z</time>
      </trkpt>
      <trkpt lat="45.94971" lon="4.74476">
        <ele>193</ele>
        <time>2018-08-04T09:51:47Z</time>
      </trkpt>
      <trkpt lat="45.94966" lon="4.74467">
        <ele>193</ele>
        <time>2018-08-04T09:51:48Z</time>
      </trkpt>
      <trkpt lat="45.94962" lon="4.74458">
        <ele>192</ele>
        <time>2018-08-04T09:51:49Z</time>
      </trkpt>
      <trkpt lat="45.94959" lon="4.74449">
        <ele>192</ele>
        <time>2018-08-04T09:51:50Z</time>
      </trkpt>
      <trkpt lat="45.94954" lon="4.7444">
        <ele>192</ele>
        <time>2018-08-04T09:51:51Z</time>
      </trkpt>
      <trkpt lat="45.9495" lon="4.74431">
        <ele>192</ele>
        <time>2018-08-04T09:51:52Z</time>
      </trkpt>
      <trkpt lat="45.94942" lon="4.74421">
        <ele>192</ele>
        <time>2018-08-04T09:51:53Z</time>
      </trkpt>
      <trkpt lat="45.94936" lon="4.74411">
        <ele>192</ele>
        <time>2018-08-04T09:51:54Z</time>
      </trkpt>
      <trkpt lat="45.94931" lon="4.74401">
        <ele>192</ele>
        <time>2018-08-04T09:51:55Z</time>
      </trkpt>
      <trkpt lat="45.94926" lon="4.74391">
        <ele>192</ele>
        <time>2018-08-04T09:51:56Z</time>
      </trkpt>
      <trkpt lat="45.94921" lon="4.74382">
        <ele>192</ele>
        <time>2018-08-04T09:51:57Z</time>
      </trkpt>
      <trkpt lat="45.94916" lon="4.74372">
        <ele>191</ele>
        <time>2018-08-04T09:51:58Z</time>
      </trkpt>
      <trkpt lat="45.94912" lon="4.74363">
        <ele>191</ele>
        <time>2018-08-04T09:51:59Z</time>
      </trkpt>
      <trkpt lat="45.94907" lon="4.74353">
        <ele>191</ele>
        <time>2018-08-04T09:52:00Z</time>
      </trkpt>
      <trkpt lat="45.94904" lon="4.74344">
        <ele>191</ele>
        <time>2018-08-04T09:52:01Z</time>
      </trkpt>
      <trkpt lat="45.949" lon="4.74336">
        <ele>191</ele>
        <time>2018-08-04T09:52:02Z</time>
      </trkpt>
      <trkpt lat="45.94895" lon="4.74326">
        <ele>191</ele>
        <time>2018-08-04T09:52:03Z</time>
      </trkpt>
      <trkpt lat="45.9489" lon="4.74317">
        <ele>191</ele>
        <time>2018-08-04T09:52:04Z</time>
      </trkpt>
      <trkpt lat="45.94885" lon="4.74308">
        <ele>191</ele>
        <time>2018-08-04T09:52:05Z</time>
      </trkpt>
      <trkpt lat="45.94879" lon="4.74302">
        <ele>191</ele>
        <time>2018-08-04T09:52:06Z</time>
      </trkpt>
      <trkpt lat="45.94875" lon="4.74294">
        <ele>191</ele>
        <time>2018-08-04T09:52:07Z</time>
      </trkpt>
      <trkpt lat="45.94871" lon="4.74286">
        <ele>191</ele>
        <time>2018-08-04T09:52:08Z</time>
      </trkpt>
      <trkpt lat="45.94867" lon="4.74279">
        <ele>191</ele>
        <time>2018-08-04T09:52:09Z</time>
      </trkpt>
      <trkpt lat="45.94863" lon="4.74271">
        <ele>190</ele>
        <time>2018-08-04T09:52:10Z</time>
      </trkpt>
      <trkpt lat="45.94859" lon="4.74264">
        <ele>190</ele>
        <time>2018-08-04T09:52:11Z</time>
      </trkpt>
      <trkpt lat="45.94854" lon="4.74256">
        <ele>190</ele>
        <time>2018-08-04T09:52:12Z</time>
      </trkpt>
      <trkpt lat="45.9485" lon="4.74247">
        <ele>190</ele>
        <time>2018-08-04T09:52:13Z</time>
      </trkpt>
      <trkpt lat="45.94846" lon="4.74238">
        <ele>190</ele>
        <time>2018-08-04T09:52:14Z</time>
      </trkpt>
      <trkpt lat="45.94841" lon="4.7423">
        <ele>190</ele>
        <time>2018-08-04T09:52:15Z</time>
      </trkpt>
      <trkpt lat="45.94837" lon="4.74221">
        <ele>190</ele>
        <time>2018-08-04T09:52:16Z</time>
      </trkpt>
      <trkpt lat="45.94833" lon="4.74213">
        <ele>189</ele>
        <time>2018-08-04T09:52:17Z</time>
      </trkpt>
      <trkpt lat="45.94829" lon="4.74205">
        <ele>189</ele>
        <time>2018-08-04T09:52:18Z</time>
      </trkpt>
      <trkpt lat="45.94825" lon="4.74196">
        <ele>189</ele>
        <time>2018-08-04T09:52:19Z</time>
      </trkpt>
      <trkpt lat="45.94819" lon="4.74188">
        <ele>189</ele>
        <time>2018-08-04T09:52:20Z</time>
      </trkpt>
      <trkpt lat="45.94815" lon="4.7418">
        <ele>189</ele>
        <time>2018-08-04T09:52:21Z</time>
      </trkpt>
      <trkpt lat="45.94809" lon="4.74174">
        <ele>189</ele>
        <time>2018-08-04T09:52:22Z</time>
      </trkpt>
      <trkpt lat="45.94804" lon="4.74166">
        <ele>189</ele>
        <time>2018-08-04T09:52:23Z</time>
      </trkpt>
      <trkpt lat="45.94801" lon="4.74158">
        <ele>189</ele>
        <time>2018-08-04T09:52:24Z</time>
      </trkpt>
      <trkpt lat="45.94796" lon="4.7415">
        <ele>189</ele>
        <time>2018-08-04T09:52:25Z</time>
      </trkpt>
      <trkpt lat="45.94792" lon="4.74143">
        <ele>189</ele>
        <time>2018-08-04T09:52:26Z</time>
      </trkpt>
      <trkpt lat="45.94788" lon="4.74135">
        <ele>189</ele>
        <time>2018-08-04T09:52:27Z</time>
      </trkpt>
      <trkpt lat="45.94784" lon="4.74128">
        <ele>189</ele>
        <time>2018-08-04T09:52:28Z</time>
      </trkpt>
      <trkpt lat="45.94781" lon="4.74122">
        <ele>189</ele>
        <time>2018-08-04T09:52:29Z</time>
      </trkpt>
      <trkpt lat="45.94776" lon="4.74114">
        <ele>189</ele>
        <time>2018-08-04T09:52:30Z</time>
      </trkpt>
      <trkpt lat="45.94771" lon="4.7411">
        <ele>189</ele>
        <time>2018-08-04T09:52:31Z</time>
      </trkpt>
      <trkpt lat="45.94766" lon="4.74103">
        <ele>189</ele>
        <time>2018-08-04T09:52:32Z</time>
      </trkpt>
      <trkpt lat="45.9476" lon="4.74097">
        <ele>189</ele>
        <time>2018-08-04T09:52:33Z</time>
      </trkpt>
      <trkpt lat="45.94755" lon="4.7409">
        <ele>189</ele>
        <time>2018-08-04T09:52:34Z</time>
      </trkpt>
      <trkpt lat="45.9475" lon="4.74082">
        <ele>189</ele>
        <time>2018-08-04T09:52:35Z</time>
      </trkpt>
      <trkpt lat="45.94745" lon="4.74075">
        <ele>188</ele>
        <time>2018-08-04T09:52:36Z</time>
      </trkpt>
      <trkpt lat="45.9474" lon="4.74069">
        <ele>188</ele>
        <time>2018-08-04T09:52:37Z</time>
      </trkpt>
      <trkpt lat="45.94735" lon="4.74062">
        <ele>188</ele>
        <time>2018-08-04T09:52:38Z</time>
      </trkpt>
      <trkpt lat="45.94731" lon="4.74056">
        <ele>188</ele>
        <time>2018-08-04T09:52:39Z</time>
      </trkpt>
      <trkpt lat="45.94726" lon="4.7405">
        <ele>188</ele>
        <time>2018-08-04T09:52:40Z</time>
      </trkpt>
      <trkpt lat="45.94721" lon="4.74044">
        <ele>187</ele>
        <time>2018-08-04T09:52:41Z</time>
      </trkpt>
      <trkpt lat="45.94716" lon="4.74037">
        <ele>187</ele>
        <time>2018-08-04T09:52:42Z</time>
      </trkpt>
      <trkpt lat="45.94712" lon="4.74031">
        <ele>187</ele>
        <time>2018-08-04T09:52:43Z</time>
      </trkpt>
      <trkpt lat="45.94708" lon="4.74025">
        <ele>187</ele>
        <time>2018-08-04T09:52:44Z</time>
      </trkpt>
      <trkpt lat="45.94704" lon="4.7402">
        <ele>187</ele>
        <time>2018-08-04T09:52:45Z</time>
      </trkpt>
      <trkpt lat="45.947" lon="4.74014">
        <ele>187</ele>
        <time>2018-08-04T09:52:46Z</time>
      </trkpt>
      <trkpt lat="45.94696" lon="4.74008">
        <ele>187</ele>
        <time>2018-08-04T09:52:47Z</time>
      </trkpt>
      <trkpt lat="45.94692" lon="4.74003">
        <ele>187</ele>
        <time>2018-08-04T09:52:48Z</time>
      </trkpt>
      <trkpt lat="45.94687" lon="4.73997">
        <ele>187</ele>
        <time>2018-08-04T09:52:49Z</time>
      </trkpt>
      <trkpt lat="45.94683" lon="4.73991">
        <ele>187</ele>
        <time>2018-08-04T09:52:50Z</time>
      </trkpt>
      <trkpt lat="45.94679" lon="4.73984">
        <ele>187</ele>
        <time>2018-08-04T09:52:51Z</time>
      </trkpt>
      <trkpt lat="45.94674" lon="4.73978">
        <ele>187</ele>
        <time>2018-08-04T09:52:52Z</time>
      </trkpt>
      <trkpt lat="45.9467" lon="4.73972">
        <ele>187</ele>
        <time>2018-08-04T09:52:53Z</time>
      </trkpt>
      <trkpt lat="45.94666" lon="4.73965">
        <ele>187</ele>
        <time>2018-08-04T09:52:54Z</time>
      </trkpt>
      <trkpt lat="45.94661" lon="4.73958">
        <ele>187</ele>
        <time>2018-08-04T09:52:55Z</time>
      </trkpt>
      <trkpt lat="45.94656" lon="4.73952">
        <ele>187</ele>
        <time>2018-08-04T09:52:56Z</time>
      </trkpt>
      <trkpt lat="45.9465" lon="4.73945">
        <ele>187</ele>
        <time>2018-08-04T09:52:57Z</time>
      </trkpt>
      <trkpt lat="45.94647" lon="4.73939">
        <ele>187</ele>
        <time>2018-08-04T09:52:58Z</time>
      </trkpt>
      <trkpt lat="45.94642" lon="4.73933">
        <ele>187</ele>
        <time>2018-08-04T09:52:59Z</time>
      </trkpt>
      <trkpt lat="45.94637" lon="4.73927">
        <ele>187</ele>
        <time>2018-08-04T09:53:00Z</time>
      </trkpt>
      <trkpt lat="45.94632" lon="4.7392">
        <ele>187</ele>
        <time>2018-08-04T09:53:01Z</time>
      </trkpt>
      <trkpt lat="45.94628" lon="4.73914">
        <ele>187</ele>
        <time>2018-08-04T09:53:02Z</time>
      </trkpt>
      <trkpt lat="45.94621" lon="4.73909">
        <ele>187</ele>
        <time>2018-08-04T09:53:03Z</time>
      </trkpt>
      <trkpt lat="45.94616" lon="4.73904">
        <ele>187</ele>
        <time>2018-08-04T09:53:04Z</time>
      </trkpt>
      <trkpt lat="45.94612" lon="4.73898">
        <ele>187</ele>
        <time>2018-08-04T09:53:05Z</time>
      </trkpt>
      <trkpt lat="45.94607" lon="4.73893">
        <ele>187</ele>
        <time>2018-08-04T09:53:06Z</time>
      </trkpt>
      <trkpt lat="45.94602" lon="4.73887">
        <ele>187</ele>
        <time>2018-08-04T09:53:07Z</time>
      </trkpt>
      <trkpt lat="45.94597" lon="4.73881">
        <ele>187</ele>
        <time>2018-08-04T09:53:08Z</time>
      </trkpt>
      <trkpt lat="45.94592" lon="4.73875">
        <ele>187</ele>
        <time>2018-08-04T09:53:09Z</time>
      </trkpt>
      <trkpt lat="45.94588" lon="4.73869">
        <ele>187</ele>
        <time>2018-08-04T09:53:10Z</time>
      </trkpt>
      <trkpt lat="45.94583" lon="4.73864">
        <ele>186</ele>
        <time>2018-08-04T09:53:11Z</time>
      </trkpt>
      <trkpt lat="45.94577" lon="4.73858">
        <ele>186</ele>
        <time>2018-08-04T09:53:12Z</time>
      </trkpt>
      <trkpt lat="45.94571" lon="4.73853">
        <ele>186</ele>
        <time>2018-08-04T09:53:13Z</time>
      </trkpt>
      <trkpt lat="45.94566" lon="4.73848">
        <ele>186</ele>
        <time>2018-08-04T09:53:14Z</time>
      </trkpt>
      <trkpt lat="45.94561" lon="4.73842">
        <ele>186</ele>
        <time>2018-08-04T09:53:15Z</time>
      </trkpt>
      <trkpt lat="45.94555" lon="4.73836">
        <ele>186</ele>
        <time>2018-08-04T09:53:16Z</time>
      </trkpt>
      <trkpt lat="45.94548" lon="4.73831">
        <ele>186</ele>
        <time>2018-08-04T09:53:17Z</time>
      </trkpt>
      <trkpt lat="45.94542" lon="4.73826">
        <ele>186</ele>
        <time>2018-08-04T09:53:18Z</time>
      </trkpt>
      <trkpt lat="45.94537" lon="4.73821">
        <ele>186</ele>
        <time>2018-08-04T09:53:19Z</time>
      </trkpt>
      <trkpt lat="45.94532" lon="4.73816">
        <ele>186</ele>
        <time>2018-08-04T09:53:20Z</time>
      </trkpt>
      <trkpt lat="45.94526" lon="4.73811">
        <ele>186</ele>
        <time>2018-08-04T09:53:21Z</time>
      </trkpt>
      <trkpt lat="45.9452" lon="4.73806">
        <ele>186</ele>
        <time>2018-08-04T09:53:22Z</time>
      </trkpt>
      <trkpt lat="45.94516" lon="4.73802">
        <ele>186</ele>
        <time>2018-08-04T09:53:23Z</time>
      </trkpt>
      <trkpt lat="45.9451" lon="4.73796">
        <ele>186</ele>
        <time>2018-08-04T09:53:24Z</time>
      </trkpt>
      <trkpt lat="45.94505" lon="4.73791">
        <ele>186</ele>
        <time>2018-08-04T09:53:25Z</time>
      </trkpt>
      <trkpt lat="45.94501" lon="4.73785">
        <ele>186</ele>
        <time>2018-08-04T09:53:26Z</time>
      </trkpt>
      <trkpt lat="45.94495" lon="4.73778">
        <ele>186</ele>
        <time>2018-08-04T09:53:27Z</time>
      </trkpt>
      <trkpt lat="45.94492" lon="4.73772">
        <ele>186</ele>
        <time>2018-08-04T09:53:28Z</time>
      </trkpt>
      <trkpt lat="45.94487" lon="4.73765">
        <ele>186</ele>
        <time>2018-08-04T09:53:29Z</time>
      </trkpt>
      <trkpt lat="45.94485" lon="4.73756">
        <ele>186</ele>
        <time>2018-08-04T09:53:30Z</time>
      </trkpt>
      <trkpt lat="45.94484" lon="4.73747">
        <ele>186</ele>
        <time>2018-08-04T09:53:31Z</time>
      </trkpt>
      <trkpt lat="45.94485" lon="4.73738">
        <ele>186</ele>
        <time>2018-08-04T09:53:32Z</time>
      </trkpt>
      <trkpt lat="45.94487" lon="4.73729">
        <ele>186</ele>
        <time>2018-08-04T09:53:33Z</time>
      </trkpt>
      <trkpt lat="45.94489" lon="4.7372">
        <ele>186</ele>
        <time>2018-08-04T09:53:34Z</time>
      </trkpt>
      <trkpt lat="45.94492" lon="4.73713">
        <ele>186</ele>
        <time>2018-08-04T09:53:35Z</time>
      </trkpt>
      <trkpt lat="45.94492" lon="4.73704">
        <ele>186</ele>
        <time>2018-08-04T09:53:36Z</time>
      </trkpt>
      <trkpt lat="45.94494" lon="4.73697">
        <ele>186</ele>
        <time>2018-08-04T09:53:37Z</time>
      </trkpt>
      <trkpt lat="45.94495" lon="4.73689">
        <ele>186</ele>
        <time>2018-08-04T09:53:38Z</time>
      </trkpt>
      <trkpt lat="45.94495" lon="4.73681">
        <ele>185</ele>
        <time>2018-08-04T09:53:39Z</time>
      </trkpt>
      <trkpt lat="45.94496" lon="4.73673">
        <ele>185</ele>
        <time>2018-08-04T09:53:40Z</time>
      </trkpt>
      <trkpt lat="45.94497" lon="4.73664">
        <ele>185</ele>
        <time>2018-08-04T09:53:41Z</time>
      </trkpt>
      <trkpt lat="45.94499" lon="4.73652">
        <ele>185</ele>
        <time>2018-08-04T09:53:42Z</time>
      </trkpt>
      <trkpt lat="45.945" lon="4.73643">
        <ele>186</ele>
        <time>2018-08-04T09:53:43Z</time>
      </trkpt>
      <trkpt lat="45.94501" lon="4.73635">
        <ele>184</ele>
        <time>2018-08-04T09:53:44Z</time>
      </trkpt>
      <trkpt lat="45.94501" lon="4.73625">
        <ele>184</ele>
        <time>2018-08-04T09:53:45Z</time>
      </trkpt>
      <trkpt lat="45.945" lon="4.73615">
        <ele>184</ele>
        <time>2018-08-04T09:53:46Z</time>
      </trkpt>
      <trkpt lat="45.945" lon="4.73605">
        <ele>184</ele>
        <time>2018-08-04T09:53:47Z</time>
      </trkpt>
      <trkpt lat="45.94501" lon="4.73596">
        <ele>184</ele>
        <time>2018-08-04T09:53:48Z</time>
      </trkpt>
      <trkpt lat="45.94501" lon="4.73584">
        <ele>185</ele>
        <time>2018-08-04T09:53:49Z</time>
      </trkpt>
      <trkpt lat="45.94502" lon="4.73575">
        <ele>184</ele>
        <time>2018-08-04T09:53:50Z</time>
      </trkpt>
      <trkpt lat="45.94503" lon="4.73565">
        <ele>184</ele>
        <time>2018-08-04T09:53:51Z</time>
      </trkpt>
      <trkpt lat="45.94503" lon="4.73556">
        <ele>184</ele>
        <time>2018-08-04T09:53:52Z</time>
      </trkpt>
      <trkpt lat="45.94505" lon="4.73546">
        <ele>183</ele>
        <time>2018-08-04T09:53:53Z</time>
      </trkpt>
      <trkpt lat="45.94506" lon="4.73535">
        <ele>183</ele>
        <time>2018-08-04T09:53:54Z</time>
      </trkpt>
      <trkpt lat="45.94506" lon="4.73525">
        <ele>183</ele>
        <time>2018-08-04T09:53:55Z</time>
      </trkpt>
      <trkpt lat="45.94506" lon="4.73513">
        <ele>183</ele>
        <time>2018-08-04T09:53:56Z</time>
      </trkpt>
      <trkpt lat="45.94506" lon="4.73503">
        <ele>183</ele>
        <time>2018-08-04T09:53:57Z</time>
      </trkpt>
      <trkpt lat="45.94506" lon="4.73492">
        <ele>182</ele>
        <time>2018-08-04T09:53:58Z</time>
      </trkpt>
      <trkpt lat="45.94506" lon="4.7348">
        <ele>182</ele>
        <time>2018-08-04T09:53:59Z</time>
      </trkpt>
      <trkpt lat="45.94506" lon="4.73469">
        <ele>181</ele>
        <time>2018-08-04T09:54:00Z</time>
      </trkpt>
      <trkpt lat="45.94506" lon="4.7346">
        <ele>181</ele>
        <time>2018-08-04T09:54:01Z</time>
      </trkpt>
      <trkpt lat="45.94505" lon="4.73448">
        <ele>181</ele>
        <time>2018-08-04T09:54:02Z</time>
      </trkpt>
      <trkpt lat="45.94506" lon="4.73439">
        <ele>181</ele>
        <time>2018-08-04T09:54:03Z</time>
      </trkpt>
      <trkpt lat="45.94502" lon="4.73427">
        <ele>180</ele>
        <time>2018-08-04T09:54:04Z</time>
      </trkpt>
      <trkpt lat="45.94501" lon="4.73412">
        <ele>180</ele>
        <time>2018-08-04T09:54:05Z</time>
      </trkpt>
      <trkpt lat="45.94501" lon="4.734">
        <ele>179</ele>
        <time>2018-08-04T09:54:06Z</time>
      </trkpt>
      <trkpt lat="45.94503" lon="4.73389">
        <ele>179</ele>
        <time>2018-08-04T09:54:07Z</time>
      </trkpt>
      <trkpt lat="45.945" lon="4.73376">
        <ele>178</ele>
        <time>2018-08-04T09:54:08Z</time>
      </trkpt>
      <trkpt lat="45.94501" lon="4.73373">
        <ele>178</ele>
        <time>2018-08-04T09:54:09Z</time>
      </trkpt>
      <trkpt lat="45.94498" lon="4.7336">
        <ele>179</ele>
        <time>2018-08-04T09:54:10Z</time>
      </trkpt>
      <trkpt lat="45.94495" lon="4.73348">
        <ele>178</ele>
        <time>2018-08-04T09:54:11Z</time>
      </trkpt>
      <trkpt lat="45.94496" lon="4.73337">
        <ele>177</ele>
        <time>2018-08-04T09:54:12Z</time>
      </trkpt>
      <trkpt lat="45.94495" lon="4.73325">
        <ele>177</ele>
        <time>2018-08-04T09:54:13Z</time>
      </trkpt>
      <trkpt lat="45.94494" lon="4.73312">
        <ele>177</ele>
        <time>2018-08-04T09:54:14Z</time>
      </trkpt>
      <trkpt lat="45.94494" lon="4.73299">
        <ele>177</ele>
        <time>2018-08-04T09:54:15Z</time>
      </trkpt>
      <trkpt lat="45.94492" lon="4.73288">
        <ele>177</ele>
        <time>2018-08-04T09:54:16Z</time>
      </trkpt>
      <trkpt lat="45.94492" lon="4.73276">
        <ele>177</ele>
        <time>2018-08-04T09:54:17Z</time>
      </trkpt>
      <trkpt lat="45.9449" lon="4.73263">
        <ele>176</ele>
        <time>2018-08-04T09:54:18Z</time>
      </trkpt>
      <trkpt lat="45.94489" lon="4.73252">
        <ele>176</ele>
        <time>2018-08-04T09:54:19Z</time>
      </trkpt>
      <trkpt lat="45.94488" lon="4.73241">
        <ele>175</ele>
        <time>2018-08-04T09:54:20Z</time>
      </trkpt>
      <trkpt lat="45.94482" lon="4.7323">
        <ele>175</ele>
        <time>2018-08-04T09:54:21Z</time>
      </trkpt>
      <trkpt lat="45.94482" lon="4.73216">
        <ele>175</ele>
        <time>2018-08-04T09:54:22Z</time>
      </trkpt>
      <trkpt lat="45.94482" lon="4.73204">
        <ele>175</ele>
        <time>2018-08-04T09:54:23Z</time>
      </trkpt>
      <trkpt lat="45.94479" lon="4.73193">
        <ele>174</ele>
        <time>2018-08-04T09:54:24Z</time>
      </trkpt>
      <trkpt lat="45.94478" lon="4.73182">
        <ele>174</ele>
        <time>2018-08-04T09:54:25Z</time>
      </trkpt>
      <trkpt lat="45.94472" lon="4.73171">
        <ele>174</ele>
        <time>2018-08-04T09:54:26Z</time>
      </trkpt>
      <trkpt lat="45.94473" lon="4.73159">
        <ele>172</ele>
        <time>2018-08-04T09:54:27Z</time>
      </trkpt>
      <trkpt lat="45.9447" lon="4.73148">
        <ele>172</ele>
        <time>2018-08-04T09:54:28Z</time>
      </trkpt>
      <trkpt lat="45.94468" lon="4.73137">
        <ele>172</ele>
        <time>2018-08-04T09:54:29Z</time>
      </trkpt>
      <trkpt lat="45.94466" lon="4.73127">
        <ele>172</ele>
        <time>2018-08-04T09:54:30Z</time>
      </trkpt>
      <trkpt lat="45.94464" lon="4.73116">
        <ele>172</ele>
        <time>2018-08-04T09:54:31Z</time>
      </trkpt>
      <trkpt lat="45.94464" lon="4.73107">
        <ele>172</ele>
        <time>2018-08-04T09:54:32Z</time>
      </trkpt>
      <trkpt lat="45.94463" lon="4.73097">
        <ele>171</ele>
        <time>2018-08-04T09:54:33Z</time>
      </trkpt>
      <trkpt lat="45.94461" lon="4.73088">
        <ele>171</ele>
        <time>2018-08-04T09:54:34Z</time>
      </trkpt>
      <trkpt lat="45.94462" lon="4.73078">
        <ele>170</ele>
        <time>2018-08-04T09:54:35Z</time>
      </trkpt>
      <trkpt lat="45.94458" lon="4.7307">
        <ele>170</ele>
        <time>2018-08-04T09:54:36Z</time>
      </trkpt>
      <trkpt lat="45.94457" lon="4.7306">
        <ele>170</ele>
        <time>2018-08-04T09:54:37Z</time>
      </trkpt>
      <trkpt lat="45.94456" lon="4.73053">
        <ele>170</ele>
        <time>2018-08-04T09:54:38Z</time>
      </trkpt>
      <trkpt lat="45.94456" lon="4.73044">
        <ele>169</ele>
        <time>2018-08-04T09:54:39Z</time>
      </trkpt>
      <trkpt lat="45.94456" lon="4.73036">
        <ele>169</ele>
        <time>2018-08-04T09:54:40Z</time>
      </trkpt>
      <trkpt lat="45.94455" lon="4.73028">
        <ele>169</ele>
        <time>2018-08-04T09:54:41Z</time>
      </trkpt>
      <trkpt lat="45.94455" lon="4.73021">
        <ele>169</ele>
        <time>2018-08-04T09:54:42Z</time>
      </trkpt>
      <trkpt lat="45.94454" lon="4.73013">
        <ele>169</ele>
        <time>2018-08-04T09:54:43Z</time>
      </trkpt>
      <trkpt lat="45.94453" lon="4.73005">
        <ele>169</ele>
        <time>2018-08-04T09:54:44Z</time>
      </trkpt>
      <trkpt lat="45.94452" lon="4.72999">
        <ele>167</ele>
        <time>2018-08-04T09:54:45Z</time>
      </trkpt>
      <trkpt lat="45.94453" lon="4.72992">
        <ele>167</ele>
        <time>2018-08-04T09:54:46Z</time>
      </trkpt>
      <trkpt lat="45.94452" lon="4.72985">
        <ele>167</ele>
        <time>2018-08-04T09:54:47Z</time>
      </trkpt>
      <trkpt lat="45.94451" lon="4.72978">
        <ele>167</ele>
        <time>2018-08-04T09:54:48Z</time>
      </trkpt>
      <trkpt lat="45.94449" lon="4.72971">
        <ele>167</ele>
        <time>2018-08-04T09:54:49Z</time>
      </trkpt>
      <trkpt lat="45.94448" lon="4.72963">
        <ele>167</ele>
        <time>2018-08-04T09:54:50Z</time>
      </trkpt>
      <trkpt lat="45.94447" lon="4.72957">
        <ele>167</ele>
        <time>2018-08-04T09:54:51Z</time>
      </trkpt>
      <trkpt lat="45.94446" lon="4.7295">
        <ele>167</ele>
        <time>2018-08-04T09:54:52Z</time>
      </trkpt>
      <trkpt lat="45.94444" lon="4.7294">
        <ele>167</ele>
        <time>2018-08-04T09:54:54Z</time>
      </trkpt>
      <trkpt lat="45.94442" lon="4.72933">
        <ele>167</ele>
        <time>2018-08-04T09:54:55Z</time>
      </trkpt>
      <trkpt lat="45.94442" lon="4.72927">
        <ele>167</ele>
        <time>2018-08-04T09:54:56Z</time>
      </trkpt>
      <trkpt lat="45.94441" lon="4.72921">
        <ele>167</ele>
        <time>2018-08-04T09:54:57Z</time>
      </trkpt>
      <trkpt lat="45.94438" lon="4.72908">
        <ele>166</ele>
        <time>2018-08-04T09:54:59Z</time>
      </trkpt>
      <trkpt lat="45.94437" lon="4.72902">
        <ele>166</ele>
        <time>2018-08-04T09:55:00Z</time>
      </trkpt>
      <trkpt lat="45.94436" lon="4.72896">
        <ele>166</ele>
        <time>2018-08-04T09:55:01Z</time>
      </trkpt>
      <trkpt lat="45.94435" lon="4.72889">
        <ele>166</ele>
        <time>2018-08-04T09:55:02Z</time>
      </trkpt>
      <trkpt lat="45.94433" lon="4.72882">
        <ele>166</ele>
        <time>2018-08-04T09:55:03Z</time>
      </trkpt>
      <trkpt lat="45.94432" lon="4.72875">
        <ele>166</ele>
        <time>2018-08-04T09:55:04Z</time>
      </trkpt>
      <trkpt lat="45.94433" lon="4.72867">
        <ele>166</ele>
        <time>2018-08-04T09:55:05Z</time>
      </trkpt>
      <trkpt lat="45.94432" lon="4.72859">
        <ele>166</ele>
        <time>2018-08-04T09:55:06Z</time>
      </trkpt>
      <trkpt lat="45.94431" lon="4.72851">
        <ele>166</ele>
        <time>2018-08-04T09:55:07Z</time>
      </trkpt>
      <trkpt lat="45.94428" lon="4.72844">
        <ele>166</ele>
        <time>2018-08-04T09:55:08Z</time>
      </trkpt>
      <trkpt lat="45.94428" lon="4.72835">
        <ele>166</ele>
        <time>2018-08-04T09:55:09Z</time>
      </trkpt>
      <trkpt lat="45.94428" lon="4.72826">
        <ele>167</ele>
        <time>2018-08-04T09:55:10Z</time>
      </trkpt>
      <trkpt lat="45.94428" lon="4.72817">
        <ele>167</ele>
        <time>2018-08-04T09:55:11Z</time>
      </trkpt>
      <trkpt lat="45.94426" lon="4.72806">
        <ele>167</ele>
        <time>2018-08-04T09:55:12Z</time>
      </trkpt>
      <trkpt lat="45.94423" lon="4.72796">
        <ele>168</ele>
        <time>2018-08-04T09:55:13Z</time>
      </trkpt>
      <trkpt lat="45.94422" lon="4.72786">
        <ele>168</ele>
        <time>2018-08-04T09:55:14Z</time>
      </trkpt>
      <trkpt lat="45.9442" lon="4.72773">
        <ele>169</ele>
        <time>2018-08-04T09:55:15Z</time>
      </trkpt>
      <trkpt lat="45.94418" lon="4.72762">
        <ele>169</ele>
        <time>2018-08-04T09:55:16Z</time>
      </trkpt>
      <trkpt lat="45.94417" lon="4.72752">
        <ele>171</ele>
        <time>2018-08-04T09:55:17Z</time>
      </trkpt>
      <trkpt lat="45.94415" lon="4.72741">
        <ele>171</ele>
        <time>2018-08-04T09:55:18Z</time>
      </trkpt>
      <trkpt lat="45.94413" lon="4.72731">
        <ele>172</ele>
        <time>2018-08-04T09:55:19Z</time>
      </trkpt>
      <trkpt lat="45.94413" lon="4.72721">
        <ele>172</ele>
        <time>2018-08-04T09:55:20Z</time>
      </trkpt>
      <trkpt lat="45.94415" lon="4.72711">
        <ele>172</ele>
        <time>2018-08-04T09:55:21Z</time>
      </trkpt>
      <trkpt lat="45.94413" lon="4.72703">
        <ele>172</ele>
        <time>2018-08-04T09:55:22Z</time>
      </trkpt>
      <trkpt lat="45.94411" lon="4.72695">
        <ele>173</ele>
        <time>2018-08-04T09:55:23Z</time>
      </trkpt>
      <trkpt lat="45.94412" lon="4.72685">
        <ele>173</ele>
        <time>2018-08-04T09:55:24Z</time>
      </trkpt>
      <trkpt lat="45.94412" lon="4.72676">
        <ele>173</ele>
        <time>2018-08-04T09:55:25Z</time>
      </trkpt>
      <trkpt lat="45.94412" lon="4.72666">
        <ele>174</ele>
        <time>2018-08-04T09:55:26Z</time>
      </trkpt>
      <trkpt lat="45.9441" lon="4.72656">
        <ele>174</ele>
        <time>2018-08-04T09:55:27Z</time>
      </trkpt>
      <trkpt lat="45.94407" lon="4.72646">
        <ele>174</ele>
        <time>2018-08-04T09:55:28Z</time>
      </trkpt>
      <trkpt lat="45.94406" lon="4.72636">
        <ele>174</ele>
        <time>2018-08-04T09:55:29Z</time>
      </trkpt>
      <trkpt lat="45.94403" lon="4.72628">
        <ele>174</ele>
        <time>2018-08-04T09:55:30Z</time>
      </trkpt>
      <trkpt lat="45.94401" lon="4.72617">
        <ele>173</ele>
        <time>2018-08-04T09:55:31Z</time>
      </trkpt>
      <trkpt lat="45.944" lon="4.72608">
        <ele>173</ele>
        <time>2018-08-04T09:55:32Z</time>
      </trkpt>
      <trkpt lat="45.94398" lon="4.72599">
        <ele>173</ele>
        <time>2018-08-04T09:55:33Z</time>
      </trkpt>
      <trkpt lat="45.94398" lon="4.72591">
        <ele>173</ele>
        <time>2018-08-04T09:55:34Z</time>
      </trkpt>
      <trkpt lat="45.94395" lon="4.72582">
        <ele>173</ele>
        <time>2018-08-04T09:55:35Z</time>
      </trkpt>
      <trkpt lat="45.94394" lon="4.72573">
        <ele>173</ele>
        <time>2018-08-04T09:55:36Z</time>
      </trkpt>
      <trkpt lat="45.94392" lon="4.72565">
        <ele>173</ele>
        <time>2018-08-04T09:55:37Z</time>
      </trkpt>
      <trkpt lat="45.9439" lon="4.72556">
        <ele>173</ele>
        <time>2018-08-04T09:55:38Z</time>
      </trkpt>
      <trkpt lat="45.94388" lon="4.72548">
        <ele>173</ele>
        <time>2018-08-04T09:55:39Z</time>
      </trkpt>
      <trkpt lat="45.94387" lon="4.72541">
        <ele>174</ele>
        <time>2018-08-04T09:55:40Z</time>
      </trkpt>
      <trkpt lat="45.94387" lon="4.72533">
        <ele>174</ele>
        <time>2018-08-04T09:55:41Z</time>
      </trkpt>
      <trkpt lat="45.94386" lon="4.72524">
        <ele>174</ele>
        <time>2018-08-04T09:55:42Z</time>
      </trkpt>
      <trkpt lat="45.94386" lon="4.72516">
        <ele>174</ele>
        <time>2018-08-04T09:55:43Z</time>
      </trkpt>
      <trkpt lat="45.94387" lon="4.72507">
        <ele>174</ele>
        <time>2018-08-04T09:55:44Z</time>
      </trkpt>
      <trkpt lat="45.94385" lon="4.72499">
        <ele>173</ele>
        <time>2018-08-04T09:55:45Z</time>
      </trkpt>
      <trkpt lat="45.94386" lon="4.72488">
        <ele>173</ele>
        <time>2018-08-04T09:55:46Z</time>
      </trkpt>
      <trkpt lat="45.94384" lon="4.72482">
        <ele>173</ele>
        <time>2018-08-04T09:55:47Z</time>
      </trkpt>
      <trkpt lat="45.94383" lon="4.72474">
        <ele>173</ele>
        <time>2018-08-04T09:55:48Z</time>
      </trkpt>
      <trkpt lat="45.94377" lon="4.72468">
        <ele>173</ele>
        <time>2018-08-04T09:55:49Z</time>
      </trkpt>
      <trkpt lat="45.94378" lon="4.7246">
        <ele>173</ele>
        <time>2018-08-04T09:55:50Z</time>
      </trkpt>
      <trkpt lat="45.94363" lon="4.72455">
        <ele>173</ele>
        <time>2018-08-04T09:55:51Z</time>
      </trkpt>
      <trkpt lat="45.94362" lon="4.72448">
        <ele>173</ele>
        <time>2018-08-04T09:55:52Z</time>
      </trkpt>
      <trkpt lat="45.94362" lon="4.72439">
        <ele>173</ele>
        <time>2018-08-04T09:55:53Z</time>
      </trkpt>
      <trkpt lat="45.94353" lon="4.72433">
        <ele>173</ele>
        <time>2018-08-04T09:55:54Z</time>
      </trkpt>
      <trkpt lat="45.94339" lon="4.72428">
        <ele>173</ele>
        <time>2018-08-04T09:55:55Z</time>
      </trkpt>
      <trkpt lat="45.94339" lon="4.72422">
        <ele>173</ele>
        <time>2018-08-04T09:55:56Z</time>
      </trkpt>
      <trkpt lat="45.94335" lon="4.72415">
        <ele>173</ele>
        <time>2018-08-04T09:55:57Z</time>
      </trkpt>
      <trkpt lat="45.94332" lon="4.72407">
        <ele>173</ele>
        <time>2018-08-04T09:55:58Z</time>
      </trkpt>
      <trkpt lat="45.94336" lon="4.72399">
        <ele>172</ele>
        <time>2018-08-04T09:55:59Z</time>
      </trkpt>
      <trkpt lat="45.94332" lon="4.72388">
        <ele>172</ele>
        <time>2018-08-04T09:56:01Z</time>
      </trkpt>
      <trkpt lat="45.94331" lon="4.72382">
        <ele>172</ele>
        <time>2018-08-04T09:56:02Z</time>
      </trkpt>
      <trkpt lat="45.94333" lon="4.72372">
        <ele>172</ele>
        <time>2018-08-04T09:56:03Z</time>
      </trkpt>
      <trkpt lat="45.94328" lon="4.72364">
        <ele>172</ele>
        <time>2018-08-04T09:56:04Z</time>
      </trkpt>
      <trkpt lat="45.94322" lon="4.72358">
        <ele>172</ele>
        <time>2018-08-04T09:56:05Z</time>
      </trkpt>
      <trkpt lat="45.94317" lon="4.7235">
        <ele>172</ele>
        <time>2018-08-04T09:56:06Z</time>
      </trkpt>
      <trkpt lat="45.94312" lon="4.72342">
        <ele>172</ele>
        <time>2018-08-04T09:56:07Z</time>
      </trkpt>
      <trkpt lat="45.9431" lon="4.72335">
        <ele>172</ele>
        <time>2018-08-04T09:56:08Z</time>
      </trkpt>
      <trkpt lat="45.94307" lon="4.72329">
        <ele>171</ele>
        <time>2018-08-04T09:56:09Z</time>
      </trkpt>
      <trkpt lat="45.94304" lon="4.72321">
        <ele>171</ele>
        <time>2018-08-04T09:56:10Z</time>
      </trkpt>
      <trkpt lat="45.94302" lon="4.72313">
        <ele>171</ele>
        <time>2018-08-04T09:56:11Z</time>
      </trkpt>
      <trkpt lat="45.94299" lon="4.72305">
        <ele>171</ele>
        <time>2018-08-04T09:56:12Z</time>
      </trkpt>
      <trkpt lat="45.94294" lon="4.72298">
        <ele>171</ele>
        <time>2018-08-04T09:56:13Z</time>
      </trkpt>
      <trkpt lat="45.94289" lon="4.72292">
        <ele>171</ele>
        <time>2018-08-04T09:56:14Z</time>
      </trkpt>
      <trkpt lat="45.94284" lon="4.72287">
        <ele>171</ele>
        <time>2018-08-04T09:56:15Z</time>
      </trkpt>
      <trkpt lat="45.94282" lon="4.72282">
        <ele>171</ele>
        <time>2018-08-04T09:56:16Z</time>
      </trkpt>
      <trkpt lat="45.94277" lon="4.72271">
        <ele>171</ele>
        <time>2018-08-04T09:56:21Z</time>
      </trkpt>
      <trkpt lat="45.94276" lon="4.72269">
        <ele>171</ele>
        <time>2018-08-04T09:56:22Z</time>
      </trkpt>
      <trkpt lat="45.94272" lon="4.72265">
        <ele>171</ele>
        <time>2018-08-04T09:56:24Z</time>
      </trkpt>
      <trkpt lat="45.94266" lon="4.72263">
        <ele>171</ele>
        <time>2018-08-04T09:56:25Z</time>
      </trkpt>
      <trkpt lat="45.94261" lon="4.7227">
        <ele>171</ele>
        <time>2018-08-04T09:56:27Z</time>
      </trkpt>
      <trkpt lat="45.94257" lon="4.72274">
        <ele>171</ele>
        <time>2018-08-04T09:56:28Z</time>
      </trkpt>
      <trkpt lat="45.94249" lon="4.72278">
        <ele>171</ele>
        <time>2018-08-04T09:56:30Z</time>
      </trkpt>
      <trkpt lat="45.94245" lon="4.7228">
        <ele>171</ele>
        <time>2018-08-04T09:56:31Z</time>
      </trkpt>
      <trkpt lat="45.9424" lon="4.72281">
        <ele>171</ele>
        <time>2018-08-04T09:56:32Z</time>
      </trkpt>
      <trkpt lat="45.94235" lon="4.72282">
        <ele>171</ele>
        <time>2018-08-04T09:56:33Z</time>
      </trkpt>
      <trkpt lat="45.94231" lon="4.72285">
        <ele>171</ele>
        <time>2018-08-04T09:56:34Z</time>
      </trkpt>
      <trkpt lat="45.94226" lon="4.72286">
        <ele>171</ele>
        <time>2018-08-04T09:56:35Z</time>
      </trkpt>
      <trkpt lat="45.94221" lon="4.72288">
        <ele>171</ele>
        <time>2018-08-04T09:56:36Z</time>
      </trkpt>
      <trkpt lat="45.94214" lon="4.72289">
        <ele>171</ele>
        <time>2018-08-04T09:56:37Z</time>
      </trkpt>
      <trkpt lat="45.94209" lon="4.72291">
        <ele>171</ele>
        <time>2018-08-04T09:56:38Z</time>
      </trkpt>
      <trkpt lat="45.94202" lon="4.72291">
        <ele>171</ele>
        <time>2018-08-04T09:56:39Z</time>
      </trkpt>
      <trkpt lat="45.94197" lon="4.72293">
        <ele>171</ele>
        <time>2018-08-04T09:56:40Z</time>
      </trkpt>
      <trkpt lat="45.94192" lon="4.72292">
        <ele>171</ele>
        <time>2018-08-04T09:56:41Z</time>
      </trkpt>
      <trkpt lat="45.94186" lon="4.72293">
        <ele>171</ele>
        <time>2018-08-04T09:56:42Z</time>
      </trkpt>
      <trkpt lat="45.94181" lon="4.72291">
        <ele>171</ele>
        <time>2018-08-04T09:56:43Z</time>
      </trkpt>
      <trkpt lat="45.94175" lon="4.7229">
        <ele>171</ele>
        <time>2018-08-04T09:56:44Z</time>
      </trkpt>
      <trkpt lat="45.9417" lon="4.7229">
        <ele>171</ele>
        <time>2018-08-04T09:56:45Z</time>
      </trkpt>
      <trkpt lat="45.94164" lon="4.72289">
        <ele>171</ele>
        <time>2018-08-04T09:56:46Z</time>
      </trkpt>
      <trkpt lat="45.9416" lon="4.72288">
        <ele>171</ele>
        <time>2018-08-04T09:56:47Z</time>
      </trkpt>
      <trkpt lat="45.94154" lon="4.72285">
        <ele>171</ele>
        <time>2018-08-04T09:56:48Z</time>
      </trkpt>
      <trkpt lat="45.94149" lon="4.72283">
        <ele>171</ele>
        <time>2018-08-04T09:56:49Z</time>
      </trkpt>
      <trkpt lat="45.94143" lon="4.72281">
        <ele>171</ele>
        <time>2018-08-04T09:56:50Z</time>
      </trkpt>
      <trkpt lat="45.94137" lon="4.72277">
        <ele>171</ele>
        <time>2018-08-04T09:56:51Z</time>
      </trkpt>
      <trkpt lat="45.94131" lon="4.72274">
        <ele>171</ele>
        <time>2018-08-04T09:56:52Z</time>
      </trkpt>
      <trkpt lat="45.94126" lon="4.72271">
        <ele>171</ele>
        <time>2018-08-04T09:56:53Z</time>
      </trkpt>
      <trkpt lat="45.9412" lon="4.72269">
        <ele>171</ele>
        <time>2018-08-04T09:56:54Z</time>
      </trkpt>
      <trkpt lat="45.94114" lon="4.72266">
        <ele>171</ele>
        <time>2018-08-04T09:56:55Z</time>
      </trkpt>
      <trkpt lat="45.94108" lon="4.72264">
        <ele>171</ele>
        <time>2018-08-04T09:56:56Z</time>
      </trkpt>
      <trkpt lat="45.94103" lon="4.72264">
        <ele>171</ele>
        <time>2018-08-04T09:56:57Z</time>
      </trkpt>
      <trkpt lat="45.94097" lon="4.72265">
        <ele>171</ele>
        <time>2018-08-04T09:56:58Z</time>
      </trkpt>
      <trkpt lat="45.94091" lon="4.72266">
        <ele>171</ele>
        <time>2018-08-04T09:56:59Z</time>
      </trkpt>
      <trkpt lat="45.94085" lon="4.72267">
        <ele>171</ele>
        <time>2018-08-04T09:57:00Z</time>
      </trkpt>
      <trkpt lat="45.94079" lon="4.72269">
        <ele>171</ele>
        <time>2018-08-04T09:57:01Z</time>
      </trkpt>
      <trkpt lat="45.94076" lon="4.72273">
        <ele>171</ele>
        <time>2018-08-04T09:57:02Z</time>
      </trkpt>
      <trkpt lat="45.94071" lon="4.72276">
        <ele>171</ele>
        <time>2018-08-04T09:57:03Z</time>
      </trkpt>
      <trkpt lat="45.94066" lon="4.72281">
        <ele>171</ele>
        <time>2018-08-04T09:57:04Z</time>
      </trkpt>
      <trkpt lat="45.94061" lon="4.72286">
        <ele>171</ele>
        <time>2018-08-04T09:57:05Z</time>
      </trkpt>
      <trkpt lat="45.94056" lon="4.72294">
        <ele>171</ele>
        <time>2018-08-04T09:57:06Z</time>
      </trkpt>
      <trkpt lat="45.94051" lon="4.723">
        <ele>171</ele>
        <time>2018-08-04T09:57:07Z</time>
      </trkpt>
      <trkpt lat="45.94046" lon="4.72304">
        <ele>171</ele>
        <time>2018-08-04T09:57:08Z</time>
      </trkpt>
      <trkpt lat="45.94042" lon="4.72311">
        <ele>171</ele>
        <time>2018-08-04T09:57:09Z</time>
      </trkpt>
      <trkpt lat="45.94037" lon="4.72318">
        <ele>171</ele>
        <time>2018-08-04T09:57:10Z</time>
      </trkpt>
      <trkpt lat="45.94032" lon="4.72323">
        <ele>171</ele>
        <time>2018-08-04T09:57:11Z</time>
      </trkpt>
      <trkpt lat="45.94028" lon="4.7233">
        <ele>171</ele>
        <time>2018-08-04T09:57:12Z</time>
      </trkpt>
      <trkpt lat="45.94024" lon="4.72335">
        <ele>171</ele>
        <time>2018-08-04T09:57:13Z</time>
      </trkpt>
      <trkpt lat="45.94019" lon="4.7234">
        <ele>171</ele>
        <time>2018-08-04T09:57:14Z</time>
      </trkpt>
      <trkpt lat="45.94015" lon="4.72345">
        <ele>171</ele>
        <time>2018-08-04T09:57:15Z</time>
      </trkpt>
      <trkpt lat="45.9401" lon="4.72348">
        <ele>171</ele>
        <time>2018-08-04T09:57:16Z</time>
      </trkpt>
      <trkpt lat="45.94006" lon="4.72354">
        <ele>171</ele>
        <time>2018-08-04T09:57:17Z</time>
      </trkpt>
      <trkpt lat="45.94001" lon="4.72358">
        <ele>171</ele>
        <time>2018-08-04T09:57:18Z</time>
      </trkpt>
      <trkpt lat="45.93997" lon="4.7237">
        <ele>171</ele>
        <time>2018-08-04T09:57:19Z</time>
      </trkpt>
      <trkpt lat="45.93993" lon="4.72375">
        <ele>171</ele>
        <time>2018-08-04T09:57:20Z</time>
      </trkpt>
      <trkpt lat="45.9399" lon="4.72383">
        <ele>171</ele>
        <time>2018-08-04T09:57:21Z</time>
      </trkpt>
      <trkpt lat="45.93986" lon="4.72386">
        <ele>171</ele>
        <time>2018-08-04T09:57:22Z</time>
      </trkpt>
      <trkpt lat="45.93982" lon="4.72393">
        <ele>171</ele>
        <time>2018-08-04T09:57:23Z</time>
      </trkpt>
      <trkpt lat="45.93977" lon="4.72399">
        <ele>171</ele>
        <time>2018-08-04T09:57:24Z</time>
      </trkpt>
      <trkpt lat="45.93973" lon="4.72405">
        <ele>171</ele>
        <time>2018-08-04T09:57:25Z</time>
      </trkpt>
      <trkpt lat="45.93968" lon="4.72412">
        <ele>171</ele>
        <time>2018-08-04T09:57:26Z</time>
      </trkpt>
      <trkpt lat="45.93963" lon="4.72417">
        <ele>171</ele>
        <time>2018-08-04T09:57:27Z</time>
      </trkpt>
      <trkpt lat="45.93958" lon="4.72422">
        <ele>171</ele>
        <time>2018-08-04T09:57:28Z</time>
      </trkpt>
      <trkpt lat="45.93953" lon="4.72427">
        <ele>171</ele>
        <time>2018-08-04T09:57:29Z</time>
      </trkpt>
      <trkpt lat="45.93949" lon="4.72433">
        <ele>171</ele>
        <time>2018-08-04T09:57:30Z</time>
      </trkpt>
      <trkpt lat="45.93944" lon="4.72439">
        <ele>171</ele>
        <time>2018-08-04T09:57:31Z</time>
      </trkpt>
      <trkpt lat="45.93938" lon="4.72446">
        <ele>171</ele>
        <time>2018-08-04T09:57:33Z</time>
      </trkpt>
      <trkpt lat="45.93934" lon="4.72451">
        <ele>171</ele>
        <time>2018-08-04T09:57:34Z</time>
      </trkpt>
      <trkpt lat="45.9393" lon="4.72456">
        <ele>171</ele>
        <time>2018-08-04T09:57:35Z</time>
      </trkpt>
      <trkpt lat="45.93926" lon="4.72461">
        <ele>171</ele>
        <time>2018-08-04T09:57:36Z</time>
      </trkpt>
      <trkpt lat="45.93923" lon="4.72465">
        <ele>171</ele>
        <time>2018-08-04T09:57:37Z</time>
      </trkpt>
      <trkpt lat="45.93919" lon="4.7247">
        <ele>171</ele>
        <time>2018-08-04T09:57:38Z</time>
      </trkpt>
      <trkpt lat="45.93915" lon="4.72475">
        <ele>172</ele>
        <time>2018-08-04T09:57:39Z</time>
      </trkpt>
      <trkpt lat="45.93911" lon="4.7248">
        <ele>172</ele>
        <time>2018-08-04T09:57:40Z</time>
      </trkpt>
      <trkpt lat="45.93907" lon="4.72485">
        <ele>172</ele>
        <time>2018-08-04T09:57:41Z</time>
      </trkpt>
      <trkpt lat="45.93903" lon="4.7249">
        <ele>172</ele>
        <time>2018-08-04T09:57:42Z</time>
      </trkpt>
      <trkpt lat="45.93897" lon="4.72497">
        <ele>172</ele>
        <time>2018-08-04T09:57:44Z</time>
      </trkpt>
      <trkpt lat="45.93893" lon="4.725">
        <ele>172</ele>
        <time>2018-08-04T09:57:45Z</time>
      </trkpt>
      <trkpt lat="45.93886" lon="4.72507">
        <ele>173</ele>
        <time>2018-08-04T09:57:47Z</time>
      </trkpt>
      <trkpt lat="45.93881" lon="4.72512">
        <ele>173</ele>
        <time>2018-08-04T09:57:48Z</time>
      </trkpt>
      <trkpt lat="45.93874" lon="4.72516">
        <ele>173</ele>
        <time>2018-08-04T09:57:50Z</time>
      </trkpt>
      <trkpt lat="45.93866" lon="4.72514">
        <ele>173</ele>
        <time>2018-08-04T09:57:51Z</time>
      </trkpt>
      <trkpt lat="45.93861" lon="4.72515">
        <ele>173</ele>
        <time>2018-08-04T09:57:52Z</time>
      </trkpt>
      <trkpt lat="45.93856" lon="4.72514">
        <ele>173</ele>
        <time>2018-08-04T09:57:53Z</time>
      </trkpt>
      <trkpt lat="45.93856" lon="4.72514">
        <ele>173</ele>
        <time>2018-08-04T09:57:55Z</time>
      </trkpt>
      <trkpt lat="45.93848" lon="4.72507">
        <ele>174</ele>
        <time>2018-08-04T09:57:56Z</time>
      </trkpt>
      <trkpt lat="45.93844" lon="4.72503">
        <ele>174</ele>
        <time>2018-08-04T09:57:59Z</time>
      </trkpt>
      <trkpt lat="45.93833" lon="4.72492">
        <ele>173</ele>
        <time>2018-08-04T09:58:00Z</time>
      </trkpt>
      <trkpt lat="45.93815" lon="4.72479">
        <ele>172</ele>
        <time>2018-08-04T09:58:01Z</time>
      </trkpt>
      <trkpt lat="45.93807" lon="4.72478">
        <ele>172</ele>
        <time>2018-08-04T09:58:02Z</time>
      </trkpt>
      <trkpt lat="45.93799" lon="4.72466">
        <ele>172</ele>
        <time>2018-08-04T09:58:03Z</time>
      </trkpt>
      <trkpt lat="45.93796" lon="4.72461">
        <ele>172</ele>
        <time>2018-08-04T09:58:04Z</time>
      </trkpt>
      <trkpt lat="45.93792" lon="4.72456">
        <ele>172</ele>
        <time>2018-08-04T09:58:05Z</time>
      </trkpt>
      <trkpt lat="45.93792" lon="4.72444">
        <ele>172</ele>
        <time>2018-08-04T09:58:09Z</time>
      </trkpt>
      <trkpt lat="45.93788" lon="4.72441">
        <ele>172</ele>
        <time>2018-08-04T09:58:10Z</time>
      </trkpt>
      <trkpt lat="45.93784" lon="4.72438">
        <ele>172</ele>
        <time>2018-08-04T09:58:11Z</time>
      </trkpt>
      <trkpt lat="45.9378" lon="4.72434">
        <ele>172</ele>
        <time>2018-08-04T09:58:12Z</time>
      </trkpt>
      <trkpt lat="45.93774" lon="4.72427">
        <ele>171</ele>
        <time>2018-08-04T09:58:13Z</time>
      </trkpt>
      <trkpt lat="45.93769" lon="4.72422">
        <ele>171</ele>
        <time>2018-08-04T09:58:14Z</time>
      </trkpt>
      <trkpt lat="45.93765" lon="4.72417">
        <ele>171</ele>
        <time>2018-08-04T09:58:15Z</time>
      </trkpt>
      <trkpt lat="45.93761" lon="4.72414">
        <ele>171</ele>
        <time>2018-08-04T09:58:16Z</time>
      </trkpt>
      <trkpt lat="45.93758" lon="4.72409">
        <ele>171</ele>
        <time>2018-08-04T09:58:17Z</time>
      </trkpt>
      <trkpt lat="45.93754" lon="4.72406">
        <ele>171</ele>
        <time>2018-08-04T09:58:18Z</time>
      </trkpt>
      <trkpt lat="45.9375" lon="4.72401">
        <ele>171</ele>
        <time>2018-08-04T09:58:19Z</time>
      </trkpt>
      <trkpt lat="45.93747" lon="4.72397">
        <ele>171</ele>
        <time>2018-08-04T09:58:20Z</time>
      </trkpt>
      <trkpt lat="45.9374" lon="4.7239">
        <ele>171</ele>
        <time>2018-08-04T09:58:22Z</time>
      </trkpt>
      <trkpt lat="45.93735" lon="4.72386">
        <ele>171</ele>
        <time>2018-08-04T09:58:23Z</time>
      </trkpt>
      <trkpt lat="45.9373" lon="4.72384">
        <ele>171</ele>
        <time>2018-08-04T09:58:24Z</time>
      </trkpt>
      <trkpt lat="45.93726" lon="4.72379">
        <ele>171</ele>
        <time>2018-08-04T09:58:25Z</time>
      </trkpt>
      <trkpt lat="45.93722" lon="4.72375">
        <ele>172</ele>
        <time>2018-08-04T09:58:26Z</time>
      </trkpt>
      <trkpt lat="45.93719" lon="4.72369">
        <ele>172</ele>
        <time>2018-08-04T09:58:27Z</time>
      </trkpt>
      <trkpt lat="45.93714" lon="4.72365">
        <ele>172</ele>
        <time>2018-08-04T09:58:28Z</time>
      </trkpt>
      <trkpt lat="45.9371" lon="4.72361">
        <ele>172</ele>
        <time>2018-08-04T09:58:29Z</time>
      </trkpt>
      <trkpt lat="45.93707" lon="4.72358">
        <ele>171</ele>
        <time>2018-08-04T09:58:30Z</time>
      </trkpt>
      <trkpt lat="45.93688" lon="4.72331">
        <ele>172</ele>
        <time>2018-08-04T09:58:36Z</time>
      </trkpt>
      <trkpt lat="45.93683" lon="4.72326">
        <ele>172</ele>
        <time>2018-08-04T09:58:37Z</time>
      </trkpt>
      <trkpt lat="45.93677" lon="4.72323">
        <ele>171</ele>
        <time>2018-08-04T09:58:38Z</time>
      </trkpt>
      <trkpt lat="45.93666" lon="4.72319">
        <ele>172</ele>
        <time>2018-08-04T09:58:39Z</time>
      </trkpt>
      <trkpt lat="45.93663" lon="4.72317">
        <ele>172</ele>
        <time>2018-08-04T09:58:40Z</time>
      </trkpt>
      <trkpt lat="45.93657" lon="4.72311">
        <ele>172</ele>
        <time>2018-08-04T09:58:41Z</time>
      </trkpt>
      <trkpt lat="45.93653" lon="4.72306">
        <ele>172</ele>
        <time>2018-08-04T09:58:42Z</time>
      </trkpt>
      <trkpt lat="45.93648" lon="4.72302">
        <ele>172</ele>
        <time>2018-08-04T09:58:43Z</time>
      </trkpt>
      <trkpt lat="45.93643" lon="4.72295">
        <ele>172</ele>
        <time>2018-08-04T09:58:45Z</time>
      </trkpt>
      <trkpt lat="45.93639" lon="4.72291">
        <ele>172</ele>
        <time>2018-08-04T09:58:46Z</time>
      </trkpt>
      <trkpt lat="45.93634" lon="4.72285">
        <ele>172</ele>
        <time>2018-08-04T09:58:48Z</time>
      </trkpt>
      <trkpt lat="45.93631" lon="4.72281">
        <ele>172</ele>
        <time>2018-08-04T09:58:49Z</time>
      </trkpt>
      <trkpt lat="45.93626" lon="4.72275">
        <ele>172</ele>
        <time>2018-08-04T09:58:50Z</time>
      </trkpt>
      <trkpt lat="45.93623" lon="4.72271">
        <ele>172</ele>
        <time>2018-08-04T09:58:51Z</time>
      </trkpt>
      <trkpt lat="45.93621" lon="4.72268">
        <ele>172</ele>
        <time>2018-08-04T09:58:52Z</time>
      </trkpt>
      <trkpt lat="45.93615" lon="4.72265">
        <ele>172</ele>
        <time>2018-08-04T09:58:53Z</time>
      </trkpt>
      <trkpt lat="45.9361" lon="4.7226">
        <ele>172</ele>
        <time>2018-08-04T09:58:54Z</time>
      </trkpt>
      <trkpt lat="45.93605" lon="4.72258">
        <ele>173</ele>
        <time>2018-08-04T09:58:55Z</time>
      </trkpt>
      <trkpt lat="45.93598" lon="4.72256">
        <ele>173</ele>
        <time>2018-08-04T09:58:57Z</time>
      </trkpt>
      <trkpt lat="45.93594" lon="4.72249">
        <ele>173</ele>
        <time>2018-08-04T09:58:58Z</time>
      </trkpt>
      <trkpt lat="45.93589" lon="4.72241">
        <ele>173</ele>
        <time>2018-08-04T09:59:00Z</time>
      </trkpt>
      <trkpt lat="45.93587" lon="4.72237">
        <ele>173</ele>
        <time>2018-08-04T09:59:01Z</time>
      </trkpt>
      <trkpt lat="45.93581" lon="4.72232">
        <ele>173</ele>
        <time>2018-08-04T09:59:02Z</time>
      </trkpt>
      <trkpt lat="45.93578" lon="4.72229">
        <ele>173</ele>
        <time>2018-08-04T09:59:03Z</time>
      </trkpt>
      <trkpt lat="45.93573" lon="4.72218">
        <ele>173</ele>
        <time>2018-08-04T09:59:07Z</time>
      </trkpt>
      <trkpt lat="45.93572" lon="4.72218">
        <ele>173</ele>
        <time>2018-08-04T09:59:08Z</time>
      </trkpt>
      <trkpt lat="45.93563" lon="4.72216">
        <ele>173</ele>
        <time>2018-08-04T09:59:17Z</time>
      </trkpt>
      <trkpt lat="45.93563" lon="4.72216">
        <ele>173</ele>
        <time>2018-08-04T09:59:18Z</time>
      </trkpt>
      <trkpt lat="45.93555" lon="4.72212">
        <ele>173</ele>
        <time>2018-08-04T09:59:34Z</time>
      </trkpt>
      <trkpt lat="45.93553" lon="4.72212">
        <ele>173</ele>
        <time>2018-08-04T09:59:35Z</time>
      </trkpt>
      <trkpt lat="45.93549" lon="4.72219">
        <ele>172</ele>
        <time>2018-08-04T09:59:38Z</time>
      </trkpt>
      <trkpt lat="45.93547" lon="4.72222">
        <ele>172</ele>
        <time>2018-08-04T09:59:39Z</time>
      </trkpt>
      <trkpt lat="45.93545" lon="4.7223">
        <ele>172</ele>
        <time>2018-08-04T09:59:41Z</time>
      </trkpt>
      <trkpt lat="45.93543" lon="4.72234">
        <ele>172</ele>
        <time>2018-08-04T09:59:42Z</time>
      </trkpt>
      <trkpt lat="45.93542" lon="4.72238">
        <ele>172</ele>
        <time>2018-08-04T09:59:43Z</time>
      </trkpt>
      <trkpt lat="45.93537" lon="4.72251">
        <ele>172</ele>
        <time>2018-08-04T09:59:44Z</time>
      </trkpt>
      <trkpt lat="45.93535" lon="4.72256">
        <ele>172</ele>
        <time>2018-08-04T09:59:45Z</time>
      </trkpt>
      <trkpt lat="45.93533" lon="4.72262">
        <ele>172</ele>
        <time>2018-08-04T09:59:46Z</time>
      </trkpt>
      <trkpt lat="45.93529" lon="4.72274">
        <ele>172</ele>
        <time>2018-08-04T09:59:47Z</time>
      </trkpt>
      <trkpt lat="45.93527" lon="4.7228">
        <ele>172</ele>
        <time>2018-08-04T09:59:48Z</time>
      </trkpt>
      <trkpt lat="45.93523" lon="4.72286">
        <ele>172</ele>
        <time>2018-08-04T09:59:49Z</time>
      </trkpt>
      <trkpt lat="45.9352" lon="4.72293">
        <ele>172</ele>
        <time>2018-08-04T09:59:50Z</time>
      </trkpt>
      <trkpt lat="45.93517" lon="4.72299">
        <ele>172</ele>
        <time>2018-08-04T09:59:51Z</time>
      </trkpt>
      <trkpt lat="45.93514" lon="4.72305">
        <ele>173</ele>
        <time>2018-08-04T09:59:52Z</time>
      </trkpt>
      <trkpt lat="45.93511" lon="4.7231">
        <ele>173</ele>
        <time>2018-08-04T09:59:53Z</time>
      </trkpt>
      <trkpt lat="45.93506" lon="4.7231">
        <ele>173</ele>
        <time>2018-08-04T09:59:54Z</time>
      </trkpt>
      <trkpt lat="45.93501" lon="4.72315">
        <ele>173</ele>
        <time>2018-08-04T09:59:55Z</time>
      </trkpt>
      <trkpt lat="45.93497" lon="4.7232">
        <ele>173</ele>
        <time>2018-08-04T09:59:56Z</time>
      </trkpt>
      <trkpt lat="45.93493" lon="4.72323">
        <ele>173</ele>
        <time>2018-08-04T09:59:57Z</time>
      </trkpt>
      <trkpt lat="45.93489" lon="4.72329">
        <ele>173</ele>
        <time>2018-08-04T09:59:58Z</time>
      </trkpt>
      <trkpt lat="45.93484" lon="4.72333">
        <ele>173</ele>
        <time>2018-08-04T09:59:59Z</time>
      </trkpt>
      <trkpt lat="45.93478" lon="4.7234">
        <ele>173</ele>
        <time>2018-08-04T10:00:00Z</time>
      </trkpt>
      <trkpt lat="45.93474" lon="4.72345">
        <ele>173</ele>
        <time>2018-08-04T10:00:01Z</time>
      </trkpt>
      <trkpt lat="45.93469" lon="4.7235">
        <ele>173</ele>
        <time>2018-08-04T10:00:02Z</time>
      </trkpt>
      <trkpt lat="45.93467" lon="4.72357">
        <ele>173</ele>
        <time>2018-08-04T10:00:03Z</time>
      </trkpt>
      <trkpt lat="45.93462" lon="4.72362">
        <ele>173</ele>
        <time>2018-08-04T10:00:04Z</time>
      </trkpt>
      <trkpt lat="45.93458" lon="4.72366">
        <ele>173</ele>
        <time>2018-08-04T10:00:05Z</time>
      </trkpt>
      <trkpt lat="45.93454" lon="4.7237">
        <ele>173</ele>
        <time>2018-08-04T10:00:06Z</time>
      </trkpt>
      <trkpt lat="45.93453" lon="4.72378">
        <ele>173</ele>
        <time>2018-08-04T10:00:07Z</time>
      </trkpt>
      <trkpt lat="45.93447" lon="4.72382">
        <ele>173</ele>
        <time>2018-08-04T10:00:08Z</time>
      </trkpt>
      <trkpt lat="45.93443" lon="4.72386">
        <ele>173</ele>
        <time>2018-08-04T10:00:09Z</time>
      </trkpt>
      <trkpt lat="45.93439" lon="4.72389">
        <ele>173</ele>
        <time>2018-08-04T10:00:10Z</time>
      </trkpt>
      <trkpt lat="45.93433" lon="4.72394">
        <ele>173</ele>
        <time>2018-08-04T10:00:12Z</time>
      </trkpt>
      <trkpt lat="45.93428" lon="4.72396">
        <ele>174</ele>
        <time>2018-08-04T10:00:13Z</time>
      </trkpt>
      <trkpt lat="45.93421" lon="4.724">
        <ele>174</ele>
        <time>2018-08-04T10:00:14Z</time>
      </trkpt>
      <trkpt lat="45.93416" lon="4.72402">
        <ele>174</ele>
        <time>2018-08-04T10:00:15Z</time>
      </trkpt>
      <trkpt lat="45.93412" lon="4.72404">
        <ele>174</ele>
        <time>2018-08-04T10:00:16Z</time>
      </trkpt>
      <trkpt lat="45.93406" lon="4.72406">
        <ele>174</ele>
        <time>2018-08-04T10:00:17Z</time>
      </trkpt>
      <trkpt lat="45.934" lon="4.72406">
        <ele>174</ele>
        <time>2018-08-04T10:00:18Z</time>
      </trkpt>
      <trkpt lat="45.93395" lon="4.72405">
        <ele>174</ele>
        <time>2018-08-04T10:00:19Z</time>
      </trkpt>
      <trkpt lat="45.93387" lon="4.72409">
        <ele>174</ele>
        <time>2018-08-04T10:00:21Z</time>
      </trkpt>
      <trkpt lat="45.93382" lon="4.72411">
        <ele>174</ele>
        <time>2018-08-04T10:00:22Z</time>
      </trkpt>
      <trkpt lat="45.93381" lon="4.7242">
        <ele>173</ele>
        <time>2018-08-04T10:00:23Z</time>
      </trkpt>
      <trkpt lat="45.93382" lon="4.72428">
        <ele>173</ele>
        <time>2018-08-04T10:00:24Z</time>
      </trkpt>
      <trkpt lat="45.93385" lon="4.72434">
        <ele>173</ele>
        <time>2018-08-04T10:00:25Z</time>
      </trkpt>
      <trkpt lat="45.93388" lon="4.72438">
        <ele>173</ele>
        <time>2018-08-04T10:00:26Z</time>
      </trkpt>
      <trkpt lat="45.9339" lon="4.72444">
        <ele>173</ele>
        <time>2018-08-04T10:00:27Z</time>
      </trkpt>
      <trkpt lat="45.93391" lon="4.72451">
        <ele>173</ele>
        <time>2018-08-04T10:00:28Z</time>
      </trkpt>
      <trkpt lat="45.93389" lon="4.72463">
        <ele>173</ele>
        <time>2018-08-04T10:00:30Z</time>
      </trkpt>
      <trkpt lat="45.93387" lon="4.72469">
        <ele>173</ele>
        <time>2018-08-04T10:00:31Z</time>
      </trkpt>
      <trkpt lat="45.93383" lon="4.72473">
        <ele>173</ele>
        <time>2018-08-04T10:00:32Z</time>
      </trkpt>
      <trkpt lat="45.93379" lon="4.72478">
        <ele>173</ele>
        <time>2018-08-04T10:00:33Z</time>
      </trkpt>
      <trkpt lat="45.93374" lon="4.72482">
        <ele>173</ele>
        <time>2018-08-04T10:00:34Z</time>
      </trkpt>
      <trkpt lat="45.9337" lon="4.72487">
        <ele>173</ele>
        <time>2018-08-04T10:00:35Z</time>
      </trkpt>
      <trkpt lat="45.93365" lon="4.72491">
        <ele>173</ele>
        <time>2018-08-04T10:00:36Z</time>
      </trkpt>
      <trkpt lat="45.93361" lon="4.72496">
        <ele>173</ele>
        <time>2018-08-04T10:00:37Z</time>
      </trkpt>
      <trkpt lat="45.93353" lon="4.72506">
        <ele>172</ele>
        <time>2018-08-04T10:00:38Z</time>
      </trkpt>
      <trkpt lat="45.93347" lon="4.72516">
        <ele>172</ele>
        <time>2018-08-04T10:00:40Z</time>
      </trkpt>
      <trkpt lat="45.93344" lon="4.72517">
        <ele>172</ele>
        <time>2018-08-04T10:00:41Z</time>
      </trkpt>
      <trkpt lat="45.93337" lon="4.72525">
        <ele>172</ele>
        <time>2018-08-04T10:00:43Z</time>
      </trkpt>
      <trkpt lat="45.93333" lon="4.72529">
        <ele>172</ele>
        <time>2018-08-04T10:00:44Z</time>
      </trkpt>
      <trkpt lat="45.93326" lon="4.72536">
        <ele>172</ele>
        <time>2018-08-04T10:00:46Z</time>
      </trkpt>
      <trkpt lat="45.93321" lon="4.72542">
        <ele>172</ele>
        <time>2018-08-04T10:00:47Z</time>
      </trkpt>
      <trkpt lat="45.93315" lon="4.72548">
        <ele>172</ele>
        <time>2018-08-04T10:00:48Z</time>
      </trkpt>
      <trkpt lat="45.9331" lon="4.72554">
        <ele>172</ele>
        <time>2018-08-04T10:00:49Z</time>
      </trkpt>
      <trkpt lat="45.93301" lon="4.7256">
        <ele>172</ele>
        <time>2018-08-04T10:00:50Z</time>
      </trkpt>
      <trkpt lat="45.93297" lon="4.72569">
        <ele>172</ele>
        <time>2018-08-04T10:00:51Z</time>
      </trkpt>
      <trkpt lat="45.93294" lon="4.72573">
        <ele>171</ele>
        <time>2018-08-04T10:00:52Z</time>
      </trkpt>
      <trkpt lat="45.9329" lon="4.72578">
        <ele>171</ele>
        <time>2018-08-04T10:00:53Z</time>
      </trkpt>
      <trkpt lat="45.93286" lon="4.72583">
        <ele>171</ele>
        <time>2018-08-04T10:00:54Z</time>
      </trkpt>
      <trkpt lat="45.93282" lon="4.72588">
        <ele>170</ele>
        <time>2018-08-04T10:00:55Z</time>
      </trkpt>
      <trkpt lat="45.93277" lon="4.72593">
        <ele>170</ele>
        <time>2018-08-04T10:00:56Z</time>
      </trkpt>
      <trkpt lat="45.9327" lon="4.72601">
        <ele>170</ele>
        <time>2018-08-04T10:00:58Z</time>
      </trkpt>
      <trkpt lat="45.93266" lon="4.72605">
        <ele>170</ele>
        <time>2018-08-04T10:00:59Z</time>
      </trkpt>
      <trkpt lat="45.93263" lon="4.7261">
        <ele>170</ele>
        <time>2018-08-04T10:01:00Z</time>
      </trkpt>
      <trkpt lat="45.93256" lon="4.72616">
        <ele>170</ele>
        <time>2018-08-04T10:01:01Z</time>
      </trkpt>
      <trkpt lat="45.93248" lon="4.72623">
        <ele>170</ele>
        <time>2018-08-04T10:01:03Z</time>
      </trkpt>
      <trkpt lat="45.93243" lon="4.72628">
        <ele>170</ele>
        <time>2018-08-04T10:01:04Z</time>
      </trkpt>
      <trkpt lat="45.93239" lon="4.72632">
        <ele>170</ele>
        <time>2018-08-04T10:01:05Z</time>
      </trkpt>
      <trkpt lat="45.93235" lon="4.72637">
        <ele>170</ele>
        <time>2018-08-04T10:01:06Z</time>
      </trkpt>
      <trkpt lat="45.93232" lon="4.72641">
        <ele>170</ele>
        <time>2018-08-04T10:01:07Z</time>
      </trkpt>
      <trkpt lat="45.93227" lon="4.72646">
        <ele>170</ele>
        <time>2018-08-04T10:01:08Z</time>
      </trkpt>
      <trkpt lat="45.93223" lon="4.7265">
        <ele>170</ele>
        <time>2018-08-04T10:01:09Z</time>
      </trkpt>
      <trkpt lat="45.93219" lon="4.72654">
        <ele>170</ele>
        <time>2018-08-04T10:01:10Z</time>
      </trkpt>
      <trkpt lat="45.93213" lon="4.72663">
        <ele>170</ele>
        <time>2018-08-04T10:01:12Z</time>
      </trkpt>
      <trkpt lat="45.93209" lon="4.72669">
        <ele>169</ele>
        <time>2018-08-04T10:01:13Z</time>
      </trkpt>
      <trkpt lat="45.93205" lon="4.72673">
        <ele>169</ele>
        <time>2018-08-04T10:01:14Z</time>
      </trkpt>
      <trkpt lat="45.93202" lon="4.72677">
        <ele>169</ele>
        <time>2018-08-04T10:01:15Z</time>
      </trkpt>
      <trkpt lat="45.93199" lon="4.72682">
        <ele>169</ele>
        <time>2018-08-04T10:01:16Z</time>
      </trkpt>
      <trkpt lat="45.93196" lon="4.72686">
        <ele>169</ele>
        <time>2018-08-04T10:01:17Z</time>
      </trkpt>
      <trkpt lat="45.93191" lon="4.72693">
        <ele>169</ele>
        <time>2018-08-04T10:01:18Z</time>
      </trkpt>
      <trkpt lat="45.93186" lon="4.72698">
        <ele>169</ele>
        <time>2018-08-04T10:01:19Z</time>
      </trkpt>
      <trkpt lat="45.93182" lon="4.72702">
        <ele>169</ele>
        <time>2018-08-04T10:01:20Z</time>
      </trkpt>
      <trkpt lat="45.93179" lon="4.72706">
        <ele>169</ele>
        <time>2018-08-04T10:01:21Z</time>
      </trkpt>
      <trkpt lat="45.93175" lon="4.72711">
        <ele>170</ele>
        <time>2018-08-04T10:01:22Z</time>
      </trkpt>
      <trkpt lat="45.9317" lon="4.72719">
        <ele>170</ele>
        <time>2018-08-04T10:01:23Z</time>
      </trkpt>
      <trkpt lat="45.93166" lon="4.72723">
        <ele>170</ele>
        <time>2018-08-04T10:01:24Z</time>
      </trkpt>
      <trkpt lat="45.93162" lon="4.72726">
        <ele>170</ele>
        <time>2018-08-04T10:01:25Z</time>
      </trkpt>
      <trkpt lat="45.93158" lon="4.72732">
        <ele>170</ele>
        <time>2018-08-04T10:01:26Z</time>
      </trkpt>
      <trkpt lat="45.93154" lon="4.72737">
        <ele>170</ele>
        <time>2018-08-04T10:01:27Z</time>
      </trkpt>
      <trkpt lat="45.93149" lon="4.72741">
        <ele>170</ele>
        <time>2018-08-04T10:01:28Z</time>
      </trkpt>
      <trkpt lat="45.93144" lon="4.72746">
        <ele>170</ele>
        <time>2018-08-04T10:01:29Z</time>
      </trkpt>
      <trkpt lat="45.93141" lon="4.72752">
        <ele>171</ele>
        <time>2018-08-04T10:01:30Z</time>
      </trkpt>
      <trkpt lat="45.93136" lon="4.72761">
        <ele>171</ele>
        <time>2018-08-04T10:01:31Z</time>
      </trkpt>
      <trkpt lat="45.93132" lon="4.72766">
        <ele>171</ele>
        <time>2018-08-04T10:01:32Z</time>
      </trkpt>
      <trkpt lat="45.93127" lon="4.72771">
        <ele>171</ele>
        <time>2018-08-04T10:01:33Z</time>
      </trkpt>
      <trkpt lat="45.93122" lon="4.72775">
        <ele>171</ele>
        <time>2018-08-04T10:01:35Z</time>
      </trkpt>
      <trkpt lat="45.93117" lon="4.72783">
        <ele>171</ele>
        <time>2018-08-04T10:01:36Z</time>
      </trkpt>
      <trkpt lat="45.93113" lon="4.72791">
        <ele>171</ele>
        <time>2018-08-04T10:01:37Z</time>
      </trkpt>
      <trkpt lat="45.93109" lon="4.72796">
        <ele>171</ele>
        <time>2018-08-04T10:01:38Z</time>
      </trkpt>
      <trkpt lat="45.93105" lon="4.72801">
        <ele>171</ele>
        <time>2018-08-04T10:01:39Z</time>
      </trkpt>
      <trkpt lat="45.93099" lon="4.72804">
        <ele>171</ele>
        <time>2018-08-04T10:01:40Z</time>
      </trkpt>
      <trkpt lat="45.93094" lon="4.72809">
        <ele>172</ele>
        <time>2018-08-04T10:01:41Z</time>
      </trkpt>
      <trkpt lat="45.93089" lon="4.72814">
        <ele>172</ele>
        <time>2018-08-04T10:01:42Z</time>
      </trkpt>
      <trkpt lat="45.93085" lon="4.72817">
        <ele>172</ele>
        <time>2018-08-04T10:01:43Z</time>
      </trkpt>
      <trkpt lat="45.9308" lon="4.72822">
        <ele>173</ele>
        <time>2018-08-04T10:01:44Z</time>
      </trkpt>
      <trkpt lat="45.93076" lon="4.72827">
        <ele>173</ele>
        <time>2018-08-04T10:01:45Z</time>
      </trkpt>
      <trkpt lat="45.93043" lon="4.72858">
        <ele>172</ele>
        <time>2018-08-04T10:01:52Z</time>
      </trkpt>
      <trkpt lat="45.93038" lon="4.72869">
        <ele>172</ele>
        <time>2018-08-04T10:01:53Z</time>
      </trkpt>
      <trkpt lat="45.93034" lon="4.72873">
        <ele>172</ele>
        <time>2018-08-04T10:01:54Z</time>
      </trkpt>
      <trkpt lat="45.93029" lon="4.72879">
        <ele>172</ele>
        <time>2018-08-04T10:01:55Z</time>
      </trkpt>
      <trkpt lat="45.93025" lon="4.72885">
        <ele>172</ele>
        <time>2018-08-04T10:01:56Z</time>
      </trkpt>
      <trkpt lat="45.9302" lon="4.72891">
        <ele>172</ele>
        <time>2018-08-04T10:01:57Z</time>
      </trkpt>
      <trkpt lat="45.93018" lon="4.729">
        <ele>172</ele>
        <time>2018-08-04T10:01:58Z</time>
      </trkpt>
      <trkpt lat="45.93014" lon="4.72905">
        <ele>172</ele>
        <time>2018-08-04T10:01:59Z</time>
      </trkpt>
      <trkpt lat="45.93007" lon="4.72911">
        <ele>171</ele>
        <time>2018-08-04T10:02:01Z</time>
      </trkpt>
      <trkpt lat="45.93002" lon="4.72916">
        <ele>171</ele>
        <time>2018-08-04T10:02:02Z</time>
      </trkpt>
      <trkpt lat="45.92998" lon="4.72923">
        <ele>171</ele>
        <time>2018-08-04T10:02:03Z</time>
      </trkpt>
      <trkpt lat="45.92995" lon="4.72927">
        <ele>171</ele>
        <time>2018-08-04T10:02:04Z</time>
      </trkpt>
      <trkpt lat="45.9299" lon="4.72934">
        <ele>171</ele>
        <time>2018-08-04T10:02:05Z</time>
      </trkpt>
      <trkpt lat="45.92988" lon="4.72938">
        <ele>171</ele>
        <time>2018-08-04T10:02:06Z</time>
      </trkpt>
      <trkpt lat="45.92982" lon="4.72944">
        <ele>171</ele>
        <time>2018-08-04T10:02:07Z</time>
      </trkpt>
      <trkpt lat="45.92978" lon="4.72952">
        <ele>171</ele>
        <time>2018-08-04T10:02:08Z</time>
      </trkpt>
      <trkpt lat="45.92973" lon="4.72958">
        <ele>171</ele>
        <time>2018-08-04T10:02:09Z</time>
      </trkpt>
      <trkpt lat="45.92968" lon="4.7296">
        <ele>171</ele>
        <time>2018-08-04T10:02:10Z</time>
      </trkpt>
      <trkpt lat="45.92964" lon="4.72964">
        <ele>171</ele>
        <time>2018-08-04T10:02:11Z</time>
      </trkpt>
      <trkpt lat="45.92961" lon="4.72969">
        <ele>171</ele>
        <time>2018-08-04T10:02:12Z</time>
      </trkpt>
      <trkpt lat="45.92956" lon="4.72973">
        <ele>171</ele>
        <time>2018-08-04T10:02:13Z</time>
      </trkpt>
      <trkpt lat="45.92952" lon="4.72978">
        <ele>171</ele>
        <time>2018-08-04T10:02:14Z</time>
      </trkpt>
      <trkpt lat="45.92946" lon="4.72985">
        <ele>171</ele>
        <time>2018-08-04T10:02:15Z</time>
      </trkpt>
      <trkpt lat="45.92943" lon="4.72995">
        <ele>171</ele>
        <time>2018-08-04T10:02:16Z</time>
      </trkpt>
      <trkpt lat="45.92939" lon="4.72998">
        <ele>171</ele>
        <time>2018-08-04T10:02:17Z</time>
      </trkpt>
      <trkpt lat="45.92935" lon="4.73004">
        <ele>171</ele>
        <time>2018-08-04T10:02:18Z</time>
      </trkpt>
      <trkpt lat="45.9293" lon="4.73009">
        <ele>172</ele>
        <time>2018-08-04T10:02:19Z</time>
      </trkpt>
      <trkpt lat="45.92926" lon="4.73014">
        <ele>172</ele>
        <time>2018-08-04T10:02:20Z</time>
      </trkpt>
      <trkpt lat="45.92922" lon="4.7302">
        <ele>172</ele>
        <time>2018-08-04T10:02:21Z</time>
      </trkpt>
      <trkpt lat="45.92919" lon="4.73023">
        <ele>172</ele>
        <time>2018-08-04T10:02:22Z</time>
      </trkpt>
      <trkpt lat="45.92916" lon="4.73028">
        <ele>172</ele>
        <time>2018-08-04T10:02:23Z</time>
      </trkpt>
      <trkpt lat="45.92911" lon="4.73035">
        <ele>172</ele>
        <time>2018-08-04T10:02:24Z</time>
      </trkpt>
      <trkpt lat="45.92907" lon="4.7304">
        <ele>172</ele>
        <time>2018-08-04T10:02:25Z</time>
      </trkpt>
      <trkpt lat="45.92902" lon="4.73047">
        <ele>172</ele>
        <time>2018-08-04T10:02:26Z</time>
      </trkpt>
      <trkpt lat="45.92898" lon="4.73053">
        <ele>172</ele>
        <time>2018-08-04T10:02:27Z</time>
      </trkpt>
      <trkpt lat="45.92895" lon="4.73058">
        <ele>172</ele>
        <time>2018-08-04T10:02:28Z</time>
      </trkpt>
      <trkpt lat="45.9289" lon="4.73064">
        <ele>172</ele>
        <time>2018-08-04T10:02:29Z</time>
      </trkpt>
      <trkpt lat="45.92886" lon="4.7307">
        <ele>172</ele>
        <time>2018-08-04T10:02:30Z</time>
      </trkpt>
      <trkpt lat="45.92881" lon="4.73077">
        <ele>172</ele>
        <time>2018-08-04T10:02:32Z</time>
      </trkpt>
      <trkpt lat="45.92878" lon="4.73083">
        <ele>172</ele>
        <time>2018-08-04T10:02:33Z</time>
      </trkpt>
      <trkpt lat="45.92875" lon="4.73089">
        <ele>172</ele>
        <time>2018-08-04T10:02:34Z</time>
      </trkpt>
      <trkpt lat="45.92872" lon="4.73093">
        <ele>172</ele>
        <time>2018-08-04T10:02:35Z</time>
      </trkpt>
      <trkpt lat="45.92868" lon="4.73097">
        <ele>172</ele>
        <time>2018-08-04T10:02:36Z</time>
      </trkpt>
      <trkpt lat="45.92864" lon="4.73102">
        <ele>171</ele>
        <time>2018-08-04T10:02:37Z</time>
      </trkpt>
      <trkpt lat="45.92859" lon="4.73106">
        <ele>171</ele>
        <time>2018-08-04T10:02:39Z</time>
      </trkpt>
      <trkpt lat="45.92853" lon="4.73102">
        <ele>171</ele>
        <time>2018-08-04T10:02:40Z</time>
      </trkpt>
      <trkpt lat="45.9285" lon="4.73093">
        <ele>171</ele>
        <time>2018-08-04T10:02:42Z</time>
      </trkpt>
      <trkpt lat="45.9285" lon="4.73086">
        <ele>171</ele>
        <time>2018-08-04T10:02:43Z</time>
      </trkpt>
      <trkpt lat="45.92849" lon="4.73079">
        <ele>171</ele>
        <time>2018-08-04T10:02:44Z</time>
      </trkpt>
      <trkpt lat="45.92849" lon="4.73073">
        <ele>171</ele>
        <time>2018-08-04T10:02:45Z</time>
      </trkpt>
      <trkpt lat="45.92847" lon="4.73067">
        <ele>171</ele>
        <time>2018-08-04T10:02:46Z</time>
      </trkpt>
      <trkpt lat="45.92844" lon="4.73058">
        <ele>171</ele>
        <time>2018-08-04T10:02:47Z</time>
      </trkpt>
      <trkpt lat="45.92843" lon="4.7305">
        <ele>171</ele>
        <time>2018-08-04T10:02:48Z</time>
      </trkpt>
      <trkpt lat="45.92841" lon="4.73042">
        <ele>171</ele>
        <time>2018-08-04T10:02:49Z</time>
      </trkpt>
      <trkpt lat="45.92839" lon="4.73034">
        <ele>171</ele>
        <time>2018-08-04T10:02:50Z</time>
      </trkpt>
      <trkpt lat="45.92838" lon="4.73025">
        <ele>171</ele>
        <time>2018-08-04T10:02:51Z</time>
      </trkpt>
      <trkpt lat="45.92837" lon="4.73018">
        <ele>171</ele>
        <time>2018-08-04T10:02:52Z</time>
      </trkpt>
      <trkpt lat="45.92836" lon="4.7301">
        <ele>170</ele>
        <time>2018-08-04T10:02:53Z</time>
      </trkpt>
      <trkpt lat="45.92834" lon="4.73002">
        <ele>170</ele>
        <time>2018-08-04T10:02:54Z</time>
      </trkpt>
      <trkpt lat="45.92834" lon="4.72995">
        <ele>170</ele>
        <time>2018-08-04T10:02:55Z</time>
      </trkpt>
      <trkpt lat="45.92833" lon="4.72988">
        <ele>170</ele>
        <time>2018-08-04T10:02:56Z</time>
      </trkpt>
      <trkpt lat="45.92831" lon="4.72981">
        <ele>170</ele>
        <time>2018-08-04T10:02:57Z</time>
      </trkpt>
      <trkpt lat="45.92831" lon="4.72974">
        <ele>170</ele>
        <time>2018-08-04T10:02:58Z</time>
      </trkpt>
      <trkpt lat="45.9283" lon="4.72967">
        <ele>170</ele>
        <time>2018-08-04T10:02:59Z</time>
      </trkpt>
      <trkpt lat="45.9283" lon="4.72959">
        <ele>170</ele>
        <time>2018-08-04T10:03:00Z</time>
      </trkpt>
      <trkpt lat="45.92828" lon="4.72951">
        <ele>170</ele>
        <time>2018-08-04T10:03:01Z</time>
      </trkpt>
      <trkpt lat="45.92829" lon="4.72944">
        <ele>170</ele>
        <time>2018-08-04T10:03:02Z</time>
      </trkpt>
      <trkpt lat="45.92828" lon="4.72936">
        <ele>170</ele>
        <time>2018-08-04T10:03:03Z</time>
      </trkpt>
      <trkpt lat="45.92829" lon="4.72927">
        <ele>170</ele>
        <time>2018-08-04T10:03:04Z</time>
      </trkpt>
      <trkpt lat="45.92829" lon="4.7292">
        <ele>170</ele>
        <time>2018-08-04T10:03:05Z</time>
      </trkpt>
      <trkpt lat="45.92827" lon="4.72912">
        <ele>170</ele>
        <time>2018-08-04T10:03:06Z</time>
      </trkpt>
      <trkpt lat="45.92826" lon="4.72905">
        <ele>170</ele>
        <time>2018-08-04T10:03:07Z</time>
      </trkpt>
      <trkpt lat="45.92823" lon="4.72898">
        <ele>170</ele>
        <time>2018-08-04T10:03:08Z</time>
      </trkpt>
      <trkpt lat="45.92822" lon="4.72891">
        <ele>170</ele>
        <time>2018-08-04T10:03:09Z</time>
      </trkpt>
      <trkpt lat="45.92821" lon="4.72885">
        <ele>170</ele>
        <time>2018-08-04T10:03:10Z</time>
      </trkpt>
      <trkpt lat="45.9282" lon="4.72878">
        <ele>170</ele>
        <time>2018-08-04T10:03:11Z</time>
      </trkpt>
      <trkpt lat="45.92819" lon="4.72871">
        <ele>170</ele>
        <time>2018-08-04T10:03:12Z</time>
      </trkpt>
      <trkpt lat="45.92815" lon="4.72863">
        <ele>170</ele>
        <time>2018-08-04T10:03:13Z</time>
      </trkpt>
      <trkpt lat="45.92813" lon="4.72856">
        <ele>170</ele>
        <time>2018-08-04T10:03:14Z</time>
      </trkpt>
      <trkpt lat="45.92814" lon="4.72849">
        <ele>170</ele>
        <time>2018-08-04T10:03:15Z</time>
      </trkpt>
      <trkpt lat="45.92813" lon="4.72839">
        <ele>170</ele>
        <time>2018-08-04T10:03:16Z</time>
      </trkpt>
      <trkpt lat="45.92812" lon="4.72832">
        <ele>171</ele>
        <time>2018-08-04T10:03:17Z</time>
      </trkpt>
      <trkpt lat="45.92811" lon="4.72825">
        <ele>171</ele>
        <time>2018-08-04T10:03:18Z</time>
      </trkpt>
      <trkpt lat="45.92809" lon="4.72818">
        <ele>171</ele>
        <time>2018-08-04T10:03:19Z</time>
      </trkpt>
      <trkpt lat="45.92809" lon="4.72811">
        <ele>171</ele>
        <time>2018-08-04T10:03:20Z</time>
      </trkpt>
      <trkpt lat="45.92807" lon="4.72804">
        <ele>171</ele>
        <time>2018-08-04T10:03:21Z</time>
      </trkpt>
      <trkpt lat="45.92804" lon="4.72792">
        <ele>171</ele>
        <time>2018-08-04T10:03:23Z</time>
      </trkpt>
      <trkpt lat="45.92801" lon="4.72787">
        <ele>171</ele>
        <time>2018-08-04T10:03:24Z</time>
      </trkpt>
      <trkpt lat="45.92793" lon="4.72786">
        <ele>171</ele>
        <time>2018-08-04T10:03:26Z</time>
      </trkpt>
      <trkpt lat="45.9279" lon="4.72787">
        <ele>171</ele>
        <time>2018-08-04T10:03:27Z</time>
      </trkpt>
      <trkpt lat="45.92786" lon="4.72789">
        <ele>170</ele>
        <time>2018-08-04T10:03:28Z</time>
      </trkpt>
      <trkpt lat="45.92781" lon="4.72791">
        <ele>170</ele>
        <time>2018-08-04T10:03:29Z</time>
      </trkpt>
      <trkpt lat="45.92777" lon="4.72796">
        <ele>170</ele>
        <time>2018-08-04T10:03:30Z</time>
      </trkpt>
      <trkpt lat="45.92772" lon="4.72802">
        <ele>170</ele>
        <time>2018-08-04T10:03:31Z</time>
      </trkpt>
      <trkpt lat="45.92768" lon="4.72806">
        <ele>170</ele>
        <time>2018-08-04T10:03:32Z</time>
      </trkpt>
      <trkpt lat="45.92762" lon="4.72812">
        <ele>170</ele>
        <time>2018-08-04T10:03:33Z</time>
      </trkpt>
      <trkpt lat="45.92757" lon="4.72817">
        <ele>170</ele>
        <time>2018-08-04T10:03:34Z</time>
      </trkpt>
      <trkpt lat="45.92752" lon="4.72817">
        <ele>170</ele>
        <time>2018-08-04T10:03:35Z</time>
      </trkpt>
      <trkpt lat="45.92747" lon="4.72821">
        <ele>169</ele>
        <time>2018-08-04T10:03:36Z</time>
      </trkpt>
      <trkpt lat="45.92742" lon="4.72824">
        <ele>169</ele>
        <time>2018-08-04T10:03:37Z</time>
      </trkpt>
      <trkpt lat="45.92737" lon="4.72828">
        <ele>169</ele>
        <time>2018-08-04T10:03:38Z</time>
      </trkpt>
      <trkpt lat="45.92729" lon="4.72835">
        <ele>169</ele>
        <time>2018-08-04T10:03:39Z</time>
      </trkpt>
      <trkpt lat="45.92724" lon="4.72838">
        <ele>169</ele>
        <time>2018-08-04T10:03:40Z</time>
      </trkpt>
      <trkpt lat="45.92721" lon="4.72845">
        <ele>169</ele>
        <time>2018-08-04T10:03:41Z</time>
      </trkpt>
      <trkpt lat="45.92715" lon="4.7285">
        <ele>169</ele>
        <time>2018-08-04T10:03:42Z</time>
      </trkpt>
      <trkpt lat="45.9271" lon="4.7285">
        <ele>169</ele>
        <time>2018-08-04T10:03:43Z</time>
      </trkpt>
      <trkpt lat="45.92704" lon="4.72855">
        <ele>169</ele>
        <time>2018-08-04T10:03:44Z</time>
      </trkpt>
      <trkpt lat="45.92698" lon="4.72859">
        <ele>169</ele>
        <time>2018-08-04T10:03:45Z</time>
      </trkpt>
      <trkpt lat="45.92692" lon="4.72865">
        <ele>169</ele>
        <time>2018-08-04T10:03:46Z</time>
      </trkpt>
      <trkpt lat="45.92687" lon="4.7287">
        <ele>169</ele>
        <time>2018-08-04T10:03:47Z</time>
      </trkpt>
      <trkpt lat="45.92681" lon="4.72873">
        <ele>169</ele>
        <time>2018-08-04T10:03:48Z</time>
      </trkpt>
      <trkpt lat="45.92677" lon="4.72881">
        <ele>170</ele>
        <time>2018-08-04T10:03:49Z</time>
      </trkpt>
      <trkpt lat="45.92672" lon="4.72885">
        <ele>170</ele>
        <time>2018-08-04T10:03:50Z</time>
      </trkpt>
      <trkpt lat="45.92669" lon="4.72888">
        <ele>170</ele>
        <time>2018-08-04T10:03:51Z</time>
      </trkpt>
      <trkpt lat="45.92665" lon="4.72892">
        <ele>170</ele>
        <time>2018-08-04T10:03:52Z</time>
      </trkpt>
      <trkpt lat="45.92659" lon="4.72896">
        <ele>170</ele>
        <time>2018-08-04T10:03:53Z</time>
      </trkpt>
      <trkpt lat="45.92656" lon="4.72898">
        <ele>170</ele>
        <time>2018-08-04T10:03:54Z</time>
      </trkpt>
      <trkpt lat="45.9265" lon="4.72901">
        <ele>170</ele>
        <time>2018-08-04T10:03:55Z</time>
      </trkpt>
      <trkpt lat="45.92645" lon="4.72905">
        <ele>170</ele>
        <time>2018-08-04T10:03:56Z</time>
      </trkpt>
      <trkpt lat="45.92639" lon="4.72908">
        <ele>169</ele>
        <time>2018-08-04T10:03:57Z</time>
      </trkpt>
      <trkpt lat="45.92633" lon="4.72911">
        <ele>169</ele>
        <time>2018-08-04T10:03:58Z</time>
      </trkpt>
      <trkpt lat="45.92628" lon="4.72918">
        <ele>170</ele>
        <time>2018-08-04T10:03:59Z</time>
      </trkpt>
      <trkpt lat="45.92623" lon="4.72918">
        <ele>169</ele>
        <time>2018-08-04T10:04:00Z</time>
      </trkpt>
      <trkpt lat="45.92617" lon="4.72923">
        <ele>169</ele>
        <time>2018-08-04T10:04:01Z</time>
      </trkpt>
      <trkpt lat="45.92613" lon="4.72927">
        <ele>169</ele>
        <time>2018-08-04T10:04:02Z</time>
      </trkpt>
      <trkpt lat="45.92607" lon="4.72933">
        <ele>169</ele>
        <time>2018-08-04T10:04:03Z</time>
      </trkpt>
      <trkpt lat="45.926" lon="4.72941">
        <ele>169</ele>
        <time>2018-08-04T10:04:04Z</time>
      </trkpt>
      <trkpt lat="45.92596" lon="4.72945">
        <ele>169</ele>
        <time>2018-08-04T10:04:05Z</time>
      </trkpt>
      <trkpt lat="45.92591" lon="4.72951">
        <ele>169</ele>
        <time>2018-08-04T10:04:06Z</time>
      </trkpt>
      <trkpt lat="45.92586" lon="4.72957">
        <ele>169</ele>
        <time>2018-08-04T10:04:07Z</time>
      </trkpt>
      <trkpt lat="45.9258" lon="4.72965">
        <ele>169</ele>
        <time>2018-08-04T10:04:08Z</time>
      </trkpt>
      <trkpt lat="45.92575" lon="4.7297">
        <ele>169</ele>
        <time>2018-08-04T10:04:09Z</time>
      </trkpt>
      <trkpt lat="45.9257" lon="4.72976">
        <ele>169</ele>
        <time>2018-08-04T10:04:10Z</time>
      </trkpt>
      <trkpt lat="45.92564" lon="4.7298">
        <ele>169</ele>
        <time>2018-08-04T10:04:11Z</time>
      </trkpt>
      <trkpt lat="45.92559" lon="4.72985">
        <ele>169</ele>
        <time>2018-08-04T10:04:12Z</time>
      </trkpt>
      <trkpt lat="45.92554" lon="4.72991">
        <ele>169</ele>
        <time>2018-08-04T10:04:13Z</time>
      </trkpt>
      <trkpt lat="45.9255" lon="4.72996">
        <ele>169</ele>
        <time>2018-08-04T10:04:14Z</time>
      </trkpt>
      <trkpt lat="45.92545" lon="4.73">
        <ele>169</ele>
        <time>2018-08-04T10:04:15Z</time>
      </trkpt>
      <trkpt lat="45.92541" lon="4.73006">
        <ele>169</ele>
        <time>2018-08-04T10:04:16Z</time>
      </trkpt>
      <trkpt lat="45.92537" lon="4.7301">
        <ele>169</ele>
        <time>2018-08-04T10:04:17Z</time>
      </trkpt>
      <trkpt lat="45.92533" lon="4.73017">
        <ele>169</ele>
        <time>2018-08-04T10:04:18Z</time>
      </trkpt>
      <trkpt lat="45.92525" lon="4.73023">
        <ele>169</ele>
        <time>2018-08-04T10:04:20Z</time>
      </trkpt>
      <trkpt lat="45.9252" lon="4.73029">
        <ele>169</ele>
        <time>2018-08-04T10:04:21Z</time>
      </trkpt>
      <trkpt lat="45.92516" lon="4.73034">
        <ele>169</ele>
        <time>2018-08-04T10:04:22Z</time>
      </trkpt>
      <trkpt lat="45.9251" lon="4.73036">
        <ele>169</ele>
        <time>2018-08-04T10:04:23Z</time>
      </trkpt>
      <trkpt lat="45.92504" lon="4.73039">
        <ele>169</ele>
        <time>2018-08-04T10:04:24Z</time>
      </trkpt>
      <trkpt lat="45.92498" lon="4.73045">
        <ele>170</ele>
        <time>2018-08-04T10:04:25Z</time>
      </trkpt>
      <trkpt lat="45.92493" lon="4.73048">
        <ele>170</ele>
        <time>2018-08-04T10:04:26Z</time>
      </trkpt>
      <trkpt lat="45.92488" lon="4.73052">
        <ele>170</ele>
        <time>2018-08-04T10:04:27Z</time>
      </trkpt>
      <trkpt lat="45.92482" lon="4.73057">
        <ele>170</ele>
        <time>2018-08-04T10:04:28Z</time>
      </trkpt>
      <trkpt lat="45.92477" lon="4.7306">
        <ele>170</ele>
        <time>2018-08-04T10:04:29Z</time>
      </trkpt>
      <trkpt lat="45.92473" lon="4.73061">
        <ele>170</ele>
        <time>2018-08-04T10:04:30Z</time>
      </trkpt>
      <trkpt lat="45.92469" lon="4.73067">
        <ele>170</ele>
        <time>2018-08-04T10:04:31Z</time>
      </trkpt>
      <trkpt lat="45.92465" lon="4.73074">
        <ele>170</ele>
        <time>2018-08-04T10:04:32Z</time>
      </trkpt>
      <trkpt lat="45.9246" lon="4.73079">
        <ele>170</ele>
        <time>2018-08-04T10:04:33Z</time>
      </trkpt>
      <trkpt lat="45.92456" lon="4.73083">
        <ele>170</ele>
        <time>2018-08-04T10:04:34Z</time>
      </trkpt>
      <trkpt lat="45.92451" lon="4.73083">
        <ele>170</ele>
        <time>2018-08-04T10:04:35Z</time>
      </trkpt>
      <trkpt lat="45.92447" lon="4.73091">
        <ele>170</ele>
        <time>2018-08-04T10:04:36Z</time>
      </trkpt>
      <trkpt lat="45.92442" lon="4.73094">
        <ele>170</ele>
        <time>2018-08-04T10:04:37Z</time>
      </trkpt>
      <trkpt lat="45.92436" lon="4.73098">
        <ele>171</ele>
        <time>2018-08-04T10:04:38Z</time>
      </trkpt>
      <trkpt lat="45.92433" lon="4.73103">
        <ele>170</ele>
        <time>2018-08-04T10:04:39Z</time>
      </trkpt>
      <trkpt lat="45.92429" lon="4.73107">
        <ele>170</ele>
        <time>2018-08-04T10:04:40Z</time>
      </trkpt>
      <trkpt lat="45.92424" lon="4.73109">
        <ele>170</ele>
        <time>2018-08-04T10:04:41Z</time>
      </trkpt>
      <trkpt lat="45.9242" lon="4.73112">
        <ele>170</ele>
        <time>2018-08-04T10:04:42Z</time>
      </trkpt>
      <trkpt lat="45.92416" lon="4.73115">
        <ele>171</ele>
        <time>2018-08-04T10:04:43Z</time>
      </trkpt>
      <trkpt lat="45.92413" lon="4.73121">
        <ele>171</ele>
        <time>2018-08-04T10:04:44Z</time>
      </trkpt>
      <trkpt lat="45.9241" lon="4.73126">
        <ele>171</ele>
        <time>2018-08-04T10:04:45Z</time>
      </trkpt>
      <trkpt lat="45.92407" lon="4.73132">
        <ele>171</ele>
        <time>2018-08-04T10:04:46Z</time>
      </trkpt>
      <trkpt lat="45.92406" lon="4.73142">
        <ele>171</ele>
        <time>2018-08-04T10:04:47Z</time>
      </trkpt>
      <trkpt lat="45.92407" lon="4.73148">
        <ele>171</ele>
        <time>2018-08-04T10:04:48Z</time>
      </trkpt>
      <trkpt lat="45.92405" lon="4.73157">
        <ele>170</ele>
        <time>2018-08-04T10:04:49Z</time>
      </trkpt>
      <trkpt lat="45.92405" lon="4.73164">
        <ele>170</ele>
        <time>2018-08-04T10:04:50Z</time>
      </trkpt>
      <trkpt lat="45.92406" lon="4.73174">
        <ele>171</ele>
        <time>2018-08-04T10:04:51Z</time>
      </trkpt>
      <trkpt lat="45.92408" lon="4.73185">
        <ele>171</ele>
        <time>2018-08-04T10:04:52Z</time>
      </trkpt>
      <trkpt lat="45.92408" lon="4.73193">
        <ele>171</ele>
        <time>2018-08-04T10:04:53Z</time>
      </trkpt>
      <trkpt lat="45.92408" lon="4.732">
        <ele>171</ele>
        <time>2018-08-04T10:04:54Z</time>
      </trkpt>
      <trkpt lat="45.92409" lon="4.73208">
        <ele>171</ele>
        <time>2018-08-04T10:04:55Z</time>
      </trkpt>
      <trkpt lat="45.92409" lon="4.73215">
        <ele>171</ele>
        <time>2018-08-04T10:04:56Z</time>
      </trkpt>
      <trkpt lat="45.9241" lon="4.73222">
        <ele>171</ele>
        <time>2018-08-04T10:04:57Z</time>
      </trkpt>
      <trkpt lat="45.92409" lon="4.73229">
        <ele>171</ele>
        <time>2018-08-04T10:04:58Z</time>
      </trkpt>
      <trkpt lat="45.9241" lon="4.73235">
        <ele>171</ele>
        <time>2018-08-04T10:04:59Z</time>
      </trkpt>
      <trkpt lat="45.9241" lon="4.73242">
        <ele>171</ele>
        <time>2018-08-04T10:05:00Z</time>
      </trkpt>
      <trkpt lat="45.9241" lon="4.7325">
        <ele>171</ele>
        <time>2018-08-04T10:05:01Z</time>
      </trkpt>
      <trkpt lat="45.92411" lon="4.73257">
        <ele>171</ele>
        <time>2018-08-04T10:05:02Z</time>
      </trkpt>
      <trkpt lat="45.92412" lon="4.73265">
        <ele>171</ele>
        <time>2018-08-04T10:05:03Z</time>
      </trkpt>
      <trkpt lat="45.92412" lon="4.73272">
        <ele>171</ele>
        <time>2018-08-04T10:05:04Z</time>
      </trkpt>
      <trkpt lat="45.92412" lon="4.73279">
        <ele>171</ele>
        <time>2018-08-04T10:05:05Z</time>
      </trkpt>
      <trkpt lat="45.92413" lon="4.73288">
        <ele>171</ele>
        <time>2018-08-04T10:05:06Z</time>
      </trkpt>
      <trkpt lat="45.92413" lon="4.73295">
        <ele>171</ele>
        <time>2018-08-04T10:05:07Z</time>
      </trkpt>
      <trkpt lat="45.92414" lon="4.73303">
        <ele>171</ele>
        <time>2018-08-04T10:05:08Z</time>
      </trkpt>
      <trkpt lat="45.92414" lon="4.7331">
        <ele>171</ele>
        <time>2018-08-04T10:05:09Z</time>
      </trkpt>
      <trkpt lat="45.92414" lon="4.73319">
        <ele>171</ele>
        <time>2018-08-04T10:05:10Z</time>
      </trkpt>
      <trkpt lat="45.92415" lon="4.73327">
        <ele>171</ele>
        <time>2018-08-04T10:05:11Z</time>
      </trkpt>
      <trkpt lat="45.92416" lon="4.73333">
        <ele>171</ele>
        <time>2018-08-04T10:05:12Z</time>
      </trkpt>
      <trkpt lat="45.9242" lon="4.73344">
        <ele>171</ele>
        <time>2018-08-04T10:05:13Z</time>
      </trkpt>
      <trkpt lat="45.92419" lon="4.73352">
        <ele>171</ele>
        <time>2018-08-04T10:05:14Z</time>
      </trkpt>
      <trkpt lat="45.9242" lon="4.73359">
        <ele>171</ele>
        <time>2018-08-04T10:05:15Z</time>
      </trkpt>
      <trkpt lat="45.9242" lon="4.73366">
        <ele>172</ele>
        <time>2018-08-04T10:05:16Z</time>
      </trkpt>
      <trkpt lat="45.92421" lon="4.73374">
        <ele>172</ele>
        <time>2018-08-04T10:05:17Z</time>
      </trkpt>
      <trkpt lat="45.92421" lon="4.73381">
        <ele>172</ele>
        <time>2018-08-04T10:05:18Z</time>
      </trkpt>
      <trkpt lat="45.92423" lon="4.73388">
        <ele>172</ele>
        <time>2018-08-04T10:05:19Z</time>
      </trkpt>
      <trkpt lat="45.92426" lon="4.73396">
        <ele>172</ele>
        <time>2018-08-04T10:05:20Z</time>
      </trkpt>
      <trkpt lat="45.92429" lon="4.73404">
        <ele>172</ele>
        <time>2018-08-04T10:05:21Z</time>
      </trkpt>
      <trkpt lat="45.92432" lon="4.7341">
        <ele>172</ele>
        <time>2018-08-04T10:05:22Z</time>
      </trkpt>
      <trkpt lat="45.92437" lon="4.73416">
        <ele>172</ele>
        <time>2018-08-04T10:05:23Z</time>
      </trkpt>
      <trkpt lat="45.92441" lon="4.7342">
        <ele>173</ele>
        <time>2018-08-04T10:05:24Z</time>
      </trkpt>
      <trkpt lat="45.92445" lon="4.73424">
        <ele>173</ele>
        <time>2018-08-04T10:05:25Z</time>
      </trkpt>
      <trkpt lat="45.92449" lon="4.73428">
        <ele>173</ele>
        <time>2018-08-04T10:05:26Z</time>
      </trkpt>
      <trkpt lat="45.92454" lon="4.73431">
        <ele>173</ele>
        <time>2018-08-04T10:05:27Z</time>
      </trkpt>
      <trkpt lat="45.92458" lon="4.73438">
        <ele>173</ele>
        <time>2018-08-04T10:05:28Z</time>
      </trkpt>
      <trkpt lat="45.92462" lon="4.73445">
        <ele>173</ele>
        <time>2018-08-04T10:05:29Z</time>
      </trkpt>
      <trkpt lat="45.92464" lon="4.73453">
        <ele>173</ele>
        <time>2018-08-04T10:05:30Z</time>
      </trkpt>
      <trkpt lat="45.92465" lon="4.7346">
        <ele>173</ele>
        <time>2018-08-04T10:05:31Z</time>
      </trkpt>
      <trkpt lat="45.92464" lon="4.73469">
        <ele>173</ele>
        <time>2018-08-04T10:05:32Z</time>
      </trkpt>
      <trkpt lat="45.92463" lon="4.73476">
        <ele>173</ele>
        <time>2018-08-04T10:05:33Z</time>
      </trkpt>
      <trkpt lat="45.92463" lon="4.73484">
        <ele>173</ele>
        <time>2018-08-04T10:05:34Z</time>
      </trkpt>
      <trkpt lat="45.92464" lon="4.73491">
        <ele>173</ele>
        <time>2018-08-04T10:05:35Z</time>
      </trkpt>
      <trkpt lat="45.92464" lon="4.73501">
        <ele>174</ele>
        <time>2018-08-04T10:05:36Z</time>
      </trkpt>
      <trkpt lat="45.92463" lon="4.73509">
        <ele>174</ele>
        <time>2018-08-04T10:05:37Z</time>
      </trkpt>
      <trkpt lat="45.92463" lon="4.73518">
        <ele>174</ele>
        <time>2018-08-04T10:05:38Z</time>
      </trkpt>
      <trkpt lat="45.92464" lon="4.73524">
        <ele>174</ele>
        <time>2018-08-04T10:05:39Z</time>
      </trkpt>
      <trkpt lat="45.92465" lon="4.73531">
        <ele>174</ele>
        <time>2018-08-04T10:05:40Z</time>
      </trkpt>
      <trkpt lat="45.92465" lon="4.73538">
        <ele>174</ele>
        <time>2018-08-04T10:05:41Z</time>
      </trkpt>
      <trkpt lat="45.92464" lon="4.73545">
        <ele>173</ele>
        <time>2018-08-04T10:05:42Z</time>
      </trkpt>
      <trkpt lat="45.92464" lon="4.73552">
        <ele>173</ele>
        <time>2018-08-04T10:05:43Z</time>
      </trkpt>
      <trkpt lat="45.92464" lon="4.73559">
        <ele>173</ele>
        <time>2018-08-04T10:05:44Z</time>
      </trkpt>
      <trkpt lat="45.92464" lon="4.73566">
        <ele>173</ele>
        <time>2018-08-04T10:05:45Z</time>
      </trkpt>
      <trkpt lat="45.92464" lon="4.73574">
        <ele>173</ele>
        <time>2018-08-04T10:05:46Z</time>
      </trkpt>
      <trkpt lat="45.92463" lon="4.73584">
        <ele>174</ele>
        <time>2018-08-04T10:05:47Z</time>
      </trkpt>
      <trkpt lat="45.92463" lon="4.73593">
        <ele>174</ele>
        <time>2018-08-04T10:05:48Z</time>
      </trkpt>
      <trkpt lat="45.92465" lon="4.736">
        <ele>174</ele>
        <time>2018-08-04T10:05:49Z</time>
      </trkpt>
      <trkpt lat="45.92465" lon="4.73607">
        <ele>174</ele>
        <time>2018-08-04T10:05:50Z</time>
      </trkpt>
      <trkpt lat="45.92467" lon="4.73617">
        <ele>174</ele>
        <time>2018-08-04T10:05:51Z</time>
      </trkpt>
      <trkpt lat="45.92468" lon="4.73627">
        <ele>174</ele>
        <time>2018-08-04T10:05:52Z</time>
      </trkpt>
      <trkpt lat="45.9247" lon="4.73637">
        <ele>174</ele>
        <time>2018-08-04T10:05:53Z</time>
      </trkpt>
      <trkpt lat="45.9247" lon="4.73645">
        <ele>174</ele>
        <time>2018-08-04T10:05:54Z</time>
      </trkpt>
      <trkpt lat="45.92471" lon="4.73653">
        <ele>174</ele>
        <time>2018-08-04T10:05:55Z</time>
      </trkpt>
      <trkpt lat="45.92471" lon="4.73661">
        <ele>174</ele>
        <time>2018-08-04T10:05:56Z</time>
      </trkpt>
      <trkpt lat="45.92471" lon="4.73667">
        <ele>174</ele>
        <time>2018-08-04T10:05:57Z</time>
      </trkpt>
      <trkpt lat="45.92469" lon="4.73674">
        <ele>174</ele>
        <time>2018-08-04T10:05:58Z</time>
      </trkpt>
      <trkpt lat="45.92469" lon="4.73682">
        <ele>174</ele>
        <time>2018-08-04T10:05:59Z</time>
      </trkpt>
      <trkpt lat="45.92469" lon="4.73691">
        <ele>174</ele>
        <time>2018-08-04T10:06:00Z</time>
      </trkpt>
      <trkpt lat="45.92469" lon="4.73698">
        <ele>174</ele>
        <time>2018-08-04T10:06:01Z</time>
      </trkpt>
      <trkpt lat="45.92467" lon="4.73709">
        <ele>174</ele>
        <time>2018-08-04T10:06:04Z</time>
      </trkpt>
      <trkpt lat="45.92466" lon="4.73711">
        <ele>174</ele>
        <time>2018-08-04T10:06:05Z</time>
      </trkpt>
      <trkpt lat="45.92465" lon="4.73712">
        <ele>174</ele>
        <time>2018-08-04T10:06:06Z</time>
      </trkpt>
      <trkpt lat="45.92464" lon="4.73713">
        <ele>174</ele>
        <time>2018-08-04T10:06:07Z</time>
      </trkpt>
      <trkpt lat="45.92462" lon="4.7371">
        <ele>174</ele>
        <time>2018-08-04T10:06:39.946Z</time>
      </trkpt>
    </trkseg>
  </trk>
</gpx>